<?xml version='1.0' encoding='UTF-8'?><gpx version="1.1" creator="JPX - https://github.com/jenetics/jpx" xmlns="http://www.topografix.com/GPX/1/1"><trk><trkseg><trkpt lat="45.18956713368698" lon="7.964359537737195"><ele>173.0</ele><time>2026-04-12T09:06:22.998Z</time></trkpt><trkpt lat="45.18959470966788" lon="7.964477567666894"><ele>173.0</ele><time>2026-04-12T09:06:24.998Z</time></trkpt><trkpt lat="45.18962564651309" lon="7.964556738337936"><ele>173.0</ele><time>2026-04-12T09:06:26.998Z</time></trkpt><trkpt lat="45.189672694937954" lon="7.964619710771151"><ele>173.0</ele><time>2026-04-12T09:06:28.998Z</time></trkpt><trkpt lat="45.189668227286454" lon="7.964715399784305"><ele>173.0</ele><time>2026-04-12T09:06:31.998Z</time></trkpt><trkpt lat="45.18969297780518" lon="7.964919401917686"><ele>173.0</ele><time>2026-04-12T09:06:38.997Z</time></trkpt><trkpt lat="45.1897016124662" lon="7.965072319154145"><ele>173.0</ele><time>2026-04-12T09:06:40.997Z</time></trkpt><trkpt lat="45.1897077635466" lon="7.965164822271236"><ele>173.0</ele><time>2026-04-12T09:06:41.997Z</time></trkpt><trkpt lat="45.189659662146155" lon="7.965229883868636"><ele>173.0</ele><time>2026-04-12T09:06:42.997Z</time></trkpt><trkpt lat="45.18965446535452" lon="7.965345925178613"><ele>173.0</ele><time>2026-04-12T09:06:43.997Z</time></trkpt><trkpt lat="45.18964785123128" lon="7.965492976361793"><ele>173.0</ele><time>2026-04-12T09:06:45.997Z</time></trkpt><trkpt lat="45.18964363727574" lon="7.965584896760495"><ele>173.0</ele><time>2026-04-12T09:06:46.997Z</time></trkpt><trkpt lat="45.18963860368253" lon="7.965694695613504"><ele>173.4</ele><time>2026-04-12T09:06:47.997Z</time></trkpt><trkpt lat="45.189630377735" lon="7.965874959846779"><ele>173.8</ele><time>2026-04-12T09:06:49.997Z</time></trkpt><trkpt lat="45.189620959675054" lon="7.966037396347953"><ele>174.2</ele><time>2026-04-12T09:06:51.997Z</time></trkpt><trkpt lat="45.18961446628142" lon="7.966140870376167"><ele>174.6</ele><time>2026-04-12T09:06:54.997Z</time></trkpt><trkpt lat="45.18960572481226" lon="7.966280167397039"><ele>175.0</ele><time>2026-04-12T09:06:57.997Z</time></trkpt><trkpt lat="45.189600633372564" lon="7.966372880169045"><ele>175.0</ele><time>2026-04-12T09:06:58.997Z</time></trkpt><trkpt lat="45.18959581009875" lon="7.966487423302689"><ele>175.0</ele><time>2026-04-12T09:06:59.997Z</time></trkpt><trkpt lat="45.18959013283043" lon="7.96662027634068"><ele>175.0</ele><time>2026-04-12T09:07:00.997Z</time></trkpt><trkpt lat="45.189595512813426" lon="7.966750579419128"><ele>175.0</ele><time>2026-04-12T09:07:01.997Z</time></trkpt><trkpt lat="45.18958083536418" lon="7.966837845294826"><ele>175.0</ele><time>2026-04-12T09:07:03.999Z</time></trkpt><trkpt lat="45.18956328221585" lon="7.966993239126061"><ele>175.0</ele><time>2026-04-12T09:07:05.999Z</time></trkpt><trkpt lat="45.18954966963276" lon="7.967119222768381"><ele>174.83333333333334</ele><time>2026-04-12T09:07:07.999Z</time></trkpt><trkpt lat="45.18955068685767" lon="7.967225418210655"><ele>174.66666666666669</ele><time>2026-04-12T09:07:08.999Z</time></trkpt><trkpt lat="45.18956177809976" lon="7.9673923353681575"><ele>174.5</ele><time>2026-04-12T09:07:11Z</time></trkpt><trkpt lat="45.1895534342901" lon="7.967496133970743"><ele>174.33333333333334</ele><time>2026-04-12T09:07:12Z</time></trkpt><trkpt lat="45.18955048993817" lon="7.967611891290455"><ele>174.16666666666666</ele><time>2026-04-12T09:07:13Z</time></trkpt><trkpt lat="45.189549607556344" lon="7.967732103171972"><ele>174.0</ele><time>2026-04-12T09:07:14Z</time></trkpt><trkpt lat="45.18953820092142" lon="7.967854574547725"><ele>173.79999999999998</ele><time>2026-04-12T09:07:15Z</time></trkpt><trkpt lat="45.189531513293375" lon="7.968006151094978"><ele>173.6</ele><time>2026-04-12T09:07:17Z</time></trkpt><trkpt lat="45.1895259317042" lon="7.968102416150686"><ele>173.4</ele><time>2026-04-12T09:07:18Z</time></trkpt><trkpt lat="45.18953265478145" lon="7.968257245294172"><ele>173.2</ele><time>2026-04-12T09:07:20Z</time></trkpt><trkpt lat="45.189523315181795" lon="7.968353441235476"><ele>173.0</ele><time>2026-04-12T09:07:22.999Z</time></trkpt><trkpt lat="45.189647716118095" lon="7.968415847018986"><ele>173.0</ele><time>2026-04-12T09:07:23.999Z</time></trkpt><trkpt lat="45.18971525741882" lon="7.968474107885431"><ele>173.0</ele><time>2026-04-12T09:07:25.999Z</time></trkpt><trkpt lat="45.189730284407666" lon="7.968563104828367"><ele>173.0</ele><time>2026-04-12T09:07:28.999Z</time></trkpt><trkpt lat="45.18969268334255" lon="7.968445528564445"><ele>173.0</ele><time>2026-04-12T09:07:52.999Z</time></trkpt><trkpt lat="45.189627375757766" lon="7.968372826803278"><ele>173.0</ele><time>2026-04-12T09:07:54.999Z</time></trkpt><trkpt lat="45.18954631004581" lon="7.9683307887519375"><ele>173.0</ele><time>2026-04-12T09:07:57.999Z</time></trkpt><trkpt lat="45.18948298582068" lon="7.968273792625935"><ele>173.0</ele><time>2026-04-12T09:08:00.999Z</time></trkpt><trkpt lat="45.18954340039883" lon="7.9679043659798605"><ele>173.0</ele><time>2026-04-12T09:08:02.998Z</time></trkpt><trkpt lat="45.18959953153733" lon="7.967822349499084"><ele>173.0</ele><time>2026-04-12T09:08:05.998Z</time></trkpt><trkpt lat="45.18970412904077" lon="7.967825548066491"><ele>173.0</ele><time>2026-04-12T09:08:07.998Z</time></trkpt><trkpt lat="45.18977120190926" lon="7.967827662344809"><ele>173.0</ele><time>2026-04-12T09:08:08.998Z</time></trkpt><trkpt lat="45.18984712533144" lon="7.96783905759113"><ele>173.0</ele><time>2026-04-12T09:08:09.998Z</time></trkpt><trkpt lat="45.18993051963912" lon="7.967847364250291"><ele>173.0</ele><time>2026-04-12T09:08:10.998Z</time></trkpt><trkpt lat="45.19002619408199" lon="7.967846993363651"><ele>173.0</ele><time>2026-04-12T09:08:11.998Z</time></trkpt><trkpt lat="45.190134777645525" lon="7.967846081601835"><ele>173.0</ele><time>2026-04-12T09:08:12.998Z</time></trkpt><trkpt lat="45.19024848891429" lon="7.967848905328529"><ele>172.8</ele><time>2026-04-12T09:08:13.998Z</time></trkpt><trkpt lat="45.19036250421655" lon="7.9678547420998"><ele>172.60000000000002</ele><time>2026-04-12T09:08:14.998Z</time></trkpt><trkpt lat="45.19047100488369" lon="7.967877463978526"><ele>172.39999999999998</ele><time>2026-04-12T09:08:15.998Z</time></trkpt><trkpt lat="45.190570625128714" lon="7.967870044461412"><ele>172.2</ele><time>2026-04-12T09:08:16.998Z</time></trkpt><trkpt lat="45.19066673323175" lon="7.967866190762571"><ele>172.0</ele><time>2026-04-12T09:08:17.998Z</time></trkpt><trkpt lat="45.19075720422422" lon="7.967876783981997"><ele>172.0</ele><time>2026-04-12T09:08:18.998Z</time></trkpt><trkpt lat="45.190846650690965" lon="7.967869561010575"><ele>172.0</ele><time>2026-04-12T09:08:19.998Z</time></trkpt><trkpt lat="45.19099525671575" lon="7.967864565817999"><ele>172.0</ele><time>2026-04-12T09:08:21.998Z</time></trkpt><trkpt lat="45.19107456877354" lon="7.967897423723716"><ele>172.0</ele><time>2026-04-12T09:08:22.998Z</time></trkpt><trkpt lat="45.19116496196738" lon="7.967911190306754"><ele>172.0</ele><time>2026-04-12T09:08:24.998Z</time></trkpt><trkpt lat="45.19128354664387" lon="7.967647654628734"><ele>172.0</ele><time>2026-04-12T09:08:28.998Z</time></trkpt><trkpt lat="45.19129384226429" lon="7.967513256343817"><ele>172.0</ele><time>2026-04-12T09:08:29.998Z</time></trkpt><trkpt lat="45.19128382281347" lon="7.967345552793676"><ele>172.0</ele><time>2026-04-12T09:08:30.998Z</time></trkpt><trkpt lat="45.19128726579849" lon="7.96723434453398"><ele>172.0</ele><time>2026-04-12T09:08:31.998Z</time></trkpt><trkpt lat="45.19127834972151" lon="7.967135237454165"><ele>172.0</ele><time>2026-04-12T09:08:33.998Z</time></trkpt><trkpt lat="45.19141525288952" lon="7.9671001007935"><ele>171.75</ele><time>2026-04-12T09:08:36.998Z</time></trkpt><trkpt lat="45.191512144187904" lon="7.9671035570104465"><ele>171.5</ele><time>2026-04-12T09:08:37.998Z</time></trkpt><trkpt lat="45.19162876829627" lon="7.967131999311819"><ele>171.25</ele><time>2026-04-12T09:08:38.997Z</time></trkpt><trkpt lat="45.191785346676745" lon="7.967102351985398"><ele>171.0</ele><time>2026-04-12T09:08:39.997Z</time></trkpt><trkpt lat="45.19194771659078" lon="7.967104303877207"><ele>171.0</ele><time>2026-04-12T09:08:40.997Z</time></trkpt><trkpt lat="45.19212243908419" lon="7.967102105565093"><ele>171.0</ele><time>2026-04-12T09:08:41.997Z</time></trkpt><trkpt lat="45.192303899731144" lon="7.967104958182271"><ele>171.0</ele><time>2026-04-12T09:08:42.997Z</time></trkpt><trkpt lat="45.192491645456954" lon="7.967134020738185"><ele>172.0</ele><time>2026-04-12T09:08:43.997Z</time></trkpt><trkpt lat="45.19265788587543" lon="7.967128633181956"><ele>173.0</ele><time>2026-04-12T09:08:44.997Z</time></trkpt><trkpt lat="45.19283042347478" lon="7.967150480104173"><ele>174.0</ele><time>2026-04-12T09:08:45.997Z</time></trkpt><trkpt lat="45.19298401128162" lon="7.9672003204388195"><ele>174.0</ele><time>2026-04-12T09:08:46.997Z</time></trkpt><trkpt lat="45.19313143934253" lon="7.967250371449571"><ele>174.0</ele><time>2026-04-12T09:08:47.997Z</time></trkpt><trkpt lat="45.19326090367373" lon="7.967297476112681"><ele>174.0</ele><time>2026-04-12T09:08:48.997Z</time></trkpt><trkpt lat="45.1934082195619" lon="7.967337568001071"><ele>174.0</ele><time>2026-04-12T09:08:49.997Z</time></trkpt><trkpt lat="45.193565514885485" lon="7.967390849461725"><ele>174.66666666666666</ele><time>2026-04-12T09:08:50.997Z</time></trkpt><trkpt lat="45.19373377814659" lon="7.967436749136257"><ele>175.33333333333331</ele><time>2026-04-12T09:08:51.997Z</time></trkpt><trkpt lat="45.19387723998474" lon="7.967481726391735"><ele>176.0</ele><time>2026-04-12T09:08:52.997Z</time></trkpt><trkpt lat="45.19401496367383" lon="7.967523263846502"><ele>176.66666666666666</ele><time>2026-04-12T09:08:53.997Z</time></trkpt><trkpt lat="45.1941749213667" lon="7.967571234681408"><ele>177.33333333333334</ele><time>2026-04-12T09:08:54.997Z</time></trkpt><trkpt lat="45.19434247889132" lon="7.967621015761506"><ele>178.0</ele><time>2026-04-12T09:08:55.997Z</time></trkpt><trkpt lat="45.194522074713646" lon="7.967669399214927"><ele>178.0</ele><time>2026-04-12T09:08:56.997Z</time></trkpt><trkpt lat="45.19470872167355" lon="7.967713512273597"><ele>178.0</ele><time>2026-04-12T09:08:57.997Z</time></trkpt><trkpt lat="45.19490106875798" lon="7.967783840956358"><ele>178.0</ele><time>2026-04-12T09:08:58.997Z</time></trkpt><trkpt lat="45.195108778085995" lon="7.9678570146448315"><ele>177.0</ele><time>2026-04-12T09:08:59.997Z</time></trkpt><trkpt lat="45.19534644434072" lon="7.967905238860953"><ele>176.0</ele><time>2026-04-12T09:09:00.997Z</time></trkpt><trkpt lat="45.19557211169571" lon="7.967958460109173"><ele>178.0</ele><time>2026-04-12T09:09:01.997Z</time></trkpt><trkpt lat="45.19581157824773" lon="7.968015311417435"><ele>180.0</ele><time>2026-04-12T09:09:02.997Z</time></trkpt><trkpt lat="45.196061574858724" lon="7.96807258063214"><ele>180.0</ele><time>2026-04-12T09:09:03.997Z</time></trkpt><trkpt lat="45.19632422559659" lon="7.968137197655906"><ele>180.0</ele><time>2026-04-12T09:09:04.997Z</time></trkpt><trkpt lat="45.19660167153378" lon="7.968209946660227"><ele>178.5</ele><time>2026-04-12T09:09:05.997Z</time></trkpt><trkpt lat="45.196890573293594" lon="7.968281940792237"><ele>177.0</ele><time>2026-04-12T09:09:06.997Z</time></trkpt><trkpt lat="45.19715472459118" lon="7.968361229880636"><ele>178.0</ele><time>2026-04-12T09:09:07.997Z</time></trkpt><trkpt lat="45.19741780650743" lon="7.968428441793529"><ele>179.0</ele><time>2026-04-12T09:09:09Z</time></trkpt><trkpt lat="45.19766434402529" lon="7.9684895362814"><ele>179.0</ele><time>2026-04-12T09:09:10Z</time></trkpt><trkpt lat="45.19790363872678" lon="7.968553335522469"><ele>179.0</ele><time>2026-04-12T09:09:11Z</time></trkpt><trkpt lat="45.198154726819936" lon="7.968618316649064"><ele>178.5</ele><time>2026-04-12T09:09:12Z</time></trkpt><trkpt lat="45.19840640996576" lon="7.968684282799098"><ele>178.0</ele><time>2026-04-12T09:09:13Z</time></trkpt><trkpt lat="45.1986552941827" lon="7.968748149380537"><ele>178.0</ele><time>2026-04-12T09:09:14Z</time></trkpt><trkpt lat="45.198894554037295" lon="7.968814979663381"><ele>178.0</ele><time>2026-04-12T09:09:15Z</time></trkpt><trkpt lat="45.199144506403755" lon="7.968879533701042"><ele>177.0</ele><time>2026-04-12T09:09:16Z</time></trkpt><trkpt lat="45.19939713744115" lon="7.968940133746184"><ele>176.0</ele><time>2026-04-12T09:09:17Z</time></trkpt><trkpt lat="45.1996513381387" lon="7.968990009009071"><ele>176.5</ele><time>2026-04-12T09:09:18Z</time></trkpt><trkpt lat="45.19990416360338" lon="7.969033240695813"><ele>177.0</ele><time>2026-04-12T09:09:19Z</time></trkpt><trkpt lat="45.200159497665865" lon="7.969075331993446"><ele>177.0</ele><time>2026-04-12T09:09:20Z</time></trkpt><trkpt lat="45.200423251206274" lon="7.969108602019436"><ele>177.0</ele><time>2026-04-12T09:09:21Z</time></trkpt><trkpt lat="45.200697249653125" lon="7.969148818234899"><ele>177.0</ele><time>2026-04-12T09:09:22Z</time></trkpt><trkpt lat="45.20096924357479" lon="7.969192317556322"><ele>177.0</ele><time>2026-04-12T09:09:23Z</time></trkpt><trkpt lat="45.201251706102624" lon="7.969235896064181"><ele>177.5</ele><time>2026-04-12T09:09:24Z</time></trkpt><trkpt lat="45.20152599433153" lon="7.969277987620485"><ele>178.0</ele><time>2026-04-12T09:09:25Z</time></trkpt><trkpt lat="45.20177860202875" lon="7.96932346448848"><ele>178.0</ele><time>2026-04-12T09:09:26Z</time></trkpt><trkpt lat="45.2020253699324" lon="7.969362426212484"><ele>178.0</ele><time>2026-04-12T09:09:27Z</time></trkpt><trkpt lat="45.202257213110954" lon="7.969399154303408"><ele>179.5</ele><time>2026-04-12T09:09:28Z</time></trkpt><trkpt lat="45.202479721109235" lon="7.969433955436026"><ele>181.0</ele><time>2026-04-12T09:09:29Z</time></trkpt><trkpt lat="45.20270878064982" lon="7.969448442128706"><ele>181.0</ele><time>2026-04-12T09:09:30Z</time></trkpt><trkpt lat="45.202940722615764" lon="7.969491812906425"><ele>181.0</ele><time>2026-04-12T09:09:31Z</time></trkpt><trkpt lat="45.2031606282688" lon="7.969528706859781"><ele>181.66666666666669</ele><time>2026-04-12T09:09:32Z</time></trkpt><trkpt lat="45.20337762025656" lon="7.969565511960989"><ele>182.33333333333334</ele><time>2026-04-12T09:09:33Z</time></trkpt><trkpt lat="45.20359111813046" lon="7.969602329335178"><ele>183.0</ele><time>2026-04-12T09:09:34Z</time></trkpt><trkpt lat="45.20380999472488" lon="7.969643427504423"><ele>182.33333333333334</ele><time>2026-04-12T09:09:34.999Z</time></trkpt><trkpt lat="45.204021296833446" lon="7.9696761200036"><ele>181.66666666666669</ele><time>2026-04-12T09:09:35.999Z</time></trkpt><trkpt lat="45.204233168524084" lon="7.969707785449691"><ele>181.0</ele><time>2026-04-12T09:09:36.999Z</time></trkpt><trkpt lat="45.2044475445099" lon="7.969743662575062"><ele>181.0</ele><time>2026-04-12T09:09:37.999Z</time></trkpt><trkpt lat="45.20467734103" lon="7.96977902498148"><ele>181.0</ele><time>2026-04-12T09:09:38.999Z</time></trkpt><trkpt lat="45.20491820853725" lon="7.9698111220107295"><ele>180.5</ele><time>2026-04-12T09:09:39.999Z</time></trkpt><trkpt lat="45.20517110469478" lon="7.969845824938755"><ele>180.0</ele><time>2026-04-12T09:09:40.999Z</time></trkpt><trkpt lat="45.205427622302025" lon="7.969883209903862"><ele>180.0</ele><time>2026-04-12T09:09:41.999Z</time></trkpt><trkpt lat="45.20569324844438" lon="7.969926194654898"><ele>180.0</ele><time>2026-04-12T09:09:42.999Z</time></trkpt><trkpt lat="45.20597249297475" lon="7.9699741361833505"><ele>180.0</ele><time>2026-04-12T09:09:43.999Z</time></trkpt><trkpt lat="45.206254397966376" lon="7.970019047970453"><ele>180.0</ele><time>2026-04-12T09:09:44.999Z</time></trkpt><trkpt lat="45.20653722040848" lon="7.970061084321867"><ele>180.0</ele><time>2026-04-12T09:09:45.999Z</time></trkpt><trkpt lat="45.206821357575045" lon="7.9701094954277325"><ele>180.0</ele><time>2026-04-12T09:09:46.999Z</time></trkpt><trkpt lat="45.207100355977666" lon="7.970157411973332"><ele>180.0</ele><time>2026-04-12T09:09:47.999Z</time></trkpt><trkpt lat="45.207381450730665" lon="7.970202792183785"><ele>180.0</ele><time>2026-04-12T09:09:48.999Z</time></trkpt><trkpt lat="45.20765764508793" lon="7.970242995284943"><ele>180.0</ele><time>2026-04-12T09:09:49.999Z</time></trkpt><trkpt lat="45.20792543231516" lon="7.970283989987026"><ele>180.0</ele><time>2026-04-12T09:09:50.999Z</time></trkpt><trkpt lat="45.20818426598575" lon="7.9703256412357675"><ele>180.5</ele><time>2026-04-12T09:09:51.999Z</time></trkpt><trkpt lat="45.208434872183624" lon="7.970363486369761"><ele>181.0</ele><time>2026-04-12T09:09:52.999Z</time></trkpt><trkpt lat="45.208677141650114" lon="7.970396510149936"><ele>181.0</ele><time>2026-04-12T09:09:53.999Z</time></trkpt><trkpt lat="45.20891264891966" lon="7.970422763130296"><ele>181.0</ele><time>2026-04-12T09:09:54.999Z</time></trkpt><trkpt lat="45.20913118680485" lon="7.970449164281671"><ele>182.0</ele><time>2026-04-12T09:09:55.999Z</time></trkpt><trkpt lat="45.20932744141949" lon="7.970465751641841"><ele>183.0</ele><time>2026-04-12T09:09:56.999Z</time></trkpt><trkpt lat="45.20950418030949" lon="7.970500194853307"><ele>184.0</ele><time>2026-04-12T09:09:57.999Z</time></trkpt><trkpt lat="45.20965437609962" lon="7.970542286174797"><ele>184.0</ele><time>2026-04-12T09:09:58.999Z</time></trkpt><trkpt lat="45.20979320441019" lon="7.970579552770353"><ele>184.0</ele><time>2026-04-12T09:09:59.999Z</time></trkpt><trkpt lat="45.209918568355484" lon="7.970603926258728"><ele>184.0</ele><time>2026-04-12T09:10:00.999Z</time></trkpt><trkpt lat="45.21001030776258" lon="7.970632761195585"><ele>184.0</ele><time>2026-04-12T09:10:01.999Z</time></trkpt><trkpt lat="45.21008788137612" lon="7.97067298700339"><ele>184.0</ele><time>2026-04-12T09:10:02.999Z</time></trkpt><trkpt lat="45.21014482039538" lon="7.970747267465579"><ele>183.79999999999998</ele><time>2026-04-12T09:10:03.999Z</time></trkpt><trkpt lat="45.21020108319965" lon="7.970839561608013"><ele>183.6</ele><time>2026-04-12T09:10:04.999Z</time></trkpt><trkpt lat="45.210272943852615" lon="7.970919640169736"><ele>183.4</ele><time>2026-04-12T09:10:05.999Z</time></trkpt><trkpt lat="45.21035522712226" lon="7.970995632900275"><ele>183.2</ele><time>2026-04-12T09:10:06.999Z</time></trkpt><trkpt lat="45.21041567246533" lon="7.971099909462736"><ele>183.0</ele><time>2026-04-12T09:10:07.999Z</time></trkpt><trkpt lat="45.21045998815859" lon="7.971257598073049"><ele>182.75</ele><time>2026-04-12T09:10:08.999Z</time></trkpt><trkpt lat="45.21049118678138" lon="7.971438970381326"><ele>182.5</ele><time>2026-04-12T09:10:09.999Z</time></trkpt><trkpt lat="45.210531029496146" lon="7.971591461024681"><ele>182.25</ele><time>2026-04-12T09:10:10.999Z</time></trkpt><trkpt lat="45.21059490512015" lon="7.971726487451729"><ele>182.0</ele><time>2026-04-12T09:10:11.999Z</time></trkpt><trkpt lat="45.210683399639365" lon="7.971846066823461"><ele>182.0</ele><time>2026-04-12T09:10:12.998Z</time></trkpt><trkpt lat="45.21079666768996" lon="7.9719524614655155"><ele>182.0</ele><time>2026-04-12T09:10:13.998Z</time></trkpt><trkpt lat="45.21093042846473" lon="7.972029872926977"><ele>182.0</ele><time>2026-04-12T09:10:14.998Z</time></trkpt><trkpt lat="45.21109504696203" lon="7.972074969848403"><ele>182.0</ele><time>2026-04-12T09:10:15.998Z</time></trkpt><trkpt lat="45.21127802077757" lon="7.972098710597292"><ele>182.0</ele><time>2026-04-12T09:10:16.998Z</time></trkpt><trkpt lat="45.211489817841496" lon="7.972117416541653"><ele>182.0</ele><time>2026-04-12T09:10:17.998Z</time></trkpt><trkpt lat="45.211726525460165" lon="7.972152077508484"><ele>185.0</ele><time>2026-04-12T09:10:18.998Z</time></trkpt><trkpt lat="45.21199525225404" lon="7.9721896759201405"><ele>188.0</ele><time>2026-04-12T09:10:19.998Z</time></trkpt><trkpt lat="45.21223989011394" lon="7.972230178852624"><ele>186.66666666666666</ele><time>2026-04-12T09:10:20.998Z</time></trkpt><trkpt lat="45.21245939718521" lon="7.972271914019962"><ele>185.33333333333334</ele><time>2026-04-12T09:10:21.998Z</time></trkpt><trkpt lat="45.21265752876855" lon="7.9723107854015325"><ele>184.0</ele><time>2026-04-12T09:10:22.998Z</time></trkpt><trkpt lat="45.2128458504598" lon="7.972350155209179"><ele>184.0</ele><time>2026-04-12T09:10:23.998Z</time></trkpt><trkpt lat="45.21303603934152" lon="7.97235082927312"><ele>184.0</ele><time>2026-04-12T09:10:24.998Z</time></trkpt><trkpt lat="45.21322308303411" lon="7.972374407126239"><ele>184.0</ele><time>2026-04-12T09:10:25.998Z</time></trkpt><trkpt lat="45.21340519141519" lon="7.972418208719988"><ele>183.75</ele><time>2026-04-12T09:10:26.998Z</time></trkpt><trkpt lat="45.213550825058825" lon="7.972428159946258"><ele>183.5</ele><time>2026-04-12T09:10:27.998Z</time></trkpt><trkpt lat="45.213667034294645" lon="7.972429850131944"><ele>183.25</ele><time>2026-04-12T09:10:28.998Z</time></trkpt><trkpt lat="45.21376304404954" lon="7.972459186360757"><ele>183.0</ele><time>2026-04-12T09:10:29.998Z</time></trkpt><trkpt lat="45.21385949266981" lon="7.972466997402303"><ele>183.0</ele><time>2026-04-12T09:10:30.998Z</time></trkpt><trkpt lat="45.21393500243675" lon="7.972482150929648"><ele>183.0</ele><time>2026-04-12T09:10:32.998Z</time></trkpt><trkpt lat="45.214018711349595" lon="7.972420043075776"><ele>183.0</ele><time>2026-04-12T09:10:36.998Z</time></trkpt><trkpt lat="45.214023195669334" lon="7.972275260327675"><ele>183.0</ele><time>2026-04-12T09:10:38.998Z</time></trkpt><trkpt lat="45.214011998571" lon="7.972175608398649"><ele>183.0</ele><time>2026-04-12T09:10:39.998Z</time></trkpt><trkpt lat="45.2140343887112" lon="7.9720512169086115"><ele>183.0</ele><time>2026-04-12T09:10:40.998Z</time></trkpt><trkpt lat="45.21404486680964" lon="7.971915380379082"><ele>183.2</ele><time>2026-04-12T09:10:41.998Z</time></trkpt><trkpt lat="45.2140751576553" lon="7.971754195771056"><ele>183.4</ele><time>2026-04-12T09:10:42.998Z</time></trkpt><trkpt lat="45.21407552777164" lon="7.971587806093538"><ele>183.6</ele><time>2026-04-12T09:10:43.998Z</time></trkpt><trkpt lat="45.214084235049576" lon="7.9714665205418775"><ele>183.79999999999998</ele><time>2026-04-12T09:10:44.998Z</time></trkpt><trkpt lat="45.21409673841515" lon="7.971376982361458"><ele>184.0</ele><time>2026-04-12T09:10:45.998Z</time></trkpt><trkpt lat="45.214133092695555" lon="7.971255513644781"><ele>184.66666666666669</ele><time>2026-04-12T09:10:47.998Z</time></trkpt><trkpt lat="45.21432152593757" lon="7.9712486143984425"><ele>185.33333333333334</ele><time>2026-04-12T09:10:50.997Z</time></trkpt><trkpt lat="45.214447257343934" lon="7.971283390558135"><ele>186.0</ele><time>2026-04-12T09:10:51.997Z</time></trkpt><trkpt lat="45.2145971353156" lon="7.971311000053605"><ele>186.0</ele><time>2026-04-12T09:10:52.997Z</time></trkpt><trkpt lat="45.21475763878266" lon="7.971335852427736"><ele>186.0</ele><time>2026-04-12T09:10:53.997Z</time></trkpt><trkpt lat="45.21494211927946" lon="7.971376153421298"><ele>186.0</ele><time>2026-04-12T09:10:54.997Z</time></trkpt><trkpt lat="45.215112269240656" lon="7.971388259591789"><ele>186.20000000000002</ele><time>2026-04-12T09:10:55.997Z</time></trkpt><trkpt lat="45.21523003963387" lon="7.971423012275876"><ele>186.4</ele><time>2026-04-12T09:10:56.997Z</time></trkpt><trkpt lat="45.21535756680003" lon="7.9714284037024745"><ele>186.6</ele><time>2026-04-12T09:10:57.997Z</time></trkpt><trkpt lat="45.21543536157102" lon="7.971461320023838"><ele>186.8</ele><time>2026-04-12T09:10:58.997Z</time></trkpt><trkpt lat="45.21553641485423" lon="7.971464954418887"><ele>187.0</ele><time>2026-04-12T09:10:59.997Z</time></trkpt><trkpt lat="45.21561696388395" lon="7.971491754812464"><ele>187.2</ele><time>2026-04-12T09:11:00.997Z</time></trkpt><trkpt lat="45.215684402494496" lon="7.9715328347605245"><ele>187.39999999999998</ele><time>2026-04-12T09:11:01.997Z</time></trkpt><trkpt lat="45.215764507827096" lon="7.9716037203351116"><ele>187.60000000000002</ele><time>2026-04-12T09:11:03.997Z</time></trkpt><trkpt lat="45.215759945861016" lon="7.971737832630883"><ele>187.8</ele><time>2026-04-12T09:11:04.997Z</time></trkpt><trkpt lat="45.215747268039614" lon="7.971901363237051"><ele>188.0</ele><time>2026-04-12T09:11:06.997Z</time></trkpt><trkpt lat="45.215727741127814" lon="7.972051978739586"><ele>187.8</ele><time>2026-04-12T09:11:07.997Z</time></trkpt><trkpt lat="45.21569697891017" lon="7.97219864287199"><ele>187.60000000000002</ele><time>2026-04-12T09:11:08.997Z</time></trkpt><trkpt lat="45.21567474575763" lon="7.972337028907997"><ele>187.39999999999998</ele><time>2026-04-12T09:11:09.997Z</time></trkpt><trkpt lat="45.21564835093327" lon="7.972446194673464"><ele>187.2</ele><time>2026-04-12T09:11:10.997Z</time></trkpt><trkpt lat="45.215612459424946" lon="7.972616674177858"><ele>187.0</ele><time>2026-04-12T09:11:11.997Z</time></trkpt><trkpt lat="45.21559161617341" lon="7.972765476110475"><ele>187.0</ele><time>2026-04-12T09:11:12.997Z</time></trkpt><trkpt lat="45.21557653877856" lon="7.972903545099223"><ele>187.0</ele><time>2026-04-12T09:11:13.997Z</time></trkpt><trkpt lat="45.21556378757518" lon="7.973031536050286"><ele>187.0</ele><time>2026-04-12T09:11:15Z</time></trkpt><trkpt lat="45.21554508316739" lon="7.973175685856121"><ele>187.0</ele><time>2026-04-12T09:11:16Z</time></trkpt><trkpt lat="45.21552739261502" lon="7.973295935631506"><ele>187.0</ele><time>2026-04-12T09:11:17Z</time></trkpt><trkpt lat="45.21552001645951" lon="7.973418979688947"><ele>187.2</ele><time>2026-04-12T09:11:18Z</time></trkpt><trkpt lat="45.21550496223873" lon="7.973551657615965"><ele>187.39999999999998</ele><time>2026-04-12T09:11:19Z</time></trkpt><trkpt lat="45.21549940688645" lon="7.973707128298967"><ele>187.60000000000002</ele><time>2026-04-12T09:11:20Z</time></trkpt><trkpt lat="45.2155034370734" lon="7.97384191303918"><ele>187.8</ele><time>2026-04-12T09:11:21Z</time></trkpt><trkpt lat="45.21551163408078" lon="7.973980556162658"><ele>188.0</ele><time>2026-04-12T09:11:22Z</time></trkpt><trkpt lat="45.21555199563412" lon="7.974114197990849"><ele>188.0</ele><time>2026-04-12T09:11:23Z</time></trkpt><trkpt lat="45.21557268302596" lon="7.97425665482101"><ele>188.0</ele><time>2026-04-12T09:11:24Z</time></trkpt><trkpt lat="45.21559589547855" lon="7.9744000182121475"><ele>188.0</ele><time>2026-04-12T09:11:25Z</time></trkpt><trkpt lat="45.215619278452216" lon="7.974524226477255"><ele>188.0</ele><time>2026-04-12T09:11:26Z</time></trkpt><trkpt lat="45.215655949089644" lon="7.974666674155624"><ele>188.0</ele><time>2026-04-12T09:11:27Z</time></trkpt><trkpt lat="45.21565431218818" lon="7.974853761989813"><ele>188.75</ele><time>2026-04-12T09:11:28Z</time></trkpt><trkpt lat="45.215689849804654" lon="7.975050241460081"><ele>189.5</ele><time>2026-04-12T09:11:29Z</time></trkpt><trkpt lat="45.21572059803894" lon="7.975220156816069"><ele>190.25</ele><time>2026-04-12T09:11:30Z</time></trkpt><trkpt lat="45.21575202290703" lon="7.975363627280664"><ele>191.0</ele><time>2026-04-12T09:11:31Z</time></trkpt><trkpt lat="45.21579698344778" lon="7.975503670574274"><ele>191.0</ele><time>2026-04-12T09:11:32Z</time></trkpt><trkpt lat="45.21587415618232" lon="7.975674312607778"><ele>191.0</ele><time>2026-04-12T09:11:33Z</time></trkpt><trkpt lat="45.21595742895548" lon="7.975822548900078"><ele>191.0</ele><time>2026-04-12T09:11:34Z</time></trkpt><trkpt lat="45.216049114965884" lon="7.9759844901705215"><ele>191.0</ele><time>2026-04-12T09:11:35Z</time></trkpt><trkpt lat="45.21613611366409" lon="7.97613967286445"><ele>190.66666666666666</ele><time>2026-04-12T09:11:35.999Z</time></trkpt><trkpt lat="45.216223379207584" lon="7.976295581501613"><ele>190.33333333333334</ele><time>2026-04-12T09:11:36.999Z</time></trkpt><trkpt lat="45.216317543042685" lon="7.976460250165514"><ele>190.0</ele><time>2026-04-12T09:11:37.999Z</time></trkpt><trkpt lat="45.21642065334064" lon="7.976640334460331"><ele>190.33333333333334</ele><time>2026-04-12T09:11:38.999Z</time></trkpt><trkpt lat="45.21653580193751" lon="7.976834737544096"><ele>190.66666666666666</ele><time>2026-04-12T09:11:39.999Z</time></trkpt><trkpt lat="45.21665135349986" lon="7.977029229155603"><ele>191.0</ele><time>2026-04-12T09:11:40.999Z</time></trkpt><trkpt lat="45.21676164919398" lon="7.977216110652287"><ele>191.0</ele><time>2026-04-12T09:11:41.999Z</time></trkpt><trkpt lat="45.216873625135534" lon="7.977379320473956"><ele>191.0</ele><time>2026-04-12T09:11:42.999Z</time></trkpt><trkpt lat="45.2169643557541" lon="7.9775313269808095"><ele>191.0</ele><time>2026-04-12T09:11:43.999Z</time></trkpt><trkpt lat="45.217052684603956" lon="7.977683351023886"><ele>191.0</ele><time>2026-04-12T09:11:44.999Z</time></trkpt><trkpt lat="45.21713449412777" lon="7.977856606883211"><ele>190.66666666666666</ele><time>2026-04-12T09:11:45.999Z</time></trkpt><trkpt lat="45.21723176986911" lon="7.978022220848672"><ele>190.33333333333334</ele><time>2026-04-12T09:11:46.999Z</time></trkpt><trkpt lat="45.217332675366166" lon="7.9781941681565876"><ele>190.0</ele><time>2026-04-12T09:11:47.999Z</time></trkpt><trkpt lat="45.21743666412955" lon="7.978371369501163"><ele>189.66666666666669</ele><time>2026-04-12T09:11:48.999Z</time></trkpt><trkpt lat="45.217548137423854" lon="7.978561324758218"><ele>189.33333333333334</ele><time>2026-04-12T09:11:49.999Z</time></trkpt><trkpt lat="45.217675726663984" lon="7.97873056007895"><ele>189.0</ele><time>2026-04-12T09:11:50.999Z</time></trkpt><trkpt lat="45.21778603308095" lon="7.978917293347728"><ele>189.0</ele><time>2026-04-12T09:11:51.999Z</time></trkpt><trkpt lat="45.217894637664536" lon="7.9791056599599415"><ele>189.0</ele><time>2026-04-12T09:11:52.999Z</time></trkpt><trkpt lat="45.21800188973251" lon="7.979292386133206"><ele>189.0</ele><time>2026-04-12T09:11:53.999Z</time></trkpt><trkpt lat="45.21809370071886" lon="7.979492456407681"><ele>189.33333333333334</ele><time>2026-04-12T09:11:54.999Z</time></trkpt><trkpt lat="45.21820182895079" lon="7.979677084458456"><ele>189.66666666666669</ele><time>2026-04-12T09:11:55.999Z</time></trkpt><trkpt lat="45.21831022222707" lon="7.979862165067415"><ele>190.0</ele><time>2026-04-12T09:11:56.999Z</time></trkpt><trkpt lat="45.218416953483576" lon="7.980044407909217"><ele>189.0</ele><time>2026-04-12T09:11:57.999Z</time></trkpt><trkpt lat="45.21852157571522" lon="7.980223387284232"><ele>188.0</ele><time>2026-04-12T09:11:58.999Z</time></trkpt><trkpt lat="45.21862231469088" lon="7.9803957936165935"><ele>187.0</ele><time>2026-04-12T09:11:59.999Z</time></trkpt><trkpt lat="45.2187233144856" lon="7.980568645224662"><ele>187.0</ele><time>2026-04-12T09:12:00.999Z</time></trkpt><trkpt lat="45.21882496417621" lon="7.980742609066828"><ele>187.0</ele><time>2026-04-12T09:12:01.999Z</time></trkpt><trkpt lat="45.218927951049125" lon="7.980918861371756"><ele>187.0</ele><time>2026-04-12T09:12:02.999Z</time></trkpt><trkpt lat="45.219011479957246" lon="7.9810618132101565"><ele>188.25</ele><time>2026-04-12T09:12:03.999Z</time></trkpt><trkpt lat="45.21909014535176" lon="7.981196441605375"><ele>189.5</ele><time>2026-04-12T09:12:04.999Z</time></trkpt><trkpt lat="45.21917480603949" lon="7.981341330377215"><ele>190.75</ele><time>2026-04-12T09:12:05.999Z</time></trkpt><trkpt lat="45.21926511273672" lon="7.981496154096371"><ele>192.0</ele><time>2026-04-12T09:12:06.999Z</time></trkpt><trkpt lat="45.21935857262429" lon="7.981656374828988"><ele>192.0</ele><time>2026-04-12T09:12:07.999Z</time></trkpt><trkpt lat="45.21943813197655" lon="7.981792765511287"><ele>192.0</ele><time>2026-04-12T09:12:08.999Z</time></trkpt><trkpt lat="45.21951164167149" lon="7.981918785106978"><ele>192.0</ele><time>2026-04-12T09:12:09.999Z</time></trkpt><trkpt lat="45.21957850774907" lon="7.98203341537618"><ele>192.0</ele><time>2026-04-12T09:12:10.999Z</time></trkpt><trkpt lat="45.21964279131611" lon="7.982143618379454"><ele>192.0</ele><time>2026-04-12T09:12:11.999Z</time></trkpt><trkpt lat="45.219723741695596" lon="7.982248024679815"><ele>192.0</ele><time>2026-04-12T09:12:12.999Z</time></trkpt><trkpt lat="45.21979076131107" lon="7.982377997647209"><ele>192.0</ele><time>2026-04-12T09:12:13.999Z</time></trkpt><trkpt lat="45.21987502504464" lon="7.982514208744781"><ele>192.0</ele><time>2026-04-12T09:12:14.999Z</time></trkpt><trkpt lat="45.21996064963484" lon="7.982687878148103"><ele>192.0</ele><time>2026-04-12T09:12:15.999Z</time></trkpt><trkpt lat="45.220080114352214" lon="7.982859260141515"><ele>192.0</ele><time>2026-04-12T09:12:16.998Z</time></trkpt><trkpt lat="45.22017774518204" lon="7.983047810286055"><ele>192.0</ele><time>2026-04-12T09:12:17.998Z</time></trkpt><trkpt lat="45.220285789386956" lon="7.983220861239976"><ele>192.0</ele><time>2026-04-12T09:12:18.998Z</time></trkpt><trkpt lat="45.22039384210128" lon="7.983402514995418"><ele>192.0</ele><time>2026-04-12T09:12:19.998Z</time></trkpt><trkpt lat="45.22049952985679" lon="7.983580153181103"><ele>192.0</ele><time>2026-04-12T09:12:20.998Z</time></trkpt><trkpt lat="45.22060477897163" lon="7.9837584711182705"><ele>192.0</ele><time>2026-04-12T09:12:21.998Z</time></trkpt><trkpt lat="45.2206945837634" lon="7.98393083446601"><ele>192.0</ele><time>2026-04-12T09:12:22.998Z</time></trkpt><trkpt lat="45.22076980963914" lon="7.984075104879703"><ele>192.0</ele><time>2026-04-12T09:12:23.998Z</time></trkpt><trkpt lat="45.22084488534917" lon="7.9841890917330005"><ele>192.0</ele><time>2026-04-12T09:12:24.998Z</time></trkpt><trkpt lat="45.22092267823228" lon="7.984311928189462"><ele>192.0</ele><time>2026-04-12T09:12:25.998Z</time></trkpt><trkpt lat="45.22100856064975" lon="7.98444523190111"><ele>191.0</ele><time>2026-04-12T09:12:26.998Z</time></trkpt><trkpt lat="45.22109986827733" lon="7.984597833372092"><ele>190.0</ele><time>2026-04-12T09:12:27.998Z</time></trkpt><trkpt lat="45.221199666781395" lon="7.984778069112991"><ele>189.0</ele><time>2026-04-12T09:12:28.998Z</time></trkpt><trkpt lat="45.22130584040637" lon="7.9849749771550895"><ele>189.33333333333334</ele><time>2026-04-12T09:12:29.998Z</time></trkpt><trkpt lat="45.22143072129789" lon="7.985189306416286"><ele>189.66666666666669</ele><time>2026-04-12T09:12:30.998Z</time></trkpt><trkpt lat="45.221559222834124" lon="7.985423095121341"><ele>190.0</ele><time>2026-04-12T09:12:31.998Z</time></trkpt><trkpt lat="45.22168952821932" lon="7.985625784696338"><ele>190.33333333333334</ele><time>2026-04-12T09:12:32.998Z</time></trkpt><trkpt lat="45.221816021046486" lon="7.985834736259169"><ele>190.66666666666666</ele><time>2026-04-12T09:12:33.998Z</time></trkpt><trkpt lat="45.221935385919615" lon="7.986049007073926"><ele>191.0</ele><time>2026-04-12T09:12:34.998Z</time></trkpt><trkpt lat="45.22206720440112" lon="7.986262642452514"><ele>191.0</ele><time>2026-04-12T09:12:35.998Z</time></trkpt><trkpt lat="45.22218851915413" lon="7.986466682672549"><ele>191.0</ele><time>2026-04-12T09:12:36.998Z</time></trkpt><trkpt lat="45.22229295702512" lon="7.9866501260163725"><ele>191.0</ele><time>2026-04-12T09:12:37.998Z</time></trkpt><trkpt lat="45.2223891954863" lon="7.9868102400642424"><ele>190.0</ele><time>2026-04-12T09:12:38.998Z</time></trkpt><trkpt lat="45.22249541397147" lon="7.986987318809117"><ele>189.0</ele><time>2026-04-12T09:12:39.998Z</time></trkpt><trkpt lat="45.2226036980631" lon="7.987178351138593"><ele>188.0</ele><time>2026-04-12T09:12:40.998Z</time></trkpt><trkpt lat="45.222727131930455" lon="7.987382862406294"><ele>188.66666666666666</ele><time>2026-04-12T09:12:41.998Z</time></trkpt><trkpt lat="45.22285233960219" lon="7.987595272425055"><ele>189.33333333333334</ele><time>2026-04-12T09:12:42.998Z</time></trkpt><trkpt lat="45.22296189532156" lon="7.987784884262187"><ele>190.0</ele><time>2026-04-12T09:12:43.998Z</time></trkpt><trkpt lat="45.22306698502404" lon="7.98795236952345"><ele>190.66666666666669</ele><time>2026-04-12T09:12:44.998Z</time></trkpt><trkpt lat="45.22318628859764" lon="7.988125808409152"><ele>191.33333333333334</ele><time>2026-04-12T09:12:45.998Z</time></trkpt><trkpt lat="45.2233342675449" lon="7.9883062022921845"><ele>192.0</ele><time>2026-04-12T09:12:46.998Z</time></trkpt><trkpt lat="45.22352630994142" lon="7.988480744685393"><ele>192.0</ele><time>2026-04-12T09:12:47.998Z</time></trkpt><trkpt lat="45.22366858782692" lon="7.98863066850393"><ele>192.0</ele><time>2026-04-12T09:12:48.998Z</time></trkpt><trkpt lat="45.22378496373157" lon="7.988777686447168"><ele>192.0</ele><time>2026-04-12T09:12:49.998Z</time></trkpt><trkpt lat="45.22390004743985" lon="7.9889198163297435"><ele>191.66666666666666</ele><time>2026-04-12T09:12:50.998Z</time></trkpt><trkpt lat="45.22399463672555" lon="7.989070285780877"><ele>191.33333333333331</ele><time>2026-04-12T09:12:51.998Z</time></trkpt><trkpt lat="45.22409578545975" lon="7.989223398553635"><ele>191.0</ele><time>2026-04-12T09:12:52.998Z</time></trkpt><trkpt lat="45.22419989109049" lon="7.989440619153403"><ele>190.33333333333331</ele><time>2026-04-12T09:12:53.998Z</time></trkpt><trkpt lat="45.22431293392803" lon="7.989663760169882"><ele>189.66666666666666</ele><time>2026-04-12T09:12:54.997Z</time></trkpt><trkpt lat="45.22444033173893" lon="7.989902510081921"><ele>189.0</ele><time>2026-04-12T09:12:55.997Z</time></trkpt><trkpt lat="45.22455965809105" lon="7.990130007747524"><ele>189.0</ele><time>2026-04-12T09:12:56.997Z</time></trkpt><trkpt lat="45.22467700653315" lon="7.990354270840023"><ele>189.0</ele><time>2026-04-12T09:12:57.997Z</time></trkpt><trkpt lat="45.22479257395864" lon="7.990553395344357"><ele>189.0</ele><time>2026-04-12T09:12:58.997Z</time></trkpt><trkpt lat="45.224895990420485" lon="7.990744232454017"><ele>188.75</ele><time>2026-04-12T09:12:59.997Z</time></trkpt><trkpt lat="45.22498352359155" lon="7.990924606368724"><ele>188.5</ele><time>2026-04-12T09:13:00.997Z</time></trkpt><trkpt lat="45.22509046055662" lon="7.991090347267011"><ele>188.25</ele><time>2026-04-12T09:13:01.997Z</time></trkpt><trkpt lat="45.22515508611823" lon="7.99120128616072"><ele>188.0</ele><time>2026-04-12T09:13:02.997Z</time></trkpt><trkpt lat="45.225204160196256" lon="7.991306644559995"><ele>188.0</ele><time>2026-04-12T09:13:03.997Z</time></trkpt><trkpt lat="45.2252388966543" lon="7.991383218307014"><ele>188.0</ele><time>2026-04-12T09:13:04.997Z</time></trkpt><trkpt lat="45.225241395421506" lon="7.99152574990178"><ele>188.0</ele><time>2026-04-12T09:13:06.997Z</time></trkpt><trkpt lat="45.22515682897438" lon="7.991642040352044"><ele>188.0</ele><time>2026-04-12T09:13:08.997Z</time></trkpt><trkpt lat="45.22509884546595" lon="7.991716631770135"><ele>188.0</ele><time>2026-04-12T09:13:09.997Z</time></trkpt><trkpt lat="45.225026897878315" lon="7.9918050054798035"><ele>188.0</ele><time>2026-04-12T09:13:10.997Z</time></trkpt><trkpt lat="45.22495367613078" lon="7.991919501034282"><ele>188.0</ele><time>2026-04-12T09:13:11.997Z</time></trkpt><trkpt lat="45.224842592021126" lon="7.992018609017223"><ele>188.0</ele><time>2026-04-12T09:13:12.997Z</time></trkpt><trkpt lat="45.22472811458886" lon="7.992150627212753"><ele>188.0</ele><time>2026-04-12T09:13:13.997Z</time></trkpt><trkpt lat="45.224626121706564" lon="7.992281067963549"><ele>188.0</ele><time>2026-04-12T09:13:14.997Z</time></trkpt><trkpt lat="45.22454017559225" lon="7.992387393295168"><ele>188.0</ele><time>2026-04-12T09:13:15.997Z</time></trkpt><trkpt lat="45.22445247284392" lon="7.992493386103305"><ele>188.0</ele><time>2026-04-12T09:13:16.997Z</time></trkpt><trkpt lat="45.22437958916637" lon="7.992606850759403"><ele>188.0</ele><time>2026-04-12T09:13:17.997Z</time></trkpt><trkpt lat="45.224328103591624" lon="7.9926661583147744"><ele>188.0</ele><time>2026-04-12T09:13:18.997Z</time></trkpt><trkpt lat="45.224286424787245" lon="7.992736234082604"><ele>188.0</ele><time>2026-04-12T09:13:19.997Z</time></trkpt><trkpt lat="45.22434608802838" lon="7.9926317191796965"><ele>188.0</ele><time>2026-04-12T09:13:37Z</time></trkpt><trkpt lat="45.22445530212094" lon="7.992516700399212"><ele>188.0</ele><time>2026-04-12T09:13:39Z</time></trkpt><trkpt lat="45.22456499790312" lon="7.992339839782502"><ele>188.0</ele><time>2026-04-12T09:13:40Z</time></trkpt><trkpt lat="45.22465844141225" lon="7.992225016231313"><ele>188.0</ele><time>2026-04-12T09:13:41Z</time></trkpt><trkpt lat="45.22476231242143" lon="7.992100948165589"><ele>188.0</ele><time>2026-04-12T09:13:42Z</time></trkpt><trkpt lat="45.224868532015236" lon="7.991988789308345"><ele>188.0</ele><time>2026-04-12T09:13:43Z</time></trkpt><trkpt lat="45.224959238677116" lon="7.991884245162129"><ele>188.0</ele><time>2026-04-12T09:13:44Z</time></trkpt><trkpt lat="45.22502917070869" lon="7.991803222874529"><ele>188.0</ele><time>2026-04-12T09:13:45Z</time></trkpt><trkpt lat="45.225093499217486" lon="7.9917289619109875"><ele>188.0</ele><time>2026-04-12T09:13:46Z</time></trkpt><trkpt lat="45.22515223081421" lon="7.991674601287214"><ele>188.0</ele><time>2026-04-12T09:13:47Z</time></trkpt><trkpt lat="45.22522326592102" lon="7.991578215591366"><ele>188.0</ele><time>2026-04-12T09:13:49Z</time></trkpt><trkpt lat="45.22526106311168" lon="7.991504777351077"><ele>188.0</ele><time>2026-04-12T09:13:50.999Z</time></trkpt><trkpt lat="45.22536536140908" lon="7.991594193661089"><ele>188.0</ele><time>2026-04-12T09:13:52.999Z</time></trkpt><trkpt lat="45.22541175087494" lon="7.991667812632068"><ele>187.0</ele><time>2026-04-12T09:13:53.999Z</time></trkpt><trkpt lat="45.225469898496485" lon="7.991767765898978"><ele>186.0</ele><time>2026-04-12T09:13:54.999Z</time></trkpt><trkpt lat="45.225534681826076" lon="7.991906604094996"><ele>185.0</ele><time>2026-04-12T09:13:55.999Z</time></trkpt><trkpt lat="45.22561286302418" lon="7.992055335959199"><ele>184.0</ele><time>2026-04-12T09:13:56.999Z</time></trkpt><trkpt lat="45.2257019466871" lon="7.992221446208034"><ele>183.0</ele><time>2026-04-12T09:13:57.999Z</time></trkpt><trkpt lat="45.225810811991565" lon="7.99241993030408"><ele>182.0</ele><time>2026-04-12T09:13:58.999Z</time></trkpt><trkpt lat="45.225931591518204" lon="7.992662551977058"><ele>181.0</ele><time>2026-04-12T09:13:59.999Z</time></trkpt><trkpt lat="45.22605589467896" lon="7.992941028407882"><ele>180.0</ele><time>2026-04-12T09:14:00.999Z</time></trkpt><trkpt lat="45.2261691342035" lon="7.99321615031807"><ele>179.0</ele><time>2026-04-12T09:14:01.999Z</time></trkpt><trkpt lat="45.226266135459355" lon="7.993462030954464"><ele>178.0</ele><time>2026-04-12T09:14:02.999Z</time></trkpt><trkpt lat="45.226349938728156" lon="7.99369577308333"><ele>177.66666666666669</ele><time>2026-04-12T09:14:03.999Z</time></trkpt><trkpt lat="45.226430816565674" lon="7.993925743141786"><ele>177.33333333333334</ele><time>2026-04-12T09:14:04.999Z</time></trkpt><trkpt lat="45.22649756432602" lon="7.994184670333123"><ele>177.0</ele><time>2026-04-12T09:14:05.999Z</time></trkpt><trkpt lat="45.22653605489201" lon="7.994476832498578"><ele>178.0</ele><time>2026-04-12T09:14:06.999Z</time></trkpt><trkpt lat="45.22655044576029" lon="7.99478567295541"><ele>179.0</ele><time>2026-04-12T09:14:07.999Z</time></trkpt><trkpt lat="45.22656322639943" lon="7.99512152651721"><ele>179.33333333333331</ele><time>2026-04-12T09:14:08.999Z</time></trkpt><trkpt lat="45.226577306314034" lon="7.995449272597008"><ele>179.66666666666666</ele><time>2026-04-12T09:14:09.999Z</time></trkpt><trkpt lat="45.22659335044368" lon="7.995736670061141"><ele>180.0</ele><time>2026-04-12T09:14:10.999Z</time></trkpt><trkpt lat="45.22660390516784" lon="7.9960090514520745"><ele>180.66666666666666</ele><time>2026-04-12T09:14:11.999Z</time></trkpt><trkpt lat="45.226600622625874" lon="7.9962649538284465"><ele>181.33333333333331</ele><time>2026-04-12T09:14:12.999Z</time></trkpt><trkpt lat="45.22658302854872" lon="7.996514000640286"><ele>182.0</ele><time>2026-04-12T09:14:13.999Z</time></trkpt><trkpt lat="45.22653876851831" lon="7.996771546035061"><ele>181.66666666666666</ele><time>2026-04-12T09:14:14.999Z</time></trkpt><trkpt lat="45.226469444176416" lon="7.997036740576351"><ele>181.33333333333334</ele><time>2026-04-12T09:14:15.999Z</time></trkpt><trkpt lat="45.22637895944095" lon="7.997286813970565"><ele>181.0</ele><time>2026-04-12T09:14:16.999Z</time></trkpt><trkpt lat="45.22628078656871" lon="7.997494549694611"><ele>180.0</ele><time>2026-04-12T09:14:17.999Z</time></trkpt><trkpt lat="45.22618348606702" lon="7.99768380457111"><ele>179.0</ele><time>2026-04-12T09:14:18.999Z</time></trkpt><trkpt lat="45.226093693203005" lon="7.997857621983224"><ele>178.0</ele><time>2026-04-12T09:14:19.999Z</time></trkpt><trkpt lat="45.226013587955364" lon="7.998022418626171"><ele>178.0</ele><time>2026-04-12T09:14:20.999Z</time></trkpt><trkpt lat="45.22594480379722" lon="7.9981842548075175"><ele>178.0</ele><time>2026-04-12T09:14:21.999Z</time></trkpt><trkpt lat="45.225884546705046" lon="7.998363169624685"><ele>178.0</ele><time>2026-04-12T09:14:22.999Z</time></trkpt><trkpt lat="45.22578818273128" lon="7.998802036231262"><ele>178.0</ele><time>2026-04-12T09:14:24.999Z</time></trkpt><trkpt lat="45.225757373788205" lon="7.999050706479352"><ele>178.0</ele><time>2026-04-12T09:14:25.999Z</time></trkpt><trkpt lat="45.22574417488413" lon="7.999299377765985"><ele>178.0</ele><time>2026-04-12T09:14:26.999Z</time></trkpt><trkpt lat="45.22575708526025" lon="7.999560459677013"><ele>178.0</ele><time>2026-04-12T09:14:27.999Z</time></trkpt><trkpt lat="45.2257832521061" lon="7.999808726935748"><ele>178.0</ele><time>2026-04-12T09:14:28.998Z</time></trkpt><trkpt lat="45.22583352467883" lon="8.00005389737311"><ele>178.0</ele><time>2026-04-12T09:14:29.998Z</time></trkpt><trkpt lat="45.2258984848071" lon="8.000297604375087"><ele>178.0</ele><time>2026-04-12T09:14:30.998Z</time></trkpt><trkpt lat="45.22598893044286" lon="8.000547192253105"><ele>178.0</ele><time>2026-04-12T09:14:31.998Z</time></trkpt><trkpt lat="45.22610376931205" lon="8.000799907462124"><ele>178.0</ele><time>2026-04-12T09:14:32.998Z</time></trkpt><trkpt lat="45.22623927987775" lon="8.001073347571642"><ele>178.0</ele><time>2026-04-12T09:14:33.998Z</time></trkpt><trkpt lat="45.22637434135203" lon="8.001341960455216"><ele>178.0</ele><time>2026-04-12T09:14:34.998Z</time></trkpt><trkpt lat="45.22648811986461" lon="8.001567463463337"><ele>178.0</ele><time>2026-04-12T09:14:35.998Z</time></trkpt><trkpt lat="45.22659443239834" lon="8.001762494048341"><ele>178.33333333333334</ele><time>2026-04-12T09:14:36.998Z</time></trkpt><trkpt lat="45.22671403249953" lon="8.001931900136046"><ele>178.66666666666666</ele><time>2026-04-12T09:14:37.998Z</time></trkpt><trkpt lat="45.22686216282343" lon="8.00208211536788"><ele>179.0</ele><time>2026-04-12T09:14:38.998Z</time></trkpt><trkpt lat="45.22702590030518" lon="8.00222710104303"><ele>179.0</ele><time>2026-04-12T09:14:39.998Z</time></trkpt><trkpt lat="45.22717158857625" lon="8.00235976761024"><ele>179.0</ele><time>2026-04-12T09:14:40.998Z</time></trkpt><trkpt lat="45.22729673805732" lon="8.002511578114932"><ele>179.0</ele><time>2026-04-12T09:14:41.998Z</time></trkpt><trkpt lat="45.22741866216448" lon="8.00270107473967"><ele>178.33333333333331</ele><time>2026-04-12T09:14:42.998Z</time></trkpt><trkpt lat="45.22752541921064" lon="8.00293918703858"><ele>177.66666666666666</ele><time>2026-04-12T09:14:43.998Z</time></trkpt><trkpt lat="45.227658567082706" lon="8.003180921261825"><ele>177.0</ele><time>2026-04-12T09:14:44.998Z</time></trkpt><trkpt lat="45.22778151398024" lon="8.003449131259957"><ele>176.66666666666666</ele><time>2026-04-12T09:14:45.998Z</time></trkpt><trkpt lat="45.22790918636165" lon="8.003719661534186"><ele>176.33333333333331</ele><time>2026-04-12T09:14:46.998Z</time></trkpt><trkpt lat="45.228027517518896" lon="8.00396394590656"><ele>176.0</ele><time>2026-04-12T09:14:47.998Z</time></trkpt><trkpt lat="45.22813963714663" lon="8.004186472518033"><ele>176.33333333333331</ele><time>2026-04-12T09:14:48.998Z</time></trkpt><trkpt lat="45.22824370358065" lon="8.004397350134527"><ele>176.66666666666666</ele><time>2026-04-12T09:14:49.998Z</time></trkpt><trkpt lat="45.228341712460285" lon="8.004590847527615"><ele>177.0</ele><time>2026-04-12T09:14:50.998Z</time></trkpt><trkpt lat="45.228428901734745" lon="8.00476826104583"><ele>177.0</ele><time>2026-04-12T09:14:51.998Z</time></trkpt><trkpt lat="45.2284992563039" lon="8.00491009119944"><ele>177.0</ele><time>2026-04-12T09:14:52.998Z</time></trkpt><trkpt lat="45.228575537083024" lon="8.005015676858187"><ele>177.0</ele><time>2026-04-12T09:14:53.998Z</time></trkpt><trkpt lat="45.22866181667594" lon="8.005086375236848"><ele>177.0</ele><time>2026-04-12T09:14:54.998Z</time></trkpt><trkpt lat="45.22875486116981" lon="8.005150161676584"><ele>177.0</ele><time>2026-04-12T09:14:55.998Z</time></trkpt><trkpt lat="45.22887379696245" lon="8.005151056129018"><ele>178.0</ele><time>2026-04-12T09:14:56.998Z</time></trkpt><trkpt lat="45.22900725231208" lon="8.005115426188368"><ele>179.0</ele><time>2026-04-12T09:14:57.998Z</time></trkpt><trkpt lat="45.22914789374794" lon="8.00502807220915"><ele>180.0</ele><time>2026-04-12T09:14:58.998Z</time></trkpt><trkpt lat="45.2292905219797" lon="8.004935100053352"><ele>181.0</ele><time>2026-04-12T09:14:59.998Z</time></trkpt><trkpt lat="45.22945855683107" lon="8.004824000980303"><ele>181.33333333333334</ele><time>2026-04-12T09:15:00.998Z</time></trkpt><trkpt lat="45.2296432442458" lon="8.004707392615126"><ele>181.66666666666666</ele><time>2026-04-12T09:15:01.998Z</time></trkpt><trkpt lat="45.22984465941171" lon="8.004581051610161"><ele>182.0</ele><time>2026-04-12T09:15:02.998Z</time></trkpt><trkpt lat="45.230059857115" lon="8.004447838283458"><ele>182.0</ele><time>2026-04-12T09:15:03.998Z</time></trkpt><trkpt lat="45.230280739108466" lon="8.004305465621304"><ele>182.0</ele><time>2026-04-12T09:15:04.998Z</time></trkpt><trkpt lat="45.2304946813087" lon="8.00416826601734"><ele>183.66666666666666</ele><time>2026-04-12T09:15:05.998Z</time></trkpt><trkpt lat="45.23069747333465" lon="8.004038737261938"><ele>185.33333333333334</ele><time>2026-04-12T09:15:06.997Z</time></trkpt><trkpt lat="45.23088312091979" lon="8.00392092927527"><ele>187.0</ele><time>2026-04-12T09:15:07.997Z</time></trkpt><trkpt lat="45.231038139261166" lon="8.003830614402215"><ele>187.0</ele><time>2026-04-12T09:15:08.997Z</time></trkpt><trkpt lat="45.231185735522715" lon="8.003768706759514"><ele>187.0</ele><time>2026-04-12T09:15:09.997Z</time></trkpt><trkpt lat="45.23132862912316" lon="8.003736043296291"><ele>187.0</ele><time>2026-04-12T09:15:10.997Z</time></trkpt><trkpt lat="45.2314886645449" lon="8.003733694208998"><ele>186.33333333333334</ele><time>2026-04-12T09:15:11.997Z</time></trkpt><trkpt lat="45.231645567968144" lon="8.003787732758097"><ele>185.66666666666666</ele><time>2026-04-12T09:15:12.997Z</time></trkpt><trkpt lat="45.23180580535429" lon="8.003888575551208"><ele>185.0</ele><time>2026-04-12T09:15:13.997Z</time></trkpt><trkpt lat="45.23196481801001" lon="8.004037246602259"><ele>183.0</ele><time>2026-04-12T09:15:14.997Z</time></trkpt><trkpt lat="45.23214775944649" lon="8.004183303524838"><ele>181.0</ele><time>2026-04-12T09:15:15.997Z</time></trkpt><trkpt lat="45.23228618671261" lon="8.004332778535098"><ele>179.0</ele><time>2026-04-12T09:15:16.997Z</time></trkpt><trkpt lat="45.23240655257329" lon="8.004458367071988"><ele>179.0</ele><time>2026-04-12T09:15:17.997Z</time></trkpt><trkpt lat="45.23249294700175" lon="8.00454089802837"><ele>179.0</ele><time>2026-04-12T09:15:18.997Z</time></trkpt><trkpt lat="45.23255319641803" lon="8.004598453151619"><ele>179.0</ele><time>2026-04-12T09:15:19.997Z</time></trkpt><trkpt lat="45.23263392838085" lon="8.004675574851428"><ele>179.0</ele><time>2026-04-12T09:15:21.997Z</time></trkpt><trkpt lat="45.23254394295637" lon="8.004847940634507"><ele>179.0</ele><time>2026-04-12T09:15:25.997Z</time></trkpt><trkpt lat="45.2324651318251" lon="8.004914685746323"><ele>179.0</ele><time>2026-04-12T09:15:27Z</time></trkpt><trkpt lat="45.23236558482346" lon="8.005018936230455"><ele>179.0</ele><time>2026-04-12T09:15:28Z</time></trkpt><trkpt lat="45.23225601536881" lon="8.0051401948991"><ele>179.0</ele><time>2026-04-12T09:15:29Z</time></trkpt><trkpt lat="45.23214114811786" lon="8.005266211131577"><ele>179.0</ele><time>2026-04-12T09:15:30Z</time></trkpt><trkpt lat="45.232046564580656" lon="8.005362082110546"><ele>178.79999999999998</ele><time>2026-04-12T09:15:31Z</time></trkpt><trkpt lat="45.23196219949249" lon="8.005456804921174"><ele>178.6</ele><time>2026-04-12T09:15:32Z</time></trkpt><trkpt lat="45.23187961780342" lon="8.005559017264307"><ele>178.4</ele><time>2026-04-12T09:15:33Z</time></trkpt><trkpt lat="45.231818493476716" lon="8.005637613704872"><ele>178.2</ele><time>2026-04-12T09:15:34Z</time></trkpt><trkpt lat="45.23175529151744" lon="8.005766006001203"><ele>178.0</ele><time>2026-04-12T09:15:36Z</time></trkpt><trkpt lat="45.231772976239185" lon="8.00592118377617"><ele>178.0</ele><time>2026-04-12T09:15:38Z</time></trkpt><trkpt lat="45.23177361727461" lon="8.006040845333228"><ele>178.0</ele><time>2026-04-12T09:15:39Z</time></trkpt><trkpt lat="45.23176265851801" lon="8.006167823771998"><ele>178.0</ele><time>2026-04-12T09:15:40Z</time></trkpt><trkpt lat="45.23176148793588" lon="8.006305284160604"><ele>178.0</ele><time>2026-04-12T09:15:41Z</time></trkpt><trkpt lat="45.231746265665706" lon="8.006449965940448"><ele>178.0</ele><time>2026-04-12T09:15:42Z</time></trkpt><trkpt lat="45.23171261189263" lon="8.006583591990273"><ele>178.0</ele><time>2026-04-12T09:15:43Z</time></trkpt><trkpt lat="45.23165501360804" lon="8.00672184011182"><ele>178.0</ele><time>2026-04-12T09:15:44Z</time></trkpt><trkpt lat="45.23158333481434" lon="8.006847165961103"><ele>178.0</ele><time>2026-04-12T09:15:45Z</time></trkpt><trkpt lat="45.231508837145185" lon="8.006993027881897"><ele>178.0</ele><time>2026-04-12T09:15:46Z</time></trkpt><trkpt lat="45.231443704142436" lon="8.007137133660551"><ele>178.0</ele><time>2026-04-12T09:15:47Z</time></trkpt><trkpt lat="45.23137909694482" lon="8.007262390163136"><ele>178.0</ele><time>2026-04-12T09:15:48Z</time></trkpt><trkpt lat="45.23133331282096" lon="8.007364841546561"><ele>178.0</ele><time>2026-04-12T09:15:49Z</time></trkpt><trkpt lat="45.231314304432985" lon="8.007452516480098"><ele>178.0</ele><time>2026-04-12T09:15:50Z</time></trkpt><trkpt lat="45.23131420246723" lon="8.007560732869205"><ele>178.0</ele><time>2026-04-12T09:15:51Z</time></trkpt><trkpt lat="45.23130160031568" lon="8.00769932977768"><ele>178.0</ele><time>2026-04-12T09:15:52Z</time></trkpt><trkpt lat="45.23127136053972" lon="8.007852795001353"><ele>178.0</ele><time>2026-04-12T09:15:53Z</time></trkpt><trkpt lat="45.23123040928165" lon="8.007995149526643"><ele>178.0</ele><time>2026-04-12T09:15:54Z</time></trkpt><trkpt lat="45.23118270573306" lon="8.008125407924654"><ele>178.0</ele><time>2026-04-12T09:15:55Z</time></trkpt><trkpt lat="45.23113251921963" lon="8.008261391109206"><ele>178.0</ele><time>2026-04-12T09:15:56Z</time></trkpt><trkpt lat="45.23109492739523" lon="8.008406709690178"><ele>178.0</ele><time>2026-04-12T09:15:57Z</time></trkpt><trkpt lat="45.231061834325736" lon="8.00856046343428"><ele>177.5</ele><time>2026-04-12T09:15:58Z</time></trkpt><trkpt lat="45.231045522947916" lon="8.008745388929766"><ele>177.0</ele><time>2026-04-12T09:15:59Z</time></trkpt><trkpt lat="45.23102394966531" lon="8.00894707015682"><ele>176.5</ele><time>2026-04-12T09:15:59.999Z</time></trkpt><trkpt lat="45.231003983080626" lon="8.009106991320671"><ele>176.0</ele><time>2026-04-12T09:16:00.999Z</time></trkpt><trkpt lat="45.23098915497001" lon="8.009241316069032"><ele>176.0</ele><time>2026-04-12T09:16:01.999Z</time></trkpt><trkpt lat="45.230989273248845" lon="8.009340381052896"><ele>176.0</ele><time>2026-04-12T09:16:02.999Z</time></trkpt><trkpt lat="45.23102764311248" lon="8.009481987163301"><ele>176.0</ele><time>2026-04-12T09:16:04.999Z</time></trkpt><trkpt lat="45.23108066959" lon="8.009584679866311"><ele>176.0</ele><time>2026-04-12T09:16:05.999Z</time></trkpt><trkpt lat="45.23113533457267" lon="8.009724035016866"><ele>176.0</ele><time>2026-04-12T09:16:06.999Z</time></trkpt><trkpt lat="45.23119200824848" lon="8.00987570519677"><ele>175.75</ele><time>2026-04-12T09:16:07.999Z</time></trkpt><trkpt lat="45.231265203251176" lon="8.010041728967847"><ele>175.5</ele><time>2026-04-12T09:16:08.999Z</time></trkpt><trkpt lat="45.23135347953628" lon="8.010207216903966"><ele>175.25</ele><time>2026-04-12T09:16:09.999Z</time></trkpt><trkpt lat="45.23142571271356" lon="8.010380324586619"><ele>175.0</ele><time>2026-04-12T09:16:10.999Z</time></trkpt><trkpt lat="45.231483690607924" lon="8.010490749266392"><ele>175.0</ele><time>2026-04-12T09:16:11.999Z</time></trkpt><trkpt lat="45.23156762329879" lon="8.010619508323227"><ele>175.0</ele><time>2026-04-12T09:16:13.999Z</time></trkpt><trkpt lat="45.231650544183815" lon="8.01052701977176"><ele>175.0</ele><time>2026-04-12T09:16:37.999Z</time></trkpt><trkpt lat="45.231703460784544" lon="8.010466446716274"><ele>175.0</ele><time>2026-04-12T09:16:38.998Z</time></trkpt><trkpt lat="45.231780464056065" lon="8.01040628817969"><ele>175.0</ele><time>2026-04-12T09:16:39.998Z</time></trkpt><trkpt lat="45.23185146731014" lon="8.010376003905835"><ele>175.0</ele><time>2026-04-12T09:16:40.998Z</time></trkpt><trkpt lat="45.23195361808651" lon="8.010354598979848"><ele>175.0</ele><time>2026-04-12T09:16:41.998Z</time></trkpt><trkpt lat="45.23204497856942" lon="8.010361462785832"><ele>175.0</ele><time>2026-04-12T09:16:42.998Z</time></trkpt><trkpt lat="45.23212979762901" lon="8.010366225425736"><ele>175.0</ele><time>2026-04-12T09:16:43.998Z</time></trkpt><trkpt lat="45.23221420274256" lon="8.010375779865704"><ele>175.0</ele><time>2026-04-12T09:16:44.998Z</time></trkpt><trkpt lat="45.23229287687304" lon="8.010397633801954"><ele>175.0</ele><time>2026-04-12T09:16:45.998Z</time></trkpt><trkpt lat="45.23236257158407" lon="8.010437678349806"><ele>174.6</ele><time>2026-04-12T09:16:46.998Z</time></trkpt><trkpt lat="45.232469262237466" lon="8.010502087495867"><ele>174.2</ele><time>2026-04-12T09:16:48.998Z</time></trkpt><trkpt lat="45.23257706777579" lon="8.01057676948141"><ele>173.8</ele><time>2026-04-12T09:16:50.998Z</time></trkpt><trkpt lat="45.23264452593708" lon="8.01063594066145"><ele>173.4</ele><time>2026-04-12T09:16:51.998Z</time></trkpt><trkpt lat="45.23270004570771" lon="8.010687448116762"><ele>173.0</ele><time>2026-04-12T09:16:52.998Z</time></trkpt><trkpt lat="45.232804793546855" lon="8.010683945863398"><ele>173.0</ele><time>2026-04-12T09:16:54.998Z</time></trkpt><trkpt lat="45.23287071071893" lon="8.010654887312764"><ele>173.0</ele><time>2026-04-12T09:16:55.998Z</time></trkpt><trkpt lat="45.23294227730844" lon="8.010613447536903"><ele>173.0</ele><time>2026-04-12T09:16:56.998Z</time></trkpt><trkpt lat="45.23302486048178" lon="8.010558270690522"><ele>173.0</ele><time>2026-04-12T09:16:57.998Z</time></trkpt><trkpt lat="45.233118646694386" lon="8.010489825431621"><ele>173.0</ele><time>2026-04-12T09:16:58.998Z</time></trkpt><trkpt lat="45.23322328062397" lon="8.010388932588869"><ele>173.8</ele><time>2026-04-12T09:16:59.998Z</time></trkpt><trkpt lat="45.23330746392966" lon="8.010293119893673"><ele>174.60000000000002</ele><time>2026-04-12T09:17:00.998Z</time></trkpt><trkpt lat="45.233381581568395" lon="8.01020443377093"><ele>175.39999999999998</ele><time>2026-04-12T09:17:01.998Z</time></trkpt><trkpt lat="45.2334527101992" lon="8.010113035483547"><ele>176.2</ele><time>2026-04-12T09:17:02.998Z</time></trkpt><trkpt lat="45.233524908124465" lon="8.010005417158313"><ele>177.0</ele><time>2026-04-12T09:17:03.998Z</time></trkpt><trkpt lat="45.23357721218839" lon="8.009913292475474"><ele>177.0</ele><time>2026-04-12T09:17:04.998Z</time></trkpt><trkpt lat="45.23361413451119" lon="8.009826920142727"><ele>177.0</ele><time>2026-04-12T09:17:05.998Z</time></trkpt><trkpt lat="45.233658264255006" lon="8.009730086722355"><ele>177.0</ele><time>2026-04-12T09:17:06.998Z</time></trkpt><trkpt lat="45.233708076234294" lon="8.009608464077115"><ele>177.0</ele><time>2026-04-12T09:17:07.998Z</time></trkpt><trkpt lat="45.23375720739314" lon="8.009448504879376"><ele>177.0</ele><time>2026-04-12T09:17:08.998Z</time></trkpt><trkpt lat="45.233820864325054" lon="8.009275893328766"><ele>177.0</ele><time>2026-04-12T09:17:09.998Z</time></trkpt><trkpt lat="45.23388591878555" lon="8.009112063024585"><ele>177.0</ele><time>2026-04-12T09:17:10.998Z</time></trkpt><trkpt lat="45.23393979701557" lon="8.008967526410917"><ele>177.0</ele><time>2026-04-12T09:17:11.998Z</time></trkpt><trkpt lat="45.233979930934765" lon="8.008852754825444"><ele>177.0</ele><time>2026-04-12T09:17:12.998Z</time></trkpt><trkpt lat="45.23401658499502" lon="8.008752971102691"><ele>177.0</ele><time>2026-04-12T09:17:13.998Z</time></trkpt><trkpt lat="45.23406225639911" lon="8.008641856102342"><ele>177.16666666666666</ele><time>2026-04-12T09:17:14.998Z</time></trkpt><trkpt lat="45.23411329182558" lon="8.008529390509512"><ele>177.33333333333334</ele><time>2026-04-12T09:17:15.998Z</time></trkpt><trkpt lat="45.23415935026382" lon="8.008433747053898"><ele>177.5</ele><time>2026-04-12T09:17:16.997Z</time></trkpt><trkpt lat="45.23419701748701" lon="8.008354902918438"><ele>177.66666666666669</ele><time>2026-04-12T09:17:17.997Z</time></trkpt><trkpt lat="45.23423923416057" lon="8.008256570322072"><ele>177.83333333333334</ele><time>2026-04-12T09:17:18.997Z</time></trkpt><trkpt lat="45.234278621656806" lon="8.008164913919632"><ele>178.0</ele><time>2026-04-12T09:17:19.997Z</time></trkpt><trkpt lat="45.234320966587084" lon="8.008087443429554"><ele>177.60000000000002</ele><time>2026-04-12T09:17:20.997Z</time></trkpt><trkpt lat="45.23437671278516" lon="8.0079520486679"><ele>177.20000000000002</ele><time>2026-04-12T09:17:22.997Z</time></trkpt><trkpt lat="45.234440397758185" lon="8.00784773445321"><ele>176.8</ele><time>2026-04-12T09:17:24.997Z</time></trkpt><trkpt lat="45.23448326446287" lon="8.007707264104688"><ele>176.4</ele><time>2026-04-12T09:17:26.997Z</time></trkpt><trkpt lat="45.23451199292112" lon="8.00761195140027"><ele>176.0</ele><time>2026-04-12T09:17:27.997Z</time></trkpt><trkpt lat="45.23454149474776" lon="8.007510551127597"><ele>176.14285714285714</ele><time>2026-04-12T09:17:28.997Z</time></trkpt><trkpt lat="45.23458140989605" lon="8.00741014598782"><ele>176.28571428571428</ele><time>2026-04-12T09:17:29.997Z</time></trkpt><trkpt lat="45.234626324704145" lon="8.00732855937904"><ele>176.42857142857144</ele><time>2026-04-12T09:17:30.997Z</time></trkpt><trkpt lat="45.234675706672036" lon="8.007231780147022"><ele>176.57142857142856</ele><time>2026-04-12T09:17:31.997Z</time></trkpt><trkpt lat="45.234716588038424" lon="8.007146712554272"><ele>176.7142857142857</ele><time>2026-04-12T09:17:33Z</time></trkpt><trkpt lat="45.234749397358094" lon="8.007067788315346"><ele>176.85714285714286</ele><time>2026-04-12T09:17:34Z</time></trkpt><trkpt lat="45.23477778398889" lon="8.006981332391202"><ele>177.0</ele><time>2026-04-12T09:17:35Z</time></trkpt><trkpt lat="45.23479718448142" lon="8.006886199106715"><ele>176.85714285714286</ele><time>2026-04-12T09:17:36Z</time></trkpt><trkpt lat="45.23481855997989" lon="8.006784292263463"><ele>176.7142857142857</ele><time>2026-04-12T09:17:37Z</time></trkpt><trkpt lat="45.234845364852426" lon="8.006689563761313"><ele>176.57142857142856</ele><time>2026-04-12T09:17:38Z</time></trkpt><trkpt lat="45.23487492613793" lon="8.006607123629347"><ele>176.42857142857144</ele><time>2026-04-12T09:17:39Z</time></trkpt><trkpt lat="45.23490996001968" lon="8.006519924052672"><ele>176.28571428571428</ele><time>2026-04-12T09:17:40Z</time></trkpt><trkpt lat="45.23494975808437" lon="8.006444917063195"><ele>176.14285714285714</ele><time>2026-04-12T09:17:41Z</time></trkpt><trkpt lat="45.23500185138953" lon="8.00636352472113"><ele>176.0</ele><time>2026-04-12T09:17:42Z</time></trkpt><trkpt lat="45.23505372897975" lon="8.006288370100918"><ele>176.0</ele><time>2026-04-12T09:17:43Z</time></trkpt><trkpt lat="45.23510533807208" lon="8.006218877350683"><ele>176.0</ele><time>2026-04-12T09:17:44Z</time></trkpt><trkpt lat="45.23521994782098" lon="8.006152658285535"><ele>176.0</ele><time>2026-04-12T09:17:46Z</time></trkpt><trkpt lat="45.235291869786934" lon="8.006141628775158"><ele>176.0</ele><time>2026-04-12T09:17:47Z</time></trkpt><trkpt lat="45.23537189132969" lon="8.00614683718906"><ele>176.0</ele><time>2026-04-12T09:17:48Z</time></trkpt><trkpt lat="45.23544394765562" lon="8.006169483477455"><ele>176.0</ele><time>2026-04-12T09:17:49Z</time></trkpt><trkpt lat="45.23552179060204" lon="8.006195091581448"><ele>176.0</ele><time>2026-04-12T09:17:50Z</time></trkpt><trkpt lat="45.2356067360575" lon="8.006218823628817"><ele>176.0</ele><time>2026-04-12T09:17:51Z</time></trkpt><trkpt lat="45.23567599514262" lon="8.006226130085386"><ele>176.0</ele><time>2026-04-12T09:17:52Z</time></trkpt><trkpt lat="45.23573928681319" lon="8.006208185748791"><ele>176.0</ele><time>2026-04-12T09:17:53Z</time></trkpt><trkpt lat="45.23580387948494" lon="8.006171605848678"><ele>176.0</ele><time>2026-04-12T09:17:54Z</time></trkpt><trkpt lat="45.23586171002275" lon="8.006120908717245"><ele>176.0</ele><time>2026-04-12T09:17:55Z</time></trkpt><trkpt lat="45.23598305942999" lon="8.00601738231169"><ele>177.20000000000002</ele><time>2026-04-12T09:17:57Z</time></trkpt><trkpt lat="45.23605735667818" lon="8.005922335471565"><ele>178.4</ele><time>2026-04-12T09:17:59Z</time></trkpt><trkpt lat="45.23612483220512" lon="8.005886343419288"><ele>179.6</ele><time>2026-04-12T09:18:02Z</time></trkpt><trkpt lat="45.23620321302749" lon="8.006005811322009"><ele>180.8</ele><time>2026-04-12T09:18:04Z</time></trkpt><trkpt lat="45.236224714826" lon="8.006110815071533"><ele>182.0</ele><time>2026-04-12T09:18:05Z</time></trkpt><trkpt lat="45.236211225217396" lon="8.006248947999246"><ele>182.0</ele><time>2026-04-12T09:18:06Z</time></trkpt><trkpt lat="45.236170315002774" lon="8.00642543799455"><ele>182.0</ele><time>2026-04-12T09:18:07Z</time></trkpt><trkpt lat="45.23611987900475" lon="8.006644185586106"><ele>182.0</ele><time>2026-04-12T09:18:08Z</time></trkpt><trkpt lat="45.23607011686022" lon="8.006906573049829"><ele>182.0</ele><time>2026-04-12T09:18:08.999Z</time></trkpt><trkpt lat="45.236021854323546" lon="8.00717510282806"><ele>182.0</ele><time>2026-04-12T09:18:09.999Z</time></trkpt><trkpt lat="45.23596653377822" lon="8.007451005322512"><ele>182.0</ele><time>2026-04-12T09:18:10.999Z</time></trkpt><trkpt lat="45.235905088420175" lon="8.007745252291704"><ele>183.33333333333331</ele><time>2026-04-12T09:18:11.999Z</time></trkpt><trkpt lat="45.23584656736366" lon="8.008040439301007"><ele>184.66666666666666</ele><time>2026-04-12T09:18:12.999Z</time></trkpt><trkpt lat="45.235788118555476" lon="8.00831599870074"><ele>186.0</ele><time>2026-04-12T09:18:13.999Z</time></trkpt><trkpt lat="45.23572144028255" lon="8.008549106797258"><ele>185.75</ele><time>2026-04-12T09:18:14.999Z</time></trkpt><trkpt lat="45.235664923278826" lon="8.008785943622593"><ele>185.5</ele><time>2026-04-12T09:18:15.999Z</time></trkpt><trkpt lat="45.235618020705566" lon="8.008961745562408"><ele>185.25</ele><time>2026-04-12T09:18:16.999Z</time></trkpt><trkpt lat="45.23558557957533" lon="8.009143194450633"><ele>185.0</ele><time>2026-04-12T09:18:17.999Z</time></trkpt><trkpt lat="45.23555294311947" lon="8.009312569281567"><ele>185.0</ele><time>2026-04-12T09:18:18.999Z</time></trkpt><trkpt lat="45.23552706396898" lon="8.009468589844323"><ele>185.0</ele><time>2026-04-12T09:18:19.999Z</time></trkpt><trkpt lat="45.23551327054567" lon="8.009601290975942"><ele>185.0</ele><time>2026-04-12T09:18:20.999Z</time></trkpt><trkpt lat="45.23550764060078" lon="8.009736947910659"><ele>185.0</ele><time>2026-04-12T09:18:21.999Z</time></trkpt><trkpt lat="45.235472988154804" lon="8.009860659587867"><ele>185.0</ele><time>2026-04-12T09:18:22.999Z</time></trkpt><trkpt lat="45.23545280171402" lon="8.009973887306495"><ele>186.16666666666666</ele><time>2026-04-12T09:18:23.999Z</time></trkpt><trkpt lat="45.235457314660664" lon="8.01008492293871"><ele>187.33333333333331</ele><time>2026-04-12T09:18:24.999Z</time></trkpt><trkpt lat="45.235449829420425" lon="8.01018235296023"><ele>188.5</ele><time>2026-04-12T09:18:25.999Z</time></trkpt><trkpt lat="45.235444095457495" lon="8.010308138729965"><ele>189.66666666666666</ele><time>2026-04-12T09:18:27.999Z</time></trkpt><trkpt lat="45.23544705976841" lon="8.010432211709071"><ele>190.83333333333334</ele><time>2026-04-12T09:18:29.999Z</time></trkpt><trkpt lat="45.23545708127985" lon="8.010522696215167"><ele>192.0</ele><time>2026-04-12T09:18:30.999Z</time></trkpt><trkpt lat="45.23545783643983" lon="8.010623753910506"><ele>192.0</ele><time>2026-04-12T09:18:31.999Z</time></trkpt><trkpt lat="45.23545492778647" lon="8.010730398088603"><ele>192.0</ele><time>2026-04-12T09:18:32.999Z</time></trkpt><trkpt lat="45.2354548133045" lon="8.010836203945868"><ele>192.0</ele><time>2026-04-12T09:18:33.999Z</time></trkpt><trkpt lat="45.23545919230748" lon="8.010934411748648"><ele>192.0</ele><time>2026-04-12T09:18:34.999Z</time></trkpt><trkpt lat="45.23546671015825" lon="8.011044328250522"><ele>192.0</ele><time>2026-04-12T09:18:35.999Z</time></trkpt><trkpt lat="45.2354756434325" lon="8.01116371843117"><ele>192.0</ele><time>2026-04-12T09:18:36.999Z</time></trkpt><trkpt lat="45.23551845691934" lon="8.011247963507447"><ele>192.6</ele><time>2026-04-12T09:18:37.999Z</time></trkpt><trkpt lat="45.23548170530053" lon="8.011350178210298"><ele>193.2</ele><time>2026-04-12T09:18:38.999Z</time></trkpt><trkpt lat="45.23547766784127" lon="8.011444922933567"><ele>193.8</ele><time>2026-04-12T09:18:39.999Z</time></trkpt><trkpt lat="45.23547268353725" lon="8.01158858430161"><ele>194.4</ele><time>2026-04-12T09:18:41.999Z</time></trkpt><trkpt lat="45.23546759605501" lon="8.011699380289912"><ele>195.0</ele><time>2026-04-12T09:18:43.999Z</time></trkpt><trkpt lat="45.23561948279048" lon="8.011768320619597"><ele>195.33333333333334</ele><time>2026-04-12T09:18:45.998Z</time></trkpt><trkpt lat="45.2356911018385" lon="8.011798663075242"><ele>195.66666666666669</ele><time>2026-04-12T09:18:46.998Z</time></trkpt><trkpt lat="45.23575958052071" lon="8.011865677932331"><ele>196.0</ele><time>2026-04-12T09:18:48.998Z</time></trkpt><trkpt lat="45.23585130176089" lon="8.01190136187605"><ele>196.33333333333334</ele><time>2026-04-12T09:18:56.998Z</time></trkpt><trkpt lat="45.23592782406658" lon="8.011830522574664"><ele>196.66666666666669</ele><time>2026-04-12T09:18:58.998Z</time></trkpt><trkpt lat="45.23598161970119" lon="8.01177615569068"><ele>197.0</ele><time>2026-04-12T09:18:59.998Z</time></trkpt><trkpt lat="45.2360255603668" lon="8.011694502768378"><ele>197.00000000000003</ele><time>2026-04-12T09:19:02.998Z</time></trkpt><trkpt lat="45.23607650904065" lon="8.011812582706298"><ele>197.0</ele><time>2026-04-12T09:19:03.998Z</time></trkpt><trkpt lat="45.23614658872876" lon="8.011861113491394"><ele>197.0</ele><time>2026-04-12T09:19:04.998Z</time></trkpt><trkpt lat="45.23622163660162" lon="8.011925296510492"><ele>197.0</ele><time>2026-04-12T09:19:05.998Z</time></trkpt><trkpt lat="45.23628070943719" lon="8.01199073414165"><ele>197.00000000000003</ele><time>2026-04-12T09:19:06.998Z</time></trkpt><trkpt lat="45.236335811186066" lon="8.012072658828002"><ele>197.0</ele><time>2026-04-12T09:19:07.998Z</time></trkpt><trkpt lat="45.23639184767226" lon="8.012160171911974"><ele>197.0</ele><time>2026-04-12T09:19:08.998Z</time></trkpt><trkpt lat="45.2364440814282" lon="8.012248319750979"><ele>197.0</ele><time>2026-04-12T09:19:09.998Z</time></trkpt><trkpt lat="45.236503205185" lon="8.012349837351492"><ele>197.0</ele><time>2026-04-12T09:19:10.998Z</time></trkpt><trkpt lat="45.23656452077685" lon="8.012448309564878"><ele>197.0</ele><time>2026-04-12T09:19:11.998Z</time></trkpt><trkpt lat="45.23663146900207" lon="8.012550881696601"><ele>197.0</ele><time>2026-04-12T09:19:12.998Z</time></trkpt><trkpt lat="45.23670751449366" lon="8.01266050058167"><ele>196.39999999999998</ele><time>2026-04-12T09:19:13.998Z</time></trkpt><trkpt lat="45.23679357911305" lon="8.012748626158904"><ele>195.79999999999998</ele><time>2026-04-12T09:19:14.998Z</time></trkpt><trkpt lat="45.2368515050286" lon="8.012850301184324"><ele>195.2</ele><time>2026-04-12T09:19:15.998Z</time></trkpt><trkpt lat="45.23690923051196" lon="8.012917177741803"><ele>194.6</ele><time>2026-04-12T09:19:16.998Z</time></trkpt><trkpt lat="45.23697997104244" lon="8.01301781911627"><ele>194.0</ele><time>2026-04-12T09:19:18.998Z</time></trkpt><trkpt lat="45.23705654655405" lon="8.01305468704031"><ele>194.00000000000003</ele><time>2026-04-12T09:19:21.998Z</time></trkpt><trkpt lat="45.23714574278488" lon="8.013094845820474"><ele>194.0</ele><time>2026-04-12T09:19:23.997Z</time></trkpt><trkpt lat="45.23720735503866" lon="8.013151679714223"><ele>194.0</ele><time>2026-04-12T09:19:24.997Z</time></trkpt><trkpt lat="45.23727073333335" lon="8.013184843106647"><ele>194.0</ele><time>2026-04-12T09:19:25.997Z</time></trkpt><trkpt lat="45.23735382318078" lon="8.013224318780331"><ele>194.00000000000003</ele><time>2026-04-12T09:19:27.997Z</time></trkpt><trkpt lat="45.23741965522386" lon="8.013248369843204"><ele>194.0</ele><time>2026-04-12T09:19:29.997Z</time></trkpt><trkpt lat="45.23733746378783" lon="8.013196504684077"><ele>194.00000000000003</ele><time>2026-04-12T09:19:41Z</time></trkpt><trkpt lat="45.23727577657254" lon="8.013163425264217"><ele>194.0</ele><time>2026-04-12T09:19:42Z</time></trkpt><trkpt lat="45.23719029249286" lon="8.013125101206953"><ele>194.0</ele><time>2026-04-12T09:19:43Z</time></trkpt><trkpt lat="45.23710240868076" lon="8.013081540795563"><ele>194.0</ele><time>2026-04-12T09:19:44Z</time></trkpt><trkpt lat="45.23703155369133" lon="8.01303889503101"><ele>194.00000000000003</ele><time>2026-04-12T09:19:45Z</time></trkpt><trkpt lat="45.23697099556257" lon="8.012952264104555"><ele>194.0</ele><time>2026-04-12T09:19:46Z</time></trkpt><trkpt lat="45.23689175169906" lon="8.012849441813193"><ele>194.0</ele><time>2026-04-12T09:19:48Z</time></trkpt><trkpt lat="45.23677893252513" lon="8.0131010662789"><ele>194.0</ele><time>2026-04-12T09:19:52Z</time></trkpt><trkpt lat="45.2367474563317" lon="8.01322211359266"><ele>194.0</ele><time>2026-04-12T09:19:53Z</time></trkpt><trkpt lat="45.236692107683524" lon="8.013314335595414"><ele>194.0</ele><time>2026-04-12T09:19:54Z</time></trkpt><trkpt lat="45.23663847122884" lon="8.013398752103958"><ele>194.0</ele><time>2026-04-12T09:19:56Z</time></trkpt><trkpt lat="45.236579674200996" lon="8.01346706966823"><ele>194.0</ele><time>2026-04-12T09:20:00Z</time></trkpt><trkpt lat="45.23651570529007" lon="8.013437699963992"><ele>194.0</ele><time>2026-04-12T09:20:01Z</time></trkpt><trkpt lat="45.236416319463906" lon="8.013463220171353"><ele>194.0</ele><time>2026-04-12T09:20:02Z</time></trkpt><trkpt lat="45.23631772764422" lon="8.013426653244926"><ele>194.0</ele><time>2026-04-12T09:20:03Z</time></trkpt><trkpt lat="45.23621703525109" lon="8.013376644119507"><ele>194.00000000000003</ele><time>2026-04-12T09:20:04Z</time></trkpt><trkpt lat="45.236154554039686" lon="8.013359088741616"><ele>194.0</ele><time>2026-04-12T09:20:05Z</time></trkpt><trkpt lat="45.23607416281422" lon="8.01329184810238"><ele>194.0</ele><time>2026-04-12T09:20:06Z</time></trkpt><trkpt lat="45.23599703186431" lon="8.01320420740957"><ele>194.0</ele><time>2026-04-12T09:20:07Z</time></trkpt><trkpt lat="45.2359168069341" lon="8.013153316876982"><ele>194.00000000000003</ele><time>2026-04-12T09:20:08Z</time></trkpt><trkpt lat="45.235842378681376" lon="8.013091086810444"><ele>194.0</ele><time>2026-04-12T09:20:09Z</time></trkpt><trkpt lat="45.2357721398807" lon="8.013043749984801"><ele>194.16666666666669</ele><time>2026-04-12T09:20:10Z</time></trkpt><trkpt lat="45.23571080537157" lon="8.012989648960781"><ele>194.33333333333334</ele><time>2026-04-12T09:20:10.999Z</time></trkpt><trkpt lat="45.235654476874146" lon="8.012940235693057"><ele>194.5</ele><time>2026-04-12T09:20:11.999Z</time></trkpt><trkpt lat="45.23558954889941" lon="8.012889797405133"><ele>194.66666666666669</ele><time>2026-04-12T09:20:13.999Z</time></trkpt><trkpt lat="45.23554100616767" lon="8.012789549090916"><ele>194.83333333333334</ele><time>2026-04-12T09:20:18.999Z</time></trkpt><trkpt lat="45.2356034974887" lon="8.012601686794952"><ele>195.0</ele><time>2026-04-12T09:20:20.999Z</time></trkpt><trkpt lat="45.23563784625407" lon="8.012497959180859"><ele>195.33333333333334</ele><time>2026-04-12T09:20:21.999Z</time></trkpt><trkpt lat="45.23566305068346" lon="8.012348011520013"><ele>195.66666666666669</ele><time>2026-04-12T09:20:23.999Z</time></trkpt><trkpt lat="45.23570415052072" lon="8.012218391789663"><ele>196.0</ele><time>2026-04-12T09:20:25.999Z</time></trkpt><trkpt lat="45.23573325072567" lon="8.012129012505286"><ele>196.33333333333334</ele><time>2026-04-12T09:20:26.999Z</time></trkpt><trkpt lat="45.23576074308687" lon="8.012018268957895"><ele>196.66666666666669</ele><time>2026-04-12T09:20:28.999Z</time></trkpt><trkpt lat="45.235814532124785" lon="8.011924912195589"><ele>197.0</ele><time>2026-04-12T09:20:30.999Z</time></trkpt><trkpt lat="45.23576501874951" lon="8.01178886642228"><ele>197.0</ele><time>2026-04-12T09:20:33.999Z</time></trkpt><trkpt lat="45.235644430515855" lon="8.011739328417413"><ele>197.0</ele><time>2026-04-12T09:20:35.999Z</time></trkpt><trkpt lat="45.23556653130426" lon="8.011711847529833"><ele>197.0</ele><time>2026-04-12T09:20:36.999Z</time></trkpt><trkpt lat="45.23546889708424" lon="8.011632671436608"><ele>197.0</ele><time>2026-04-12T09:20:38.999Z</time></trkpt><trkpt lat="45.235353800521196" lon="8.011845177431777"><ele>196.8</ele><time>2026-04-12T09:20:41.999Z</time></trkpt><trkpt lat="45.23532288548137" lon="8.012016057865106"><ele>196.6</ele><time>2026-04-12T09:20:43.999Z</time></trkpt><trkpt lat="45.23531714601704" lon="8.012108526222333"><ele>196.4</ele><time>2026-04-12T09:20:45.999Z</time></trkpt><trkpt lat="45.235193077861474" lon="8.012119933946867"><ele>196.20000000000002</ele><time>2026-04-12T09:20:47.998Z</time></trkpt><trkpt lat="45.23511883119261" lon="8.012095033250791"><ele>196.0</ele><time>2026-04-12T09:20:48.998Z</time></trkpt><trkpt lat="45.23503622426799" lon="8.012079996657496"><ele>195.99999999999997</ele><time>2026-04-12T09:20:49.998Z</time></trkpt><trkpt lat="45.23491628848936" lon="8.012097040766912"><ele>196.0</ele><time>2026-04-12T09:20:50.998Z</time></trkpt><trkpt lat="45.23485164518578" lon="8.0120905690338"><ele>196.0</ele><time>2026-04-12T09:20:52.998Z</time></trkpt><trkpt lat="45.23482361262411" lon="8.012249899896755"><ele>196.0</ele><time>2026-04-12T09:20:55.998Z</time></trkpt><trkpt lat="45.234775193540486" lon="8.012310798404089"><ele>195.99999999999997</ele><time>2026-04-12T09:20:56.998Z</time></trkpt><trkpt lat="45.23469975136824" lon="8.012331482040075"><ele>196.0</ele><time>2026-04-12T09:20:57.998Z</time></trkpt><trkpt lat="45.23460244894252" lon="8.012336916302116"><ele>194.75</ele><time>2026-04-12T09:20:58.998Z</time></trkpt><trkpt lat="45.2344722500225" lon="8.012380652218054"><ele>193.5</ele><time>2026-04-12T09:20:59.998Z</time></trkpt><trkpt lat="45.23432014909546" lon="8.012408349518894"><ele>192.25</ele><time>2026-04-12T09:21:00.998Z</time></trkpt><trkpt lat="45.234176339035294" lon="8.012429529945658"><ele>191.0</ele><time>2026-04-12T09:21:01.998Z</time></trkpt><trkpt lat="45.234060259203126" lon="8.012433292213023"><ele>189.60000000000002</ele><time>2026-04-12T09:21:02.998Z</time></trkpt><trkpt lat="45.23396870354552" lon="8.012444401080554"><ele>188.2</ele><time>2026-04-12T09:21:03.998Z</time></trkpt><trkpt lat="45.233857795755995" lon="8.012489674998005"><ele>186.8</ele><time>2026-04-12T09:21:05.998Z</time></trkpt><trkpt lat="45.23381905431538" lon="8.012585833412865"><ele>185.39999999999998</ele><time>2026-04-12T09:21:06.998Z</time></trkpt><trkpt lat="45.23380123359405" lon="8.012709022346817"><ele>184.0</ele><time>2026-04-12T09:21:07.998Z</time></trkpt><trkpt lat="45.233787887221645" lon="8.01285221390093"><ele>184.0</ele><time>2026-04-12T09:21:08.998Z</time></trkpt><trkpt lat="45.233768327874955" lon="8.013014178252611"><ele>184.0</ele><time>2026-04-12T09:21:09.998Z</time></trkpt><trkpt lat="45.23374930666902" lon="8.013187822275553"><ele>184.0</ele><time>2026-04-12T09:21:10.998Z</time></trkpt><trkpt lat="45.23372499969009" lon="8.013330885227335"><ele>184.0</ele><time>2026-04-12T09:21:11.998Z</time></trkpt><trkpt lat="45.23370901184542" lon="8.01346473965786"><ele>184.0</ele><time>2026-04-12T09:21:12.998Z</time></trkpt><trkpt lat="45.23370322793265" lon="8.01362760302961"><ele>185.25</ele><time>2026-04-12T09:21:13.998Z</time></trkpt><trkpt lat="45.23367627296605" lon="8.013808518922248"><ele>186.5</ele><time>2026-04-12T09:21:14.998Z</time></trkpt><trkpt lat="45.23366092096119" lon="8.013999512079803"><ele>187.75</ele><time>2026-04-12T09:21:15.998Z</time></trkpt><trkpt lat="45.233656723959946" lon="8.014182544120189"><ele>189.0</ele><time>2026-04-12T09:21:16.998Z</time></trkpt><trkpt lat="45.233651579593335" lon="8.014341902146883"><ele>189.2</ele><time>2026-04-12T09:21:17.998Z</time></trkpt><trkpt lat="45.23365235782828" lon="8.014493745791324"><ele>189.39999999999998</ele><time>2026-04-12T09:21:18.998Z</time></trkpt><trkpt lat="45.23365925990923" lon="8.014646926084238"><ele>189.6</ele><time>2026-04-12T09:21:19.998Z</time></trkpt><trkpt lat="45.23365451343284" lon="8.014805400377984"><ele>189.8</ele><time>2026-04-12T09:21:20.998Z</time></trkpt><trkpt lat="45.233646909965145" lon="8.014954259310334"><ele>190.0</ele><time>2026-04-12T09:21:21.998Z</time></trkpt><trkpt lat="45.23364435749163" lon="8.015111230187548"><ele>190.0</ele><time>2026-04-12T09:21:22.998Z</time></trkpt><trkpt lat="45.23362973336988" lon="8.015268910411708"><ele>190.0</ele><time>2026-04-12T09:21:23.998Z</time></trkpt><trkpt lat="45.233630869087385" lon="8.015424133093077"><ele>190.0</ele><time>2026-04-12T09:21:24.997Z</time></trkpt><trkpt lat="45.23362055546586" lon="8.015545059697951"><ele>190.0</ele><time>2026-04-12T09:21:25.997Z</time></trkpt><trkpt lat="45.23361870826781" lon="8.015660938059325"><ele>190.0</ele><time>2026-04-12T09:21:26.997Z</time></trkpt><trkpt lat="45.233606673111126" lon="8.015772829221046"><ele>189.6</ele><time>2026-04-12T09:21:27.997Z</time></trkpt><trkpt lat="45.23355839250315" lon="8.015879255797977"><ele>189.2</ele><time>2026-04-12T09:21:28.997Z</time></trkpt><trkpt lat="45.23352978873097" lon="8.016013792905913"><ele>188.8</ele><time>2026-04-12T09:21:29.997Z</time></trkpt><trkpt lat="45.23350716505048" lon="8.01616039949205"><ele>188.4</ele><time>2026-04-12T09:21:30.997Z</time></trkpt><trkpt lat="45.23351073320491" lon="8.016326217737747"><ele>188.0</ele><time>2026-04-12T09:21:31.997Z</time></trkpt><trkpt lat="45.23351631510994" lon="8.016478998327058"><ele>188.0</ele><time>2026-04-12T09:21:32.997Z</time></trkpt><trkpt lat="45.233515095290244" lon="8.016618135203682"><ele>188.0</ele><time>2026-04-12T09:21:33.997Z</time></trkpt><trkpt lat="45.23350762436351" lon="8.01673042988215"><ele>188.0</ele><time>2026-04-12T09:21:34.997Z</time></trkpt><trkpt lat="45.23350150637875" lon="8.016835195261448"><ele>188.0</ele><time>2026-04-12T09:21:36.997Z</time></trkpt><trkpt lat="45.23364277153123" lon="8.016885915722012"><ele>188.0</ele><time>2026-04-12T09:21:38.997Z</time></trkpt><trkpt lat="45.2337170826829" lon="8.016910283338234"><ele>188.0</ele><time>2026-04-12T09:21:39.997Z</time></trkpt><trkpt lat="45.23376471287108" lon="8.016992371024159"><ele>188.0</ele><time>2026-04-12T09:21:40.997Z</time></trkpt><trkpt lat="45.23381170052976" lon="8.017102284721366"><ele>188.0</ele><time>2026-04-12T09:21:41.997Z</time></trkpt><trkpt lat="45.23385559166264" lon="8.0172354672282"><ele>188.0</ele><time>2026-04-12T09:21:42.997Z</time></trkpt><trkpt lat="45.233902290053095" lon="8.017367519835267"><ele>188.0</ele><time>2026-04-12T09:21:43.997Z</time></trkpt><trkpt lat="45.2339480412026" lon="8.017467139124761"><ele>188.2</ele><time>2026-04-12T09:21:45Z</time></trkpt><trkpt lat="45.23399129921223" lon="8.017532835406032"><ele>188.4</ele><time>2026-04-12T09:21:46Z</time></trkpt><trkpt lat="45.23411646468977" lon="8.017598654114874"><ele>188.6</ele><time>2026-04-12T09:21:48Z</time></trkpt><trkpt lat="45.234229310538225" lon="8.017626356170004"><ele>188.79999999999998</ele><time>2026-04-12T09:21:49Z</time></trkpt><trkpt lat="45.234340535295104" lon="8.017646970486703"><ele>189.0</ele><time>2026-04-12T09:21:50Z</time></trkpt><trkpt lat="45.23446089243411" lon="8.017668088912762"><ele>189.0</ele><time>2026-04-12T09:21:51Z</time></trkpt><trkpt lat="45.234553078188874" lon="8.017713873409207"><ele>189.0</ele><time>2026-04-12T09:21:52Z</time></trkpt><trkpt lat="45.23463393633925" lon="8.017786167550526"><ele>189.0</ele><time>2026-04-12T09:21:53Z</time></trkpt><trkpt lat="45.23471569504314" lon="8.017899099490005"><ele>189.0</ele><time>2026-04-12T09:21:54Z</time></trkpt><trkpt lat="45.234801124457576" lon="8.018032166950153"><ele>189.0</ele><time>2026-04-12T09:21:55Z</time></trkpt><trkpt lat="45.234878068959326" lon="8.0181533346732"><ele>189.0</ele><time>2026-04-12T09:21:56Z</time></trkpt><trkpt lat="45.234956324827515" lon="8.018270652732813"><ele>189.0</ele><time>2026-04-12T09:21:57Z</time></trkpt><trkpt lat="45.23504238999059" lon="8.018394954431121"><ele>189.0</ele><time>2026-04-12T09:21:58Z</time></trkpt><trkpt lat="45.23513599243618" lon="8.01852202704367"><ele>189.0</ele><time>2026-04-12T09:21:59Z</time></trkpt><trkpt lat="45.235223282454726" lon="8.018643132367966"><ele>189.0</ele><time>2026-04-12T09:22:00Z</time></trkpt><trkpt lat="45.235289759907516" lon="8.018741681107803"><ele>189.0</ele><time>2026-04-12T09:22:01Z</time></trkpt><trkpt lat="45.235344866165406" lon="8.01883864943339"><ele>189.0</ele><time>2026-04-12T09:22:02Z</time></trkpt><trkpt lat="45.23538662323312" lon="8.018956807509587"><ele>189.0</ele><time>2026-04-12T09:22:03Z</time></trkpt><trkpt lat="45.235430806695746" lon="8.019114318278515"><ele>189.0</ele><time>2026-04-12T09:22:04Z</time></trkpt><trkpt lat="45.23547996405907" lon="8.019292445621229"><ele>189.0</ele><time>2026-04-12T09:22:05Z</time></trkpt><trkpt lat="45.235547252027544" lon="8.01947418333849"><ele>189.0</ele><time>2026-04-12T09:22:06Z</time></trkpt><trkpt lat="45.23563088622488" lon="8.019652275329216"><ele>189.0</ele><time>2026-04-12T09:22:07Z</time></trkpt><trkpt lat="45.235712395638" lon="8.019794439112731"><ele>189.0</ele><time>2026-04-12T09:22:08Z</time></trkpt><trkpt lat="45.235775914062586" lon="8.019914268551464"><ele>189.25</ele><time>2026-04-12T09:22:09Z</time></trkpt><trkpt lat="45.2358297515456" lon="8.020032965021477"><ele>189.5</ele><time>2026-04-12T09:22:10Z</time></trkpt><trkpt lat="45.2358885215663" lon="8.020176652751985"><ele>189.75</ele><time>2026-04-12T09:22:11Z</time></trkpt><trkpt lat="45.23594469052938" lon="8.02034810568289"><ele>190.0</ele><time>2026-04-12T09:22:12Z</time></trkpt><trkpt lat="45.23599395982713" lon="8.020523694427464"><ele>190.0</ele><time>2026-04-12T09:22:13Z</time></trkpt><trkpt lat="45.23604186591059" lon="8.02067650874891"><ele>190.0</ele><time>2026-04-12T09:22:13.999Z</time></trkpt><trkpt lat="45.236092940886564" lon="8.020795375969945"><ele>190.0</ele><time>2026-04-12T09:22:14.999Z</time></trkpt><trkpt lat="45.236140317388674" lon="8.020890064685332"><ele>190.0</ele><time>2026-04-12T09:22:15.999Z</time></trkpt><trkpt lat="45.236173519948345" lon="8.02096744315596"><ele>190.0</ele><time>2026-04-12T09:22:16.999Z</time></trkpt><trkpt lat="45.23622783050536" lon="8.021046615263113"><ele>190.0</ele><time>2026-04-12T09:22:18.999Z</time></trkpt><trkpt lat="45.23631916807917" lon="8.02098369391052"><ele>190.0</ele><time>2026-04-12T09:22:20.999Z</time></trkpt><trkpt lat="45.23646978255342" lon="8.020816367300117"><ele>190.0</ele><time>2026-04-12T09:22:22.999Z</time></trkpt><trkpt lat="45.23655168869872" lon="8.020716419505625"><ele>190.0</ele><time>2026-04-12T09:22:23.999Z</time></trkpt><trkpt lat="45.236618230404325" lon="8.020641046136054"><ele>190.0</ele><time>2026-04-12T09:22:24.999Z</time></trkpt><trkpt lat="45.23667858278857" lon="8.020586337696841"><ele>190.0</ele><time>2026-04-12T09:22:25.999Z</time></trkpt><trkpt lat="45.236779016256" lon="8.020570892190884"><ele>190.0</ele><time>2026-04-12T09:22:27.999Z</time></trkpt><trkpt lat="45.23685404535789" lon="8.020637503222583"><ele>190.0</ele><time>2026-04-12T09:22:28.999Z</time></trkpt><trkpt lat="45.23695018300029" lon="8.020735822212865"><ele>190.0</ele><time>2026-04-12T09:22:29.999Z</time></trkpt><trkpt lat="45.23706808200749" lon="8.020859543963793"><ele>189.66666666666669</ele><time>2026-04-12T09:22:30.999Z</time></trkpt><trkpt lat="45.23719102963145" lon="8.021000852474186"><ele>189.33333333333334</ele><time>2026-04-12T09:22:31.999Z</time></trkpt><trkpt lat="45.2373228041179" lon="8.021150770254382"><ele>189.0</ele><time>2026-04-12T09:22:32.999Z</time></trkpt><trkpt lat="45.237448674364856" lon="8.021292910027109"><ele>189.0</ele><time>2026-04-12T09:22:33.999Z</time></trkpt><trkpt lat="45.23755320181051" lon="8.021411906507165"><ele>189.0</ele><time>2026-04-12T09:22:34.999Z</time></trkpt><trkpt lat="45.23764877027135" lon="8.021517621807687"><ele>189.0</ele><time>2026-04-12T09:22:35.999Z</time></trkpt><trkpt lat="45.2377561393448" lon="8.0216340084476"><ele>189.0</ele><time>2026-04-12T09:22:36.999Z</time></trkpt><trkpt lat="45.23787126443627" lon="8.021757796390746"><ele>189.5</ele><time>2026-04-12T09:22:37.999Z</time></trkpt><trkpt lat="45.23798394281766" lon="8.021896616262266"><ele>190.0</ele><time>2026-04-12T09:22:38.999Z</time></trkpt><trkpt lat="45.23808128518419" lon="8.022055686670845"><ele>190.5</ele><time>2026-04-12T09:22:39.999Z</time></trkpt><trkpt lat="45.238165742804505" lon="8.022232550063539"><ele>191.0</ele><time>2026-04-12T09:22:40.999Z</time></trkpt><trkpt lat="45.23824685075537" lon="8.022417979062618"><ele>191.0</ele><time>2026-04-12T09:22:41.999Z</time></trkpt><trkpt lat="45.23832850444457" lon="8.02259403772619"><ele>191.0</ele><time>2026-04-12T09:22:42.999Z</time></trkpt><trkpt lat="45.238412380627096" lon="8.022764055814088"><ele>191.0</ele><time>2026-04-12T09:22:43.999Z</time></trkpt><trkpt lat="45.23848548513219" lon="8.022954001777592"><ele>191.0</ele><time>2026-04-12T09:22:44.999Z</time></trkpt><trkpt lat="45.23857769582453" lon="8.023109177999764"><ele>191.0</ele><time>2026-04-12T09:22:45.999Z</time></trkpt><trkpt lat="45.238648587580556" lon="8.023262575899759"><ele>191.0</ele><time>2026-04-12T09:22:46.999Z</time></trkpt><trkpt lat="45.238701469177684" lon="8.023414456082806"><ele>191.0</ele><time>2026-04-12T09:22:47.999Z</time></trkpt><trkpt lat="45.23876320134057" lon="8.023544721700963"><ele>191.0</ele><time>2026-04-12T09:22:48.999Z</time></trkpt><trkpt lat="45.238834446882954" lon="8.023652847960838"><ele>191.0</ele><time>2026-04-12T09:22:49.998Z</time></trkpt><trkpt lat="45.23888793831096" lon="8.023766033171574"><ele>191.0</ele><time>2026-04-12T09:22:50.998Z</time></trkpt><trkpt lat="45.238923671931275" lon="8.023884660698409"><ele>191.0</ele><time>2026-04-12T09:22:51.998Z</time></trkpt><trkpt lat="45.238983344811786" lon="8.023973507114023"><ele>191.0</ele><time>2026-04-12T09:22:52.998Z</time></trkpt><trkpt lat="45.23904427197341" lon="8.024109080948909"><ele>191.0</ele><time>2026-04-12T09:22:53.998Z</time></trkpt><trkpt lat="45.23912024249683" lon="8.024271979675719"><ele>190.8</ele><time>2026-04-12T09:22:54.998Z</time></trkpt><trkpt lat="45.239186236397465" lon="8.024425151754377"><ele>190.60000000000002</ele><time>2026-04-12T09:22:55.998Z</time></trkpt><trkpt lat="45.23924528112323" lon="8.024552615403293"><ele>190.4</ele><time>2026-04-12T09:22:56.998Z</time></trkpt><trkpt lat="45.23929790244713" lon="8.024664311124129"><ele>190.2</ele><time>2026-04-12T09:22:57.998Z</time></trkpt><trkpt lat="45.23935125074412" lon="8.0247652348499"><ele>190.0</ele><time>2026-04-12T09:22:58.998Z</time></trkpt><trkpt lat="45.239395653919125" lon="8.024859649975657"><ele>190.0</ele><time>2026-04-12T09:22:59.998Z</time></trkpt><trkpt lat="45.23943975986467" lon="8.024953025310014"><ele>190.0</ele><time>2026-04-12T09:23:00.998Z</time></trkpt><trkpt lat="45.239492493182794" lon="8.025066755033992"><ele>190.0</ele><time>2026-04-12T09:23:01.998Z</time></trkpt><trkpt lat="45.23955260971972" lon="8.025195551118879"><ele>190.0</ele><time>2026-04-12T09:23:02.998Z</time></trkpt><trkpt lat="45.239621453792935" lon="8.025343006210923"><ele>190.0</ele><time>2026-04-12T09:23:03.998Z</time></trkpt><trkpt lat="45.23969836158809" lon="8.025508157866827"><ele>190.0</ele><time>2026-04-12T09:23:04.998Z</time></trkpt><trkpt lat="45.239783831417725" lon="8.025684957619438"><ele>190.0</ele><time>2026-04-12T09:23:05.998Z</time></trkpt><trkpt lat="45.23987406036503" lon="8.025874027828369"><ele>190.0</ele><time>2026-04-12T09:23:06.998Z</time></trkpt><trkpt lat="45.23995130486849" lon="8.02604045740916"><ele>189.6</ele><time>2026-04-12T09:23:07.998Z</time></trkpt><trkpt lat="45.2400219237863" lon="8.026190732366235"><ele>189.2</ele><time>2026-04-12T09:23:08.998Z</time></trkpt><trkpt lat="45.240074865183836" lon="8.02633757580846"><ele>188.8</ele><time>2026-04-12T09:23:09.998Z</time></trkpt><trkpt lat="45.2401241968041" lon="8.026442592353197"><ele>188.4</ele><time>2026-04-12T09:23:10.998Z</time></trkpt><trkpt lat="45.24017261515892" lon="8.026506288103837"><ele>188.0</ele><time>2026-04-12T09:23:11.998Z</time></trkpt><trkpt lat="45.24017369490372" lon="8.026614916721595"><ele>188.0</ele><time>2026-04-12T09:23:13.998Z</time></trkpt><trkpt lat="45.240074619114736" lon="8.026685619110234"><ele>188.0</ele><time>2026-04-12T09:23:15.998Z</time></trkpt><trkpt lat="45.240020841289876" lon="8.0267707385345"><ele>188.0</ele><time>2026-04-12T09:23:16.998Z</time></trkpt><trkpt lat="45.23994462233889" lon="8.026851217448087"><ele>188.0</ele><time>2026-04-12T09:23:17.998Z</time></trkpt><trkpt lat="45.23985422985943" lon="8.026947499216664"><ele>188.0</ele><time>2026-04-12T09:23:18.998Z</time></trkpt><trkpt lat="45.23974976926913" lon="8.02706135435258"><ele>188.33333333333331</ele><time>2026-04-12T09:23:19.998Z</time></trkpt><trkpt lat="45.23963473996981" lon="8.027186472411948"><ele>188.66666666666666</ele><time>2026-04-12T09:23:20.998Z</time></trkpt><trkpt lat="45.239515207938425" lon="8.027317310035945"><ele>189.0</ele><time>2026-04-12T09:23:21.998Z</time></trkpt><trkpt lat="45.23939197960989" lon="8.027449040760745"><ele>189.33333333333334</ele><time>2026-04-12T09:23:22.998Z</time></trkpt><trkpt lat="45.23926394610533" lon="8.027592519656253"><ele>189.66666666666669</ele><time>2026-04-12T09:23:23.998Z</time></trkpt><trkpt lat="45.23912246312495" lon="8.027754426482996"><ele>190.0</ele><time>2026-04-12T09:23:24.998Z</time></trkpt><trkpt lat="45.2389809645173" lon="8.027913841661736"><ele>188.75</ele><time>2026-04-12T09:23:25.998Z</time></trkpt><trkpt lat="45.23886492100077" lon="8.028044460096217"><ele>187.5</ele><time>2026-04-12T09:23:26.998Z</time></trkpt><trkpt lat="45.238762501830294" lon="8.028160434840393"><ele>186.25</ele><time>2026-04-12T09:23:27.997Z</time></trkpt><trkpt lat="45.23866623766712" lon="8.028271587388778"><ele>185.0</ele><time>2026-04-12T09:23:28.997Z</time></trkpt><trkpt lat="45.23855749025397" lon="8.028390224894322"><ele>185.0</ele><time>2026-04-12T09:23:29.997Z</time></trkpt><trkpt lat="45.23843755624108" lon="8.028511156114138"><ele>185.0</ele><time>2026-04-12T09:23:30.997Z</time></trkpt><trkpt lat="45.23833181832187" lon="8.028624614972077"><ele>185.0</ele><time>2026-04-12T09:23:31.997Z</time></trkpt><trkpt lat="45.23824596666477" lon="8.028729973917638"><ele>185.0</ele><time>2026-04-12T09:23:32.997Z</time></trkpt><trkpt lat="45.238165768442634" lon="8.02882509559433"><ele>185.0</ele><time>2026-04-12T09:23:33.997Z</time></trkpt><trkpt lat="45.23808120193366" lon="8.02892192254472"><ele>185.0</ele><time>2026-04-12T09:23:34.997Z</time></trkpt><trkpt lat="45.23799376458467" lon="8.029019311476702"><ele>185.0</ele><time>2026-04-12T09:23:35.997Z</time></trkpt><trkpt lat="45.23790090992054" lon="8.029120791944122"><ele>185.0</ele><time>2026-04-12T09:23:36.997Z</time></trkpt><trkpt lat="45.2377971565878" lon="8.029231461456105"><ele>185.0</ele><time>2026-04-12T09:23:37.997Z</time></trkpt><trkpt lat="45.23768553176577" lon="8.029356101017308"><ele>185.0</ele><time>2026-04-12T09:23:38.997Z</time></trkpt><trkpt lat="45.23755713976742" lon="8.029494640614157"><ele>185.0</ele><time>2026-04-12T09:23:39.997Z</time></trkpt><trkpt lat="45.237436324319816" lon="8.029635545561895"><ele>185.0</ele><time>2026-04-12T09:23:40.997Z</time></trkpt><trkpt lat="45.237344655745524" lon="8.029747309163518"><ele>185.0</ele><time>2026-04-12T09:23:41.997Z</time></trkpt><trkpt lat="45.23725434029058" lon="8.029837801579289"><ele>185.0</ele><time>2026-04-12T09:23:42.997Z</time></trkpt><trkpt lat="45.237164918066114" lon="8.02994248460934"><ele>185.0</ele><time>2026-04-12T09:23:43.997Z</time></trkpt><trkpt lat="45.23706604260957" lon="8.030052716588514"><ele>185.0</ele><time>2026-04-12T09:23:44.997Z</time></trkpt><trkpt lat="45.23697135102839" lon="8.03015319427194"><ele>185.0</ele><time>2026-04-12T09:23:45.997Z</time></trkpt><trkpt lat="45.23688657664653" lon="8.030248685446171"><ele>185.0</ele><time>2026-04-12T09:23:46.997Z</time></trkpt><trkpt lat="45.236797521307885" lon="8.030350933407666"><ele>185.0</ele><time>2026-04-12T09:23:47.997Z</time></trkpt><trkpt lat="45.236715957811555" lon="8.030438860902898"><ele>185.0</ele><time>2026-04-12T09:23:48.997Z</time></trkpt><trkpt lat="45.23662759523049" lon="8.030528753372677"><ele>185.0</ele><time>2026-04-12T09:23:49.997Z</time></trkpt><trkpt lat="45.236540197864734" lon="8.030616375373766"><ele>185.0</ele><time>2026-04-12T09:23:50.999Z</time></trkpt><trkpt lat="45.236453541678024" lon="8.030687777265369"><ele>185.0</ele><time>2026-04-12T09:23:51.999Z</time></trkpt><trkpt lat="45.236383130542755" lon="8.030766544889328"><ele>185.0</ele><time>2026-04-12T09:23:52.999Z</time></trkpt><trkpt lat="45.23631592543028" lon="8.030835646028391"><ele>185.0</ele><time>2026-04-12T09:23:53.999Z</time></trkpt><trkpt lat="45.23625766462533" lon="8.0309194439873"><ele>184.8</ele><time>2026-04-12T09:23:54.999Z</time></trkpt><trkpt lat="45.23620706157373" lon="8.031010096404765"><ele>184.6</ele><time>2026-04-12T09:23:55.999Z</time></trkpt><trkpt lat="45.236168374721345" lon="8.03112053282509"><ele>184.39999999999998</ele><time>2026-04-12T09:23:56.999Z</time></trkpt><trkpt lat="45.2361295271412" lon="8.03125631480412"><ele>184.2</ele><time>2026-04-12T09:23:57.999Z</time></trkpt><trkpt lat="45.23609058541975" lon="8.031414156894611"><ele>184.0</ele><time>2026-04-12T09:23:58.999Z</time></trkpt><trkpt lat="45.236037470001534" lon="8.031605924540921"><ele>183.66666666666669</ele><time>2026-04-12T09:23:59.999Z</time></trkpt><trkpt lat="45.23596513017805" lon="8.031837568503882"><ele>183.33333333333334</ele><time>2026-04-12T09:24:00.999Z</time></trkpt><trkpt lat="45.235884275827345" lon="8.03208166243341"><ele>183.0</ele><time>2026-04-12T09:24:01.999Z</time></trkpt><trkpt lat="45.23581698664754" lon="8.032293379512083"><ele>183.0</ele><time>2026-04-12T09:24:02.999Z</time></trkpt><trkpt lat="45.23575748700565" lon="8.032491062559389"><ele>183.0</ele><time>2026-04-12T09:24:03.999Z</time></trkpt><trkpt lat="45.23569601882624" lon="8.032685364214773"><ele>183.0</ele><time>2026-04-12T09:24:04.999Z</time></trkpt><trkpt lat="45.23563071116033" lon="8.032886706506567"><ele>183.0</ele><time>2026-04-12T09:24:05.999Z</time></trkpt><trkpt lat="45.23556619879541" lon="8.03310122417457"><ele>183.0</ele><time>2026-04-12T09:24:06.999Z</time></trkpt><trkpt lat="45.23550745523779" lon="8.033288324301273"><ele>183.0</ele><time>2026-04-12T09:24:07.999Z</time></trkpt><trkpt lat="45.23545654925376" lon="8.033449041589455"><ele>183.0</ele><time>2026-04-12T09:24:08.999Z</time></trkpt><trkpt lat="45.235406029724494" lon="8.033619868446934"><ele>183.0</ele><time>2026-04-12T09:24:09.999Z</time></trkpt><trkpt lat="45.23535947455126" lon="8.033783753840215"><ele>183.0</ele><time>2026-04-12T09:24:10.999Z</time></trkpt><trkpt lat="45.23532361249285" lon="8.033946510498318"><ele>183.0</ele><time>2026-04-12T09:24:11.999Z</time></trkpt><trkpt lat="45.23529511733674" lon="8.034133810199076"><ele>183.0</ele><time>2026-04-12T09:24:12.999Z</time></trkpt><trkpt lat="45.23527512256338" lon="8.034342541821541"><ele>182.66666666666666</ele><time>2026-04-12T09:24:13.999Z</time></trkpt><trkpt lat="45.23526417822845" lon="8.034585872955038"><ele>182.33333333333331</ele><time>2026-04-12T09:24:14.999Z</time></trkpt><trkpt lat="45.235258382622895" lon="8.034824169950191"><ele>182.0</ele><time>2026-04-12T09:24:15.999Z</time></trkpt><trkpt lat="45.235253600700666" lon="8.035020527400311"><ele>181.5</ele><time>2026-04-12T09:24:16.999Z</time></trkpt><trkpt lat="45.23525137169112" lon="8.035193876049869"><ele>181.0</ele><time>2026-04-12T09:24:17.999Z</time></trkpt><trkpt lat="45.2352383048346" lon="8.035366108198513"><ele>180.5</ele><time>2026-04-12T09:24:18.999Z</time></trkpt><trkpt lat="45.23521012047277" lon="8.035540328116744"><ele>180.0</ele><time>2026-04-12T09:24:19.999Z</time></trkpt><trkpt lat="45.23514672824118" lon="8.035698203110822"><ele>180.66666666666666</ele><time>2026-04-12T09:24:20.999Z</time></trkpt><trkpt lat="45.23509010462669" lon="8.035911360873547"><ele>181.33333333333331</ele><time>2026-04-12T09:24:21.999Z</time></trkpt><trkpt lat="45.23501491619554" lon="8.036135158612916"><ele>182.0</ele><time>2026-04-12T09:24:22.999Z</time></trkpt><trkpt lat="45.23495349950099" lon="8.036342020487842"><ele>182.0</ele><time>2026-04-12T09:24:23.999Z</time></trkpt><trkpt lat="45.23489523486017" lon="8.036538007339391"><ele>182.0</ele><time>2026-04-12T09:24:24.999Z</time></trkpt><trkpt lat="45.23483974186716" lon="8.036727588927413"><ele>182.0</ele><time>2026-04-12T09:24:25.999Z</time></trkpt><trkpt lat="45.23479050279" lon="8.036913899433829"><ele>182.0</ele><time>2026-04-12T09:24:26.999Z</time></trkpt><trkpt lat="45.23475244607678" lon="8.037099193685362"><ele>182.0</ele><time>2026-04-12T09:24:27.999Z</time></trkpt><trkpt lat="45.23472133170596" lon="8.037305863699338"><ele>182.0</ele><time>2026-04-12T09:24:28.999Z</time></trkpt><trkpt lat="45.234690866553336" lon="8.03753490595082"><ele>182.0</ele><time>2026-04-12T09:24:29.999Z</time></trkpt><trkpt lat="45.23465995542327" lon="8.037759837075695"><ele>182.0</ele><time>2026-04-12T09:24:30.999Z</time></trkpt><trkpt lat="45.2346282959567" lon="8.037964401657044"><ele>182.0</ele><time>2026-04-12T09:24:31.999Z</time></trkpt><trkpt lat="45.23459868210566" lon="8.03814963712836"><ele>182.0</ele><time>2026-04-12T09:24:32.999Z</time></trkpt><trkpt lat="45.23457141733733" lon="8.03835062483548"><ele>182.0</ele><time>2026-04-12T09:24:33.999Z</time></trkpt><trkpt lat="45.234535399930486" lon="8.038573430607864"><ele>182.0</ele><time>2026-04-12T09:24:34.999Z</time></trkpt><trkpt lat="45.23450654948768" lon="8.038800861167905"><ele>182.0</ele><time>2026-04-12T09:24:35.999Z</time></trkpt><trkpt lat="45.23447322751893" lon="8.039046839124008"><ele>182.0</ele><time>2026-04-12T09:24:36.999Z</time></trkpt><trkpt lat="45.23443765458427" lon="8.039279858454107"><ele>182.0</ele><time>2026-04-12T09:24:37.999Z</time></trkpt><trkpt lat="45.23439993573117" lon="8.039497909525105"><ele>182.0</ele><time>2026-04-12T09:24:38.999Z</time></trkpt><trkpt lat="45.234366094071326" lon="8.039723984200789"><ele>182.0</ele><time>2026-04-12T09:24:39.999Z</time></trkpt><trkpt lat="45.23433021549763" lon="8.039969476719671"><ele>182.0</ele><time>2026-04-12T09:24:40.999Z</time></trkpt><trkpt lat="45.23429217068141" lon="8.040232698905054"><ele>182.0</ele><time>2026-04-12T09:24:41.999Z</time></trkpt><trkpt lat="45.23424984507961" lon="8.040496559363985"><ele>182.0</ele><time>2026-04-12T09:24:42.999Z</time></trkpt><trkpt lat="45.23421046348845" lon="8.040747646059417"><ele>181.33333333333331</ele><time>2026-04-12T09:24:43.999Z</time></trkpt><trkpt lat="45.23417482015444" lon="8.0409678708745"><ele>180.66666666666666</ele><time>2026-04-12T09:24:44.999Z</time></trkpt><trkpt lat="45.23413941651138" lon="8.041195435662855"><ele>180.0</ele><time>2026-04-12T09:24:45.999Z</time></trkpt><trkpt lat="45.23410293242373" lon="8.041431611170653"><ele>180.33333333333334</ele><time>2026-04-12T09:24:46.999Z</time></trkpt><trkpt lat="45.23406782004415" lon="8.041677803654979"><ele>180.66666666666669</ele><time>2026-04-12T09:24:47.999Z</time></trkpt><trkpt lat="45.23403351174899" lon="8.04191055628017"><ele>181.0</ele><time>2026-04-12T09:24:48.999Z</time></trkpt><trkpt lat="45.234004245145314" lon="8.042114900350452"><ele>181.0</ele><time>2026-04-12T09:24:49.999Z</time></trkpt><trkpt lat="45.23397558157303" lon="8.042314083303243"><ele>181.0</ele><time>2026-04-12T09:24:50.999Z</time></trkpt><trkpt lat="45.2339487935876" lon="8.042526119272173"><ele>181.0</ele><time>2026-04-12T09:24:51.999Z</time></trkpt><trkpt lat="45.233929770225195" lon="8.042748055240335"><ele>181.0</ele><time>2026-04-12T09:24:52.998Z</time></trkpt><trkpt lat="45.23391694998921" lon="8.042976581639593"><ele>181.0</ele><time>2026-04-12T09:24:53.998Z</time></trkpt><trkpt lat="45.23390527042123" lon="8.04319533815918"><ele>181.0</ele><time>2026-04-12T09:24:54.998Z</time></trkpt><trkpt lat="45.233889229798635" lon="8.043372085560888"><ele>181.0</ele><time>2026-04-12T09:24:55.998Z</time></trkpt><trkpt lat="45.233871450034584" lon="8.043551925642094"><ele>180.83333333333334</ele><time>2026-04-12T09:24:56.998Z</time></trkpt><trkpt lat="45.233859658248946" lon="8.043698111626762"><ele>180.66666666666669</ele><time>2026-04-12T09:24:57.998Z</time></trkpt><trkpt lat="45.23385194807052" lon="8.043823813730626"><ele>180.5</ele><time>2026-04-12T09:24:58.998Z</time></trkpt><trkpt lat="45.233846118735656" lon="8.043933720725786"><ele>180.33333333333334</ele><time>2026-04-12T09:24:59.998Z</time></trkpt><trkpt lat="45.23384596663046" lon="8.044034397072751"><ele>180.16666666666666</ele><time>2026-04-12T09:25:00.998Z</time></trkpt><trkpt lat="45.2338698382026" lon="8.04411912406949"><ele>180.0</ele><time>2026-04-12T09:25:01.998Z</time></trkpt><trkpt lat="45.23391668539359" lon="8.044207267226732"><ele>179.75</ele><time>2026-04-12T09:25:02.998Z</time></trkpt><trkpt lat="45.23398186548925" lon="8.044293645013381"><ele>179.5</ele><time>2026-04-12T09:25:03.998Z</time></trkpt><trkpt lat="45.23406189434994" lon="8.044395753727999"><ele>179.25</ele><time>2026-04-12T09:25:04.998Z</time></trkpt><trkpt lat="45.23415962520879" lon="8.044518155576094"><ele>179.0</ele><time>2026-04-12T09:25:05.998Z</time></trkpt><trkpt lat="45.23427754607844" lon="8.044674399308489"><ele>179.0</ele><time>2026-04-12T09:25:06.998Z</time></trkpt><trkpt lat="45.23439381566517" lon="8.044823342971156"><ele>179.0</ele><time>2026-04-12T09:25:07.998Z</time></trkpt><trkpt lat="45.23450253337088" lon="8.044965347357614"><ele>179.0</ele><time>2026-04-12T09:25:08.998Z</time></trkpt><trkpt lat="45.2346057810154" lon="8.045097248594914"><ele>179.0</ele><time>2026-04-12T09:25:09.998Z</time></trkpt><trkpt lat="45.23470187613608" lon="8.045231354293245"><ele>179.0</ele><time>2026-04-12T09:25:10.998Z</time></trkpt><trkpt lat="45.23480059232622" lon="8.045364587341398"><ele>179.0</ele><time>2026-04-12T09:25:11.998Z</time></trkpt><trkpt lat="45.23488682159931" lon="8.045502919028472"><ele>179.0</ele><time>2026-04-12T09:25:12.998Z</time></trkpt><trkpt lat="45.234975937617016" lon="8.045617452539174"><ele>179.0</ele><time>2026-04-12T09:25:13.998Z</time></trkpt><trkpt lat="45.2350461326227" lon="8.045720395038154"><ele>179.0</ele><time>2026-04-12T09:25:14.998Z</time></trkpt><trkpt lat="45.23511377467665" lon="8.045806103565347"><ele>179.0</ele><time>2026-04-12T09:25:15.998Z</time></trkpt><trkpt lat="45.23517900890976" lon="8.045893036280425"><ele>179.0</ele><time>2026-04-12T09:25:16.998Z</time></trkpt><trkpt lat="45.23523863223635" lon="8.04597406601033"><ele>179.0</ele><time>2026-04-12T09:25:17.998Z</time></trkpt><trkpt lat="45.23528790747616" lon="8.046047589810438"><ele>179.0</ele><time>2026-04-12T09:25:18.998Z</time></trkpt><trkpt lat="45.2353149274538" lon="8.046130225879462"><ele>179.0</ele><time>2026-04-12T09:25:19.998Z</time></trkpt><trkpt lat="45.23528852982925" lon="8.046286931414391"><ele>179.0</ele><time>2026-04-12T09:25:21.998Z</time></trkpt><trkpt lat="45.23522464128853" lon="8.046366963088392"><ele>179.0</ele><time>2026-04-12T09:25:22.998Z</time></trkpt><trkpt lat="45.23515451730558" lon="8.046444664857445"><ele>179.0</ele><time>2026-04-12T09:25:23.998Z</time></trkpt><trkpt lat="45.235058651838585" lon="8.04655149210263"><ele>179.0</ele><time>2026-04-12T09:25:24.998Z</time></trkpt><trkpt lat="45.234951673184796" lon="8.046671997166515"><ele>179.0</ele><time>2026-04-12T09:25:25.998Z</time></trkpt><trkpt lat="45.23483914617675" lon="8.046804472496362"><ele>178.79999999999998</ele><time>2026-04-12T09:25:26.998Z</time></trkpt><trkpt lat="45.234742893640615" lon="8.046914482904096"><ele>178.6</ele><time>2026-04-12T09:25:27.998Z</time></trkpt><trkpt lat="45.234658880083046" lon="8.047012482527256"><ele>178.4</ele><time>2026-04-12T09:25:28.998Z</time></trkpt><trkpt lat="45.234571204088375" lon="8.047073493738019"><ele>178.2</ele><time>2026-04-12T09:25:29.998Z</time></trkpt><trkpt lat="45.234496336502055" lon="8.047152634039593"><ele>178.0</ele><time>2026-04-12T09:25:30.998Z</time></trkpt><trkpt lat="45.23443083127603" lon="8.047286225266074"><ele>178.0</ele><time>2026-04-12T09:25:31.998Z</time></trkpt><trkpt lat="45.234347063557415" lon="8.047421496350712"><ele>178.0</ele><time>2026-04-12T09:25:32.997Z</time></trkpt><trkpt lat="45.23423787036507" lon="8.047566629432817"><ele>178.0</ele><time>2026-04-12T09:25:33.997Z</time></trkpt><trkpt lat="45.23413118215351" lon="8.047743306495208"><ele>178.0</ele><time>2026-04-12T09:25:34.997Z</time></trkpt><trkpt lat="45.23401438941039" lon="8.047936716770291"><ele>178.0</ele><time>2026-04-12T09:25:35.997Z</time></trkpt><trkpt lat="45.233890017570275" lon="8.048137876505065"><ele>178.0</ele><time>2026-04-12T09:25:36.997Z</time></trkpt><trkpt lat="45.23378878216397" lon="8.048331200915248"><ele>178.0</ele><time>2026-04-12T09:25:37.997Z</time></trkpt><trkpt lat="45.233673383984204" lon="8.048486516195233"><ele>177.66666666666669</ele><time>2026-04-12T09:25:38.997Z</time></trkpt><trkpt lat="45.23356630457321" lon="8.048658846116439"><ele>177.33333333333334</ele><time>2026-04-12T09:25:39.997Z</time></trkpt><trkpt lat="45.233457623753814" lon="8.048833751690443"><ele>177.0</ele><time>2026-04-12T09:25:40.997Z</time></trkpt><trkpt lat="45.23335146430624" lon="8.049005233864284"><ele>176.66666666666666</ele><time>2026-04-12T09:25:41.997Z</time></trkpt><trkpt lat="45.23325055932804" lon="8.04917012553774"><ele>176.33333333333331</ele><time>2026-04-12T09:25:42.997Z</time></trkpt><trkpt lat="45.2331610086714" lon="8.049348713415709"><ele>176.0</ele><time>2026-04-12T09:25:43.997Z</time></trkpt><trkpt lat="45.233047666082285" lon="8.049525973793681"><ele>176.0</ele><time>2026-04-12T09:25:44.997Z</time></trkpt><trkpt lat="45.2329283637402" lon="8.049719787864948"><ele>176.0</ele><time>2026-04-12T09:25:45.997Z</time></trkpt><trkpt lat="45.232805957644295" lon="8.049918865457393"><ele>176.0</ele><time>2026-04-12T09:25:46.997Z</time></trkpt><trkpt lat="45.23269198374733" lon="8.050107364295837"><ele>176.33333333333331</ele><time>2026-04-12T09:25:47.997Z</time></trkpt><trkpt lat="45.2325800707273" lon="8.050285467622405"><ele>176.66666666666666</ele><time>2026-04-12T09:25:48.997Z</time></trkpt><trkpt lat="45.232471745533864" lon="8.050462266960345"><ele>177.0</ele><time>2026-04-12T09:25:49.997Z</time></trkpt><trkpt lat="45.23235479826955" lon="8.050651486080042"><ele>176.66666666666666</ele><time>2026-04-12T09:25:50.997Z</time></trkpt><trkpt lat="45.23223613588688" lon="8.050846480009968"><ele>176.33333333333331</ele><time>2026-04-12T09:25:51.997Z</time></trkpt><trkpt lat="45.232130063915264" lon="8.051025582718154"><ele>176.0</ele><time>2026-04-12T09:25:52.997Z</time></trkpt><trkpt lat="45.23203268899628" lon="8.05119153998574"><ele>176.0</ele><time>2026-04-12T09:25:53.997Z</time></trkpt><trkpt lat="45.23193707820947" lon="8.051336692551645"><ele>176.0</ele><time>2026-04-12T09:25:54.997Z</time></trkpt><trkpt lat="45.23183794402662" lon="8.051475449669617"><ele>176.0</ele><time>2026-04-12T09:25:55.997Z</time></trkpt><trkpt lat="45.231746240502844" lon="8.051594167443392"><ele>176.0</ele><time>2026-04-12T09:25:56.999Z</time></trkpt><trkpt lat="45.23164091756752" lon="8.051691925546521"><ele>175.75</ele><time>2026-04-12T09:25:57.999Z</time></trkpt><trkpt lat="45.23156187655481" lon="8.051838436564129"><ele>175.5</ele><time>2026-04-12T09:25:58.999Z</time></trkpt><trkpt lat="45.23146970100727" lon="8.051987281784843"><ele>175.25</ele><time>2026-04-12T09:25:59.999Z</time></trkpt><trkpt lat="45.23138048430753" lon="8.052152852324099"><ele>175.0</ele><time>2026-04-12T09:26:00.999Z</time></trkpt><trkpt lat="45.23128033969221" lon="8.052330892708602"><ele>175.0</ele><time>2026-04-12T09:26:01.999Z</time></trkpt><trkpt lat="45.231188336150154" lon="8.052501559617445"><ele>175.0</ele><time>2026-04-12T09:26:02.999Z</time></trkpt><trkpt lat="45.23109938153974" lon="8.05265939877703"><ele>175.0</ele><time>2026-04-12T09:26:03.999Z</time></trkpt><trkpt lat="45.231027853992124" lon="8.052798777950184"><ele>175.0</ele><time>2026-04-12T09:26:04.999Z</time></trkpt><trkpt lat="45.23095677812651" lon="8.052927899027479"><ele>175.0</ele><time>2026-04-12T09:26:05.999Z</time></trkpt><trkpt lat="45.23088440108968" lon="8.05305890270925"><ele>175.0</ele><time>2026-04-12T09:26:06.999Z</time></trkpt><trkpt lat="45.23082542918538" lon="8.05318244102382"><ele>175.0</ele><time>2026-04-12T09:26:07.999Z</time></trkpt><trkpt lat="45.230766758620476" lon="8.053298588342708"><ele>175.0</ele><time>2026-04-12T09:26:09Z</time></trkpt><trkpt lat="45.23067195220086" lon="8.053422956968497"><ele>175.66666666666669</ele><time>2026-04-12T09:26:10Z</time></trkpt><trkpt lat="45.23057490599005" lon="8.053587902739881"><ele>176.33333333333334</ele><time>2026-04-12T09:26:11Z</time></trkpt><trkpt lat="45.230461586389005" lon="8.053755461465064"><ele>177.0</ele><time>2026-04-12T09:26:12Z</time></trkpt><trkpt lat="45.230341922295956" lon="8.053938413445232"><ele>177.0</ele><time>2026-04-12T09:26:13Z</time></trkpt><trkpt lat="45.23023355032608" lon="8.054108363719443"><ele>177.0</ele><time>2026-04-12T09:26:13.999Z</time></trkpt><trkpt lat="45.23013783080191" lon="8.054255343236212"><ele>177.0</ele><time>2026-04-12T09:26:14.999Z</time></trkpt><trkpt lat="45.230050589804264" lon="8.054400256580143"><ele>177.0</ele><time>2026-04-12T09:26:15.999Z</time></trkpt><trkpt lat="45.22997574829071" lon="8.05452882998293"><ele>177.0</ele><time>2026-04-12T09:26:16.999Z</time></trkpt><trkpt lat="45.22990161955814" lon="8.054659302913759"><ele>177.0</ele><time>2026-04-12T09:26:17.999Z</time></trkpt><trkpt lat="45.22982698994569" lon="8.054773552108585"><ele>177.0</ele><time>2026-04-12T09:26:18.999Z</time></trkpt><trkpt lat="45.22975558404819" lon="8.05485782107466"><ele>177.0</ele><time>2026-04-12T09:26:19.999Z</time></trkpt><trkpt lat="45.229690838139646" lon="8.054942209141572"><ele>177.0</ele><time>2026-04-12T09:26:20.999Z</time></trkpt><trkpt lat="45.22964616427148" lon="8.055026257147391"><ele>176.6</ele><time>2026-04-12T09:26:21.999Z</time></trkpt><trkpt lat="45.22964188315746" lon="8.055194110621704"><ele>176.2</ele><time>2026-04-12T09:26:23.999Z</time></trkpt><trkpt lat="45.229685435036366" lon="8.055270406875342"><ele>175.8</ele><time>2026-04-12T09:26:24.999Z</time></trkpt><trkpt lat="45.22974353560808" lon="8.055348935828523"><ele>175.4</ele><time>2026-04-12T09:26:25.999Z</time></trkpt><trkpt lat="45.22981379674446" lon="8.055439923437422"><ele>175.0</ele><time>2026-04-12T09:26:26.999Z</time></trkpt><trkpt lat="45.22987022454239" lon="8.055543992287927"><ele>174.83333333333334</ele><time>2026-04-12T09:26:27.999Z</time></trkpt><trkpt lat="45.229897152316106" lon="8.05564907100993"><ele>174.66666666666669</ele><time>2026-04-12T09:26:28.999Z</time></trkpt><trkpt lat="45.22989707885163" lon="8.05576452140372"><ele>174.5</ele><time>2026-04-12T09:26:29.999Z</time></trkpt><trkpt lat="45.229871939284315" lon="8.055876355305433"><ele>174.33333333333334</ele><time>2026-04-12T09:26:30.999Z</time></trkpt><trkpt lat="45.229797911392765" lon="8.055960992685911"><ele>174.16666666666666</ele><time>2026-04-12T09:26:31.999Z</time></trkpt><trkpt lat="45.22972791219708" lon="8.05606277885725"><ele>174.0</ele><time>2026-04-12T09:26:32.999Z</time></trkpt><trkpt lat="45.229637865104124" lon="8.056204625813018"><ele>174.66666666666666</ele><time>2026-04-12T09:26:33.999Z</time></trkpt><trkpt lat="45.22953634797509" lon="8.056376913796425"><ele>175.33333333333331</ele><time>2026-04-12T09:26:34.999Z</time></trkpt><trkpt lat="45.22941988603347" lon="8.056569445214164"><ele>176.0</ele><time>2026-04-12T09:26:35.999Z</time></trkpt><trkpt lat="45.22931206512634" lon="8.056741167474103"><ele>176.0</ele><time>2026-04-12T09:26:36.999Z</time></trkpt><trkpt lat="45.229205616685306" lon="8.056899686023952"><ele>176.0</ele><time>2026-04-12T09:26:37.999Z</time></trkpt><trkpt lat="45.22906000708641" lon="8.057041296503392"><ele>176.0</ele><time>2026-04-12T09:26:38.999Z</time></trkpt><trkpt lat="45.228937855980604" lon="8.057177024532116"><ele>175.75</ele><time>2026-04-12T09:26:39.999Z</time></trkpt><trkpt lat="45.22884664799923" lon="8.057318865961749"><ele>175.5</ele><time>2026-04-12T09:26:40.999Z</time></trkpt><trkpt lat="45.228743002860874" lon="8.057462027688313"><ele>175.25</ele><time>2026-04-12T09:26:41.999Z</time></trkpt><trkpt lat="45.22864588346173" lon="8.057630654885068"><ele>175.0</ele><time>2026-04-12T09:26:42.999Z</time></trkpt><trkpt lat="45.22856258813786" lon="8.057800218637292"><ele>174.5</ele><time>2026-04-12T09:26:43.999Z</time></trkpt><trkpt lat="45.22849911497847" lon="8.057958132821323"><ele>174.0</ele><time>2026-04-12T09:26:44.999Z</time></trkpt><trkpt lat="45.22845400279891" lon="8.058098580441348"><ele>173.5</ele><time>2026-04-12T09:26:45.999Z</time></trkpt><trkpt lat="45.22841779873553" lon="8.058251261992934"><ele>173.0</ele><time>2026-04-12T09:26:46.999Z</time></trkpt><trkpt lat="45.228386265019665" lon="8.058420163478239"><ele>172.75</ele><time>2026-04-12T09:26:47.999Z</time></trkpt><trkpt lat="45.2283361149067" lon="8.058607459276383"><ele>172.5</ele><time>2026-04-12T09:26:48.999Z</time></trkpt><trkpt lat="45.22828119226503" lon="8.058788687363466"><ele>172.25</ele><time>2026-04-12T09:26:49.999Z</time></trkpt><trkpt lat="45.228229292502206" lon="8.058951543316674"><ele>172.0</ele><time>2026-04-12T09:26:50.999Z</time></trkpt><trkpt lat="45.22817680446816" lon="8.059104998551915"><ele>172.0</ele><time>2026-04-12T09:26:51.999Z</time></trkpt><trkpt lat="45.228116947403855" lon="8.059260747009281"><ele>172.0</ele><time>2026-04-12T09:26:52.999Z</time></trkpt><trkpt lat="45.22804976200671" lon="8.059432197185679"><ele>172.0</ele><time>2026-04-12T09:26:53.999Z</time></trkpt><trkpt lat="45.22798908628103" lon="8.059600464886703"><ele>172.0</ele><time>2026-04-12T09:26:54.999Z</time></trkpt><trkpt lat="45.22794302073539" lon="8.059741863584327"><ele>172.0</ele><time>2026-04-12T09:26:55.999Z</time></trkpt><trkpt lat="45.227904307516575" lon="8.059865185269482"><ele>172.0</ele><time>2026-04-12T09:26:56.999Z</time></trkpt><trkpt lat="45.22787185504267" lon="8.059983779327194"><ele>172.0</ele><time>2026-04-12T09:26:57.999Z</time></trkpt><trkpt lat="45.227852618447955" lon="8.06009722524872"><ele>172.0</ele><time>2026-04-12T09:26:58.999Z</time></trkpt><trkpt lat="45.22784801329528" lon="8.060191640875953"><ele>172.0</ele><time>2026-04-12T09:26:59.999Z</time></trkpt><trkpt lat="45.22782230742282" lon="8.060314769683233"><ele>172.0</ele><time>2026-04-12T09:27:01.998Z</time></trkpt><trkpt lat="45.227911362483866" lon="8.060415235884792"><ele>172.2</ele><time>2026-04-12T09:27:02.998Z</time></trkpt><trkpt lat="45.22796586707879" lon="8.06050331175821"><ele>172.39999999999998</ele><time>2026-04-12T09:27:03.998Z</time></trkpt><trkpt lat="45.22802192187499" lon="8.06062473991575"><ele>172.60000000000002</ele><time>2026-04-12T09:27:04.998Z</time></trkpt><trkpt lat="45.228085541586964" lon="8.060751028247767"><ele>172.8</ele><time>2026-04-12T09:27:05.998Z</time></trkpt><trkpt lat="45.22815710355644" lon="8.060878640440691"><ele>173.0</ele><time>2026-04-12T09:27:06.998Z</time></trkpt><trkpt lat="45.2282320041505" lon="8.061012478164434"><ele>173.0</ele><time>2026-04-12T09:27:07.998Z</time></trkpt><trkpt lat="45.228310606744024" lon="8.061156332550375"><ele>173.0</ele><time>2026-04-12T09:27:08.998Z</time></trkpt><trkpt lat="45.22838326200518" lon="8.061314537207013"><ele>173.0</ele><time>2026-04-12T09:27:09.998Z</time></trkpt><trkpt lat="45.2284783627528" lon="8.061450930523709"><ele>173.0</ele><time>2026-04-12T09:27:10.998Z</time></trkpt><trkpt lat="45.22856347199971" lon="8.061606110192294"><ele>173.0</ele><time>2026-04-12T09:27:11.998Z</time></trkpt><trkpt lat="45.22863744013692" lon="8.061772901550455"><ele>173.0</ele><time>2026-04-12T09:27:12.998Z</time></trkpt><trkpt lat="45.22871946914634" lon="8.061920493718915"><ele>173.0</ele><time>2026-04-12T09:27:13.998Z</time></trkpt><trkpt lat="45.22880140940066" lon="8.062067926225977"><ele>173.0</ele><time>2026-04-12T09:27:14.998Z</time></trkpt><trkpt lat="45.22889851776891" lon="8.062206552363142"><ele>173.0</ele><time>2026-04-12T09:27:15.998Z</time></trkpt><trkpt lat="45.228971482711835" lon="8.062372663756536"><ele>173.0</ele><time>2026-04-12T09:27:16.998Z</time></trkpt><trkpt lat="45.22906700354329" lon="8.062505406204918"><ele>173.0</ele><time>2026-04-12T09:27:17.998Z</time></trkpt><trkpt lat="45.22914826056034" lon="8.062659171734921"><ele>173.0</ele><time>2026-04-12T09:27:18.998Z</time></trkpt><trkpt lat="45.229236858040466" lon="8.06281045142147"><ele>173.0</ele><time>2026-04-12T09:27:19.998Z</time></trkpt><trkpt lat="45.22932302743212" lon="8.062965772607859"><ele>173.0</ele><time>2026-04-12T09:27:20.998Z</time></trkpt><trkpt lat="45.22939009589778" lon="8.063120202378226"><ele>173.0</ele><time>2026-04-12T09:27:21.998Z</time></trkpt><trkpt lat="45.22946579703665" lon="8.063255385666311"><ele>173.0</ele><time>2026-04-12T09:27:22.998Z</time></trkpt><trkpt lat="45.22954416436209" lon="8.063395330154124"><ele>173.0</ele><time>2026-04-12T09:27:23.998Z</time></trkpt><trkpt lat="45.229626715813104" lon="8.063542746417971"><ele>173.0</ele><time>2026-04-12T09:27:24.998Z</time></trkpt><trkpt lat="45.22970974150298" lon="8.063691009572969"><ele>173.0</ele><time>2026-04-12T09:27:25.998Z</time></trkpt><trkpt lat="45.229792187364424" lon="8.063838237290419"><ele>173.0</ele><time>2026-04-12T09:27:26.998Z</time></trkpt><trkpt lat="45.229882064798346" lon="8.06396887262771"><ele>173.0</ele><time>2026-04-12T09:27:27.998Z</time></trkpt><trkpt lat="45.22995592022345" lon="8.064129974511204"><ele>173.0</ele><time>2026-04-12T09:27:28.998Z</time></trkpt><trkpt lat="45.23005153554226" lon="8.064268278294382"><ele>173.0</ele><time>2026-04-12T09:27:29.998Z</time></trkpt><trkpt lat="45.230137148706675" lon="8.064421784976068"><ele>173.0</ele><time>2026-04-12T09:27:30.998Z</time></trkpt><trkpt lat="45.23021449406339" lon="8.064564992312242"><ele>173.0</ele><time>2026-04-12T09:27:31.998Z</time></trkpt><trkpt lat="45.23029006379711" lon="8.064696306866857"><ele>173.0</ele><time>2026-04-12T09:27:32.998Z</time></trkpt><trkpt lat="45.23036107034771" lon="8.064850366609784"><ele>173.0</ele><time>2026-04-12T09:27:33.998Z</time></trkpt><trkpt lat="45.23044805856401" lon="8.065005597278915"><ele>173.0</ele><time>2026-04-12T09:27:34.998Z</time></trkpt><trkpt lat="45.23054204487397" lon="8.065141065184779"><ele>172.75</ele><time>2026-04-12T09:27:35.998Z</time></trkpt><trkpt lat="45.23063507124935" lon="8.065303386759894"><ele>172.5</ele><time>2026-04-12T09:27:36.998Z</time></trkpt><trkpt lat="45.23072598522514" lon="8.065472384578108"><ele>172.25</ele><time>2026-04-12T09:27:37.998Z</time></trkpt><trkpt lat="45.23079784125493" lon="8.065632760304288"><ele>172.0</ele><time>2026-04-12T09:27:38.998Z</time></trkpt><trkpt lat="45.23087887654827" lon="8.06577805719749"><ele>172.25</ele><time>2026-04-12T09:27:39.998Z</time></trkpt><trkpt lat="45.230975012291715" lon="8.065913817868502"><ele>172.5</ele><time>2026-04-12T09:27:40.998Z</time></trkpt><trkpt lat="45.23105729359822" lon="8.066062327010123"><ele>172.75</ele><time>2026-04-12T09:27:41.998Z</time></trkpt><trkpt lat="45.23114081799611" lon="8.066208885122899"><ele>173.0</ele><time>2026-04-12T09:27:42.997Z</time></trkpt><trkpt lat="45.23122240903169" lon="8.066345061266675"><ele>173.0</ele><time>2026-04-12T09:27:43.997Z</time></trkpt><trkpt lat="45.231300056855176" lon="8.066480700727377"><ele>173.0</ele><time>2026-04-12T09:27:44.997Z</time></trkpt><trkpt lat="45.231378271096666" lon="8.066607972904537"><ele>173.0</ele><time>2026-04-12T09:27:45.997Z</time></trkpt><trkpt lat="45.231453619296175" lon="8.066734646419166"><ele>173.0</ele><time>2026-04-12T09:27:46.997Z</time></trkpt><trkpt lat="45.2315188842187" lon="8.066839347944178"><ele>172.60000000000002</ele><time>2026-04-12T09:27:47.997Z</time></trkpt><trkpt lat="45.23156710505562" lon="8.066919865440973"><ele>172.20000000000002</ele><time>2026-04-12T09:27:48.997Z</time></trkpt><trkpt lat="45.23163521168529" lon="8.067037434012887"><ele>171.8</ele><time>2026-04-12T09:27:50.997Z</time></trkpt><trkpt lat="45.23168484869724" lon="8.067130967938644"><ele>171.4</ele><time>2026-04-12T09:27:52.997Z</time></trkpt><trkpt lat="45.231729197659" lon="8.067220663392392"><ele>171.0</ele><time>2026-04-12T09:27:54.997Z</time></trkpt><trkpt lat="45.231795478698345" lon="8.067359549128955"><ele>171.4</ele><time>2026-04-12T09:27:56.997Z</time></trkpt><trkpt lat="45.23184454756337" lon="8.06745313120643"><ele>171.8</ele><time>2026-04-12T09:27:57.997Z</time></trkpt><trkpt lat="45.23189013240851" lon="8.067572460211998"><ele>172.20000000000002</ele><time>2026-04-12T09:27:58.997Z</time></trkpt><trkpt lat="45.23196478754553" lon="8.067672121001735"><ele>172.60000000000002</ele><time>2026-04-12T09:27:59.997Z</time></trkpt><trkpt lat="45.232022761907324" lon="8.067812499725239"><ele>173.0</ele><time>2026-04-12T09:28:00.997Z</time></trkpt><trkpt lat="45.23209231825031" lon="8.067940553605943"><ele>173.0</ele><time>2026-04-12T09:28:01.997Z</time></trkpt><trkpt lat="45.232161739314286" lon="8.068073064457304"><ele>173.0</ele><time>2026-04-12T09:28:03Z</time></trkpt><trkpt lat="45.232240288676145" lon="8.068185077751533"><ele>173.0</ele><time>2026-04-12T09:28:04Z</time></trkpt><trkpt lat="45.23230275621058" lon="8.06830924593507"><ele>173.0</ele><time>2026-04-12T09:28:05Z</time></trkpt><trkpt lat="45.23237528122293" lon="8.068432997301747"><ele>173.0</ele><time>2026-04-12T09:28:06Z</time></trkpt><trkpt lat="45.232434740404955" lon="8.068568781548871"><ele>172.0</ele><time>2026-04-12T09:28:07Z</time></trkpt><trkpt lat="45.23250970009252" lon="8.06869825525827"><ele>171.0</ele><time>2026-04-12T09:28:08Z</time></trkpt><trkpt lat="45.23258280922423" lon="8.068824532611057"><ele>170.0</ele><time>2026-04-12T09:28:09Z</time></trkpt><trkpt lat="45.23265508387493" lon="8.068949789477065"><ele>169.0</ele><time>2026-04-12T09:28:10Z</time></trkpt><trkpt lat="45.232728132794094" lon="8.069079190548683"><ele>169.5</ele><time>2026-04-12T09:28:11Z</time></trkpt><trkpt lat="45.232800354047185" lon="8.069207125315357"><ele>170.0</ele><time>2026-04-12T09:28:12Z</time></trkpt><trkpt lat="45.23287810708378" lon="8.069344859423579"><ele>170.5</ele><time>2026-04-12T09:28:13Z</time></trkpt><trkpt lat="45.23295618972752" lon="8.069483176639004"><ele>171.0</ele><time>2026-04-12T09:28:14Z</time></trkpt><trkpt lat="45.233035744757146" lon="8.06962410276917"><ele>171.0</ele><time>2026-04-12T09:28:15Z</time></trkpt><trkpt lat="45.23312861349314" lon="8.06975142477948"><ele>171.0</ele><time>2026-04-12T09:28:16Z</time></trkpt><trkpt lat="45.23320685102252" lon="8.069898038387624"><ele>171.0</ele><time>2026-04-12T09:28:17Z</time></trkpt><trkpt lat="45.233275296437164" lon="8.070048453044649"><ele>171.0</ele><time>2026-04-12T09:28:18Z</time></trkpt><trkpt lat="45.23335535289362" lon="8.070168004625062"><ele>171.0</ele><time>2026-04-12T09:28:19Z</time></trkpt><trkpt lat="45.23342722381129" lon="8.070284314343901"><ele>171.0</ele><time>2026-04-12T09:28:20Z</time></trkpt><trkpt lat="45.23350156696561" lon="8.070415701362815"><ele>171.0</ele><time>2026-04-12T09:28:21Z</time></trkpt><trkpt lat="45.233567053203984" lon="8.07056666997675"><ele>171.0</ele><time>2026-04-12T09:28:22Z</time></trkpt><trkpt lat="45.23364603231606" lon="8.070707982477023"><ele>171.0</ele><time>2026-04-12T09:28:23Z</time></trkpt><trkpt lat="45.23372651748041" lon="8.070851989640914"><ele>171.0</ele><time>2026-04-12T09:28:24Z</time></trkpt><trkpt lat="45.233808323082755" lon="8.070998359434087"><ele>171.0</ele><time>2026-04-12T09:28:25Z</time></trkpt><trkpt lat="45.23389701184174" lon="8.071133429030107"><ele>171.0</ele><time>2026-04-12T09:28:26Z</time></trkpt><trkpt lat="45.23396383249056" lon="8.071279208969116"><ele>171.0</ele><time>2026-04-12T09:28:27Z</time></trkpt><trkpt lat="45.23403907564575" lon="8.07141657414573"><ele>171.0</ele><time>2026-04-12T09:28:28Z</time></trkpt><trkpt lat="45.23412729861671" lon="8.071552189449944"><ele>171.0</ele><time>2026-04-12T09:28:29Z</time></trkpt><trkpt lat="45.23420818527739" lon="8.0716899645751"><ele>171.0</ele><time>2026-04-12T09:28:30Z</time></trkpt><trkpt lat="45.23428042244522" lon="8.071825624413371"><ele>171.0</ele><time>2026-04-12T09:28:31Z</time></trkpt><trkpt lat="45.23435842445643" lon="8.071964870595734"><ele>171.0</ele><time>2026-04-12T09:28:32Z</time></trkpt><trkpt lat="45.23443689275199" lon="8.072100898246973"><ele>171.0</ele><time>2026-04-12T09:28:33Z</time></trkpt><trkpt lat="45.23451718395023" lon="8.072243977647137"><ele>171.0</ele><time>2026-04-12T09:28:34Z</time></trkpt><trkpt lat="45.23459839581894" lon="8.072385803344904"><ele>171.25</ele><time>2026-04-12T09:28:35Z</time></trkpt><trkpt lat="45.23467245284012" lon="8.072512743607124"><ele>171.5</ele><time>2026-04-12T09:28:36Z</time></trkpt><trkpt lat="45.234743114807465" lon="8.072638128502126"><ele>171.75</ele><time>2026-04-12T09:28:36.999Z</time></trkpt><trkpt lat="45.23481004868363" lon="8.07278338239244"><ele>172.0</ele><time>2026-04-12T09:28:37.999Z</time></trkpt><trkpt lat="45.234898627705824" lon="8.072906866720864"><ele>172.0</ele><time>2026-04-12T09:28:38.999Z</time></trkpt><trkpt lat="45.23496962752767" lon="8.07303721596508"><ele>172.0</ele><time>2026-04-12T09:28:39.999Z</time></trkpt><trkpt lat="45.235035123681065" lon="8.073161042754082"><ele>172.0</ele><time>2026-04-12T09:28:40.999Z</time></trkpt><trkpt lat="45.23511432712155" lon="8.07328746582154"><ele>172.0</ele><time>2026-04-12T09:28:41.999Z</time></trkpt><trkpt lat="45.23517713846689" lon="8.073434721345995"><ele>171.75</ele><time>2026-04-12T09:28:42.999Z</time></trkpt><trkpt lat="45.235252259632816" lon="8.073576193704817"><ele>171.5</ele><time>2026-04-12T09:28:43.999Z</time></trkpt><trkpt lat="45.235341121186224" lon="8.073709897958734"><ele>171.25</ele><time>2026-04-12T09:28:44.999Z</time></trkpt><trkpt lat="45.23542624820683" lon="8.073863737022062"><ele>171.0</ele><time>2026-04-12T09:28:45.999Z</time></trkpt><trkpt lat="45.23552366711882" lon="8.074030583286683"><ele>171.0</ele><time>2026-04-12T09:28:46.999Z</time></trkpt><trkpt lat="45.23562972627056" lon="8.074216624357534"><ele>171.0</ele><time>2026-04-12T09:28:47.999Z</time></trkpt><trkpt lat="45.23572724035347" lon="8.074383929616733"><ele>171.0</ele><time>2026-04-12T09:28:48.999Z</time></trkpt><trkpt lat="45.23579824523052" lon="8.074549145268382"><ele>171.0</ele><time>2026-04-12T09:28:49.999Z</time></trkpt><trkpt lat="45.23588942017603" lon="8.074712613192913"><ele>171.0</ele><time>2026-04-12T09:28:50.999Z</time></trkpt><trkpt lat="45.23598510108757" lon="8.074884159896396"><ele>171.0</ele><time>2026-04-12T09:28:51.999Z</time></trkpt><trkpt lat="45.2360849805338" lon="8.075063075814638"><ele>171.25</ele><time>2026-04-12T09:28:52.999Z</time></trkpt><trkpt lat="45.236183275378266" lon="8.075239022270733"><ele>171.5</ele><time>2026-04-12T09:28:53.999Z</time></trkpt><trkpt lat="45.23626689462071" lon="8.075388842631918"><ele>171.75</ele><time>2026-04-12T09:28:54.999Z</time></trkpt><trkpt lat="45.23636547813447" lon="8.075527527203734"><ele>172.0</ele><time>2026-04-12T09:28:55.999Z</time></trkpt><trkpt lat="45.23644468574461" lon="8.075707493172985"><ele>172.25</ele><time>2026-04-12T09:28:56.999Z</time></trkpt><trkpt lat="45.23654792762671" lon="8.075856250439115"><ele>172.5</ele><time>2026-04-12T09:28:57.999Z</time></trkpt><trkpt lat="45.23663948027394" lon="8.076022853999177"><ele>172.75</ele><time>2026-04-12T09:28:58.999Z</time></trkpt><trkpt lat="45.23672631184656" lon="8.076180593081695"><ele>173.0</ele><time>2026-04-12T09:28:59.999Z</time></trkpt><trkpt lat="45.23680554469015" lon="8.076320232742964"><ele>173.0</ele><time>2026-04-12T09:29:00.999Z</time></trkpt><trkpt lat="45.23688082515405" lon="8.076462315936597"><ele>173.0</ele><time>2026-04-12T09:29:01.999Z</time></trkpt><trkpt lat="45.2369631588529" lon="8.07660480389584"><ele>173.0</ele><time>2026-04-12T09:29:02.999Z</time></trkpt><trkpt lat="45.23703829353638" lon="8.076736645716272"><ele>173.0</ele><time>2026-04-12T09:29:03.999Z</time></trkpt><trkpt lat="45.237109728831285" lon="8.076856846661745"><ele>172.5</ele><time>2026-04-12T09:29:04.999Z</time></trkpt><trkpt lat="45.2371889855562" lon="8.076993423765249"><ele>172.0</ele><time>2026-04-12T09:29:05.999Z</time></trkpt><trkpt lat="45.237264038513416" lon="8.07715916642785"><ele>171.5</ele><time>2026-04-12T09:29:06.999Z</time></trkpt><trkpt lat="45.237371431626" lon="8.07730699853232"><ele>171.0</ele><time>2026-04-12T09:29:07.999Z</time></trkpt><trkpt lat="45.237453098976346" lon="8.077454805594042"><ele>170.8</ele><time>2026-04-12T09:29:08.999Z</time></trkpt><trkpt lat="45.237525419146635" lon="8.077571230502887"><ele>170.60000000000002</ele><time>2026-04-12T09:29:09.999Z</time></trkpt><trkpt lat="45.237584910861706" lon="8.077674789135928"><ele>170.4</ele><time>2026-04-12T09:29:10.999Z</time></trkpt><trkpt lat="45.23763998511017" lon="8.077765898554288"><ele>170.2</ele><time>2026-04-12T09:29:11.999Z</time></trkpt><trkpt lat="45.23768312714535" lon="8.077867072729081"><ele>170.0</ele><time>2026-04-12T09:29:12.999Z</time></trkpt><trkpt lat="45.237745024490394" lon="8.077947985413886"><ele>170.0</ele><time>2026-04-12T09:29:13.999Z</time></trkpt><trkpt lat="45.237794309988296" lon="8.078046866174844"><ele>170.0</ele><time>2026-04-12T09:29:14.999Z</time></trkpt><trkpt lat="45.23785000520433" lon="8.078157626322724"><ele>170.0</ele><time>2026-04-12T09:29:15.999Z</time></trkpt><trkpt lat="45.23790603526628" lon="8.0782881382507"><ele>170.0</ele><time>2026-04-12T09:29:16.999Z</time></trkpt><trkpt lat="45.23798297482006" lon="8.078431819831064"><ele>170.0</ele><time>2026-04-12T09:29:17.999Z</time></trkpt><trkpt lat="45.238080471806576" lon="8.07857107306725"><ele>170.33333333333331</ele><time>2026-04-12T09:29:18.999Z</time></trkpt><trkpt lat="45.238162983618224" lon="8.078756974078257"><ele>170.66666666666666</ele><time>2026-04-12T09:29:19.999Z</time></trkpt><trkpt lat="45.238263900369105" lon="8.078939263617862"><ele>171.0</ele><time>2026-04-12T09:29:20.998Z</time></trkpt><trkpt lat="45.238383937715724" lon="8.079155335906542"><ele>171.0</ele><time>2026-04-12T09:29:21.998Z</time></trkpt><trkpt lat="45.238521225629576" lon="8.07936593481475"><ele>171.0</ele><time>2026-04-12T09:29:22.998Z</time></trkpt><trkpt lat="45.23863614777563" lon="8.079575720504831"><ele>171.0</ele><time>2026-04-12T09:29:23.998Z</time></trkpt><trkpt lat="45.238720989916644" lon="8.079759052674161"><ele>171.0</ele><time>2026-04-12T09:29:24.998Z</time></trkpt><trkpt lat="45.23880901634122" lon="8.079915187501582"><ele>171.0</ele><time>2026-04-12T09:29:25.998Z</time></trkpt><trkpt lat="45.23888878741107" lon="8.08005667957631"><ele>171.0</ele><time>2026-04-12T09:29:26.998Z</time></trkpt><trkpt lat="45.23897129427788" lon="8.0802030242305"><ele>171.0</ele><time>2026-04-12T09:29:27.998Z</time></trkpt><trkpt lat="45.239069273948864" lon="8.080347927409903"><ele>171.0</ele><time>2026-04-12T09:29:28.998Z</time></trkpt><trkpt lat="45.23915311751637" lon="8.080507814808549"><ele>171.0</ele><time>2026-04-12T09:29:29.998Z</time></trkpt><trkpt lat="45.23922326385233" lon="8.080656471163227"><ele>171.0</ele><time>2026-04-12T09:29:30.998Z</time></trkpt><trkpt lat="45.23930119572216" lon="8.080797200769926"><ele>171.0</ele><time>2026-04-12T09:29:31.998Z</time></trkpt><trkpt lat="45.23937764730072" lon="8.080935257254652"><ele>171.0</ele><time>2026-04-12T09:29:32.998Z</time></trkpt><trkpt lat="45.23947105781069" lon="8.081067871701874"><ele>171.0</ele><time>2026-04-12T09:29:33.998Z</time></trkpt><trkpt lat="45.23954474656207" lon="8.081231728087799"><ele>171.0</ele><time>2026-04-12T09:29:34.998Z</time></trkpt><trkpt lat="45.239628565324885" lon="8.081379734373446"><ele>171.0</ele><time>2026-04-12T09:29:35.998Z</time></trkpt><trkpt lat="45.23971102185211" lon="8.081525335164581"><ele>171.0</ele><time>2026-04-12T09:29:36.998Z</time></trkpt><trkpt lat="45.239797474532665" lon="8.081677992342076"><ele>171.0</ele><time>2026-04-12T09:29:37.998Z</time></trkpt><trkpt lat="45.239897833289064" lon="8.081831376396238"><ele>171.0</ele><time>2026-04-12T09:29:38.998Z</time></trkpt><trkpt lat="45.24000164426323" lon="8.08200522553215"><ele>171.0</ele><time>2026-04-12T09:29:39.998Z</time></trkpt><trkpt lat="45.24011130902853" lon="8.082195962583095"><ele>171.0</ele><time>2026-04-12T09:29:40.998Z</time></trkpt><trkpt lat="45.240221057845766" lon="8.08239467470356"><ele>171.0</ele><time>2026-04-12T09:29:41.998Z</time></trkpt><trkpt lat="45.24030803893949" lon="8.082582664528065"><ele>171.0</ele><time>2026-04-12T09:29:42.998Z</time></trkpt><trkpt lat="45.24040919218128" lon="8.082762177198635"><ele>171.0</ele><time>2026-04-12T09:29:43.998Z</time></trkpt><trkpt lat="45.24052555371959" lon="8.08293642361659"><ele>171.0</ele><time>2026-04-12T09:29:44.998Z</time></trkpt><trkpt lat="45.24062905303108" lon="8.083121446743785"><ele>171.0</ele><time>2026-04-12T09:29:45.998Z</time></trkpt><trkpt lat="45.24072971431606" lon="8.083327697206055"><ele>171.33333333333334</ele><time>2026-04-12T09:29:46.998Z</time></trkpt><trkpt lat="45.24086226627677" lon="8.08350809943728"><ele>171.66666666666669</ele><time>2026-04-12T09:29:47.998Z</time></trkpt><trkpt lat="45.24098728938552" lon="8.083700620502274"><ele>172.0</ele><time>2026-04-12T09:29:48.998Z</time></trkpt><trkpt lat="45.24110458771277" lon="8.083859483333184"><ele>172.0</ele><time>2026-04-12T09:29:49.998Z</time></trkpt><trkpt lat="45.2412098698564" lon="8.08400185013957"><ele>172.0</ele><time>2026-04-12T09:29:50.998Z</time></trkpt><trkpt lat="45.241291855477336" lon="8.084150415302155"><ele>172.0</ele><time>2026-04-12T09:29:51.998Z</time></trkpt><trkpt lat="45.24137695002163" lon="8.084270777116695"><ele>172.0</ele><time>2026-04-12T09:29:52.998Z</time></trkpt><trkpt lat="45.24147658394167" lon="8.084380601326101"><ele>171.75</ele><time>2026-04-12T09:29:53.998Z</time></trkpt><trkpt lat="45.241570837260745" lon="8.08451263399337"><ele>171.5</ele><time>2026-04-12T09:29:54.998Z</time></trkpt><trkpt lat="45.24166480348344" lon="8.08465621978365"><ele>171.25</ele><time>2026-04-12T09:29:55.998Z</time></trkpt><trkpt lat="45.241767134144865" lon="8.084801779292325"><ele>171.0</ele><time>2026-04-12T09:29:56.998Z</time></trkpt><trkpt lat="45.24186980905629" lon="8.084956155175812"><ele>170.5</ele><time>2026-04-12T09:29:57.998Z</time></trkpt><trkpt lat="45.24196689251786" lon="8.08511873750931"><ele>170.0</ele><time>2026-04-12T09:29:58.998Z</time></trkpt><trkpt lat="45.24208000699897" lon="8.085250770900226"><ele>169.5</ele><time>2026-04-12T09:29:59.998Z</time></trkpt><trkpt lat="45.24218376800341" lon="8.085395766788322"><ele>169.0</ele><time>2026-04-12T09:30:00.998Z</time></trkpt><trkpt lat="45.242286403864576" lon="8.085569170175674"><ele>169.0</ele><time>2026-04-12T09:30:01.998Z</time></trkpt><trkpt lat="45.24240292801198" lon="8.085733118880086"><ele>169.0</ele><time>2026-04-12T09:30:02.997Z</time></trkpt><trkpt lat="45.24251549348639" lon="8.085891497823267"><ele>169.0</ele><time>2026-04-12T09:30:03.997Z</time></trkpt><trkpt lat="45.2426343096772" lon="8.086057708351689"><ele>169.0</ele><time>2026-04-12T09:30:04.997Z</time></trkpt><trkpt lat="45.24273404123942" lon="8.086196664952908"><ele>169.0</ele><time>2026-04-12T09:30:05.997Z</time></trkpt><trkpt lat="45.24282776769479" lon="8.086298714409473"><ele>169.0</ele><time>2026-04-12T09:30:06.997Z</time></trkpt><trkpt lat="45.24291740348357" lon="8.086426415617423"><ele>169.0</ele><time>2026-04-12T09:30:07.997Z</time></trkpt><trkpt lat="45.24302216787275" lon="8.086568527031341"><ele>169.33333333333334</ele><time>2026-04-12T09:30:09Z</time></trkpt><trkpt lat="45.243124628046196" lon="8.08674087204007"><ele>169.66666666666666</ele><time>2026-04-12T09:30:10Z</time></trkpt><trkpt lat="45.243252407510255" lon="8.086918909569498"><ele>170.0</ele><time>2026-04-12T09:30:11Z</time></trkpt><trkpt lat="45.243397378447966" lon="8.08708894524249"><ele>170.0</ele><time>2026-04-12T09:30:12Z</time></trkpt><trkpt lat="45.24354113432361" lon="8.087293013210196"><ele>170.0</ele><time>2026-04-12T09:30:13Z</time></trkpt><trkpt lat="45.243668933187976" lon="8.087472468989878"><ele>170.0</ele><time>2026-04-12T09:30:14Z</time></trkpt><trkpt lat="45.24379061743266" lon="8.087644124206555"><ele>170.0</ele><time>2026-04-12T09:30:15Z</time></trkpt><trkpt lat="45.2439044822529" lon="8.08783206309102"><ele>170.0</ele><time>2026-04-12T09:30:16Z</time></trkpt><trkpt lat="45.24401214585966" lon="8.087983140030914"><ele>170.0</ele><time>2026-04-12T09:30:17Z</time></trkpt><trkpt lat="45.24410705354515" lon="8.088118105093917"><ele>170.25</ele><time>2026-04-12T09:30:18Z</time></trkpt><trkpt lat="45.24421007859325" lon="8.088234184347193"><ele>170.5</ele><time>2026-04-12T09:30:19Z</time></trkpt><trkpt lat="45.244303126154456" lon="8.088396933316814"><ele>170.75</ele><time>2026-04-12T09:30:20Z</time></trkpt><trkpt lat="45.244404863564476" lon="8.088541610799231"><ele>171.0</ele><time>2026-04-12T09:30:21Z</time></trkpt><trkpt lat="45.24450129845009" lon="8.088678747579143"><ele>171.0</ele><time>2026-04-12T09:30:22Z</time></trkpt><trkpt lat="45.244599053520034" lon="8.088817761801893"><ele>171.0</ele><time>2026-04-12T09:30:23Z</time></trkpt><trkpt lat="45.24470082016959" lon="8.088962093141783"><ele>171.0</ele><time>2026-04-12T09:30:24Z</time></trkpt><trkpt lat="45.244806259892286" lon="8.089109613142025"><ele>171.0</ele><time>2026-04-12T09:30:25Z</time></trkpt><trkpt lat="45.24490004592" lon="8.08924082860036"><ele>170.75</ele><time>2026-04-12T09:30:26Z</time></trkpt><trkpt lat="45.24499721878883" lon="8.089376782396354"><ele>170.5</ele><time>2026-04-12T09:30:27Z</time></trkpt><trkpt lat="45.24509287349403" lon="8.08951061224548"><ele>170.25</ele><time>2026-04-12T09:30:28Z</time></trkpt><trkpt lat="45.24518501268013" lon="8.089610564245769"><ele>170.0</ele><time>2026-04-12T09:30:29Z</time></trkpt><trkpt lat="45.24525189871543" lon="8.089726489227786"><ele>170.0</ele><time>2026-04-12T09:30:30Z</time></trkpt><trkpt lat="45.24533705020578" lon="8.08980871916922"><ele>170.0</ele><time>2026-04-12T09:30:31Z</time></trkpt><trkpt lat="45.245404314608834" lon="8.089909880209392"><ele>170.0</ele><time>2026-04-12T09:30:32Z</time></trkpt><trkpt lat="45.24547477260446" lon="8.09000310458152"><ele>170.0</ele><time>2026-04-12T09:30:33Z</time></trkpt><trkpt lat="45.24553870702922" lon="8.090088269356324"><ele>170.0</ele><time>2026-04-12T09:30:34Z</time></trkpt><trkpt lat="45.24559443097489" lon="8.090158522831862"><ele>170.0</ele><time>2026-04-12T09:30:35Z</time></trkpt><trkpt lat="45.245661552388974" lon="8.090243940645525"><ele>170.0</ele><time>2026-04-12T09:30:37Z</time></trkpt><trkpt lat="45.24570092697139" lon="8.090320084329948"><ele>170.0</ele><time>2026-04-12T09:30:39Z</time></trkpt><trkpt lat="45.24581093454997" lon="8.09043986159433"><ele>170.0</ele><time>2026-04-12T09:30:41Z</time></trkpt><trkpt lat="45.24587276416729" lon="8.090541089207823"><ele>170.0</ele><time>2026-04-12T09:30:42Z</time></trkpt><trkpt lat="45.245938080615716" lon="8.090650590551126"><ele>170.0</ele><time>2026-04-12T09:30:43Z</time></trkpt><trkpt lat="45.24600204561926" lon="8.090755870894077"><ele>170.0</ele><time>2026-04-12T09:30:44Z</time></trkpt><trkpt lat="45.24606659213196" lon="8.09086588471659"><ele>170.0</ele><time>2026-04-12T09:30:45Z</time></trkpt><trkpt lat="45.24613949781638" lon="8.090960400579897"><ele>170.0</ele><time>2026-04-12T09:30:46Z</time></trkpt><trkpt lat="45.24621910732308" lon="8.091061153594147"><ele>170.0</ele><time>2026-04-12T09:30:46.999Z</time></trkpt><trkpt lat="45.24630027521528" lon="8.091164642919669"><ele>170.0</ele><time>2026-04-12T09:30:47.999Z</time></trkpt><trkpt lat="45.24638834172835" lon="8.091287778505038"><ele>170.0</ele><time>2026-04-12T09:30:48.999Z</time></trkpt><trkpt lat="45.246497915517786" lon="8.091445548836239"><ele>170.0</ele><time>2026-04-12T09:30:49.999Z</time></trkpt><trkpt lat="45.24662251496805" lon="8.09161848629161"><ele>170.0</ele><time>2026-04-12T09:30:50.999Z</time></trkpt><trkpt lat="45.24676396532248" lon="8.091806951906964"><ele>170.0</ele><time>2026-04-12T09:30:51.999Z</time></trkpt><trkpt lat="45.24688404298678" lon="8.091973629489145"><ele>170.0</ele><time>2026-04-12T09:30:52.999Z</time></trkpt><trkpt lat="45.246993772620236" lon="8.092124106819364"><ele>170.0</ele><time>2026-04-12T09:30:53.999Z</time></trkpt><trkpt lat="45.24710452286422" lon="8.092284636696247"><ele>170.0</ele><time>2026-04-12T09:30:54.999Z</time></trkpt><trkpt lat="45.24721813186132" lon="8.0924464076131"><ele>170.0</ele><time>2026-04-12T09:30:55.999Z</time></trkpt><trkpt lat="45.247337039630665" lon="8.092621686744321"><ele>169.66666666666666</ele><time>2026-04-12T09:30:56.999Z</time></trkpt><trkpt lat="45.24745219213202" lon="8.092782132959838"><ele>169.33333333333334</ele><time>2026-04-12T09:30:57.999Z</time></trkpt><trkpt lat="45.24756633948062" lon="8.092947892381149"><ele>169.0</ele><time>2026-04-12T09:30:58.999Z</time></trkpt><trkpt lat="45.24767629024657" lon="8.093111422553005"><ele>169.33333333333334</ele><time>2026-04-12T09:30:59.999Z</time></trkpt><trkpt lat="45.24779046379037" lon="8.09327178401297"><ele>169.66666666666666</ele><time>2026-04-12T09:31:00.999Z</time></trkpt><trkpt lat="45.247907065807894" lon="8.093427551334084"><ele>170.0</ele><time>2026-04-12T09:31:01.999Z</time></trkpt><trkpt lat="45.24802855166857" lon="8.093596534872521"><ele>170.0</ele><time>2026-04-12T09:31:02.999Z</time></trkpt><trkpt lat="45.248145813243475" lon="8.093762561562922"><ele>170.0</ele><time>2026-04-12T09:31:03.999Z</time></trkpt><trkpt lat="45.24826693349258" lon="8.093926870434062"><ele>170.0</ele><time>2026-04-12T09:31:04.999Z</time></trkpt><trkpt lat="45.248391875745575" lon="8.094078359058786"><ele>170.25</ele><time>2026-04-12T09:31:05.999Z</time></trkpt><trkpt lat="45.24850551057577" lon="8.094225655140894"><ele>170.5</ele><time>2026-04-12T09:31:06.999Z</time></trkpt><trkpt lat="45.248611864220955" lon="8.094372177300512"><ele>170.75</ele><time>2026-04-12T09:31:07.999Z</time></trkpt><trkpt lat="45.24870372765454" lon="8.09450014456505"><ele>171.0</ele><time>2026-04-12T09:31:08.999Z</time></trkpt><trkpt lat="45.24879710629746" lon="8.094635544553029"><ele>171.0</ele><time>2026-04-12T09:31:09.999Z</time></trkpt><trkpt lat="45.24890478068165" lon="8.094789949382555"><ele>171.0</ele><time>2026-04-12T09:31:10.999Z</time></trkpt><trkpt lat="45.249016895031865" lon="8.09494467611826"><ele>171.0</ele><time>2026-04-12T09:31:11.999Z</time></trkpt><trkpt lat="45.24910459890436" lon="8.095077193366267"><ele>171.0</ele><time>2026-04-12T09:31:12.999Z</time></trkpt><trkpt lat="45.24918791694492" lon="8.095198075648945"><ele>171.0</ele><time>2026-04-12T09:31:13.999Z</time></trkpt><trkpt lat="45.249277552227966" lon="8.095339177892376"><ele>171.0</ele><time>2026-04-12T09:31:14.999Z</time></trkpt><trkpt lat="45.24937196130179" lon="8.095487024633282"><ele>171.0</ele><time>2026-04-12T09:31:15.999Z</time></trkpt><trkpt lat="45.24949210477324" lon="8.095635000620687"><ele>171.0</ele><time>2026-04-12T09:31:16.999Z</time></trkpt><trkpt lat="45.24963098723231" lon="8.09579794875276"><ele>171.0</ele><time>2026-04-12T09:31:17.999Z</time></trkpt><trkpt lat="45.24975574773962" lon="8.09596373821437"><ele>171.0</ele><time>2026-04-12T09:31:18.999Z</time></trkpt><trkpt lat="45.249861057639514" lon="8.096110291268898"><ele>171.0</ele><time>2026-04-12T09:31:19.999Z</time></trkpt><trkpt lat="45.24996178890136" lon="8.096255801810685"><ele>170.75</ele><time>2026-04-12T09:31:20.999Z</time></trkpt><trkpt lat="45.25007214352379" lon="8.09641233300805"><ele>170.5</ele><time>2026-04-12T09:31:21.999Z</time></trkpt><trkpt lat="45.25018230554045" lon="8.096569256539379"><ele>170.25</ele><time>2026-04-12T09:31:22.999Z</time></trkpt><trkpt lat="45.250278064192834" lon="8.096700346094202"><ele>170.0</ele><time>2026-04-12T09:31:23.999Z</time></trkpt><trkpt lat="45.25036053552808" lon="8.096815383742205"><ele>170.0</ele><time>2026-04-12T09:31:24.999Z</time></trkpt><trkpt lat="45.25043969319283" lon="8.096924447162282"><ele>170.0</ele><time>2026-04-12T09:31:25.999Z</time></trkpt><trkpt lat="45.25051276704564" lon="8.097028444048046"><ele>170.0</ele><time>2026-04-12T09:31:26.999Z</time></trkpt><trkpt lat="45.25058183328707" lon="8.097126637522448"><ele>170.0</ele><time>2026-04-12T09:31:27.999Z</time></trkpt><trkpt lat="45.25064714584042" lon="8.097214977518261"><ele>170.0</ele><time>2026-04-12T09:31:28.998Z</time></trkpt><trkpt lat="45.25070838434599" lon="8.09730063709029"><ele>169.83333333333331</ele><time>2026-04-12T09:31:29.998Z</time></trkpt><trkpt lat="45.250796117700666" lon="8.097412171048639"><ele>169.66666666666666</ele><time>2026-04-12T09:31:31.998Z</time></trkpt><trkpt lat="45.25078656576518" lon="8.09750391892634"><ele>169.5</ele><time>2026-04-12T09:31:33.998Z</time></trkpt><trkpt lat="45.2507068432614" lon="8.097601042161843"><ele>169.33333333333334</ele><time>2026-04-12T09:31:35.998Z</time></trkpt><trkpt lat="45.25065234931513" lon="8.097666385437549"><ele>169.16666666666669</ele><time>2026-04-12T09:31:36.998Z</time></trkpt><trkpt lat="45.25060474867283" lon="8.097727981075634"><ele>169.0</ele><time>2026-04-12T09:31:37.998Z</time></trkpt><trkpt lat="45.25054202587204" lon="8.097835679510261"><ele>169.0</ele><time>2026-04-12T09:31:39.998Z</time></trkpt><trkpt lat="45.25055377288092" lon="8.097926112618762"><ele>169.0</ele><time>2026-04-12T09:31:41.998Z</time></trkpt><trkpt lat="45.250657667712105" lon="8.098047594758222"><ele>169.0</ele><time>2026-04-12T09:31:43.998Z</time></trkpt><trkpt lat="45.25071984205628" lon="8.098154670803318"><ele>169.0</ele><time>2026-04-12T09:31:44.998Z</time></trkpt><trkpt lat="45.25075144009286" lon="8.098255037177694"><ele>169.0</ele><time>2026-04-12T09:31:45.998Z</time></trkpt><trkpt lat="45.250767368857865" lon="8.098360412048214"><ele>169.0</ele><time>2026-04-12T09:31:46.998Z</time></trkpt><trkpt lat="45.25079031957193" lon="8.09846383530803"><ele>169.0</ele><time>2026-04-12T09:31:47.998Z</time></trkpt><trkpt lat="45.250833722500744" lon="8.09854626712102"><ele>169.0</ele><time>2026-04-12T09:31:48.998Z</time></trkpt><trkpt lat="45.250899872324815" lon="8.098617624976457"><ele>169.0</ele><time>2026-04-12T09:31:49.998Z</time></trkpt><trkpt lat="45.25098561998061" lon="8.098710591278747"><ele>169.0</ele><time>2026-04-12T09:31:50.998Z</time></trkpt><trkpt lat="45.25108780756441" lon="8.098823654445582"><ele>169.0</ele><time>2026-04-12T09:31:51.998Z</time></trkpt><trkpt lat="45.25119382935915" lon="8.098949770289016"><ele>169.0</ele><time>2026-04-12T09:31:52.998Z</time></trkpt><trkpt lat="45.251284625956224" lon="8.099067267422047"><ele>169.0</ele><time>2026-04-12T09:31:53.998Z</time></trkpt><trkpt lat="45.25136852811922" lon="8.099188532357585"><ele>169.0</ele><time>2026-04-12T09:31:54.998Z</time></trkpt><trkpt lat="45.251446545332946" lon="8.09932725126966"><ele>169.2</ele><time>2026-04-12T09:31:55.998Z</time></trkpt><trkpt lat="45.251510875197035" lon="8.099439284485245"><ele>169.39999999999998</ele><time>2026-04-12T09:31:56.998Z</time></trkpt><trkpt lat="45.25156680183491" lon="8.099523840523158"><ele>169.6</ele><time>2026-04-12T09:31:57.998Z</time></trkpt><trkpt lat="45.2516485128318" lon="8.099636415170417"><ele>169.8</ele><time>2026-04-12T09:31:59.998Z</time></trkpt><trkpt lat="45.251687259897345" lon="8.099757576739199"><ele>170.0</ele><time>2026-04-12T09:32:01.998Z</time></trkpt><trkpt lat="45.25164533193943" lon="8.099902413593888"><ele>169.75</ele><time>2026-04-12T09:32:03.998Z</time></trkpt><trkpt lat="45.25160683702264" lon="8.100011285583518"><ele>169.5</ele><time>2026-04-12T09:32:04.998Z</time></trkpt><trkpt lat="45.25153776717548" lon="8.100144877841343"><ele>169.25</ele><time>2026-04-12T09:32:05.998Z</time></trkpt><trkpt lat="45.25146282034151" lon="8.100297125431293"><ele>169.0</ele><time>2026-04-12T09:32:06.998Z</time></trkpt><trkpt lat="45.25139472100776" lon="8.100443926869561"><ele>169.0</ele><time>2026-04-12T09:32:07.998Z</time></trkpt><trkpt lat="45.251326848652276" lon="8.100604233765203"><ele>169.0</ele><time>2026-04-12T09:32:08.998Z</time></trkpt><trkpt lat="45.251248382280885" lon="8.1007847603277"><ele>169.0</ele><time>2026-04-12T09:32:09.998Z</time></trkpt><trkpt lat="45.251170894320644" lon="8.100980040940708"><ele>169.0</ele><time>2026-04-12T09:32:10.997Z</time></trkpt><trkpt lat="45.25109548151197" lon="8.101184801207017"><ele>168.66666666666669</ele><time>2026-04-12T09:32:11.997Z</time></trkpt><trkpt lat="45.25102925157026" lon="8.10137980689137"><ele>168.33333333333334</ele><time>2026-04-12T09:32:12.997Z</time></trkpt><trkpt lat="45.25096163280984" lon="8.101601042054408"><ele>168.0</ele><time>2026-04-12T09:32:13.997Z</time></trkpt><trkpt lat="45.25089537746174" lon="8.101816192628814"><ele>168.0</ele><time>2026-04-12T09:32:15Z</time></trkpt><trkpt lat="45.25083773237761" lon="8.101983630257582"><ele>168.0</ele><time>2026-04-12T09:32:16Z</time></trkpt><trkpt lat="45.25077854662129" lon="8.102151180928459"><ele>168.0</ele><time>2026-04-12T09:32:17Z</time></trkpt><trkpt lat="45.25070956001922" lon="8.102331203774042"><ele>168.0</ele><time>2026-04-12T09:32:18Z</time></trkpt><trkpt lat="45.25064700117606" lon="8.10249162288025"><ele>168.0</ele><time>2026-04-12T09:32:19Z</time></trkpt><trkpt lat="45.2505844065694" lon="8.10264267745923"><ele>168.0</ele><time>2026-04-12T09:32:20Z</time></trkpt><trkpt lat="45.25052360987582" lon="8.102775993915039"><ele>168.0</ele><time>2026-04-12T09:32:21Z</time></trkpt><trkpt lat="45.250472227088636" lon="8.10291503312732"><ele>168.0</ele><time>2026-04-12T09:32:22Z</time></trkpt><trkpt lat="45.25042969811502" lon="8.103079525014248"><ele>167.66666666666666</ele><time>2026-04-12T09:32:23Z</time></trkpt><trkpt lat="45.25039193187388" lon="8.103268184908409"><ele>167.33333333333331</ele><time>2026-04-12T09:32:24Z</time></trkpt><trkpt lat="45.25034724963116" lon="8.10348211318286"><ele>167.0</ele><time>2026-04-12T09:32:25Z</time></trkpt><trkpt lat="45.25029452776131" lon="8.103710859310834"><ele>167.0</ele><time>2026-04-12T09:32:26Z</time></trkpt><trkpt lat="45.25025066500827" lon="8.103906605811618"><ele>167.0</ele><time>2026-04-12T09:32:27Z</time></trkpt><trkpt lat="45.25020575825221" lon="8.104105219697866"><ele>167.0</ele><time>2026-04-12T09:32:28Z</time></trkpt><trkpt lat="45.25014920796132" lon="8.104331727379988"><ele>167.0</ele><time>2026-04-12T09:32:29Z</time></trkpt><trkpt lat="45.25009325446399" lon="8.10455955404964"><ele>167.0</ele><time>2026-04-12T09:32:30Z</time></trkpt><trkpt lat="45.25003544925627" lon="8.104799984814997"><ele>167.0</ele><time>2026-04-12T09:32:31Z</time></trkpt><trkpt lat="45.24998825667546" lon="8.104988733065033"><ele>167.0</ele><time>2026-04-12T09:32:32Z</time></trkpt><trkpt lat="45.24994810256447" lon="8.10516021079632"><ele>167.0</ele><time>2026-04-12T09:32:33Z</time></trkpt><trkpt lat="45.24991459960197" lon="8.105317668248912"><ele>167.0</ele><time>2026-04-12T09:32:34Z</time></trkpt><trkpt lat="45.24988251290519" lon="8.105463521021493"><ele>167.0</ele><time>2026-04-12T09:32:35Z</time></trkpt><trkpt lat="45.24985793837208" lon="8.105581299912606"><ele>167.0</ele><time>2026-04-12T09:32:36Z</time></trkpt><trkpt lat="45.24982935486084" lon="8.105716735589912"><ele>167.0</ele><time>2026-04-12T09:32:37Z</time></trkpt><trkpt lat="45.24978459379376" lon="8.105890057903192"><ele>167.0</ele><time>2026-04-12T09:32:38Z</time></trkpt><trkpt lat="45.24971433277282" lon="8.106073067574656"><ele>167.0</ele><time>2026-04-12T09:32:39Z</time></trkpt><trkpt lat="45.24963001960458" lon="8.106240911878782"><ele>167.0</ele><time>2026-04-12T09:32:40Z</time></trkpt><trkpt lat="45.249531008311955" lon="8.106417823633084"><ele>166.66666666666666</ele><time>2026-04-12T09:32:41Z</time></trkpt><trkpt lat="45.24941025715999" lon="8.106624804731123"><ele>166.33333333333334</ele><time>2026-04-12T09:32:42Z</time></trkpt><trkpt lat="45.249280877425214" lon="8.106840054743648"><ele>166.0</ele><time>2026-04-12T09:32:43Z</time></trkpt><trkpt lat="45.249153866944226" lon="8.107059556613741"><ele>166.0</ele><time>2026-04-12T09:32:44Z</time></trkpt><trkpt lat="45.24903543478589" lon="8.107260573796957"><ele>166.0</ele><time>2026-04-12T09:32:45Z</time></trkpt><trkpt lat="45.24893071603495" lon="8.107437276340915"><ele>166.0</ele><time>2026-04-12T09:32:45.999Z</time></trkpt><trkpt lat="45.248826071282615" lon="8.107616515817213"><ele>165.66666666666669</ele><time>2026-04-12T09:32:46.999Z</time></trkpt><trkpt lat="45.24872543755999" lon="8.107790848972833"><ele>165.33333333333334</ele><time>2026-04-12T09:32:47.999Z</time></trkpt><trkpt lat="45.24862773009009" lon="8.107957917985683"><ele>165.0</ele><time>2026-04-12T09:32:48.999Z</time></trkpt><trkpt lat="45.248532534204514" lon="8.108118336773662"><ele>165.33333333333334</ele><time>2026-04-12T09:32:49.999Z</time></trkpt><trkpt lat="45.248430747316036" lon="8.108287053504522"><ele>165.66666666666669</ele><time>2026-04-12T09:32:50.999Z</time></trkpt><trkpt lat="45.24832452759052" lon="8.10846808174873"><ele>166.0</ele><time>2026-04-12T09:32:51.999Z</time></trkpt><trkpt lat="45.24820719564425" lon="8.108675729934019"><ele>166.0</ele><time>2026-04-12T09:32:52.999Z</time></trkpt><trkpt lat="45.24808218910554" lon="8.108889376206571"><ele>166.0</ele><time>2026-04-12T09:32:53.999Z</time></trkpt><trkpt lat="45.24796767774744" lon="8.109086134582443"><ele>166.0</ele><time>2026-04-12T09:32:54.999Z</time></trkpt><trkpt lat="45.247851922970504" lon="8.109281327054745"><ele>166.0</ele><time>2026-04-12T09:32:55.999Z</time></trkpt><trkpt lat="45.24773833372797" lon="8.109473657598782"><ele>166.0</ele><time>2026-04-12T09:32:56.999Z</time></trkpt><trkpt lat="45.247622677533776" lon="8.109673130336818"><ele>166.0</ele><time>2026-04-12T09:32:57.999Z</time></trkpt><trkpt lat="45.24750337917089" lon="8.109873203630938"><ele>165.66666666666669</ele><time>2026-04-12T09:32:58.999Z</time></trkpt><trkpt lat="45.2473848497835" lon="8.110079024371984"><ele>165.33333333333334</ele><time>2026-04-12T09:32:59.999Z</time></trkpt><trkpt lat="45.24725893804482" lon="8.110289159785184"><ele>165.0</ele><time>2026-04-12T09:33:00.999Z</time></trkpt><trkpt lat="45.247130338324105" lon="8.110510553697663"><ele>164.66666666666666</ele><time>2026-04-12T09:33:01.999Z</time></trkpt><trkpt lat="45.247008101172355" lon="8.110725973957969"><ele>164.33333333333331</ele><time>2026-04-12T09:33:02.999Z</time></trkpt><trkpt lat="45.246894220534145" lon="8.110919174160658"><ele>164.0</ele><time>2026-04-12T09:33:03.999Z</time></trkpt><trkpt lat="45.2467769643889" lon="8.111118920881538"><ele>164.0</ele><time>2026-04-12T09:33:04.999Z</time></trkpt><trkpt lat="45.24666442012309" lon="8.111312814505613"><ele>164.0</ele><time>2026-04-12T09:33:05.999Z</time></trkpt><trkpt lat="45.246568661080275" lon="8.111479680737357"><ele>164.0</ele><time>2026-04-12T09:33:06.999Z</time></trkpt><trkpt lat="45.24647868771329" lon="8.111627981996442"><ele>164.0</ele><time>2026-04-12T09:33:07.999Z</time></trkpt><trkpt lat="45.24639789627272" lon="8.11176375764746"><ele>164.0</ele><time>2026-04-12T09:33:08.999Z</time></trkpt><trkpt lat="45.24632950039497" lon="8.1118852647193"><ele>164.0</ele><time>2026-04-12T09:33:09.999Z</time></trkpt><trkpt lat="45.24626084509914" lon="8.1120076397221"><ele>164.0</ele><time>2026-04-12T09:33:10.999Z</time></trkpt><trkpt lat="45.2461834615408" lon="8.11214599404765"><ele>164.0</ele><time>2026-04-12T09:33:11.999Z</time></trkpt><trkpt lat="45.246098326617805" lon="8.11229926480552"><ele>164.0</ele><time>2026-04-12T09:33:12.999Z</time></trkpt><trkpt lat="45.24600072941657" lon="8.112473084343476"><ele>164.0</ele><time>2026-04-12T09:33:13.999Z</time></trkpt><trkpt lat="45.245897346361765" lon="8.112653878580787"><ele>164.33333333333331</ele><time>2026-04-12T09:33:14.999Z</time></trkpt><trkpt lat="45.24579206674855" lon="8.112831389788035"><ele>164.66666666666666</ele><time>2026-04-12T09:33:15.999Z</time></trkpt><trkpt lat="45.2456808469614" lon="8.113020292906016"><ele>165.0</ele><time>2026-04-12T09:33:16.999Z</time></trkpt><trkpt lat="45.24557043242804" lon="8.113213067293767"><ele>165.0</ele><time>2026-04-12T09:33:17.999Z</time></trkpt><trkpt lat="45.24545301349784" lon="8.113416897173183"><ele>165.0</ele><time>2026-04-12T09:33:18.999Z</time></trkpt><trkpt lat="45.24532945348443" lon="8.113634860756923"><ele>165.0</ele><time>2026-04-12T09:33:19.999Z</time></trkpt><trkpt lat="45.24520152460885" lon="8.113853404901672"><ele>165.0</ele><time>2026-04-12T09:33:20.999Z</time></trkpt><trkpt lat="45.245080066340165" lon="8.114059514674064"><ele>165.0</ele><time>2026-04-12T09:33:21.999Z</time></trkpt><trkpt lat="45.24497447940107" lon="8.114240500333313"><ele>165.0</ele><time>2026-04-12T09:33:22.999Z</time></trkpt><trkpt lat="45.244878655358825" lon="8.11440103890905"><ele>164.5</ele><time>2026-04-12T09:33:23.999Z</time></trkpt><trkpt lat="45.244791960466536" lon="8.114548214735315"><ele>164.0</ele><time>2026-04-12T09:33:24.999Z</time></trkpt><trkpt lat="45.244711928937875" lon="8.114683646699694"><ele>163.5</ele><time>2026-04-12T09:33:25.999Z</time></trkpt><trkpt lat="45.24463255356955" lon="8.114823764569858"><ele>163.0</ele><time>2026-04-12T09:33:26.999Z</time></trkpt><trkpt lat="45.24453893954409" lon="8.11498199418129"><ele>163.0</ele><time>2026-04-12T09:33:27.998Z</time></trkpt><trkpt lat="45.2444357252796" lon="8.115158837511146"><ele>163.0</ele><time>2026-04-12T09:33:28.998Z</time></trkpt><trkpt lat="45.24432190373553" lon="8.115351516641075"><ele>163.0</ele><time>2026-04-12T09:33:29.998Z</time></trkpt><trkpt lat="45.24422435318829" lon="8.115518571915155"><ele>163.0</ele><time>2026-04-12T09:33:30.998Z</time></trkpt><trkpt lat="45.244141944581756" lon="8.115667558588587"><ele>163.0</ele><time>2026-04-12T09:33:31.998Z</time></trkpt><trkpt lat="45.244064626446736" lon="8.115802828356212"><ele>163.0</ele><time>2026-04-12T09:33:32.998Z</time></trkpt><trkpt lat="45.24398384448843" lon="8.115936016996313"><ele>163.0</ele><time>2026-04-12T09:33:33.998Z</time></trkpt><trkpt lat="45.243910790690464" lon="8.116061754984074"><ele>163.0</ele><time>2026-04-12T09:33:34.998Z</time></trkpt><trkpt lat="45.243845280438215" lon="8.116181102649914"><ele>163.0</ele><time>2026-04-12T09:33:35.998Z</time></trkpt><trkpt lat="45.243776204483545" lon="8.1163122500471"><ele>163.0</ele><time>2026-04-12T09:33:36.998Z</time></trkpt><trkpt lat="45.24372678143494" lon="8.116423172976393"><ele>163.0</ele><time>2026-04-12T09:33:37.998Z</time></trkpt><trkpt lat="45.24367274748234" lon="8.116539637823111"><ele>163.0</ele><time>2026-04-12T09:33:38.998Z</time></trkpt><trkpt lat="45.243599866020425" lon="8.116668352088272"><ele>163.0</ele><time>2026-04-12T09:33:39.998Z</time></trkpt><trkpt lat="45.2435123115083" lon="8.116804510553758"><ele>163.0</ele><time>2026-04-12T09:33:40.998Z</time></trkpt><trkpt lat="45.24341832746211" lon="8.116951376610396"><ele>163.0</ele><time>2026-04-12T09:33:41.998Z</time></trkpt><trkpt lat="45.24331930016796" lon="8.117106723813123"><ele>163.0</ele><time>2026-04-12T09:33:42.998Z</time></trkpt><trkpt lat="45.24321909397117" lon="8.117264014272926"><ele>162.66666666666669</ele><time>2026-04-12T09:33:43.998Z</time></trkpt><trkpt lat="45.24311508697707" lon="8.117425798125169"><ele>162.33333333333334</ele><time>2026-04-12T09:33:44.998Z</time></trkpt><trkpt lat="45.24300822906259" lon="8.11759680018697"><ele>162.0</ele><time>2026-04-12T09:33:45.998Z</time></trkpt><trkpt lat="45.24289732450264" lon="8.117769137979282"><ele>162.0</ele><time>2026-04-12T09:33:46.998Z</time></trkpt><trkpt lat="45.24266266924346" lon="8.118135202254471"><ele>162.0</ele><time>2026-04-12T09:33:48.998Z</time></trkpt><trkpt lat="45.242556974060626" lon="8.118305139001393"><ele>162.0</ele><time>2026-04-12T09:33:49.998Z</time></trkpt><trkpt lat="45.24244523129333" lon="8.118483740140258"><ele>162.0</ele><time>2026-04-12T09:33:50.998Z</time></trkpt><trkpt lat="45.24234221504323" lon="8.118653650741882"><ele>162.0</ele><time>2026-04-12T09:33:51.998Z</time></trkpt><trkpt lat="45.24224531437267" lon="8.118804306788112"><ele>162.25</ele><time>2026-04-12T09:33:52.998Z</time></trkpt><trkpt lat="45.24214378609726" lon="8.118960730063005"><ele>162.5</ele><time>2026-04-12T09:33:53.998Z</time></trkpt><trkpt lat="45.24204257445688" lon="8.119116365738575"><ele>162.75</ele><time>2026-04-12T09:33:54.998Z</time></trkpt><trkpt lat="45.24194879896706" lon="8.119261114593202"><ele>163.0</ele><time>2026-04-12T09:33:55.998Z</time></trkpt><trkpt lat="45.24186246673306" lon="8.11940203614681"><ele>163.0</ele><time>2026-04-12T09:33:56.998Z</time></trkpt><trkpt lat="45.24177363892916" lon="8.119540566108405"><ele>163.0</ele><time>2026-04-12T09:33:57.998Z</time></trkpt><trkpt lat="45.2416794443382" lon="8.119684096336705"><ele>163.0</ele><time>2026-04-12T09:33:58.998Z</time></trkpt><trkpt lat="45.24158222282762" lon="8.1198268455061"><ele>163.0</ele><time>2026-04-12T09:33:59.998Z</time></trkpt><trkpt lat="45.24148973528278" lon="8.11997531065884"><ele>163.5</ele><time>2026-04-12T09:34:00.998Z</time></trkpt><trkpt lat="45.24139888677615" lon="8.120106674734513"><ele>164.0</ele><time>2026-04-12T09:34:01.998Z</time></trkpt><trkpt lat="45.24131065616742" lon="8.120239409338573"><ele>164.5</ele><time>2026-04-12T09:34:02.998Z</time></trkpt><trkpt lat="45.241207298322266" lon="8.120373672366508"><ele>165.0</ele><time>2026-04-12T09:34:03.998Z</time></trkpt><trkpt lat="45.241105185762926" lon="8.120500252287568"><ele>165.0</ele><time>2026-04-12T09:34:04.998Z</time></trkpt><trkpt lat="45.24101883255064" lon="8.120612419933925"><ele>165.0</ele><time>2026-04-12T09:34:05.998Z</time></trkpt><trkpt lat="45.24095068209558" lon="8.120716052003791"><ele>165.0</ele><time>2026-04-12T09:34:06.998Z</time></trkpt><trkpt lat="45.24088080758992" lon="8.120802462890067"><ele>165.0</ele><time>2026-04-12T09:34:07.998Z</time></trkpt><trkpt lat="45.240817580200506" lon="8.120887792897971"><ele>165.0</ele><time>2026-04-12T09:34:08.998Z</time></trkpt><trkpt lat="45.240758990576644" lon="8.120958516841489"><ele>164.66666666666666</ele><time>2026-04-12T09:34:09.997Z</time></trkpt><trkpt lat="45.24070454961993" lon="8.121004517863131"><ele>164.33333333333334</ele><time>2026-04-12T09:34:10.997Z</time></trkpt><trkpt lat="45.24064120839754" lon="8.121083419303476"><ele>164.0</ele><time>2026-04-12T09:34:12.997Z</time></trkpt><trkpt lat="45.24059367001855" lon="8.12114225021996"><ele>163.66666666666669</ele><time>2026-04-12T09:34:15.997Z</time></trkpt><trkpt lat="45.24069073401587" lon="8.121038615569198"><ele>163.33333333333334</ele><time>2026-04-12T09:34:37Z</time></trkpt><trkpt lat="45.2407579793823" lon="8.120947504772401"><ele>163.0</ele><time>2026-04-12T09:34:38Z</time></trkpt><trkpt lat="45.24086218212363" lon="8.120791736689457"><ele>163.5</ele><time>2026-04-12T09:34:39Z</time></trkpt><trkpt lat="45.24095205245787" lon="8.120677142780215"><ele>164.0</ele><time>2026-04-12T09:34:40Z</time></trkpt><trkpt lat="45.24105560593023" lon="8.12055738796678"><ele>164.5</ele><time>2026-04-12T09:34:41Z</time></trkpt><trkpt lat="45.24111614563529" lon="8.120448246193236"><ele>165.0</ele><time>2026-04-12T09:34:42Z</time></trkpt><trkpt lat="45.241197900393715" lon="8.120341230508226"><ele>165.0</ele><time>2026-04-12T09:34:43Z</time></trkpt><trkpt lat="45.241273767356304" lon="8.120248461462273"><ele>165.0</ele><time>2026-04-12T09:34:44Z</time></trkpt><trkpt lat="45.24132925096322" lon="8.120164184366677"><ele>165.0</ele><time>2026-04-12T09:34:45Z</time></trkpt><trkpt lat="45.24138503393173" lon="8.12006731324024"><ele>165.0</ele><time>2026-04-12T09:34:46Z</time></trkpt><trkpt lat="45.24144726717711" lon="8.119981807482608"><ele>165.0</ele><time>2026-04-12T09:34:47Z</time></trkpt><trkpt lat="45.24150884678085" lon="8.119890367385363"><ele>165.0</ele><time>2026-04-12T09:34:48Z</time></trkpt><trkpt lat="45.241556912535685" lon="8.119818610395644"><ele>164.83333333333334</ele><time>2026-04-12T09:34:49Z</time></trkpt><trkpt lat="45.241617601247036" lon="8.119717591194027"><ele>164.66666666666666</ele><time>2026-04-12T09:34:50.999Z</time></trkpt><trkpt lat="45.24163720228247" lon="8.119605204828447"><ele>164.5</ele><time>2026-04-12T09:34:52.999Z</time></trkpt><trkpt lat="45.24158928909536" lon="8.119487798580256"><ele>164.33333333333331</ele><time>2026-04-12T09:34:54.999Z</time></trkpt><trkpt lat="45.2415460310566" lon="8.119403033134963"><ele>164.16666666666666</ele><time>2026-04-12T09:34:55.999Z</time></trkpt><trkpt lat="45.24149654158826" lon="8.119299972395856"><ele>164.0</ele><time>2026-04-12T09:34:56.999Z</time></trkpt><trkpt lat="45.24144723285814" lon="8.11918472270972"><ele>163.75</ele><time>2026-04-12T09:34:57.999Z</time></trkpt><trkpt lat="45.241384207057" lon="8.119051791858412"><ele>163.5</ele><time>2026-04-12T09:34:58.999Z</time></trkpt><trkpt lat="45.24131957284146" lon="8.118910217629576"><ele>163.25</ele><time>2026-04-12T09:34:59.999Z</time></trkpt><trkpt lat="45.24125566887733" lon="8.11875990378133"><ele>163.0</ele><time>2026-04-12T09:35:00.999Z</time></trkpt><trkpt lat="45.241191450179294" lon="8.118612242258084"><ele>163.0</ele><time>2026-04-12T09:35:01.999Z</time></trkpt><trkpt lat="45.24114462492203" lon="8.11849590474533"><ele>163.0</ele><time>2026-04-12T09:35:02.999Z</time></trkpt><trkpt lat="45.24110525706874" lon="8.118401611053837"><ele>163.0</ele><time>2026-04-12T09:35:03.999Z</time></trkpt><trkpt lat="45.24106838998549" lon="8.118318801121076"><ele>163.0</ele><time>2026-04-12T09:35:04.999Z</time></trkpt><trkpt lat="45.24103554792225" lon="8.118242070096853"><ele>163.0</ele><time>2026-04-12T09:35:05.999Z</time></trkpt><trkpt lat="45.24097834806015" lon="8.118137123570714"><ele>163.0</ele><time>2026-04-12T09:35:08.999Z</time></trkpt><trkpt lat="45.24090577181839" lon="8.117986620261801"><ele>162.60000000000002</ele><time>2026-04-12T09:35:10.999Z</time></trkpt><trkpt lat="45.24085539629486" lon="8.11788188821969"><ele>162.20000000000002</ele><time>2026-04-12T09:35:11.999Z</time></trkpt><trkpt lat="45.24079641152623" lon="8.117761303791061"><ele>161.8</ele><time>2026-04-12T09:35:12.999Z</time></trkpt><trkpt lat="45.240729995289385" lon="8.117617551225301"><ele>161.4</ele><time>2026-04-12T09:35:13.999Z</time></trkpt><trkpt lat="45.240666429671215" lon="8.117465271291639"><ele>161.0</ele><time>2026-04-12T09:35:14.999Z</time></trkpt><trkpt lat="45.24063052953118" lon="8.11737239716231"><ele>161.0</ele><time>2026-04-12T09:35:15.999Z</time></trkpt><trkpt lat="45.24057955606312" lon="8.11726169256889"><ele>161.0</ele><time>2026-04-12T09:35:17.999Z</time></trkpt><trkpt lat="45.240503237299876" lon="8.117078449305378"><ele>161.0</ele><time>2026-04-12T09:35:19.999Z</time></trkpt><trkpt lat="45.240453418719305" lon="8.116968977017752"><ele>161.0</ele><time>2026-04-12T09:35:20.999Z</time></trkpt><trkpt lat="45.240400937248445" lon="8.116849114635551"><ele>161.0</ele><time>2026-04-12T09:35:21.999Z</time></trkpt><trkpt lat="45.24035135954734" lon="8.116722926941721"><ele>161.0</ele><time>2026-04-12T09:35:22.999Z</time></trkpt><trkpt lat="45.24029452406034" lon="8.116588325343239"><ele>161.0</ele><time>2026-04-12T09:35:23.999Z</time></trkpt><trkpt lat="45.24023333788159" lon="8.116452051298792"><ele>161.0</ele><time>2026-04-12T09:35:24.999Z</time></trkpt><trkpt lat="45.240166639207814" lon="8.116311506136958"><ele>161.0</ele><time>2026-04-12T09:35:25.999Z</time></trkpt><trkpt lat="45.2401007757703" lon="8.116161883993072"><ele>161.0</ele><time>2026-04-12T09:35:26.999Z</time></trkpt><trkpt lat="45.24003455491747" lon="8.116004828313478"><ele>161.0</ele><time>2026-04-12T09:35:27.999Z</time></trkpt><trkpt lat="45.23996791973168" lon="8.115849792395863"><ele>161.0</ele><time>2026-04-12T09:35:28.999Z</time></trkpt><trkpt lat="45.23991077982224" lon="8.115720647581556"><ele>161.0</ele><time>2026-04-12T09:35:29.999Z</time></trkpt><trkpt lat="45.239857092745694" lon="8.115595726761724"><ele>161.0</ele><time>2026-04-12T09:35:30.999Z</time></trkpt><trkpt lat="45.23980211037071" lon="8.115463444799257"><ele>161.0</ele><time>2026-04-12T09:35:31.999Z</time></trkpt><trkpt lat="45.239750721422205" lon="8.115346588643286"><ele>161.0</ele><time>2026-04-12T09:35:32.999Z</time></trkpt><trkpt lat="45.239707557868726" lon="8.115245501591279"><ele>161.0</ele><time>2026-04-12T09:35:33.999Z</time></trkpt><trkpt lat="45.23966299885828" lon="8.115153915023003"><ele>161.0</ele><time>2026-04-12T09:35:34.998Z</time></trkpt><trkpt lat="45.23962332129283" lon="8.115063702430623"><ele>161.0</ele><time>2026-04-12T09:35:35.998Z</time></trkpt><trkpt lat="45.239587229907976" lon="8.114983475092915"><ele>161.0</ele><time>2026-04-12T09:35:36.998Z</time></trkpt><trkpt lat="45.23955412773318" lon="8.11490676558082"><ele>161.0</ele><time>2026-04-12T09:35:37.998Z</time></trkpt><trkpt lat="45.239505407066744" lon="8.114784143893777"><ele>161.0</ele><time>2026-04-12T09:35:39.998Z</time></trkpt><trkpt lat="45.23952041335887" lon="8.11469091470313"><ele>161.0</ele><time>2026-04-12T09:35:41.998Z</time></trkpt><trkpt lat="45.23961087416977" lon="8.11461027804155"><ele>161.0</ele><time>2026-04-12T09:35:43.998Z</time></trkpt><trkpt lat="45.23968216678468" lon="8.114564885208146"><ele>161.0</ele><time>2026-04-12T09:35:44.998Z</time></trkpt><trkpt lat="45.23978005051487" lon="8.114511778980297"><ele>161.4</ele><time>2026-04-12T09:35:45.998Z</time></trkpt><trkpt lat="45.23988177351056" lon="8.114445383259122"><ele>161.8</ele><time>2026-04-12T09:35:46.998Z</time></trkpt><trkpt lat="45.23998022574372" lon="8.114369315338157"><ele>162.20000000000002</ele><time>2026-04-12T09:35:47.998Z</time></trkpt><trkpt lat="45.24005749878206" lon="8.11430897337291"><ele>162.60000000000002</ele><time>2026-04-12T09:35:48.998Z</time></trkpt><trkpt lat="45.24012788243634" lon="8.114256718756067"><ele>163.0</ele><time>2026-04-12T09:35:49.998Z</time></trkpt><trkpt lat="45.24020894742173" lon="8.114195231531427"><ele>163.0</ele><time>2026-04-12T09:35:50.998Z</time></trkpt><trkpt lat="45.240286039084594" lon="8.114132937961767"><ele>163.0</ele><time>2026-04-12T09:35:51.998Z</time></trkpt><trkpt lat="45.24035935098637" lon="8.114074423517886"><ele>163.0</ele><time>2026-04-12T09:35:52.998Z</time></trkpt><trkpt lat="45.24042897353471" lon="8.114019243703739"><ele>163.0</ele><time>2026-04-12T09:35:53.998Z</time></trkpt><trkpt lat="45.24050749375318" lon="8.113954481608175"><ele>163.0</ele><time>2026-04-12T09:35:54.998Z</time></trkpt><trkpt lat="45.2405836743206" lon="8.113893077939474"><ele>163.0</ele><time>2026-04-12T09:35:55.998Z</time></trkpt><trkpt lat="45.24066911839162" lon="8.113832385206308"><ele>163.0</ele><time>2026-04-12T09:35:56.998Z</time></trkpt><trkpt lat="45.240738724458105" lon="8.113779926932088"><ele>163.0</ele><time>2026-04-12T09:35:57.998Z</time></trkpt><trkpt lat="45.240800123206526" lon="8.113731431376209"><ele>163.0</ele><time>2026-04-12T09:35:58.998Z</time></trkpt><trkpt lat="45.24087623379073" lon="8.113674800852175"><ele>163.0</ele><time>2026-04-12T09:35:59.998Z</time></trkpt><trkpt lat="45.240954329455775" lon="8.113618087787183"><ele>163.0</ele><time>2026-04-12T09:36:00.998Z</time></trkpt><trkpt lat="45.24103062819037" lon="8.113559884259368"><ele>163.0</ele><time>2026-04-12T09:36:01.998Z</time></trkpt><trkpt lat="45.24111721682542" lon="8.113493681024165"><ele>163.0</ele><time>2026-04-12T09:36:02.998Z</time></trkpt><trkpt lat="45.2412046403659" lon="8.113431834656652"><ele>163.0</ele><time>2026-04-12T09:36:03.998Z</time></trkpt><trkpt lat="45.24129412675872" lon="8.113361289708216"><ele>163.0</ele><time>2026-04-12T09:36:04.998Z</time></trkpt><trkpt lat="45.24138934689036" lon="8.11329001037312"><ele>163.0</ele><time>2026-04-12T09:36:05.998Z</time></trkpt><trkpt lat="45.241489211112736" lon="8.113215281065344"><ele>163.0</ele><time>2026-04-12T09:36:06.998Z</time></trkpt><trkpt lat="45.24158401036384" lon="8.113142357467483"><ele>163.4</ele><time>2026-04-12T09:36:07.998Z</time></trkpt><trkpt lat="45.24167401598672" lon="8.113072153061161"><ele>163.8</ele><time>2026-04-12T09:36:08.998Z</time></trkpt><trkpt lat="45.2417591688019" lon="8.113004604231909"><ele>164.2</ele><time>2026-04-12T09:36:09.998Z</time></trkpt><trkpt lat="45.24184857390545" lon="8.11293572244199"><ele>164.6</ele><time>2026-04-12T09:36:10.998Z</time></trkpt><trkpt lat="45.241940295438134" lon="8.112861088172181"><ele>165.0</ele><time>2026-04-12T09:36:11.998Z</time></trkpt><trkpt lat="45.242030587564855" lon="8.1127950619065"><ele>165.0</ele><time>2026-04-12T09:36:12.998Z</time></trkpt><trkpt lat="45.242124622211485" lon="8.11272435978955"><ele>165.0</ele><time>2026-04-12T09:36:13.998Z</time></trkpt><trkpt lat="45.24221622672324" lon="8.112655459930894"><ele>165.0</ele><time>2026-04-12T09:36:14.998Z</time></trkpt><trkpt lat="45.24230003965188" lon="8.112584640974855"><ele>165.0</ele><time>2026-04-12T09:36:15.998Z</time></trkpt><trkpt lat="45.242385064653305" lon="8.112518755156763"><ele>165.0</ele><time>2026-04-12T09:36:16.998Z</time></trkpt><trkpt lat="45.242451705083475" lon="8.112463151915712"><ele>165.0</ele><time>2026-04-12T09:36:17.997Z</time></trkpt><trkpt lat="45.24251227687929" lon="8.112413224910778"><ele>165.0</ele><time>2026-04-12T09:36:18.997Z</time></trkpt><trkpt lat="45.24256647553739" lon="8.112364933676595"><ele>165.0</ele><time>2026-04-12T09:36:19.997Z</time></trkpt><trkpt lat="45.24265203477257" lon="8.112300454440094"><ele>165.0</ele><time>2026-04-12T09:36:21.997Z</time></trkpt><trkpt lat="45.24271155535048" lon="8.112268674892329"><ele>165.0</ele><time>2026-04-12T09:36:22.997Z</time></trkpt><trkpt lat="45.24277719906964" lon="8.112232750111636"><ele>165.0</ele><time>2026-04-12T09:36:23.997Z</time></trkpt><trkpt lat="45.24285865325931" lon="8.112183670817304"><ele>165.0</ele><time>2026-04-12T09:36:24.997Z</time></trkpt><trkpt lat="45.242948142767915" lon="8.112123919391824"><ele>165.0</ele><time>2026-04-12T09:36:25.997Z</time></trkpt><trkpt lat="45.243046445291384" lon="8.112057690818574"><ele>165.0</ele><time>2026-04-12T09:36:27Z</time></trkpt><trkpt lat="45.24314839702247" lon="8.111996519151424"><ele>165.0</ele><time>2026-04-12T09:36:28Z</time></trkpt><trkpt lat="45.24324894308317" lon="8.11193307804075"><ele>165.0</ele><time>2026-04-12T09:36:29Z</time></trkpt><trkpt lat="45.24333034286762" lon="8.111885822180618"><ele>165.00000000000003</ele><time>2026-04-12T09:36:30Z</time></trkpt><trkpt lat="45.24340483667102" lon="8.111840545274825"><ele>165.0</ele><time>2026-04-12T09:36:31Z</time></trkpt><trkpt lat="45.24347061947018" lon="8.111802903355008"><ele>165.0</ele><time>2026-04-12T09:36:32Z</time></trkpt><trkpt lat="45.24353755353694" lon="8.111765792184006"><ele>165.0</ele><time>2026-04-12T09:36:33Z</time></trkpt><trkpt lat="45.24360338801766" lon="8.111731260526726"><ele>165.0</ele><time>2026-04-12T09:36:34Z</time></trkpt><trkpt lat="45.24369042501323" lon="8.11170373590313"><ele>165.00000000000003</ele><time>2026-04-12T09:36:36Z</time></trkpt><trkpt lat="45.24374756308436" lon="8.111751212112196"><ele>165.0</ele><time>2026-04-12T09:37:05.999Z</time></trkpt><trkpt lat="45.2437450805702" lon="8.111886856927436"><ele>165.0</ele><time>2026-04-12T09:37:07.999Z</time></trkpt><trkpt lat="45.24371317065541" lon="8.11198935975116"><ele>165.0</ele><time>2026-04-12T09:37:08.999Z</time></trkpt><trkpt lat="45.2436819498601" lon="8.112105533790416"><ele>165.0</ele><time>2026-04-12T09:37:09.999Z</time></trkpt><trkpt lat="45.24365555051079" lon="8.112252388472955"><ele>165.0</ele><time>2026-04-12T09:37:10.999Z</time></trkpt><trkpt lat="45.24363443653919" lon="8.112407276295007"><ele>165.0</ele><time>2026-04-12T09:37:11.999Z</time></trkpt><trkpt lat="45.24361920817858" lon="8.112567404240277"><ele>164.75</ele><time>2026-04-12T09:37:12.999Z</time></trkpt><trkpt lat="45.243608561074055" lon="8.112745575423613"><ele>164.5</ele><time>2026-04-12T09:37:13.999Z</time></trkpt><trkpt lat="45.243593308289924" lon="8.112942023899866"><ele>164.25</ele><time>2026-04-12T09:37:14.999Z</time></trkpt><trkpt lat="45.24357990028534" lon="8.113152391971177"><ele>164.0</ele><time>2026-04-12T09:37:15.999Z</time></trkpt><trkpt lat="45.24356808627951" lon="8.11335859054025"><ele>164.0</ele><time>2026-04-12T09:37:16.999Z</time></trkpt><trkpt lat="45.243556785143824" lon="8.113559246870393"><ele>164.0</ele><time>2026-04-12T09:37:17.999Z</time></trkpt><trkpt lat="45.24354614463759" lon="8.11374937276054"><ele>164.0</ele><time>2026-04-12T09:37:18.999Z</time></trkpt><trkpt lat="45.24353349645294" lon="8.113944163103115"><ele>164.0</ele><time>2026-04-12T09:37:19.999Z</time></trkpt><trkpt lat="45.243520539575464" lon="8.114129789569162"><ele>164.25</ele><time>2026-04-12T09:37:20.999Z</time></trkpt><trkpt lat="45.24350784819054" lon="8.114300126274237"><ele>164.5</ele><time>2026-04-12T09:37:21.999Z</time></trkpt><trkpt lat="45.243497671791445" lon="8.114466870789123"><ele>164.75</ele><time>2026-04-12T09:37:22.999Z</time></trkpt><trkpt lat="45.243484411231734" lon="8.114623809307622"><ele>165.0</ele><time>2026-04-12T09:37:23.999Z</time></trkpt><trkpt lat="45.24347193602911" lon="8.114783179287903"><ele>165.0</ele><time>2026-04-12T09:37:24.999Z</time></trkpt><trkpt lat="45.24346064553738" lon="8.114936587778823"><ele>165.0</ele><time>2026-04-12T09:37:25.999Z</time></trkpt><trkpt lat="45.243442777659936" lon="8.115081774525624"><ele>165.0</ele><time>2026-04-12T09:37:26.999Z</time></trkpt><trkpt lat="45.24341907543796" lon="8.115225307099875"><ele>165.0</ele><time>2026-04-12T09:37:27.999Z</time></trkpt><trkpt lat="45.24338824146882" lon="8.115371600913305"><ele>165.0</ele><time>2026-04-12T09:37:28.999Z</time></trkpt><trkpt lat="45.243356203480936" lon="8.115504179184816"><ele>165.0</ele><time>2026-04-12T09:37:29.999Z</time></trkpt><trkpt lat="45.2433281457992" lon="8.115625407164908"><ele>165.0</ele><time>2026-04-12T09:37:30.999Z</time></trkpt><trkpt lat="45.24330945450251" lon="8.11572850682081"><ele>165.0</ele><time>2026-04-12T09:37:31.999Z</time></trkpt><trkpt lat="45.24329702328103" lon="8.115834695452001"><ele>165.0</ele><time>2026-04-12T09:37:32.999Z</time></trkpt><trkpt lat="45.24329230630206" lon="8.115944628044891"><ele>165.0</ele><time>2026-04-12T09:37:33.999Z</time></trkpt><trkpt lat="45.243323431135565" lon="8.116075738370265"><ele>165.0</ele><time>2026-04-12T09:37:35.999Z</time></trkpt><trkpt lat="45.24342313796382" lon="8.116193042830774"><ele>165.0</ele><time>2026-04-12T09:37:37.999Z</time></trkpt><trkpt lat="45.24349240432659" lon="8.116257313915224"><ele>165.0</ele><time>2026-04-12T09:37:38.999Z</time></trkpt><trkpt lat="45.24355716902455" lon="8.116318450597468"><ele>165.0</ele><time>2026-04-12T09:37:39.999Z</time></trkpt><trkpt lat="45.24361055536022" lon="8.116370458360533"><ele>165.0</ele><time>2026-04-12T09:37:40.999Z</time></trkpt><trkpt lat="45.24366607226663" lon="8.116467806078735"><ele>165.0</ele><time>2026-04-12T09:37:42.998Z</time></trkpt><trkpt lat="45.24363868800978" lon="8.11660332985195"><ele>165.0</ele><time>2026-04-12T09:37:44.998Z</time></trkpt><trkpt lat="45.24360204889036" lon="8.11668139005533"><ele>164.6</ele><time>2026-04-12T09:37:45.998Z</time></trkpt><trkpt lat="45.24355597640866" lon="8.116764533595195"><ele>164.2</ele><time>2026-04-12T09:37:46.998Z</time></trkpt><trkpt lat="45.24349314487204" lon="8.116851250883618"><ele>163.8</ele><time>2026-04-12T09:37:47.998Z</time></trkpt><trkpt lat="45.24341902851118" lon="8.116953182793681"><ele>163.4</ele><time>2026-04-12T09:37:48.998Z</time></trkpt><trkpt lat="45.24333529691389" lon="8.117079970730966"><ele>163.0</ele><time>2026-04-12T09:37:49.998Z</time></trkpt><trkpt lat="45.24324537376149" lon="8.117215877896514"><ele>163.0</ele><time>2026-04-12T09:37:50.998Z</time></trkpt><trkpt lat="45.24315256814448" lon="8.117360428712443"><ele>163.0</ele><time>2026-04-12T09:37:51.998Z</time></trkpt><trkpt lat="45.24305130506732" lon="8.117519527229684"><ele>163.0</ele><time>2026-04-12T09:37:52.998Z</time></trkpt><trkpt lat="45.24294321974802" lon="8.117685977667676"><ele>163.0</ele><time>2026-04-12T09:37:53.998Z</time></trkpt><trkpt lat="45.242832928363995" lon="8.117860884448424"><ele>162.75</ele><time>2026-04-12T09:37:54.998Z</time></trkpt><trkpt lat="45.24272612689652" lon="8.118030227265317"><ele>162.5</ele><time>2026-04-12T09:37:55.998Z</time></trkpt><trkpt lat="45.24263364977674" lon="8.118178186065865"><ele>162.25</ele><time>2026-04-12T09:37:56.998Z</time></trkpt><trkpt lat="45.24254776314268" lon="8.11831502950838"><ele>162.0</ele><time>2026-04-12T09:37:57.998Z</time></trkpt><trkpt lat="45.24245886178864" lon="8.118457836395065"><ele>162.0</ele><time>2026-04-12T09:37:58.998Z</time></trkpt><trkpt lat="45.24236786716393" lon="8.118599360498543"><ele>162.0</ele><time>2026-04-12T09:37:59.998Z</time></trkpt><trkpt lat="45.24227788233698" lon="8.118743318753562"><ele>162.0</ele><time>2026-04-12T09:38:00.998Z</time></trkpt><trkpt lat="45.24219532750794" lon="8.118876569946526"><ele>162.0</ele><time>2026-04-12T09:38:01.998Z</time></trkpt><trkpt lat="45.242115965342485" lon="8.119004591516559"><ele>162.39999999999998</ele><time>2026-04-12T09:38:02.998Z</time></trkpt><trkpt lat="45.24203728515227" lon="8.11912787255582"><ele>162.79999999999998</ele><time>2026-04-12T09:38:03.998Z</time></trkpt><trkpt lat="45.24196882075992" lon="8.119229992855857"><ele>163.2</ele><time>2026-04-12T09:38:04.998Z</time></trkpt><trkpt lat="45.241904315078266" lon="8.1193257936372"><ele>163.6</ele><time>2026-04-12T09:38:05.998Z</time></trkpt><trkpt lat="45.24184133545876" lon="8.11942769735221"><ele>164.0</ele><time>2026-04-12T09:38:06.998Z</time></trkpt><trkpt lat="45.241785640565425" lon="8.119514141069477"><ele>164.0</ele><time>2026-04-12T09:38:07.998Z</time></trkpt><trkpt lat="45.24174099070385" lon="8.119583574628118"><ele>164.0</ele><time>2026-04-12T09:38:08.998Z</time></trkpt><trkpt lat="45.24166545130623" lon="8.11969201218562"><ele>164.0</ele><time>2026-04-12T09:38:10.998Z</time></trkpt><trkpt lat="45.24159332709054" lon="8.119811739274395"><ele>164.0</ele><time>2026-04-12T09:38:12.998Z</time></trkpt><trkpt lat="45.24154454454308" lon="8.119888581317392"><ele>164.0</ele><time>2026-04-12T09:38:13.998Z</time></trkpt><trkpt lat="45.24149301391441" lon="8.119976020537546"><ele>164.0</ele><time>2026-04-12T09:38:14.998Z</time></trkpt><trkpt lat="45.24143860841713" lon="8.120078034643933"><ele>164.2</ele><time>2026-04-12T09:38:15.998Z</time></trkpt><trkpt lat="45.24136502281237" lon="8.120151654232433"><ele>164.39999999999998</ele><time>2026-04-12T09:38:16.998Z</time></trkpt><trkpt lat="45.24129157528196" lon="8.120247868829702"><ele>164.6</ele><time>2026-04-12T09:38:17.998Z</time></trkpt><trkpt lat="45.241217327564655" lon="8.120344190946902"><ele>164.8</ele><time>2026-04-12T09:38:18.998Z</time></trkpt><trkpt lat="45.24115463221232" lon="8.120425526143352"><ele>165.0</ele><time>2026-04-12T09:38:19.998Z</time></trkpt><trkpt lat="45.24110652220642" lon="8.120516644063319"><ele>165.0</ele><time>2026-04-12T09:38:20.998Z</time></trkpt><trkpt lat="45.24103938884415" lon="8.12060013978914"><ele>165.0</ele><time>2026-04-12T09:38:21.998Z</time></trkpt><trkpt lat="45.24096802332026" lon="8.120691165340473"><ele>165.0</ele><time>2026-04-12T09:38:22.998Z</time></trkpt><trkpt lat="45.24089677754383" lon="8.120789458165774"><ele>165.0</ele><time>2026-04-12T09:38:23.998Z</time></trkpt><trkpt lat="45.24082801561317" lon="8.120877968869348"><ele>165.0</ele><time>2026-04-12T09:38:24.998Z</time></trkpt><trkpt lat="45.24077169826829" lon="8.120950403373381"><ele>164.6</ele><time>2026-04-12T09:38:25.998Z</time></trkpt><trkpt lat="45.2407113508849" lon="8.120995929435319"><ele>164.2</ele><time>2026-04-12T09:38:26.997Z</time></trkpt><trkpt lat="45.24063246967639" lon="8.121094233862307"><ele>163.8</ele><time>2026-04-12T09:38:28.997Z</time></trkpt><trkpt lat="45.24057793042172" lon="8.121161728700256"><ele>163.4</ele><time>2026-04-12T09:38:31.997Z</time></trkpt><trkpt lat="45.2405671542898" lon="8.121435738754956"><ele>163.0</ele><time>2026-04-12T09:38:35Z</time></trkpt><trkpt lat="45.240633272258165" lon="8.121555574677215"><ele>162.83333333333334</ele><time>2026-04-12T09:38:37Z</time></trkpt><trkpt lat="45.24067404771235" lon="8.121629478383083"><ele>162.66666666666669</ele><time>2026-04-12T09:38:38Z</time></trkpt><trkpt lat="45.2407184779086" lon="8.121710006228318"><ele>162.5</ele><time>2026-04-12T09:38:39Z</time></trkpt><trkpt lat="45.24076689157551" lon="8.121797753798687"><ele>162.33333333333334</ele><time>2026-04-12T09:38:40Z</time></trkpt><trkpt lat="45.240822105720774" lon="8.121895393456667"><ele>162.16666666666666</ele><time>2026-04-12T09:38:41Z</time></trkpt><trkpt lat="45.24087900838348" lon="8.121995545903314"><ele>162.0</ele><time>2026-04-12T09:38:42Z</time></trkpt><trkpt lat="45.24093844108923" lon="8.122100151404732"><ele>162.0</ele><time>2026-04-12T09:38:43Z</time></trkpt><trkpt lat="45.240998538876624" lon="8.122205927505929"><ele>162.0</ele><time>2026-04-12T09:38:44Z</time></trkpt><trkpt lat="45.24105789100762" lon="8.122310391204223"><ele>162.0</ele><time>2026-04-12T09:38:45Z</time></trkpt><trkpt lat="45.24111895774678" lon="8.122417872724172"><ele>162.0</ele><time>2026-04-12T09:38:46Z</time></trkpt><trkpt lat="45.241174688210606" lon="8.122515962049889"><ele>162.0</ele><time>2026-04-12T09:38:47Z</time></trkpt><trkpt lat="45.24123102203669" lon="8.122615912707207"><ele>162.0</ele><time>2026-04-12T09:38:48Z</time></trkpt><trkpt lat="45.24128981273339" lon="8.122720806916792"><ele>162.0</ele><time>2026-04-12T09:38:49Z</time></trkpt><trkpt lat="45.24134913246723" lon="8.122826645035097"><ele>162.0</ele><time>2026-04-12T09:38:50Z</time></trkpt><trkpt lat="45.241411700449575" lon="8.12293827867798"><ele>162.0</ele><time>2026-04-12T09:38:51Z</time></trkpt><trkpt lat="45.24147779352695" lon="8.123056201775137"><ele>162.0</ele><time>2026-04-12T09:38:52Z</time></trkpt><trkpt lat="45.241540090891476" lon="8.123166970449887"><ele>161.8</ele><time>2026-04-12T09:38:53Z</time></trkpt><trkpt lat="45.241607730928386" lon="8.123286479236375"><ele>161.6</ele><time>2026-04-12T09:38:54Z</time></trkpt><trkpt lat="45.241676537617" lon="8.123408049261995"><ele>161.4</ele><time>2026-04-12T09:38:55Z</time></trkpt><trkpt lat="45.24174452115368" lon="8.12352816495586"><ele>161.20000000000002</ele><time>2026-04-12T09:38:56Z</time></trkpt><trkpt lat="45.24181303024294" lon="8.123649209191726"><ele>161.0</ele><time>2026-04-12T09:38:57Z</time></trkpt><trkpt lat="45.24187605940568" lon="8.123761528171531"><ele>161.0</ele><time>2026-04-12T09:38:57.999Z</time></trkpt><trkpt lat="45.2419368549753" lon="8.123871725337295"><ele>161.0</ele><time>2026-04-12T09:38:58.999Z</time></trkpt><trkpt lat="45.24199366484335" lon="8.123974698121886"><ele>161.0</ele><time>2026-04-12T09:38:59.999Z</time></trkpt><trkpt lat="45.242046044960304" lon="8.124069641531577"><ele>161.0</ele><time>2026-04-12T09:39:00.999Z</time></trkpt><trkpt lat="45.24209575601038" lon="8.124159747060734"><ele>161.0</ele><time>2026-04-12T09:39:01.999Z</time></trkpt><trkpt lat="45.242053608715324" lon="8.12408217681398"><ele>161.0</ele><time>2026-04-12T09:39:47.998Z</time></trkpt><trkpt lat="45.24201024281253" lon="8.12400452187991"><ele>161.0</ele><time>2026-04-12T09:39:48.998Z</time></trkpt><trkpt lat="45.24197021484596" lon="8.123928340048217"><ele>161.0</ele><time>2026-04-12T09:39:49.998Z</time></trkpt><trkpt lat="45.241921123397" lon="8.123836523046245"><ele>161.0</ele><time>2026-04-12T09:39:50.998Z</time></trkpt><trkpt lat="45.24180010277605" lon="8.123712733929533"><ele>161.0</ele><time>2026-04-12T09:39:51.998Z</time></trkpt><trkpt lat="45.24176667569407" lon="8.123552758342395"><ele>161.0</ele><time>2026-04-12T09:39:52.998Z</time></trkpt><trkpt lat="45.24169302901678" lon="8.123422702953738"><ele>161.0</ele><time>2026-04-12T09:39:53.998Z</time></trkpt><trkpt lat="45.241616731900166" lon="8.123278591092602"><ele>161.0</ele><time>2026-04-12T09:39:54.998Z</time></trkpt><trkpt lat="45.24155589682589" lon="8.123119526851335"><ele>161.0</ele><time>2026-04-12T09:39:55.998Z</time></trkpt><trkpt lat="45.24146461058467" lon="8.122956858725933"><ele>161.0</ele><time>2026-04-12T09:39:56.998Z</time></trkpt><trkpt lat="45.24136666756047" lon="8.122782109028773"><ele>161.33333333333331</ele><time>2026-04-12T09:39:57.998Z</time></trkpt><trkpt lat="45.24126508248199" lon="8.122600861228811"><ele>161.66666666666666</ele><time>2026-04-12T09:39:58.998Z</time></trkpt><trkpt lat="45.24115749314669" lon="8.122446932372673"><ele>162.0</ele><time>2026-04-12T09:39:59.998Z</time></trkpt><trkpt lat="45.241066641964075" lon="8.122286139537554"><ele>162.0</ele><time>2026-04-12T09:40:00.998Z</time></trkpt><trkpt lat="45.24098440214704" lon="8.122140004260268"><ele>162.0</ele><time>2026-04-12T09:40:01.998Z</time></trkpt><trkpt lat="45.24091055947791" lon="8.122003500453909"><ele>162.0</ele><time>2026-04-12T09:40:02.998Z</time></trkpt><trkpt lat="45.24082498510056" lon="8.121853644389802"><ele>162.0</ele><time>2026-04-12T09:40:03.998Z</time></trkpt><trkpt lat="45.24075075414281" lon="8.121707730141166"><ele>162.0</ele><time>2026-04-12T09:40:04.998Z</time></trkpt><trkpt lat="45.24065680289744" lon="8.121542431977863"><ele>162.0</ele><time>2026-04-12T09:40:05.998Z</time></trkpt><trkpt lat="45.24056518815232" lon="8.121377003780864"><ele>162.0</ele><time>2026-04-12T09:40:06.998Z</time></trkpt><trkpt lat="45.240480818206606" lon="8.121227949113894"><ele>162.0</ele><time>2026-04-12T09:40:07.998Z</time></trkpt><trkpt lat="45.24040577157197" lon="8.121102197518377"><ele>162.0</ele><time>2026-04-12T09:40:08.998Z</time></trkpt><trkpt lat="45.240352547805195" lon="8.120971340099898"><ele>162.0</ele><time>2026-04-12T09:40:09.998Z</time></trkpt><trkpt lat="45.24028479951742" lon="8.120849012035107"><ele>162.0</ele><time>2026-04-12T09:40:10.998Z</time></trkpt><trkpt lat="45.24020394190449" lon="8.120734733156667"><ele>162.0</ele><time>2026-04-12T09:40:11.998Z</time></trkpt><trkpt lat="45.24013308464398" lon="8.120603017350781"><ele>162.0</ele><time>2026-04-12T09:40:12.998Z</time></trkpt><trkpt lat="45.24006139395845" lon="8.120478578546907"><ele>162.2</ele><time>2026-04-12T09:40:13.998Z</time></trkpt><trkpt lat="45.24001544012568" lon="8.120393548526776"><ele>162.39999999999998</ele><time>2026-04-12T09:40:14.998Z</time></trkpt><trkpt lat="45.23994030577827" lon="8.120291672604766"><ele>162.60000000000002</ele><time>2026-04-12T09:40:16.998Z</time></trkpt><trkpt lat="45.23985344719365" lon="8.120396549881526"><ele>162.8</ele><time>2026-04-12T09:40:19.998Z</time></trkpt><trkpt lat="45.239791379126736" lon="8.120505090158911"><ele>163.0</ele><time>2026-04-12T09:40:21.998Z</time></trkpt><trkpt lat="45.239737799079066" lon="8.120631020242127"><ele>162.75</ele><time>2026-04-12T09:40:22.998Z</time></trkpt><trkpt lat="45.239663308893206" lon="8.120779374567078"><ele>162.5</ele><time>2026-04-12T09:40:23.998Z</time></trkpt><trkpt lat="45.23958087102464" lon="8.120936602839476"><ele>162.25</ele><time>2026-04-12T09:40:24.998Z</time></trkpt><trkpt lat="45.23947649111276" lon="8.121085835332558"><ele>162.0</ele><time>2026-04-12T09:40:25.998Z</time></trkpt><trkpt lat="45.23937229866707" lon="8.121209063171408"><ele>162.0</ele><time>2026-04-12T09:40:26.998Z</time></trkpt><trkpt lat="45.23926266296768" lon="8.121355477204025"><ele>162.0</ele><time>2026-04-12T09:40:27.998Z</time></trkpt><trkpt lat="45.23912985582196" lon="8.121488775666386"><ele>162.0</ele><time>2026-04-12T09:40:28.998Z</time></trkpt><trkpt lat="45.23899195980704" lon="8.121635814147224"><ele>161.33333333333334</ele><time>2026-04-12T09:40:29.998Z</time></trkpt><trkpt lat="45.2388483306822" lon="8.12180451507871"><ele>160.66666666666669</ele><time>2026-04-12T09:40:30.998Z</time></trkpt><trkpt lat="45.238710272635956" lon="8.121970885422254"><ele>160.0</ele><time>2026-04-12T09:40:31.998Z</time></trkpt><trkpt lat="45.238564169153584" lon="8.122148109324263"><ele>160.0</ele><time>2026-04-12T09:40:32.997Z</time></trkpt><trkpt lat="45.23840906464575" lon="8.12232997131872"><ele>160.0</ele><time>2026-04-12T09:40:33.997Z</time></trkpt><trkpt lat="45.23823673671876" lon="8.122530988462263"><ele>160.0</ele><time>2026-04-12T09:40:34.997Z</time></trkpt><trkpt lat="45.23805673794597" lon="8.122739951339605"><ele>160.0</ele><time>2026-04-12T09:40:35.997Z</time></trkpt><trkpt lat="45.237886827149886" lon="8.12293556980184"><ele>160.0</ele><time>2026-04-12T09:40:36.997Z</time></trkpt><trkpt lat="45.23772468410794" lon="8.123124166877334"><ele>160.0</ele><time>2026-04-12T09:40:37.997Z</time></trkpt><trkpt lat="45.23755005523968" lon="8.12329838339935"><ele>160.0</ele><time>2026-04-12T09:40:39Z</time></trkpt><trkpt lat="45.23739735796994" lon="8.123504984155868"><ele>160.0</ele><time>2026-04-12T09:40:40Z</time></trkpt><trkpt lat="45.23723158175255" lon="8.123694976182799"><ele>160.0</ele><time>2026-04-12T09:40:41Z</time></trkpt><trkpt lat="45.23706064553386" lon="8.123896969485358"><ele>160.0</ele><time>2026-04-12T09:40:42Z</time></trkpt><trkpt lat="45.236883364994824" lon="8.124105008017658"><ele>160.0</ele><time>2026-04-12T09:40:43Z</time></trkpt><trkpt lat="45.23670862951712" lon="8.124307664281226"><ele>160.0</ele><time>2026-04-12T09:40:44Z</time></trkpt><trkpt lat="45.236517062774375" lon="8.124494721715113"><ele>160.0</ele><time>2026-04-12T09:40:45Z</time></trkpt><trkpt lat="45.23632391969637" lon="8.124710744967347"><ele>160.0</ele><time>2026-04-12T09:40:46Z</time></trkpt><trkpt lat="45.23612718067274" lon="8.124930787789841"><ele>160.0</ele><time>2026-04-12T09:40:47Z</time></trkpt><trkpt lat="45.235956291161024" lon="8.125153302166899"><ele>160.0</ele><time>2026-04-12T09:40:48Z</time></trkpt><trkpt lat="45.23577907933934" lon="8.125348015535259"><ele>160.0</ele><time>2026-04-12T09:40:49Z</time></trkpt><trkpt lat="45.23561165673104" lon="8.125531580810314"><ele>160.0</ele><time>2026-04-12T09:40:50Z</time></trkpt><trkpt lat="45.23543195240999" lon="8.12567974610882"><ele>159.66666666666669</ele><time>2026-04-12T09:40:51Z</time></trkpt><trkpt lat="45.235258857870704" lon="8.125848550801576"><ele>159.33333333333334</ele><time>2026-04-12T09:40:52Z</time></trkpt><trkpt lat="45.23508246231963" lon="8.126023058694862"><ele>159.0</ele><time>2026-04-12T09:40:53Z</time></trkpt><trkpt lat="45.23490262491825" lon="8.12620097161667"><ele>158.66666666666666</ele><time>2026-04-12T09:40:54Z</time></trkpt><trkpt lat="45.23472637547838" lon="8.12637385029666"><ele>158.33333333333331</ele><time>2026-04-12T09:40:55Z</time></trkpt><trkpt lat="45.234562569995965" lon="8.12653111408509"><ele>158.0</ele><time>2026-04-12T09:40:56Z</time></trkpt><trkpt lat="45.234406156290135" lon="8.126681281327626"><ele>158.0</ele><time>2026-04-12T09:40:57Z</time></trkpt><trkpt lat="45.234254921581815" lon="8.12683177740525"><ele>158.0</ele><time>2026-04-12T09:40:58Z</time></trkpt><trkpt lat="45.23409775587205" lon="8.12698825383429"><ele>158.0</ele><time>2026-04-12T09:40:59Z</time></trkpt><trkpt lat="45.23393908436357" lon="8.12713783845772"><ele>158.66666666666666</ele><time>2026-04-12T09:41:00Z</time></trkpt><trkpt lat="45.23380202154158" lon="8.127262371367829"><ele>159.33333333333334</ele><time>2026-04-12T09:41:01Z</time></trkpt><trkpt lat="45.233681256576865" lon="8.127372997666148"><ele>160.0</ele><time>2026-04-12T09:41:02Z</time></trkpt><trkpt lat="45.233566237826004" lon="8.127496311204741"><ele>160.0</ele><time>2026-04-12T09:41:03Z</time></trkpt><trkpt lat="45.23346251709447" lon="8.12761825940935"><ele>160.0</ele><time>2026-04-12T09:41:04Z</time></trkpt><trkpt lat="45.23335994542858" lon="8.127737308425296"><ele>160.0</ele><time>2026-04-12T09:41:05Z</time></trkpt><trkpt lat="45.23328036815779" lon="8.12784058844891"><ele>160.0</ele><time>2026-04-12T09:41:06Z</time></trkpt><trkpt lat="45.2331910695268" lon="8.1279148268309"><ele>160.0</ele><time>2026-04-12T09:41:07Z</time></trkpt><trkpt lat="45.2330926431787" lon="8.1279496576382"><ele>160.0</ele><time>2026-04-12T09:41:08Z</time></trkpt><trkpt lat="45.23299949339857" lon="8.128006582932029"><ele>160.0</ele><time>2026-04-12T09:41:09Z</time></trkpt><trkpt lat="45.232939302856664" lon="8.128145321330882"><ele>160.0</ele><time>2026-04-12T09:41:10Z</time></trkpt><trkpt lat="45.23284299413377" lon="8.12822313677054"><ele>160.0</ele><time>2026-04-12T09:41:11Z</time></trkpt><trkpt lat="45.23273586367741" lon="8.128282351363515"><ele>159.4</ele><time>2026-04-12T09:41:12Z</time></trkpt><trkpt lat="45.23263225605926" lon="8.128327153354725"><ele>158.8</ele><time>2026-04-12T09:41:13Z</time></trkpt><trkpt lat="45.23253399977809" lon="8.12835813316668"><ele>158.2</ele><time>2026-04-12T09:41:14Z</time></trkpt><trkpt lat="45.23244742849771" lon="8.128392653939843"><ele>157.6</ele><time>2026-04-12T09:41:14.999Z</time></trkpt><trkpt lat="45.232360133869456" lon="8.12844708415695"><ele>157.0</ele><time>2026-04-12T09:41:15.999Z</time></trkpt><trkpt lat="45.232260968727736" lon="8.128515586023777"><ele>157.0</ele><time>2026-04-12T09:41:16.999Z</time></trkpt><trkpt lat="45.232152400954426" lon="8.128583910809684"><ele>157.0</ele><time>2026-04-12T09:41:17.999Z</time></trkpt><trkpt lat="45.23203340979073" lon="8.128659116852454"><ele>157.0</ele><time>2026-04-12T09:41:18.999Z</time></trkpt><trkpt lat="45.23191911858821" lon="8.128722579775655"><ele>157.0</ele><time>2026-04-12T09:41:19.999Z</time></trkpt><trkpt lat="45.23180538457102" lon="8.12876903756645"><ele>157.0</ele><time>2026-04-12T09:41:20.999Z</time></trkpt><trkpt lat="45.2316990832187" lon="8.128808145231478"><ele>157.0</ele><time>2026-04-12T09:41:21.999Z</time></trkpt><trkpt lat="45.23158120952339" lon="8.128863932842801"><ele>157.0</ele><time>2026-04-12T09:41:22.999Z</time></trkpt><trkpt lat="45.23145869969485" lon="8.128926108968892"><ele>157.0</ele><time>2026-04-12T09:41:23.999Z</time></trkpt><trkpt lat="45.231347591233764" lon="8.12898084975831"><ele>157.0</ele><time>2026-04-12T09:41:24.999Z</time></trkpt><trkpt lat="45.23124965784302" lon="8.129033496126782"><ele>157.0</ele><time>2026-04-12T09:41:25.999Z</time></trkpt><trkpt lat="45.23116117582445" lon="8.12909102763989"><ele>157.0</ele><time>2026-04-12T09:41:26.999Z</time></trkpt><trkpt lat="45.23108005356319" lon="8.129150047010476"><ele>157.0</ele><time>2026-04-12T09:41:27.999Z</time></trkpt><trkpt lat="45.23098785555199" lon="8.129212904293869"><ele>157.0</ele><time>2026-04-12T09:41:28.999Z</time></trkpt><trkpt lat="45.230886857754115" lon="8.12928054638416"><ele>157.0</ele><time>2026-04-12T09:41:29.999Z</time></trkpt><trkpt lat="45.2307798152401" lon="8.129349929095715"><ele>157.0</ele><time>2026-04-12T09:41:30.999Z</time></trkpt><trkpt lat="45.23066747520335" lon="8.129421212037588"><ele>157.0</ele><time>2026-04-12T09:41:31.999Z</time></trkpt><trkpt lat="45.230552977236016" lon="8.129496274920148"><ele>157.0</ele><time>2026-04-12T09:41:32.999Z</time></trkpt><trkpt lat="45.23043684642805" lon="8.129574656986978"><ele>157.0</ele><time>2026-04-12T09:41:33.999Z</time></trkpt><trkpt lat="45.23031960185309" lon="8.129653360826007"><ele>157.0</ele><time>2026-04-12T09:41:34.999Z</time></trkpt><trkpt lat="45.2302059709803" lon="8.129724958323042"><ele>157.0</ele><time>2026-04-12T09:41:35.999Z</time></trkpt><trkpt lat="45.230104691261154" lon="8.129784175132755"><ele>157.0</ele><time>2026-04-12T09:41:36.999Z</time></trkpt><trkpt lat="45.2300040786496" lon="8.129848615941142"><ele>157.0</ele><time>2026-04-12T09:41:37.999Z</time></trkpt><trkpt lat="45.22989851208143" lon="8.129918722597452"><ele>157.0</ele><time>2026-04-12T09:41:38.999Z</time></trkpt><trkpt lat="45.229797298748394" lon="8.129980118348088"><ele>157.0</ele><time>2026-04-12T09:41:39.999Z</time></trkpt><trkpt lat="45.229698676137886" lon="8.130040568665132"><ele>157.0</ele><time>2026-04-12T09:41:40.999Z</time></trkpt><trkpt lat="45.229592813019124" lon="8.130106700283944"><ele>156.75</ele><time>2026-04-12T09:41:41.999Z</time></trkpt><trkpt lat="45.229482898708895" lon="8.130178231106697"><ele>156.5</ele><time>2026-04-12T09:41:42.999Z</time></trkpt><trkpt lat="45.22937552849996" lon="8.130246920377365"><ele>156.25</ele><time>2026-04-12T09:41:43.999Z</time></trkpt><trkpt lat="45.22927517964275" lon="8.130310303945617"><ele>156.0</ele><time>2026-04-12T09:41:44.999Z</time></trkpt><trkpt lat="45.22917135897197" lon="8.13037438857536"><ele>156.0</ele><time>2026-04-12T09:41:45.999Z</time></trkpt><trkpt lat="45.22906195236509" lon="8.130442839110142"><ele>156.0</ele><time>2026-04-12T09:41:46.999Z</time></trkpt><trkpt lat="45.22895195856606" lon="8.130510643450386"><ele>156.0</ele><time>2026-04-12T09:41:47.999Z</time></trkpt><trkpt lat="45.22884486187933" lon="8.130581102691224"><ele>156.0</ele><time>2026-04-12T09:41:48.999Z</time></trkpt><trkpt lat="45.22874157584186" lon="8.13064604134957"><ele>156.0</ele><time>2026-04-12T09:41:49.999Z</time></trkpt><trkpt lat="45.22863553825143" lon="8.130711433996774"><ele>156.0</ele><time>2026-04-12T09:41:50.999Z</time></trkpt><trkpt lat="45.22852430238052" lon="8.130780302035118"><ele>156.0</ele><time>2026-04-12T09:41:51.999Z</time></trkpt><trkpt lat="45.228406361514104" lon="8.130850258979065"><ele>156.0</ele><time>2026-04-12T09:41:52.999Z</time></trkpt><trkpt lat="45.22828701860653" lon="8.13091789756689"><ele>156.0</ele><time>2026-04-12T09:41:53.999Z</time></trkpt><trkpt lat="45.22816441754884" lon="8.13098721208025"><ele>156.0</ele><time>2026-04-12T09:41:54.999Z</time></trkpt><trkpt lat="45.228041770187545" lon="8.131060620961788"><ele>156.0</ele><time>2026-04-12T09:41:55.999Z</time></trkpt><trkpt lat="45.22791981084573" lon="8.131128084593085"><ele>156.0</ele><time>2026-04-12T09:41:56.999Z</time></trkpt><trkpt lat="45.22779378724562" lon="8.13119642228642"><ele>156.0</ele><time>2026-04-12T09:41:57.999Z</time></trkpt><trkpt lat="45.22766743002858" lon="8.13126012343265"><ele>156.0</ele><time>2026-04-12T09:41:58.999Z</time></trkpt><trkpt lat="45.22754091165227" lon="8.131323457130044"><ele>156.0</ele><time>2026-04-12T09:41:59.999Z</time></trkpt><trkpt lat="45.22741089518442" lon="8.131395181124947"><ele>156.0</ele><time>2026-04-12T09:42:00.998Z</time></trkpt><trkpt lat="45.2272818678632" lon="8.131464152498316"><ele>156.0</ele><time>2026-04-12T09:42:01.998Z</time></trkpt><trkpt lat="45.2271462471868" lon="8.131530278151756"><ele>156.0</ele><time>2026-04-12T09:42:02.998Z</time></trkpt><trkpt lat="45.227006761405654" lon="8.131584852081609"><ele>156.0</ele><time>2026-04-12T09:42:03.998Z</time></trkpt><trkpt lat="45.22686908213261" lon="8.131626120883174"><ele>156.0</ele><time>2026-04-12T09:42:04.998Z</time></trkpt><trkpt lat="45.22673004316792" lon="8.131683307886712"><ele>156.25</ele><time>2026-04-12T09:42:05.998Z</time></trkpt><trkpt lat="45.22659439440377" lon="8.131753732986164"><ele>156.5</ele><time>2026-04-12T09:42:06.998Z</time></trkpt><trkpt lat="45.226458755459454" lon="8.131823314076158"><ele>156.75</ele><time>2026-04-12T09:42:07.998Z</time></trkpt><trkpt lat="45.22634005396787" lon="8.131880861572062"><ele>157.0</ele><time>2026-04-12T09:42:08.998Z</time></trkpt><trkpt lat="45.22622110235405" lon="8.13193350220882"><ele>156.5</ele><time>2026-04-12T09:42:09.998Z</time></trkpt><trkpt lat="45.22609623430403" lon="8.1319899499748"><ele>156.0</ele><time>2026-04-12T09:42:10.998Z</time></trkpt><trkpt lat="45.225983534826334" lon="8.132054310198482"><ele>155.5</ele><time>2026-04-12T09:42:11.998Z</time></trkpt><trkpt lat="45.22586560189997" lon="8.132140797355977"><ele>155.0</ele><time>2026-04-12T09:42:12.998Z</time></trkpt><trkpt lat="45.225741442025885" lon="8.132243829766669"><ele>155.0</ele><time>2026-04-12T09:42:13.998Z</time></trkpt><trkpt lat="45.22560830711926" lon="8.13235590998715"><ele>155.0</ele><time>2026-04-12T09:42:14.998Z</time></trkpt><trkpt lat="45.225480130047" lon="8.132449361844305"><ele>155.0</ele><time>2026-04-12T09:42:15.998Z</time></trkpt><trkpt lat="45.2253692294727" lon="8.132526233709953"><ele>155.0</ele><time>2026-04-12T09:42:16.998Z</time></trkpt><trkpt lat="45.225258013570425" lon="8.132605305021894"><ele>155.0</ele><time>2026-04-12T09:42:17.998Z</time></trkpt><trkpt lat="45.225139199941545" lon="8.132690332550704"><ele>155.0</ele><time>2026-04-12T09:42:18.998Z</time></trkpt><trkpt lat="45.225029319019384" lon="8.132775982125208"><ele>155.0</ele><time>2026-04-12T09:42:19.998Z</time></trkpt><trkpt lat="45.22491911661538" lon="8.132856970968374"><ele>155.0</ele><time>2026-04-12T09:42:20.998Z</time></trkpt><trkpt lat="45.22480553439132" lon="8.132941750484003"><ele>155.0</ele><time>2026-04-12T09:42:21.998Z</time></trkpt><trkpt lat="45.224691462830904" lon="8.133022352435662"><ele>155.0</ele><time>2026-04-12T09:42:22.998Z</time></trkpt><trkpt lat="45.22457450659567" lon="8.133111989020763"><ele>155.0</ele><time>2026-04-12T09:42:23.998Z</time></trkpt><trkpt lat="45.224450324871356" lon="8.133210745867926"><ele>155.0</ele><time>2026-04-12T09:42:24.998Z</time></trkpt><trkpt lat="45.22433084296134" lon="8.133299893500325"><ele>154.75</ele><time>2026-04-12T09:42:25.998Z</time></trkpt><trkpt lat="45.22420976445713" lon="8.133376615392274"><ele>154.5</ele><time>2026-04-12T09:42:26.998Z</time></trkpt><trkpt lat="45.22408184903868" lon="8.13344861148942"><ele>154.25</ele><time>2026-04-12T09:42:27.998Z</time></trkpt><trkpt lat="45.22395262749919" lon="8.133534922670945"><ele>154.0</ele><time>2026-04-12T09:42:28.998Z</time></trkpt><trkpt lat="45.22381557902374" lon="8.13363905479639"><ele>154.0</ele><time>2026-04-12T09:42:29.998Z</time></trkpt><trkpt lat="45.22368706559938" lon="8.133740067308517"><ele>154.0</ele><time>2026-04-12T09:42:30.998Z</time></trkpt><trkpt lat="45.2235743192799" lon="8.133825012549625"><ele>154.0</ele><time>2026-04-12T09:42:31.998Z</time></trkpt><trkpt lat="45.223463565457095" lon="8.133899748619006"><ele>154.0</ele><time>2026-04-12T09:42:32.998Z</time></trkpt><trkpt lat="45.223355123079365" lon="8.133953595822655"><ele>154.0</ele><time>2026-04-12T09:42:33.998Z</time></trkpt><trkpt lat="45.223252473779446" lon="8.133990378736526"><ele>154.0</ele><time>2026-04-12T09:42:34.998Z</time></trkpt><trkpt lat="45.223161213144905" lon="8.134034942342106"><ele>154.0</ele><time>2026-04-12T09:42:35.998Z</time></trkpt><trkpt lat="45.223081866828764" lon="8.134089750808235"><ele>154.0</ele><time>2026-04-12T09:42:36.998Z</time></trkpt><trkpt lat="45.2230119414522" lon="8.134144805263462"><ele>154.0</ele><time>2026-04-12T09:42:37.998Z</time></trkpt><trkpt lat="45.22294275637267" lon="8.134200716199082"><ele>154.0</ele><time>2026-04-12T09:42:38.998Z</time></trkpt><trkpt lat="45.22286665939549" lon="8.13425200208778"><ele>154.0</ele><time>2026-04-12T09:42:39.998Z</time></trkpt><trkpt lat="45.222802976873346" lon="8.134282207362007"><ele>154.0</ele><time>2026-04-12T09:42:40.998Z</time></trkpt><trkpt lat="45.22273499297092" lon="8.134316266529641"><ele>154.0</ele><time>2026-04-12T09:42:41.998Z</time></trkpt><trkpt lat="45.222663957247605" lon="8.134364468126027"><ele>154.0</ele><time>2026-04-12T09:42:42.998Z</time></trkpt><trkpt lat="45.22259443435841" lon="8.134442657913775"><ele>154.0</ele><time>2026-04-12T09:42:43.998Z</time></trkpt><trkpt lat="45.22251766602179" lon="8.134565693669183"><ele>154.0</ele><time>2026-04-12T09:42:45Z</time></trkpt><trkpt lat="45.222450047462644" lon="8.134701822913025"><ele>154.0</ele><time>2026-04-12T09:42:46Z</time></trkpt><trkpt lat="45.22237252668338" lon="8.134861108190162"><ele>154.0</ele><time>2026-04-12T09:42:47Z</time></trkpt><trkpt lat="45.22230135073463" lon="8.135011420014544"><ele>154.0</ele><time>2026-04-12T09:42:48Z</time></trkpt><trkpt lat="45.22223904441213" lon="8.135173452505926"><ele>153.75</ele><time>2026-04-12T09:42:49Z</time></trkpt><trkpt lat="45.22217093498088" lon="8.135345683074178"><ele>153.5</ele><time>2026-04-12T09:42:50Z</time></trkpt><trkpt lat="45.2221001628539" lon="8.135503565340787"><ele>153.25</ele><time>2026-04-12T09:42:51Z</time></trkpt><trkpt lat="45.22204131239126" lon="8.135634553149892"><ele>153.0</ele><time>2026-04-12T09:42:52Z</time></trkpt><trkpt lat="45.22198322273154" lon="8.135751650464716"><ele>153.0</ele><time>2026-04-12T09:42:53Z</time></trkpt><trkpt lat="45.22192984797966" lon="8.13585251891792"><ele>153.0</ele><time>2026-04-12T09:42:54Z</time></trkpt><trkpt lat="45.22188255472053" lon="8.135933872384395"><ele>153.0</ele><time>2026-04-12T09:42:55Z</time></trkpt><trkpt lat="45.22179201399041" lon="8.136022000791055"><ele>153.0</ele><time>2026-04-12T09:42:57Z</time></trkpt><trkpt lat="45.221700444076454" lon="8.136065312681572"><ele>153.0</ele><time>2026-04-12T09:42:59Z</time></trkpt><trkpt lat="45.221640963771485" lon="8.136124098912848"><ele>153.0</ele><time>2026-04-12T09:43:01Z</time></trkpt><trkpt lat="45.22165076629748" lon="8.136224325934489"><ele>153.0</ele><time>2026-04-12T09:43:03Z</time></trkpt><trkpt lat="45.2217459407657" lon="8.136377719707921"><ele>153.0</ele><time>2026-04-12T09:43:05Z</time></trkpt><trkpt lat="45.22181049434316" lon="8.136506214691018"><ele>153.0</ele><time>2026-04-12T09:43:06Z</time></trkpt><trkpt lat="45.221865719536005" lon="8.136642417746101"><ele>153.0</ele><time>2026-04-12T09:43:07Z</time></trkpt><trkpt lat="45.221932346314254" lon="8.13679072270735"><ele>153.0</ele><time>2026-04-12T09:43:08Z</time></trkpt><trkpt lat="45.22200445363259" lon="8.136923257970542"><ele>153.0</ele><time>2026-04-12T09:43:09Z</time></trkpt><trkpt lat="45.222081500513546" lon="8.137032524087399"><ele>153.0</ele><time>2026-04-12T09:43:10Z</time></trkpt><trkpt lat="45.222148182866626" lon="8.13714853877869"><ele>153.0</ele><time>2026-04-12T09:43:11Z</time></trkpt><trkpt lat="45.22219156700318" lon="8.137260381041267"><ele>153.0</ele><time>2026-04-12T09:43:12Z</time></trkpt><trkpt lat="45.22221414342683" lon="8.137361411027134"><ele>153.0</ele><time>2026-04-12T09:43:13Z</time></trkpt><trkpt lat="45.22223701324803" lon="8.137460346031153"><ele>153.0</ele><time>2026-04-12T09:43:14Z</time></trkpt><trkpt lat="45.222248914184775" lon="8.137587655617356"><ele>153.0</ele><time>2026-04-12T09:43:16Z</time></trkpt><trkpt lat="45.22218088053585" lon="8.137646629397201"><ele>153.0</ele><time>2026-04-12T09:43:18Z</time></trkpt><trkpt lat="45.222113497934195" lon="8.137668259755458"><ele>153.0</ele><time>2026-04-12T09:43:19Z</time></trkpt><trkpt lat="45.22200828620368" lon="8.137695382448623"><ele>153.0</ele><time>2026-04-12T09:43:20Z</time></trkpt><trkpt lat="45.221884567704556" lon="8.137733249396076"><ele>153.0</ele><time>2026-04-12T09:43:21Z</time></trkpt><trkpt lat="45.221740027839736" lon="8.137778374916701"><ele>153.0</ele><time>2026-04-12T09:43:22Z</time></trkpt><trkpt lat="45.22157386529376" lon="8.137822385568938"><ele>153.0</ele><time>2026-04-12T09:43:23Z</time></trkpt><trkpt lat="45.22141098031794" lon="8.137865227668962"><ele>153.0</ele><time>2026-04-12T09:43:24Z</time></trkpt><trkpt lat="45.22123562208553" lon="8.137917957519798"><ele>153.0</ele><time>2026-04-12T09:43:24.999Z</time></trkpt><trkpt lat="45.221055732351644" lon="8.13797060872431"><ele>153.0</ele><time>2026-04-12T09:43:25.999Z</time></trkpt><trkpt lat="45.22090411110374" lon="8.138016008917658"><ele>153.0</ele><time>2026-04-12T09:43:26.999Z</time></trkpt><trkpt lat="45.220798490282355" lon="8.138049511649166"><ele>153.0</ele><time>2026-04-12T09:43:27.999Z</time></trkpt><trkpt lat="45.22071973883186" lon="8.138080844064909"><ele>153.0</ele><time>2026-04-12T09:43:28.999Z</time></trkpt><trkpt lat="45.220641865573455" lon="8.138136882860861"><ele>153.0</ele><time>2026-04-12T09:43:29.999Z</time></trkpt><trkpt lat="45.22054545670182" lon="8.138220164978557"><ele>153.0</ele><time>2026-04-12T09:43:30.999Z</time></trkpt><trkpt lat="45.22043119309632" lon="8.13829094389835"><ele>152.75</ele><time>2026-04-12T09:43:31.999Z</time></trkpt><trkpt lat="45.22029946968819" lon="8.138342575543673"><ele>152.5</ele><time>2026-04-12T09:43:32.999Z</time></trkpt><trkpt lat="45.220157424308034" lon="8.13837788025494"><ele>152.25</ele><time>2026-04-12T09:43:33.999Z</time></trkpt><trkpt lat="45.219997307157676" lon="8.138419266686745"><ele>152.0</ele><time>2026-04-12T09:43:34.999Z</time></trkpt><trkpt lat="45.219835559337945" lon="8.138468493893736"><ele>151.66666666666666</ele><time>2026-04-12T09:43:35.999Z</time></trkpt><trkpt lat="45.219681708308364" lon="8.138516957440205"><ele>151.33333333333334</ele><time>2026-04-12T09:43:36.999Z</time></trkpt><trkpt lat="45.21953705685844" lon="8.138573021309936"><ele>151.0</ele><time>2026-04-12T09:43:37.999Z</time></trkpt><trkpt lat="45.21939903658328" lon="8.138627431177087"><ele>151.0</ele><time>2026-04-12T09:43:38.999Z</time></trkpt><trkpt lat="45.21926448422118" lon="8.138672736832564"><ele>151.0</ele><time>2026-04-12T09:43:39.999Z</time></trkpt><trkpt lat="45.21914014633276" lon="8.1387111090124"><ele>151.0</ele><time>2026-04-12T09:43:40.999Z</time></trkpt><trkpt lat="45.21905022158822" lon="8.138739742337123"><ele>151.0</ele><time>2026-04-12T09:43:41.999Z</time></trkpt><trkpt lat="45.21898126173536" lon="8.138761387892865"><ele>151.0</ele><time>2026-04-12T09:43:42.999Z</time></trkpt><trkpt lat="45.2189158530401" lon="8.138793468595367"><ele>151.0</ele><time>2026-04-12T09:43:44.999Z</time></trkpt><trkpt lat="45.218847348747765" lon="8.138818174867355"><ele>151.0</ele><time>2026-04-12T09:43:47.999Z</time></trkpt><trkpt lat="45.2187356850222" lon="8.138936327738646"><ele>151.0</ele><time>2026-04-12T09:43:49.999Z</time></trkpt><trkpt lat="45.21864809794215" lon="8.139010075153347"><ele>151.0</ele><time>2026-04-12T09:43:50.999Z</time></trkpt><trkpt lat="45.218550759886675" lon="8.139084188337844"><ele>151.0</ele><time>2026-04-12T09:43:51.999Z</time></trkpt><trkpt lat="45.21845417192357" lon="8.139143674360833"><ele>150.8</ele><time>2026-04-12T09:43:52.999Z</time></trkpt><trkpt lat="45.218384460776356" lon="8.139179688856167"><ele>150.6</ele><time>2026-04-12T09:43:53.999Z</time></trkpt><trkpt lat="45.218246248160554" lon="8.139254309696257"><ele>150.4</ele><time>2026-04-12T09:43:55.999Z</time></trkpt><trkpt lat="45.2181668860577" lon="8.139327848184207"><ele>150.2</ele><time>2026-04-12T09:43:57.999Z</time></trkpt><trkpt lat="45.218126030519784" lon="8.139503836427211"><ele>150.0</ele><time>2026-04-12T09:43:59.999Z</time></trkpt><trkpt lat="45.21811811224738" lon="8.139628270326524"><ele>149.75</ele><time>2026-04-12T09:44:00.999Z</time></trkpt><trkpt lat="45.21810048066976" lon="8.13979547195384"><ele>149.5</ele><time>2026-04-12T09:44:01.999Z</time></trkpt><trkpt lat="45.21808540510632" lon="8.13997812294983"><ele>149.25</ele><time>2026-04-12T09:44:02.999Z</time></trkpt><trkpt lat="45.21806411235182" lon="8.140197470781922"><ele>149.0</ele><time>2026-04-12T09:44:03.999Z</time></trkpt><trkpt lat="45.21804164738064" lon="8.140419024056861"><ele>149.66666666666666</ele><time>2026-04-12T09:44:04.999Z</time></trkpt><trkpt lat="45.218019078938795" lon="8.140624286725002"><ele>150.33333333333334</ele><time>2026-04-12T09:44:05.999Z</time></trkpt><trkpt lat="45.2179967731284" lon="8.140843055445497"><ele>151.0</ele><time>2026-04-12T09:44:06.999Z</time></trkpt><trkpt lat="45.21797398677939" lon="8.141074271304852"><ele>151.25</ele><time>2026-04-12T09:44:07.999Z</time></trkpt><trkpt lat="45.217956407846934" lon="8.141280763027446"><ele>151.5</ele><time>2026-04-12T09:44:08.999Z</time></trkpt><trkpt lat="45.217932452075964" lon="8.141476483410164"><ele>151.75</ele><time>2026-04-12T09:44:09.998Z</time></trkpt><trkpt lat="45.217912755720874" lon="8.14167062664259"><ele>152.0</ele><time>2026-04-12T09:44:10.998Z</time></trkpt><trkpt lat="45.21789849106039" lon="8.141860249893952"><ele>152.0</ele><time>2026-04-12T09:44:11.998Z</time></trkpt><trkpt lat="45.21788360998067" lon="8.142051367465148"><ele>152.0</ele><time>2026-04-12T09:44:12.998Z</time></trkpt><trkpt lat="45.217872322347986" lon="8.142220184961872"><ele>152.0</ele><time>2026-04-12T09:44:13.998Z</time></trkpt><trkpt lat="45.21787144290075" lon="8.142374419283277"><ele>152.0</ele><time>2026-04-12T09:44:14.998Z</time></trkpt><trkpt lat="45.21787869270791" lon="8.14251613233241"><ele>151.5</ele><time>2026-04-12T09:44:15.998Z</time></trkpt><trkpt lat="45.2178777645228" lon="8.142650194381973"><ele>151.0</ele><time>2026-04-12T09:44:16.998Z</time></trkpt><trkpt lat="45.21785479083476" lon="8.142800456861716"><ele>150.5</ele><time>2026-04-12T09:44:17.998Z</time></trkpt><trkpt lat="45.217819117352256" lon="8.142987772312127"><ele>150.0</ele><time>2026-04-12T09:44:18.998Z</time></trkpt><trkpt lat="45.21778906944577" lon="8.14317316781789"><ele>150.0</ele><time>2026-04-12T09:44:19.998Z</time></trkpt><trkpt lat="45.21776742674412" lon="8.1433318902244"><ele>150.0</ele><time>2026-04-12T09:44:20.998Z</time></trkpt><trkpt lat="45.21775343495514" lon="8.143475992747518"><ele>150.0</ele><time>2026-04-12T09:44:21.998Z</time></trkpt><trkpt lat="45.217740757149826" lon="8.143593620782816"><ele>150.0</ele><time>2026-04-12T09:44:22.998Z</time></trkpt><trkpt lat="45.21773023829891" lon="8.143692822798682"><ele>150.0</ele><time>2026-04-12T09:44:23.998Z</time></trkpt><trkpt lat="45.21770335120323" lon="8.143822586279637"><ele>150.0</ele><time>2026-04-12T09:44:25.998Z</time></trkpt><trkpt lat="45.21762173245622" lon="8.143875450585583"><ele>150.0</ele><time>2026-04-12T09:44:27.998Z</time></trkpt><trkpt lat="45.21749233110853" lon="8.143894701529883"><ele>150.0</ele><time>2026-04-12T09:44:29.998Z</time></trkpt><trkpt lat="45.2173859167066" lon="8.14389982771313"><ele>150.0</ele><time>2026-04-12T09:44:30.998Z</time></trkpt><trkpt lat="45.217256535389815" lon="8.143904695665206"><ele>150.33333333333334</ele><time>2026-04-12T09:44:31.998Z</time></trkpt><trkpt lat="45.21710402187208" lon="8.143922470580817"><ele>150.66666666666669</ele><time>2026-04-12T09:44:32.998Z</time></trkpt><trkpt lat="45.21693823905763" lon="8.143926965759459"><ele>151.0</ele><time>2026-04-12T09:44:33.998Z</time></trkpt><trkpt lat="45.216784692603376" lon="8.143930754717186"><ele>151.0</ele><time>2026-04-12T09:44:34.998Z</time></trkpt><trkpt lat="45.21665434920163" lon="8.143942382297396"><ele>151.0</ele><time>2026-04-12T09:44:35.998Z</time></trkpt><trkpt lat="45.2165464908473" lon="8.143957353788005"><ele>151.0</ele><time>2026-04-12T09:44:36.998Z</time></trkpt><trkpt lat="45.216404538084966" lon="8.14396662535919"><ele>151.0</ele><time>2026-04-12T09:44:37.998Z</time></trkpt><trkpt lat="45.216265242277906" lon="8.143996106613944"><ele>151.4</ele><time>2026-04-12T09:44:38.998Z</time></trkpt><trkpt lat="45.21613461282271" lon="8.143997647985042"><ele>151.8</ele><time>2026-04-12T09:44:39.998Z</time></trkpt><trkpt lat="45.216033418676695" lon="8.143987791792563"><ele>152.20000000000002</ele><time>2026-04-12T09:44:40.998Z</time></trkpt><trkpt lat="45.21595827936869" lon="8.144035219070503"><ele>152.6</ele><time>2026-04-12T09:44:41.998Z</time></trkpt><trkpt lat="45.21588165332805" lon="8.144035900332291"><ele>153.0</ele><time>2026-04-12T09:44:43.998Z</time></trkpt><trkpt lat="45.21587333604931" lon="8.144265530786457"><ele>153.25</ele><time>2026-04-12T09:44:44.998Z</time></trkpt><trkpt lat="45.21588245160247" lon="8.144384563218818"><ele>153.5</ele><time>2026-04-12T09:44:45.998Z</time></trkpt><trkpt lat="45.21590342067975" lon="8.14454322494363"><ele>153.75</ele><time>2026-04-12T09:44:46.998Z</time></trkpt><trkpt lat="45.21592973054474" lon="8.144716782507825"><ele>154.0</ele><time>2026-04-12T09:44:47.998Z</time></trkpt><trkpt lat="45.215955116865835" lon="8.144924093223873"><ele>153.33333333333334</ele><time>2026-04-12T09:44:48.998Z</time></trkpt><trkpt lat="45.21598344226295" lon="8.1451605193419"><ele>152.66666666666666</ele><time>2026-04-12T09:44:49.998Z</time></trkpt><trkpt lat="45.21600845307056" lon="8.145417257502189"><ele>152.0</ele><time>2026-04-12T09:44:51Z</time></trkpt><trkpt lat="45.216029800398324" lon="8.145649252142293"><ele>151.79999999999998</ele><time>2026-04-12T09:44:52Z</time></trkpt><trkpt lat="45.216042692211666" lon="8.145820687045923"><ele>151.6</ele><time>2026-04-12T09:44:53Z</time></trkpt><trkpt lat="45.21605024768048" lon="8.145953805434045"><ele>151.39999999999998</ele><time>2026-04-12T09:44:54Z</time></trkpt><trkpt lat="45.2160465918434" lon="8.146075392737258"><ele>151.2</ele><time>2026-04-12T09:44:55Z</time></trkpt><trkpt lat="45.21597447865566" lon="8.146176213405557"><ele>151.0</ele><time>2026-04-12T09:44:56Z</time></trkpt><trkpt lat="45.215955890143896" lon="8.146287744965546"><ele>151.0</ele><time>2026-04-12T09:44:57Z</time></trkpt><trkpt lat="45.216006963973314" lon="8.146409229604116"><ele>151.0</ele><time>2026-04-12T09:44:58Z</time></trkpt><trkpt lat="45.216048128304074" lon="8.146541741685759"><ele>151.0</ele><time>2026-04-12T09:44:59Z</time></trkpt><trkpt lat="45.21609964460992" lon="8.146683353163988"><ele>151.0</ele><time>2026-04-12T09:45:00Z</time></trkpt><trkpt lat="45.21616053411414" lon="8.146842893275934"><ele>151.0</ele><time>2026-04-12T09:45:01Z</time></trkpt><trkpt lat="45.21621998305565" lon="8.147017663633012"><ele>151.0</ele><time>2026-04-12T09:45:02Z</time></trkpt><trkpt lat="45.21626786777094" lon="8.147196139105528"><ele>151.0</ele><time>2026-04-12T09:45:03Z</time></trkpt><trkpt lat="45.21632615393962" lon="8.147368690183978"><ele>151.0</ele><time>2026-04-12T09:45:04Z</time></trkpt><trkpt lat="45.21638710533653" lon="8.147525163528268"><ele>151.0</ele><time>2026-04-12T09:45:05Z</time></trkpt><trkpt lat="45.21646423948323" lon="8.14767421627306"><ele>150.75</ele><time>2026-04-12T09:45:06Z</time></trkpt><trkpt lat="45.21656034933128" lon="8.14782250973611"><ele>150.5</ele><time>2026-04-12T09:45:07Z</time></trkpt><trkpt lat="45.216666614100205" lon="8.147972451429261"><ele>150.25</ele><time>2026-04-12T09:45:08Z</time></trkpt><trkpt lat="45.2167563678515" lon="8.148102243539268"><ele>150.0</ele><time>2026-04-12T09:45:09Z</time></trkpt><trkpt lat="45.21683089393685" lon="8.148216846636513"><ele>150.0</ele><time>2026-04-12T09:45:10Z</time></trkpt><trkpt lat="45.21689548553763" lon="8.148317930776262"><ele>150.0</ele><time>2026-04-12T09:45:11Z</time></trkpt><trkpt lat="45.21694634964708" lon="8.1484310582295"><ele>150.0</ele><time>2026-04-12T09:45:12Z</time></trkpt><trkpt lat="45.21697638717299" lon="8.148574661335807"><ele>150.0</ele><time>2026-04-12T09:45:13Z</time></trkpt><trkpt lat="45.21699329304781" lon="8.148734005146578"><ele>150.0</ele><time>2026-04-12T09:45:14Z</time></trkpt><trkpt lat="45.21700420670657" lon="8.148913051226401"><ele>150.0</ele><time>2026-04-12T09:45:15Z</time></trkpt><trkpt lat="45.21702045950894" lon="8.149114227289806"><ele>150.0</ele><time>2026-04-12T09:45:16Z</time></trkpt><trkpt lat="45.21704576493534" lon="8.149328442394358"><ele>150.0</ele><time>2026-04-12T09:45:17Z</time></trkpt><trkpt lat="45.21707701522095" lon="8.149562312011826"><ele>150.0</ele><time>2026-04-12T09:45:18Z</time></trkpt><trkpt lat="45.21710828367709" lon="8.149814886465817"><ele>150.0</ele><time>2026-04-12T09:45:19Z</time></trkpt><trkpt lat="45.21714207513015" lon="8.150074651175458"><ele>150.0</ele><time>2026-04-12T09:45:20Z</time></trkpt><trkpt lat="45.217174813757175" lon="8.150328503820791"><ele>149.66666666666666</ele><time>2026-04-12T09:45:21Z</time></trkpt><trkpt lat="45.21720282671339" lon="8.150586699887109"><ele>149.33333333333331</ele><time>2026-04-12T09:45:22Z</time></trkpt><trkpt lat="45.21722528977511" lon="8.15084521365737"><ele>149.0</ele><time>2026-04-12T09:45:23Z</time></trkpt><trkpt lat="45.21724843502161" lon="8.151123222606317"><ele>149.0</ele><time>2026-04-12T09:45:24Z</time></trkpt><trkpt lat="45.21727303087154" lon="8.151380166127868"><ele>149.0</ele><time>2026-04-12T09:45:25Z</time></trkpt><trkpt lat="45.21729434687902" lon="8.151610168293969"><ele>149.0</ele><time>2026-04-12T09:45:26Z</time></trkpt><trkpt lat="45.21731295936109" lon="8.151843710536406"><ele>150.0</ele><time>2026-04-12T09:45:27Z</time></trkpt><trkpt lat="45.21733144776759" lon="8.152103270818046"><ele>151.0</ele><time>2026-04-12T09:45:27.999Z</time></trkpt><trkpt lat="45.21735524100579" lon="8.152396518408818"><ele>152.0</ele><time>2026-04-12T09:45:28.999Z</time></trkpt><trkpt lat="45.21737754865465" lon="8.152706463045412"><ele>152.0</ele><time>2026-04-12T09:45:29.999Z</time></trkpt><trkpt lat="45.21739763443642" lon="8.152979778571032"><ele>152.0</ele><time>2026-04-12T09:45:30.999Z</time></trkpt><trkpt lat="45.21741773608427" lon="8.153228291230105"><ele>152.0</ele><time>2026-04-12T09:45:31.999Z</time></trkpt><trkpt lat="45.217433395934016" lon="8.153474790281585"><ele>151.66666666666666</ele><time>2026-04-12T09:45:32.999Z</time></trkpt><trkpt lat="45.217450709352654" lon="8.153724933073127"><ele>151.33333333333334</ele><time>2026-04-12T09:45:33.999Z</time></trkpt><trkpt lat="45.21746791340816" lon="8.153951344315972"><ele>151.0</ele><time>2026-04-12T09:45:34.999Z</time></trkpt><trkpt lat="45.21748422835939" lon="8.15415866521262"><ele>151.66666666666669</ele><time>2026-04-12T09:45:35.999Z</time></trkpt><trkpt lat="45.21749691204932" lon="8.154356331539093"><ele>152.33333333333334</ele><time>2026-04-12T09:45:36.999Z</time></trkpt><trkpt lat="45.217506705319146" lon="8.15457622148111"><ele>153.0</ele><time>2026-04-12T09:45:37.999Z</time></trkpt><trkpt lat="45.21752664284808" lon="8.154823282835446"><ele>153.33333333333334</ele><time>2026-04-12T09:45:38.999Z</time></trkpt><trkpt lat="45.217551752896746" lon="8.155095028479924"><ele>153.66666666666669</ele><time>2026-04-12T09:45:39.999Z</time></trkpt><trkpt lat="45.217573337916" lon="8.155360904283048"><ele>154.0</ele><time>2026-04-12T09:45:40.999Z</time></trkpt><trkpt lat="45.21759208527029" lon="8.15558629903196"><ele>153.75</ele><time>2026-04-12T09:45:41.999Z</time></trkpt><trkpt lat="45.21761415890835" lon="8.155793617564177"><ele>153.5</ele><time>2026-04-12T09:45:42.999Z</time></trkpt><trkpt lat="45.21762861878328" lon="8.155985854774114"><ele>153.25</ele><time>2026-04-12T09:45:43.999Z</time></trkpt><trkpt lat="45.217654106730905" lon="8.156193784144614"><ele>153.0</ele><time>2026-04-12T09:45:44.999Z</time></trkpt><trkpt lat="45.217674532315485" lon="8.15641284518139"><ele>152.75</ele><time>2026-04-12T09:45:45.999Z</time></trkpt><trkpt lat="45.217681996260346" lon="8.156614029152198"><ele>152.5</ele><time>2026-04-12T09:45:46.999Z</time></trkpt><trkpt lat="45.2176874255424" lon="8.156814907824627"><ele>152.25</ele><time>2026-04-12T09:45:47.999Z</time></trkpt><trkpt lat="45.217680582237655" lon="8.15702199665935"><ele>152.0</ele><time>2026-04-12T09:45:48.999Z</time></trkpt><trkpt lat="45.217663670991506" lon="8.157242956394017"><ele>151.75</ele><time>2026-04-12T09:45:49.999Z</time></trkpt><trkpt lat="45.21765513337982" lon="8.157444670993065"><ele>151.5</ele><time>2026-04-12T09:45:50.999Z</time></trkpt><trkpt lat="45.217647260357055" lon="8.157625488199496"><ele>151.25</ele><time>2026-04-12T09:45:51.999Z</time></trkpt><trkpt lat="45.21764016271448" lon="8.157790959457817"><ele>151.0</ele><time>2026-04-12T09:45:52.999Z</time></trkpt><trkpt lat="45.21763125104615" lon="8.15796059859929"><ele>151.0</ele><time>2026-04-12T09:45:53.999Z</time></trkpt><trkpt lat="45.21761971894368" lon="8.158141457533478"><ele>151.0</ele><time>2026-04-12T09:45:54.999Z</time></trkpt><trkpt lat="45.21761019151694" lon="8.158321687127236"><ele>151.0</ele><time>2026-04-12T09:45:55.999Z</time></trkpt><trkpt lat="45.21760441480552" lon="8.158479253461339"><ele>151.0</ele><time>2026-04-12T09:45:56.999Z</time></trkpt><trkpt lat="45.2175910099323" lon="8.158620584019578"><ele>151.25</ele><time>2026-04-12T09:45:57.999Z</time></trkpt><trkpt lat="45.217566331822276" lon="8.158753211722651"><ele>151.5</ele><time>2026-04-12T09:45:58.999Z</time></trkpt><trkpt lat="45.217526408656035" lon="8.158910058332316"><ele>151.75</ele><time>2026-04-12T09:45:59.999Z</time></trkpt><trkpt lat="45.21748809892319" lon="8.159092483483775"><ele>152.0</ele><time>2026-04-12T09:46:00.999Z</time></trkpt><trkpt lat="45.217437346793304" lon="8.159296160407287"><ele>152.0</ele><time>2026-04-12T09:46:01.999Z</time></trkpt><trkpt lat="45.21738092898636" lon="8.159543263673974"><ele>152.0</ele><time>2026-04-12T09:46:02.999Z</time></trkpt><trkpt lat="45.21733166049562" lon="8.15977630415366"><ele>152.0</ele><time>2026-04-12T09:46:03.999Z</time></trkpt><trkpt lat="45.2172960301651" lon="8.15998392458697"><ele>151.0</ele><time>2026-04-12T09:46:04.999Z</time></trkpt><trkpt lat="45.217259532025615" lon="8.160163883277438"><ele>150.0</ele><time>2026-04-12T09:46:05.999Z</time></trkpt><trkpt lat="45.21722590814435" lon="8.160325577390754"><ele>149.0</ele><time>2026-04-12T09:46:06.999Z</time></trkpt><trkpt lat="45.21718834471539" lon="8.160493073430557"><ele>148.0</ele><time>2026-04-12T09:46:07.999Z</time></trkpt><trkpt lat="45.217136632415986" lon="8.160668901654587"><ele>148.20000000000002</ele><time>2026-04-12T09:46:08.999Z</time></trkpt><trkpt lat="45.217091118713086" lon="8.160801349872727"><ele>148.4</ele><time>2026-04-12T09:46:09.999Z</time></trkpt><trkpt lat="45.21705872960683" lon="8.160891535253146"><ele>148.60000000000002</ele><time>2026-04-12T09:46:10.999Z</time></trkpt><trkpt lat="45.21700353420032" lon="8.161053209258096"><ele>148.8</ele><time>2026-04-12T09:46:12.998Z</time></trkpt><trkpt lat="45.216972716857015" lon="8.161157768769264"><ele>149.0</ele><time>2026-04-12T09:46:13.998Z</time></trkpt><trkpt lat="45.21694222830667" lon="8.161256497658423"><ele>149.0</ele><time>2026-04-12T09:46:14.998Z</time></trkpt><trkpt lat="45.21691132278999" lon="8.161348213513183"><ele>149.0</ele><time>2026-04-12T09:46:15.998Z</time></trkpt><trkpt lat="45.21688004804085" lon="8.16144035290783"><ele>149.0</ele><time>2026-04-12T09:46:16.998Z</time></trkpt><trkpt lat="45.21685245067733" lon="8.161524553387933"><ele>149.0</ele><time>2026-04-12T09:46:17.998Z</time></trkpt><trkpt lat="45.216825530302216" lon="8.161613163134975"><ele>149.0</ele><time>2026-04-12T09:46:18.998Z</time></trkpt><trkpt lat="45.21679514953636" lon="8.161703459864551"><ele>149.0</ele><time>2026-04-12T09:46:19.998Z</time></trkpt><trkpt lat="45.216766587711774" lon="8.16178645128968"><ele>149.0</ele><time>2026-04-12T09:46:20.998Z</time></trkpt><trkpt lat="45.21671875555698" lon="8.161935245131065"><ele>149.33333333333331</ele><time>2026-04-12T09:46:22.998Z</time></trkpt><trkpt lat="45.216673359336816" lon="8.162108299465983"><ele>149.66666666666666</ele><time>2026-04-12T09:46:24.998Z</time></trkpt><trkpt lat="45.216649759564234" lon="8.162203899294122"><ele>150.0</ele><time>2026-04-12T09:46:25.998Z</time></trkpt><trkpt lat="45.21662706251076" lon="8.162295900932529"><ele>150.33333333333334</ele><time>2026-04-12T09:46:26.998Z</time></trkpt><trkpt lat="45.2166010271129" lon="8.162382579831121"><ele>150.66666666666669</ele><time>2026-04-12T09:46:27.998Z</time></trkpt><trkpt lat="45.216578286699345" lon="8.16247500571931"><ele>151.0</ele><time>2026-04-12T09:46:28.998Z</time></trkpt><trkpt lat="45.21654128389136" lon="8.16257613488675"><ele>151.33333333333334</ele><time>2026-04-12T09:46:29.998Z</time></trkpt><trkpt lat="45.21649045091395" lon="8.162669979261555"><ele>151.66666666666669</ele><time>2026-04-12T09:46:30.998Z</time></trkpt><trkpt lat="45.216426276133454" lon="8.162761079734313"><ele>152.0</ele><time>2026-04-12T09:46:31.998Z</time></trkpt><trkpt lat="45.21636030248228" lon="8.162832945778604"><ele>152.33333333333334</ele><time>2026-04-12T09:46:32.998Z</time></trkpt><trkpt lat="45.21630015517347" lon="8.162921073224716"><ele>152.66666666666666</ele><time>2026-04-12T09:46:33.998Z</time></trkpt><trkpt lat="45.21627531100614" lon="8.163036332180974"><ele>153.0</ele><time>2026-04-12T09:46:34.998Z</time></trkpt><trkpt lat="45.21627262020472" lon="8.163178380762332"><ele>151.75</ele><time>2026-04-12T09:46:35.998Z</time></trkpt><trkpt lat="45.216280654608376" lon="8.16332873828002"><ele>150.5</ele><time>2026-04-12T09:46:36.998Z</time></trkpt><trkpt lat="45.21629009819912" lon="8.163487310147397"><ele>149.25</ele><time>2026-04-12T09:46:37.998Z</time></trkpt><trkpt lat="45.216296815422" lon="8.163672136280352"><ele>148.0</ele><time>2026-04-12T09:46:38.998Z</time></trkpt><trkpt lat="45.21630187694441" lon="8.163884056594108"><ele>148.0</ele><time>2026-04-12T09:46:39.998Z</time></trkpt><trkpt lat="45.21630813467848" lon="8.164094013635188"><ele>148.0</ele><time>2026-04-12T09:46:40.998Z</time></trkpt><trkpt lat="45.21631143530734" lon="8.164314208431891"><ele>148.0</ele><time>2026-04-12T09:46:41.998Z</time></trkpt><trkpt lat="45.21631595436551" lon="8.164545800046659"><ele>148.0</ele><time>2026-04-12T09:46:42.998Z</time></trkpt><trkpt lat="45.21631781932365" lon="8.164758493763212"><ele>148.0</ele><time>2026-04-12T09:46:43.998Z</time></trkpt><trkpt lat="45.21632614753675" lon="8.164943578386483"><ele>148.0</ele><time>2026-04-12T09:46:44.998Z</time></trkpt><trkpt lat="45.21631614407055" lon="8.165132219212492"><ele>148.0</ele><time>2026-04-12T09:46:45.998Z</time></trkpt><trkpt lat="45.21632001046001" lon="8.165309935088803"><ele>148.25</ele><time>2026-04-12T09:46:46.998Z</time></trkpt><trkpt lat="45.216334722918" lon="8.165489718721291"><ele>148.5</ele><time>2026-04-12T09:46:47.998Z</time></trkpt><trkpt lat="45.21634539775909" lon="8.165655216649116"><ele>148.75</ele><time>2026-04-12T09:46:48.998Z</time></trkpt><trkpt lat="45.216361242836854" lon="8.165817662052334"><ele>149.0</ele><time>2026-04-12T09:46:49.998Z</time></trkpt><trkpt lat="45.21639418471747" lon="8.1659917378657"><ele>149.0</ele><time>2026-04-12T09:46:50.998Z</time></trkpt><trkpt lat="45.2164342906943" lon="8.16617547294881"><ele>149.0</ele><time>2026-04-12T09:46:51.998Z</time></trkpt><trkpt lat="45.21646575137074" lon="8.166316136062502"><ele>149.0</ele><time>2026-04-12T09:46:52.998Z</time></trkpt><trkpt lat="45.21650046933492" lon="8.166417232356036"><ele>149.0</ele><time>2026-04-12T09:46:53.998Z</time></trkpt><trkpt lat="45.21655926681952" lon="8.166545282116353"><ele>149.0</ele><time>2026-04-12T09:46:54.998Z</time></trkpt><trkpt lat="45.216619367671406" lon="8.166654583156587"><ele>149.33333333333331</ele><time>2026-04-12T09:46:55.998Z</time></trkpt><trkpt lat="45.21666602590127" lon="8.166757971332144"><ele>149.66666666666666</ele><time>2026-04-12T09:46:57Z</time></trkpt><trkpt lat="45.216699122592416" lon="8.166855034514692"><ele>150.0</ele><time>2026-04-12T09:46:58Z</time></trkpt><trkpt lat="45.21671191091923" lon="8.166960131846833"><ele>150.33333333333334</ele><time>2026-04-12T09:46:59Z</time></trkpt><trkpt lat="45.21668833686635" lon="8.167064219290355"><ele>150.66666666666669</ele><time>2026-04-12T09:47:00Z</time></trkpt><trkpt lat="45.21668185880117" lon="8.16718169934107"><ele>151.0</ele><time>2026-04-12T09:47:01Z</time></trkpt><trkpt lat="45.21665225536604" lon="8.16731045308744"><ele>150.8</ele><time>2026-04-12T09:47:02Z</time></trkpt><trkpt lat="45.21661555463852" lon="8.167453861680345"><ele>150.6</ele><time>2026-04-12T09:47:03Z</time></trkpt><trkpt lat="45.21656687231932" lon="8.16761256543707"><ele>150.4</ele><time>2026-04-12T09:47:04Z</time></trkpt><trkpt lat="45.21650938937645" lon="8.167719795703594"><ele>150.2</ele><time>2026-04-12T09:47:05Z</time></trkpt><trkpt lat="45.216467812904966" lon="8.167795265257181"><ele>150.0</ele><time>2026-04-12T09:47:06Z</time></trkpt><trkpt lat="45.216418022778434" lon="8.167854062951529"><ele>149.6</ele><time>2026-04-12T09:47:07Z</time></trkpt><trkpt lat="45.216335571865045" lon="8.167940755981778"><ele>149.2</ele><time>2026-04-12T09:47:08Z</time></trkpt><trkpt lat="45.21623711221031" lon="8.168006024014456"><ele>148.8</ele><time>2026-04-12T09:47:09Z</time></trkpt><trkpt lat="45.216142908173204" lon="8.168064783432547"><ele>148.4</ele><time>2026-04-12T09:47:10Z</time></trkpt><trkpt lat="45.2160813402297" lon="8.168111900154958"><ele>148.0</ele><time>2026-04-12T09:47:11Z</time></trkpt><trkpt lat="45.216043347098925" lon="8.168222485560799"><ele>148.0</ele><time>2026-04-12T09:47:13Z</time></trkpt><trkpt lat="45.21611283696447" lon="8.16838877972547"><ele>148.0</ele><time>2026-04-12T09:47:15Z</time></trkpt><trkpt lat="45.21617519638951" lon="8.168501141571358"><ele>148.0</ele><time>2026-04-12T09:47:16Z</time></trkpt><trkpt lat="45.21621653617378" lon="8.168591897998088"><ele>148.0</ele><time>2026-04-12T09:47:17Z</time></trkpt><trkpt lat="45.21618503512685" lon="8.1687294334879"><ele>148.0</ele><time>2026-04-12T09:47:19Z</time></trkpt><trkpt lat="45.216116042235214" lon="8.168768209115315"><ele>148.0</ele><time>2026-04-12T09:47:20Z</time></trkpt><trkpt lat="45.216037572958165" lon="8.168846212872452"><ele>148.0</ele><time>2026-04-12T09:47:21Z</time></trkpt><trkpt lat="45.215945245826376" lon="8.168964953098952"><ele>148.0</ele><time>2026-04-12T09:47:22Z</time></trkpt><trkpt lat="45.215838901870406" lon="8.169113150248519"><ele>148.0</ele><time>2026-04-12T09:47:23Z</time></trkpt><trkpt lat="45.215723763018325" lon="8.169278673982797"><ele>146.66666666666669</ele><time>2026-04-12T09:47:24Z</time></trkpt><trkpt lat="45.215598407310424" lon="8.169444927318969"><ele>145.33333333333334</ele><time>2026-04-12T09:47:25Z</time></trkpt><trkpt lat="45.21548131329448" lon="8.169608977996976"><ele>144.0</ele><time>2026-04-12T09:47:26Z</time></trkpt><trkpt lat="45.21538799138681" lon="8.169757241283094"><ele>144.16666666666666</ele><time>2026-04-12T09:47:27Z</time></trkpt><trkpt lat="45.21530613362812" lon="8.169860149723045"><ele>144.33333333333334</ele><time>2026-04-12T09:47:28Z</time></trkpt><trkpt lat="45.21524115665378" lon="8.16996188302985"><ele>144.5</ele><time>2026-04-12T09:47:29Z</time></trkpt><trkpt lat="45.21518885288137" lon="8.170052250161394"><ele>144.66666666666669</ele><time>2026-04-12T09:47:30Z</time></trkpt><trkpt lat="45.21517485775517" lon="8.170142745734777"><ele>144.83333333333334</ele><time>2026-04-12T09:47:31Z</time></trkpt><trkpt lat="45.215172303227696" lon="8.170237767652871"><ele>145.0</ele><time>2026-04-12T09:47:32Z</time></trkpt><trkpt lat="45.21517882232736" lon="8.170354402892828"><ele>145.0</ele><time>2026-04-12T09:47:33Z</time></trkpt><trkpt lat="45.21516942359793" lon="8.170460984903851"><ele>145.0</ele><time>2026-04-12T09:47:34Z</time></trkpt><trkpt lat="45.21510748999903" lon="8.170511545997142"><ele>145.0</ele><time>2026-04-12T09:47:34.999Z</time></trkpt><trkpt lat="45.21505852254719" lon="8.170584273093416"><ele>145.0</ele><time>2026-04-12T09:47:35.999Z</time></trkpt><trkpt lat="45.21499309766308" lon="8.170685298344239"><ele>145.0</ele><time>2026-04-12T09:47:36.999Z</time></trkpt><trkpt lat="45.214921781222685" lon="8.170825671422323"><ele>145.0</ele><time>2026-04-12T09:47:37.999Z</time></trkpt><trkpt lat="45.21482858030276" lon="8.170963202620742"><ele>145.0</ele><time>2026-04-12T09:47:38.999Z</time></trkpt><trkpt lat="45.21471118650171" lon="8.171146175335785"><ele>145.0</ele><time>2026-04-12T09:47:39.999Z</time></trkpt><trkpt lat="45.21458936926913" lon="8.171337688444469"><ele>145.0</ele><time>2026-04-12T09:47:40.999Z</time></trkpt><trkpt lat="45.21448144850453" lon="8.171504690928112"><ele>145.0</ele><time>2026-04-12T09:47:41.999Z</time></trkpt><trkpt lat="45.214383263014845" lon="8.17165490272507"><ele>145.0</ele><time>2026-04-12T09:47:42.999Z</time></trkpt><trkpt lat="45.2142808452562" lon="8.171809446281904"><ele>145.0</ele><time>2026-04-12T09:47:43.999Z</time></trkpt><trkpt lat="45.21418014550364" lon="8.17196456133844"><ele>145.0</ele><time>2026-04-12T09:47:44.999Z</time></trkpt><trkpt lat="45.214078100611815" lon="8.17212379166359"><ele>145.0</ele><time>2026-04-12T09:47:45.999Z</time></trkpt><trkpt lat="45.21397977973344" lon="8.172289014634963"><ele>145.0</ele><time>2026-04-12T09:47:46.999Z</time></trkpt><trkpt lat="45.21388693279319" lon="8.172450199084846"><ele>145.0</ele><time>2026-04-12T09:47:47.999Z</time></trkpt><trkpt lat="45.213798890377525" lon="8.172594554156014"><ele>145.0</ele><time>2026-04-12T09:47:48.999Z</time></trkpt><trkpt lat="45.21370487998687" lon="8.17273040405039"><ele>145.0</ele><time>2026-04-12T09:47:49.999Z</time></trkpt><trkpt lat="45.21361344751844" lon="8.172859086695293"><ele>145.0</ele><time>2026-04-12T09:47:50.999Z</time></trkpt><trkpt lat="45.21352843753532" lon="8.172967868488351"><ele>145.0</ele><time>2026-04-12T09:47:51.999Z</time></trkpt><trkpt lat="45.21348938584116" lon="8.173110643008453"><ele>145.0</ele><time>2026-04-12T09:47:52.999Z</time></trkpt><trkpt lat="45.21345237816657" lon="8.173242093478546"><ele>144.75</ele><time>2026-04-12T09:47:53.999Z</time></trkpt><trkpt lat="45.21341957429672" lon="8.173389063305562"><ele>144.5</ele><time>2026-04-12T09:47:54.999Z</time></trkpt><trkpt lat="45.21338432037236" lon="8.173547080237627"><ele>144.25</ele><time>2026-04-12T09:47:55.999Z</time></trkpt><trkpt lat="45.213340837653575" lon="8.173714778311014"><ele>144.0</ele><time>2026-04-12T09:47:56.999Z</time></trkpt><trkpt lat="45.21328825834313" lon="8.17388426656667"><ele>144.0</ele><time>2026-04-12T09:47:57.999Z</time></trkpt><trkpt lat="45.21322225837022" lon="8.174058999631898"><ele>144.0</ele><time>2026-04-12T09:47:58.999Z</time></trkpt><trkpt lat="45.21315270215044" lon="8.174215295809656"><ele>144.0</ele><time>2026-04-12T09:47:59.999Z</time></trkpt><trkpt lat="45.21307639604189" lon="8.174344977805653"><ele>144.0</ele><time>2026-04-12T09:48:00.999Z</time></trkpt><trkpt lat="45.21298302621531" lon="8.17447425712291"><ele>144.0</ele><time>2026-04-12T09:48:01.999Z</time></trkpt><trkpt lat="45.21287180563171" lon="8.174587187650827"><ele>144.0</ele><time>2026-04-12T09:48:02.999Z</time></trkpt><trkpt lat="45.21275795274271" lon="8.174698268245605"><ele>144.0</ele><time>2026-04-12T09:48:03.999Z</time></trkpt><trkpt lat="45.21265998089792" lon="8.174810548774104"><ele>144.0</ele><time>2026-04-12T09:48:04.999Z</time></trkpt><trkpt lat="45.21256074833918" lon="8.174941660028175"><ele>144.25</ele><time>2026-04-12T09:48:05.999Z</time></trkpt><trkpt lat="45.21246254530928" lon="8.17508688217465"><ele>144.5</ele><time>2026-04-12T09:48:06.999Z</time></trkpt><trkpt lat="45.21237440044129" lon="8.175227423482783"><ele>144.75</ele><time>2026-04-12T09:48:07.999Z</time></trkpt><trkpt lat="45.21229977308224" lon="8.175370807973549"><ele>145.0</ele><time>2026-04-12T09:48:08.999Z</time></trkpt><trkpt lat="45.212231610194245" lon="8.17553114878427"><ele>145.0</ele><time>2026-04-12T09:48:09.999Z</time></trkpt><trkpt lat="45.21216870820793" lon="8.17570299012406"><ele>145.0</ele><time>2026-04-12T09:48:10.999Z</time></trkpt><trkpt lat="45.21210872493088" lon="8.17587775284685"><ele>145.0</ele><time>2026-04-12T09:48:11.999Z</time></trkpt><trkpt lat="45.21205535449815" lon="8.176041883687134"><ele>145.0</ele><time>2026-04-12T09:48:12.999Z</time></trkpt><trkpt lat="45.21199917447624" lon="8.176215212371662"><ele>145.0</ele><time>2026-04-12T09:48:13.999Z</time></trkpt><trkpt lat="45.21194380658616" lon="8.17639357306638"><ele>145.0</ele><time>2026-04-12T09:48:14.999Z</time></trkpt><trkpt lat="45.211897787545546" lon="8.176555852633218"><ele>145.0</ele><time>2026-04-12T09:48:15.999Z</time></trkpt><trkpt lat="45.21185777612819" lon="8.176702813116266"><ele>145.0</ele><time>2026-04-12T09:48:16.999Z</time></trkpt><trkpt lat="45.21182344215439" lon="8.176829895677452"><ele>145.0</ele><time>2026-04-12T09:48:17.999Z</time></trkpt><trkpt lat="45.21178664132318" lon="8.176960191039713"><ele>145.0</ele><time>2026-04-12T09:48:18.998Z</time></trkpt><trkpt lat="45.21174924037242" lon="8.17707415877278"><ele>145.0</ele><time>2026-04-12T09:48:19.998Z</time></trkpt><trkpt lat="45.21170785369033" lon="8.17718833540011"><ele>145.0</ele><time>2026-04-12T09:48:20.998Z</time></trkpt><trkpt lat="45.211657636759696" lon="8.177280955868161"><ele>145.0</ele><time>2026-04-12T09:48:21.998Z</time></trkpt><trkpt lat="45.211602049533674" lon="8.177343193682063"><ele>145.0</ele><time>2026-04-12T09:48:22.998Z</time></trkpt><trkpt lat="45.21148724473465" lon="8.17736838115429"><ele>145.0</ele><time>2026-04-12T09:48:24.998Z</time></trkpt><trkpt lat="45.211396281917764" lon="8.177369435279424"><ele>145.0</ele><time>2026-04-12T09:48:25.998Z</time></trkpt><trkpt lat="45.21128892778113" lon="8.177372576017577"><ele>145.0</ele><time>2026-04-12T09:48:26.998Z</time></trkpt><trkpt lat="45.211161064056874" lon="8.177368233119351"><ele>145.0</ele><time>2026-04-12T09:48:27.998Z</time></trkpt><trkpt lat="45.211009975586954" lon="8.177360971861717"><ele>145.0</ele><time>2026-04-12T09:48:28.998Z</time></trkpt><trkpt lat="45.210872093456295" lon="8.177358517129417"><ele>145.0</ele><time>2026-04-12T09:48:29.998Z</time></trkpt><trkpt lat="45.21075750326511" lon="8.17736415640204"><ele>145.0</ele><time>2026-04-12T09:48:30.998Z</time></trkpt><trkpt lat="45.21064822717586" lon="8.177369837383274"><ele>145.0</ele><time>2026-04-12T09:48:31.998Z</time></trkpt><trkpt lat="45.210554200195226" lon="8.177362248313587"><ele>144.83333333333334</ele><time>2026-04-12T09:48:32.998Z</time></trkpt><trkpt lat="45.21047283225072" lon="8.177386049350744"><ele>144.66666666666669</ele><time>2026-04-12T09:48:33.998Z</time></trkpt><trkpt lat="45.21039578439572" lon="8.177411320395331"><ele>144.5</ele><time>2026-04-12T09:48:34.998Z</time></trkpt><trkpt lat="45.21032787503105" lon="8.177463372909445"><ele>144.33333333333334</ele><time>2026-04-12T09:48:35.998Z</time></trkpt><trkpt lat="45.210271714896976" lon="8.177544271822635"><ele>144.16666666666666</ele><time>2026-04-12T09:48:36.998Z</time></trkpt><trkpt lat="45.210225166953656" lon="8.17765102516721"><ele>144.0</ele><time>2026-04-12T09:48:37.998Z</time></trkpt><trkpt lat="45.210178415031265" lon="8.177776149032491"><ele>144.0</ele><time>2026-04-12T09:48:38.998Z</time></trkpt><trkpt lat="45.210125900317216" lon="8.177930860298341"><ele>144.0</ele><time>2026-04-12T09:48:39.998Z</time></trkpt><trkpt lat="45.210083085964904" lon="8.178077565079304"><ele>144.0</ele><time>2026-04-12T09:48:40.998Z</time></trkpt><trkpt lat="45.21005152791627" lon="8.178218693932948"><ele>144.0</ele><time>2026-04-12T09:48:41.998Z</time></trkpt><trkpt lat="45.21002862945156" lon="8.178371196706804"><ele>144.0</ele><time>2026-04-12T09:48:42.998Z</time></trkpt><trkpt lat="45.21001738563357" lon="8.178527726139922"><ele>144.0</ele><time>2026-04-12T09:48:43.998Z</time></trkpt><trkpt lat="45.2100097552731" lon="8.178728796379183"><ele>144.0</ele><time>2026-04-12T09:48:44.998Z</time></trkpt><trkpt lat="45.20999873946775" lon="8.17895416853269"><ele>144.0</ele><time>2026-04-12T09:48:45.998Z</time></trkpt><trkpt lat="45.2099844205862" lon="8.179204966955101"><ele>144.0</ele><time>2026-04-12T09:48:46.998Z</time></trkpt><trkpt lat="45.20996157262982" lon="8.179463757400006"><ele>144.0</ele><time>2026-04-12T09:48:47.998Z</time></trkpt><trkpt lat="45.20993532894106" lon="8.17969490293452"><ele>144.0</ele><time>2026-04-12T09:48:48.998Z</time></trkpt><trkpt lat="45.20991377266981" lon="8.17988971944511"><ele>144.0</ele><time>2026-04-12T09:48:49.998Z</time></trkpt><trkpt lat="45.209876081858546" lon="8.180062310195504"><ele>144.0</ele><time>2026-04-12T09:48:50.998Z</time></trkpt><trkpt lat="45.20986480850299" lon="8.180236023310476"><ele>144.0</ele><time>2026-04-12T09:48:51.998Z</time></trkpt><trkpt lat="45.20987919187254" lon="8.180413065068361"><ele>144.0</ele><time>2026-04-12T09:48:52.998Z</time></trkpt><trkpt lat="45.209876257447895" lon="8.180581043543368"><ele>144.0</ele><time>2026-04-12T09:48:53.998Z</time></trkpt><trkpt lat="45.20987013741562" lon="8.180726899895076"><ele>144.0</ele><time>2026-04-12T09:48:54.998Z</time></trkpt><trkpt lat="45.20985907042128" lon="8.18086490196109"><ele>144.0</ele><time>2026-04-12T09:48:55.998Z</time></trkpt><trkpt lat="45.2098310738361" lon="8.181003724572319"><ele>144.0</ele><time>2026-04-12T09:48:56.998Z</time></trkpt><trkpt lat="45.20978845446881" lon="8.18112850872392"><ele>144.0</ele><time>2026-04-12T09:48:57.998Z</time></trkpt><trkpt lat="45.20972574872906" lon="8.181255052630632"><ele>144.0</ele><time>2026-04-12T09:48:58.998Z</time></trkpt><trkpt lat="45.20964158624177" lon="8.181397451929676"><ele>144.0</ele><time>2026-04-12T09:48:59.998Z</time></trkpt><trkpt lat="45.20955639407834" lon="8.181544793925774"><ele>144.0</ele><time>2026-04-12T09:49:00.998Z</time></trkpt><trkpt lat="45.209464768670856" lon="8.181673347224862"><ele>144.0</ele><time>2026-04-12T09:49:01.998Z</time></trkpt><trkpt lat="45.20937182908354" lon="8.181783299831839"><ele>144.0</ele><time>2026-04-12T09:49:03Z</time></trkpt><trkpt lat="45.20926371289529" lon="8.181876126353908"><ele>144.0</ele><time>2026-04-12T09:49:04Z</time></trkpt><trkpt lat="45.20914232028146" lon="8.181965145081554"><ele>144.0</ele><time>2026-04-12T09:49:05Z</time></trkpt><trkpt lat="45.20899807800077" lon="8.182067030067437"><ele>144.0</ele><time>2026-04-12T09:49:06Z</time></trkpt><trkpt lat="45.20885699838603" lon="8.182161504040867"><ele>144.0</ele><time>2026-04-12T09:49:07Z</time></trkpt><trkpt lat="45.20871058166365" lon="8.182247913522232"><ele>144.0</ele><time>2026-04-12T09:49:08Z</time></trkpt><trkpt lat="45.2085737527606" lon="8.18233162059381"><ele>144.0</ele><time>2026-04-12T09:49:09Z</time></trkpt><trkpt lat="45.20845048428638" lon="8.1824064392456"><ele>144.0</ele><time>2026-04-12T09:49:10Z</time></trkpt><trkpt lat="45.20831862363011" lon="8.182480475002205"><ele>144.0</ele><time>2026-04-12T09:49:11Z</time></trkpt><trkpt lat="45.20817269169676" lon="8.182553692749707"><ele>144.0</ele><time>2026-04-12T09:49:12Z</time></trkpt><trkpt lat="45.208020750457" lon="8.182629037761187"><ele>144.0</ele><time>2026-04-12T09:49:13Z</time></trkpt><trkpt lat="45.20787209338448" lon="8.182705252670791"><ele>144.0</ele><time>2026-04-12T09:49:14Z</time></trkpt><trkpt lat="45.20773459061946" lon="8.182781257391664"><ele>144.0</ele><time>2026-04-12T09:49:15Z</time></trkpt><trkpt lat="45.2076056740263" lon="8.18286192553753"><ele>144.0</ele><time>2026-04-12T09:49:16Z</time></trkpt><trkpt lat="45.20747410308345" lon="8.182943394289959"><ele>144.0</ele><time>2026-04-12T09:49:17Z</time></trkpt><trkpt lat="45.20734538749195" lon="8.18302999885743"><ele>143.75</ele><time>2026-04-12T09:49:18Z</time></trkpt><trkpt lat="45.20722563999576" lon="8.183115112022724"><ele>143.5</ele><time>2026-04-12T09:49:19Z</time></trkpt><trkpt lat="45.20711567379439" lon="8.183192848022983"><ele>143.25</ele><time>2026-04-12T09:49:20Z</time></trkpt><trkpt lat="45.20701643454094" lon="8.183268104783943"><ele>143.0</ele><time>2026-04-12T09:49:21Z</time></trkpt><trkpt lat="45.20691948844222" lon="8.183342054490625"><ele>143.0</ele><time>2026-04-12T09:49:22Z</time></trkpt><trkpt lat="45.20681098158651" lon="8.183433033101728"><ele>143.0</ele><time>2026-04-12T09:49:23Z</time></trkpt><trkpt lat="45.20669016617534" lon="8.183532262282625"><ele>143.0</ele><time>2026-04-12T09:49:24Z</time></trkpt><trkpt lat="45.20656112401284" lon="8.183639759865448"><ele>143.0</ele><time>2026-04-12T09:49:25Z</time></trkpt><trkpt lat="45.20642382288739" lon="8.183743556466485"><ele>143.0</ele><time>2026-04-12T09:49:26Z</time></trkpt><trkpt lat="45.20629586706367" lon="8.183828597088203"><ele>143.0</ele><time>2026-04-12T09:49:27Z</time></trkpt><trkpt lat="45.20617450361939" lon="8.183912461805152"><ele>143.0</ele><time>2026-04-12T09:49:28Z</time></trkpt><trkpt lat="45.206057574922475" lon="8.18398762051373"><ele>143.0</ele><time>2026-04-12T09:49:29Z</time></trkpt><trkpt lat="45.205947264364205" lon="8.184055367392952"><ele>143.0</ele><time>2026-04-12T09:49:30Z</time></trkpt><trkpt lat="45.205847428335375" lon="8.18411533930521"><ele>143.0</ele><time>2026-04-12T09:49:31Z</time></trkpt><trkpt lat="45.20574856599223" lon="8.18416366093961"><ele>143.0</ele><time>2026-04-12T09:49:32Z</time></trkpt><trkpt lat="45.205637098742685" lon="8.184211326976348"><ele>143.0</ele><time>2026-04-12T09:49:33Z</time></trkpt><trkpt lat="45.20552549069873" lon="8.184253357936493"><ele>143.0</ele><time>2026-04-12T09:49:34Z</time></trkpt><trkpt lat="45.20540706389319" lon="8.184290113884655"><ele>143.0</ele><time>2026-04-12T09:49:35Z</time></trkpt><trkpt lat="45.20529734983904" lon="8.184337423236391"><ele>143.0</ele><time>2026-04-12T09:49:36Z</time></trkpt><trkpt lat="45.20520818928485" lon="8.18440154654608"><ele>143.0</ele><time>2026-04-12T09:49:37Z</time></trkpt><trkpt lat="45.20511641419421" lon="8.18446611109033"><ele>143.0</ele><time>2026-04-12T09:49:38Z</time></trkpt><trkpt lat="45.20504216190093" lon="8.184552123235918"><ele>143.0</ele><time>2026-04-12T09:49:39Z</time></trkpt><trkpt lat="45.204974119740776" lon="8.184648428728481"><ele>143.0</ele><time>2026-04-12T09:49:40Z</time></trkpt><trkpt lat="45.20490080983093" lon="8.184776166121843"><ele>143.0</ele><time>2026-04-12T09:49:41Z</time></trkpt><trkpt lat="45.204822558232024" lon="8.184923978097212"><ele>143.0</ele><time>2026-04-12T09:49:42Z</time></trkpt><trkpt lat="45.20473434057977" lon="8.18507541174259"><ele>143.0</ele><time>2026-04-12T09:49:42.999Z</time></trkpt><trkpt lat="45.20463403940354" lon="8.185231557194864"><ele>143.25</ele><time>2026-04-12T09:49:43.999Z</time></trkpt><trkpt lat="45.20452567691401" lon="8.185405772271999"><ele>143.5</ele><time>2026-04-12T09:49:44.999Z</time></trkpt><trkpt lat="45.20443114347233" lon="8.185566933197329"><ele>143.75</ele><time>2026-04-12T09:49:45.999Z</time></trkpt><trkpt lat="45.20433909837944" lon="8.185709623664955"><ele>144.0</ele><time>2026-04-12T09:49:46.999Z</time></trkpt><trkpt lat="45.20424437322579" lon="8.185851097483756"><ele>143.75</ele><time>2026-04-12T09:49:47.999Z</time></trkpt><trkpt lat="45.20415834990307" lon="8.185986460255577"><ele>143.5</ele><time>2026-04-12T09:49:48.999Z</time></trkpt><trkpt lat="45.20406864271484" lon="8.18612231267106"><ele>143.25</ele><time>2026-04-12T09:49:49.999Z</time></trkpt><trkpt lat="45.2039779143092" lon="8.186252255951189"><ele>143.0</ele><time>2026-04-12T09:49:50.999Z</time></trkpt><trkpt lat="45.20388412559354" lon="8.186373704692297"><ele>143.0</ele><time>2026-04-12T09:49:51.999Z</time></trkpt><trkpt lat="45.20379326105284" lon="8.186496450221428"><ele>143.0</ele><time>2026-04-12T09:49:52.999Z</time></trkpt><trkpt lat="45.20369903105469" lon="8.186621990060438"><ele>143.0</ele><time>2026-04-12T09:49:53.999Z</time></trkpt><trkpt lat="45.20360982739779" lon="8.186752050250714"><ele>143.0</ele><time>2026-04-12T09:49:54.999Z</time></trkpt><trkpt lat="45.20352475625641" lon="8.186871210848018"><ele>142.75</ele><time>2026-04-12T09:49:55.999Z</time></trkpt><trkpt lat="45.20344385407966" lon="8.1869895610282"><ele>142.5</ele><time>2026-04-12T09:49:56.999Z</time></trkpt><trkpt lat="45.203352374786114" lon="8.187103135214791"><ele>142.25</ele><time>2026-04-12T09:49:57.999Z</time></trkpt><trkpt lat="45.2032525012788" lon="8.187211457516995"><ele>142.0</ele><time>2026-04-12T09:49:58.999Z</time></trkpt><trkpt lat="45.203138722381354" lon="8.1873174523532"><ele>142.0</ele><time>2026-04-12T09:49:59.999Z</time></trkpt><trkpt lat="45.20300505709415" lon="8.18742940357991"><ele>142.0</ele><time>2026-04-12T09:50:00.999Z</time></trkpt><trkpt lat="45.20285457336145" lon="8.187545708507363"><ele>142.0</ele><time>2026-04-12T09:50:01.999Z</time></trkpt><trkpt lat="45.20270460007408" lon="8.18766325083286"><ele>142.0</ele><time>2026-04-12T09:50:02.999Z</time></trkpt><trkpt lat="45.202566613446066" lon="8.187781676844091"><ele>142.0</ele><time>2026-04-12T09:50:03.999Z</time></trkpt><trkpt lat="45.202434702309105" lon="8.187898276994074"><ele>142.0</ele><time>2026-04-12T09:50:04.999Z</time></trkpt><trkpt lat="45.20231696223675" lon="8.18800628788704"><ele>142.0</ele><time>2026-04-12T09:50:05.999Z</time></trkpt><trkpt lat="45.20220881010556" lon="8.188108934379208"><ele>142.0</ele><time>2026-04-12T09:50:06.999Z</time></trkpt><trkpt lat="45.202114658255574" lon="8.188206288038542"><ele>142.0</ele><time>2026-04-12T09:50:07.999Z</time></trkpt><trkpt lat="45.202022976099805" lon="8.188307462812693"><ele>142.0</ele><time>2026-04-12T09:50:08.999Z</time></trkpt><trkpt lat="45.201933131578556" lon="8.188413425704356"><ele>142.0</ele><time>2026-04-12T09:50:09.999Z</time></trkpt><trkpt lat="45.2018578473939" lon="8.188527340324656"><ele>142.0</ele><time>2026-04-12T09:50:10.999Z</time></trkpt><trkpt lat="45.201801971511316" lon="8.188651724664188"><ele>142.0</ele><time>2026-04-12T09:50:11.999Z</time></trkpt><trkpt lat="45.201754710496864" lon="8.188804842127727"><ele>142.0</ele><time>2026-04-12T09:50:12.999Z</time></trkpt><trkpt lat="45.20170040054591" lon="8.188983720527304"><ele>142.0</ele><time>2026-04-12T09:50:13.999Z</time></trkpt><trkpt lat="45.20163404385669" lon="8.189176600707844"><ele>142.0</ele><time>2026-04-12T09:50:14.999Z</time></trkpt><trkpt lat="45.20156087611924" lon="8.189349902379588"><ele>142.0</ele><time>2026-04-12T09:50:15.999Z</time></trkpt><trkpt lat="45.201477824729714" lon="8.189503792608956"><ele>142.0</ele><time>2026-04-12T09:50:16.999Z</time></trkpt><trkpt lat="45.20139290071736" lon="8.18964212579367"><ele>142.25</ele><time>2026-04-12T09:50:17.999Z</time></trkpt><trkpt lat="45.20129997479402" lon="8.189764406735156"><ele>142.5</ele><time>2026-04-12T09:50:18.999Z</time></trkpt><trkpt lat="45.201204468981885" lon="8.189888005846273"><ele>142.75</ele><time>2026-04-12T09:50:19.999Z</time></trkpt><trkpt lat="45.20111717622142" lon="8.189998645917449"><ele>143.0</ele><time>2026-04-12T09:50:20.999Z</time></trkpt><trkpt lat="45.20105151944905" lon="8.19009140559857"><ele>143.0</ele><time>2026-04-12T09:50:21.999Z</time></trkpt><trkpt lat="45.201000597335664" lon="8.190174892560456"><ele>143.0</ele><time>2026-04-12T09:50:22.999Z</time></trkpt><trkpt lat="45.20097501325111" lon="8.190263502319395"><ele>143.0</ele><time>2026-04-12T09:50:23.999Z</time></trkpt><trkpt lat="45.2009376600897" lon="8.190356742770199"><ele>143.0</ele><time>2026-04-12T09:50:24.999Z</time></trkpt><trkpt lat="45.20078891308423" lon="8.190278089877078"><ele>143.0</ele><time>2026-04-12T09:50:25.999Z</time></trkpt><trkpt lat="45.200677503675706" lon="8.190314116407395"><ele>142.66666666666666</ele><time>2026-04-12T09:50:26.998Z</time></trkpt><trkpt lat="45.20051690360773" lon="8.190401172435108"><ele>142.33333333333334</ele><time>2026-04-12T09:50:27.998Z</time></trkpt><trkpt lat="45.200333556203496" lon="8.190470442055771"><ele>142.0</ele><time>2026-04-12T09:50:28.998Z</time></trkpt><trkpt lat="45.200140931176676" lon="8.190571343025416"><ele>142.0</ele><time>2026-04-12T09:50:29.998Z</time></trkpt><trkpt lat="45.19996618804065" lon="8.190669659834478"><ele>142.0</ele><time>2026-04-12T09:50:30.998Z</time></trkpt><trkpt lat="45.199812648215236" lon="8.190750885507311"><ele>142.0</ele><time>2026-04-12T09:50:31.998Z</time></trkpt><trkpt lat="45.19965740202603" lon="8.190809780433696"><ele>142.66666666666669</ele><time>2026-04-12T09:50:32.998Z</time></trkpt><trkpt lat="45.19949566513852" lon="8.19084106391478"><ele>143.33333333333334</ele><time>2026-04-12T09:50:33.998Z</time></trkpt><trkpt lat="45.19934212097316" lon="8.190849960091716"><ele>144.0</ele><time>2026-04-12T09:50:34.998Z</time></trkpt><trkpt lat="45.19918623722819" lon="8.190834193332796"><ele>144.0</ele><time>2026-04-12T09:50:35.998Z</time></trkpt><trkpt lat="45.19901392738818" lon="8.190810937327258"><ele>144.0</ele><time>2026-04-12T09:50:36.998Z</time></trkpt><trkpt lat="45.19883353969779" lon="8.190785321767983"><ele>144.0</ele><time>2026-04-12T09:50:37.998Z</time></trkpt><trkpt lat="45.19864016574479" lon="8.190750743326142"><ele>144.33333333333334</ele><time>2026-04-12T09:50:38.998Z</time></trkpt><trkpt lat="45.19846098484636" lon="8.190718403044713"><ele>144.66666666666669</ele><time>2026-04-12T09:50:39.998Z</time></trkpt><trkpt lat="45.19830253181416" lon="8.190691790388568"><ele>145.0</ele><time>2026-04-12T09:50:40.998Z</time></trkpt><trkpt lat="45.19817255657088" lon="8.190676481458576"><ele>145.0</ele><time>2026-04-12T09:50:41.998Z</time></trkpt><trkpt lat="45.19805930271336" lon="8.190667314936935"><ele>145.0</ele><time>2026-04-12T09:50:42.998Z</time></trkpt><trkpt lat="45.197964837120765" lon="8.19070142431708"><ele>145.0</ele><time>2026-04-12T09:50:43.998Z</time></trkpt><trkpt lat="45.197876618400606" lon="8.190779979035456"><ele>145.0</ele><time>2026-04-12T09:50:44.998Z</time></trkpt><trkpt lat="45.19780013032229" lon="8.190898545639815"><ele>145.0</ele><time>2026-04-12T09:50:45.998Z</time></trkpt><trkpt lat="45.19770638524454" lon="8.19102482104026"><ele>144.66666666666669</ele><time>2026-04-12T09:50:46.998Z</time></trkpt><trkpt lat="45.19759601462909" lon="8.19111800724432"><ele>144.33333333333334</ele><time>2026-04-12T09:50:47.998Z</time></trkpt><trkpt lat="45.19746298134403" lon="8.19126779717249"><ele>144.0</ele><time>2026-04-12T09:50:48.998Z</time></trkpt><trkpt lat="45.197316971199115" lon="8.191427881376017"><ele>144.5</ele><time>2026-04-12T09:50:49.998Z</time></trkpt><trkpt lat="45.19720252855546" lon="8.19155331883624"><ele>145.0</ele><time>2026-04-12T09:50:50.998Z</time></trkpt><trkpt lat="45.19709286590402" lon="8.19166023954344"><ele>145.5</ele><time>2026-04-12T09:50:51.998Z</time></trkpt><trkpt lat="45.19699595128868" lon="8.19175892390991"><ele>146.0</ele><time>2026-04-12T09:50:52.998Z</time></trkpt><trkpt lat="45.19690423979469" lon="8.191850713498217"><ele>146.0</ele><time>2026-04-12T09:50:53.998Z</time></trkpt><trkpt lat="45.19682065114276" lon="8.191915531154624"><ele>146.0</ele><time>2026-04-12T09:50:54.998Z</time></trkpt><trkpt lat="45.19675690320754" lon="8.191983887793201"><ele>146.0</ele><time>2026-04-12T09:50:55.998Z</time></trkpt><trkpt lat="45.196729552462784" lon="8.192158397554905"><ele>146.0</ele><time>2026-04-12T09:50:57.998Z</time></trkpt><trkpt lat="45.19675891097722" lon="8.19229253689439"><ele>146.0</ele><time>2026-04-12T09:50:58.998Z</time></trkpt><trkpt lat="45.19679868469366" lon="8.19245627957699"><ele>145.66666666666666</ele><time>2026-04-12T09:50:59.998Z</time></trkpt><trkpt lat="45.19682445286788" lon="8.192676327576187"><ele>145.33333333333334</ele><time>2026-04-12T09:51:00.998Z</time></trkpt><trkpt lat="45.19685954862327" lon="8.192902627669124"><ele>145.0</ele><time>2026-04-12T09:51:01.998Z</time></trkpt><trkpt lat="45.19689414160298" lon="8.1930884433949"><ele>145.0</ele><time>2026-04-12T09:51:02.998Z</time></trkpt><trkpt lat="45.196923910981674" lon="8.19325977813082"><ele>145.0</ele><time>2026-04-12T09:51:03.998Z</time></trkpt><trkpt lat="45.19693830293149" lon="8.193419770025296"><ele>145.0</ele><time>2026-04-12T09:51:04.998Z</time></trkpt><trkpt lat="45.1969542249026" lon="8.19355722926214"><ele>145.0</ele><time>2026-04-12T09:51:05.998Z</time></trkpt><trkpt lat="45.19695386743634" lon="8.193665975878686"><ele>145.0</ele><time>2026-04-12T09:51:06.998Z</time></trkpt><trkpt lat="45.19692613545396" lon="8.193748932484189"><ele>145.0</ele><time>2026-04-12T09:51:07.998Z</time></trkpt><trkpt lat="45.19687342440204" lon="8.193799644545823"><ele>145.0</ele><time>2026-04-12T09:51:09Z</time></trkpt><trkpt lat="45.196810835419356" lon="8.193813793016542"><ele>145.0</ele><time>2026-04-12T09:51:10Z</time></trkpt><trkpt lat="45.19672522042321" lon="8.19384932767442"><ele>145.0</ele><time>2026-04-12T09:51:11Z</time></trkpt><trkpt lat="45.19662722265173" lon="8.193887242273352"><ele>145.0</ele><time>2026-04-12T09:51:12Z</time></trkpt><trkpt lat="45.19651493099954" lon="8.193928400159207"><ele>145.0</ele><time>2026-04-12T09:51:13Z</time></trkpt><trkpt lat="45.196391300777975" lon="8.193981986751973"><ele>144.66666666666669</ele><time>2026-04-12T09:51:14Z</time></trkpt><trkpt lat="45.19624256225429" lon="8.194011925942755"><ele>144.33333333333334</ele><time>2026-04-12T09:51:15Z</time></trkpt><trkpt lat="45.19607048918993" lon="8.194068587639244"><ele>144.0</ele><time>2026-04-12T09:51:16Z</time></trkpt><trkpt lat="45.19587294602335" lon="8.194152466213628"><ele>144.0</ele><time>2026-04-12T09:51:17Z</time></trkpt><trkpt lat="45.19565957250561" lon="8.194204870319213"><ele>144.0</ele><time>2026-04-12T09:51:18Z</time></trkpt><trkpt lat="45.19545325840829" lon="8.194271172767065"><ele>144.0</ele><time>2026-04-12T09:51:19Z</time></trkpt><trkpt lat="45.1952660430895" lon="8.194325877331318"><ele>144.0</ele><time>2026-04-12T09:51:20Z</time></trkpt><trkpt lat="45.19509995461717" lon="8.19438012860478"><ele>144.0</ele><time>2026-04-12T09:51:21Z</time></trkpt><trkpt lat="45.19495572297205" lon="8.194428265166767"><ele>144.0</ele><time>2026-04-12T09:51:22Z</time></trkpt><trkpt lat="45.1948404523086" lon="8.194468473037139"><ele>144.0</ele><time>2026-04-12T09:51:23Z</time></trkpt><trkpt lat="45.194751762939134" lon="8.194495640014546"><ele>144.2</ele><time>2026-04-12T09:51:24Z</time></trkpt><trkpt lat="45.19468227530709" lon="8.194521745201914"><ele>144.4</ele><time>2026-04-12T09:51:25Z</time></trkpt><trkpt lat="45.19461449673953" lon="8.194489105084301"><ele>144.6</ele><time>2026-04-12T09:51:27Z</time></trkpt><trkpt lat="45.194556134888465" lon="8.19432135875802"><ele>144.8</ele><time>2026-04-12T09:51:29Z</time></trkpt><trkpt lat="45.19452525903833" lon="8.194195640412559"><ele>145.0</ele><time>2026-04-12T09:51:30Z</time></trkpt><trkpt lat="45.19449251412427" lon="8.19403806364172"><ele>145.33333333333334</ele><time>2026-04-12T09:51:31Z</time></trkpt><trkpt lat="45.1944716562957" lon="8.193844221603158"><ele>145.66666666666666</ele><time>2026-04-12T09:51:32Z</time></trkpt><trkpt lat="45.19443028970994" lon="8.193647979046936"><ele>146.0</ele><time>2026-04-12T09:51:33Z</time></trkpt><trkpt lat="45.19438484268706" lon="8.193408347803985"><ele>146.0</ele><time>2026-04-12T09:51:34Z</time></trkpt><trkpt lat="45.19435411875074" lon="8.193210105178322"><ele>146.0</ele><time>2026-04-12T09:51:35Z</time></trkpt><trkpt lat="45.194331237855245" lon="8.19304351085867"><ele>146.0</ele><time>2026-04-12T09:51:36Z</time></trkpt><trkpt lat="45.194312741244225" lon="8.192894546429"><ele>146.0</ele><time>2026-04-12T09:51:37Z</time></trkpt><trkpt lat="45.194290384420434" lon="8.192755194895684"><ele>146.0</ele><time>2026-04-12T09:51:38Z</time></trkpt><trkpt lat="45.19427398887596" lon="8.192655088721372"><ele>146.0</ele><time>2026-04-12T09:51:39Z</time></trkpt><trkpt lat="45.19424852556862" lon="8.192512349295834"><ele>146.0</ele><time>2026-04-12T09:51:41Z</time></trkpt><trkpt lat="45.19421871147863" lon="8.1924083349379"><ele>146.0</ele><time>2026-04-12T09:51:42Z</time></trkpt><trkpt lat="45.194190733972285" lon="8.192274172037454"><ele>146.0</ele><time>2026-04-12T09:51:43Z</time></trkpt><trkpt lat="45.19416442078267" lon="8.192117975189586"><ele>145.83333333333331</ele><time>2026-04-12T09:51:44Z</time></trkpt><trkpt lat="45.19414358455604" lon="8.191977669326468"><ele>145.66666666666666</ele><time>2026-04-12T09:51:45Z</time></trkpt><trkpt lat="45.19412275199703" lon="8.191850935294392"><ele>145.5</ele><time>2026-04-12T09:51:46Z</time></trkpt><trkpt lat="45.194101064411626" lon="8.191740575329655"><ele>145.33333333333334</ele><time>2026-04-12T09:51:47Z</time></trkpt><trkpt lat="45.19407810245019" lon="8.191631389594027"><ele>145.16666666666669</ele><time>2026-04-12T09:51:47.999Z</time></trkpt><trkpt lat="45.194049314307954" lon="8.191513105433526"><ele>145.0</ele><time>2026-04-12T09:51:48.999Z</time></trkpt><trkpt lat="45.194017488405066" lon="8.191376684265887"><ele>145.0</ele><time>2026-04-12T09:51:49.999Z</time></trkpt><trkpt lat="45.193989484612956" lon="8.191251641218683"><ele>145.0</ele><time>2026-04-12T09:51:50.999Z</time></trkpt><trkpt lat="45.19396830370191" lon="8.191135159422025"><ele>145.0</ele><time>2026-04-12T09:51:51.999Z</time></trkpt><trkpt lat="45.193953613349755" lon="8.191021505212296"><ele>145.0</ele><time>2026-04-12T09:51:52.999Z</time></trkpt><trkpt lat="45.193938621878544" lon="8.190923514098987"><ele>145.0</ele><time>2026-04-12T09:51:53.999Z</time></trkpt><trkpt lat="45.19392841075916" lon="8.19083261116404"><ele>145.0</ele><time>2026-04-12T09:51:54.999Z</time></trkpt><trkpt lat="45.19391716328599" lon="8.19072778391696"><ele>145.0</ele><time>2026-04-12T09:51:56.999Z</time></trkpt><trkpt lat="45.1938762597855" lon="8.190889377662486"><ele>145.0</ele><time>2026-04-12T09:52:02.999Z</time></trkpt><trkpt lat="45.193864727822735" lon="8.191063522520986"><ele>145.0</ele><time>2026-04-12T09:52:04.999Z</time></trkpt><trkpt lat="45.19378962297664" lon="8.191250200220749"><ele>145.0</ele><time>2026-04-12T09:52:05.999Z</time></trkpt><trkpt lat="45.19378993170196" lon="8.191447924233131"><ele>145.0</ele><time>2026-04-12T09:52:06.999Z</time></trkpt><trkpt lat="45.193817328012045" lon="8.191688132590613"><ele>145.0</ele><time>2026-04-12T09:52:07.999Z</time></trkpt><trkpt lat="45.19385634351966" lon="8.191901031639837"><ele>145.0</ele><time>2026-04-12T09:52:08.999Z</time></trkpt><trkpt lat="45.19389490914881" lon="8.192097726603249"><ele>145.0</ele><time>2026-04-12T09:52:09.999Z</time></trkpt><trkpt lat="45.193929593265146" lon="8.192274283926402"><ele>145.0</ele><time>2026-04-12T09:52:10.999Z</time></trkpt><trkpt lat="45.19396282656185" lon="8.192437139915006"><ele>145.0</ele><time>2026-04-12T09:52:11.999Z</time></trkpt><trkpt lat="45.19399184696894" lon="8.1925775699013"><ele>145.0</ele><time>2026-04-12T09:52:12.999Z</time></trkpt><trkpt lat="45.194016484668936" lon="8.192696792082494"><ele>145.0</ele><time>2026-04-12T09:52:13.999Z</time></trkpt><trkpt lat="45.1940348849595" lon="8.192792174086215"><ele>145.0</ele><time>2026-04-12T09:52:14.999Z</time></trkpt><trkpt lat="45.19425883805122" lon="8.192793449405027"><ele>145.0</ele><time>2026-04-12T09:52:15.999Z</time></trkpt><trkpt lat="45.19418701823625" lon="8.192863385066387"><ele>145.0</ele><time>2026-04-12T09:52:17.999Z</time></trkpt><trkpt lat="45.194062103623885" lon="8.192854493132597"><ele>145.0</ele><time>2026-04-12T09:52:19.999Z</time></trkpt><trkpt lat="45.193876555778736" lon="8.192797558545813"><ele>145.0</ele><time>2026-04-12T09:52:21.999Z</time></trkpt><trkpt lat="45.193739147225784" lon="8.19275427568628"><ele>145.0</ele><time>2026-04-12T09:52:22.999Z</time></trkpt><trkpt lat="45.19360066713307" lon="8.192683334881576"><ele>145.0</ele><time>2026-04-12T09:52:23.999Z</time></trkpt><trkpt lat="45.19346202644834" lon="8.19257838331275"><ele>145.0</ele><time>2026-04-12T09:52:24.999Z</time></trkpt><trkpt lat="45.19334753294412" lon="8.192481471469465"><ele>145.0</ele><time>2026-04-12T09:52:25.999Z</time></trkpt><trkpt lat="45.19326650257892" lon="8.192418481871353"><ele>145.0</ele><time>2026-04-12T09:52:26.999Z</time></trkpt><trkpt lat="45.19321314872716" lon="8.192369539615669"><ele>145.0</ele><time>2026-04-12T09:52:27.999Z</time></trkpt><trkpt lat="45.19313914286521" lon="8.192310026257069"><ele>145.0</ele><time>2026-04-12T09:52:30.999Z</time></trkpt><trkpt lat="45.193206266298" lon="8.19245347176167"><ele>145.0</ele><time>2026-04-12T09:52:35.998Z</time></trkpt><trkpt lat="45.193268233291576" lon="8.192179151428261"><ele>145.0</ele><time>2026-04-12T09:52:36.998Z</time></trkpt><trkpt lat="45.193469592140524" lon="8.192429881915146"><ele>145.0</ele><time>2026-04-12T09:52:37.998Z</time></trkpt><trkpt lat="45.19357947220144" lon="8.192492615111124"><ele>145.0</ele><time>2026-04-12T09:52:38.998Z</time></trkpt><trkpt lat="45.193713776732025" lon="8.192625117438007"><ele>145.0</ele><time>2026-04-12T09:52:39.998Z</time></trkpt><trkpt lat="45.1938269390723" lon="8.192889985516574"><ele>145.0</ele><time>2026-04-12T09:52:41.998Z</time></trkpt><trkpt lat="45.19385858000378" lon="8.192975897926072"><ele>145.0</ele><time>2026-04-12T09:52:42.998Z</time></trkpt><trkpt lat="45.19389737623079" lon="8.193071828420916"><ele>145.0</ele><time>2026-04-12T09:52:44.998Z</time></trkpt><trkpt lat="45.19376686741479" lon="8.193237534796225"><ele>144.75</ele><time>2026-04-12T09:52:45.998Z</time></trkpt><trkpt lat="45.19367630825889" lon="8.193327813236785"><ele>144.5</ele><time>2026-04-12T09:52:46.998Z</time></trkpt><trkpt lat="45.193570021585124" lon="8.193414977195639"><ele>144.25</ele><time>2026-04-12T09:52:47.998Z</time></trkpt><trkpt lat="45.19344896875653" lon="8.193539267106406"><ele>144.0</ele><time>2026-04-12T09:52:48.998Z</time></trkpt><trkpt lat="45.193318255655356" lon="8.193672063456004"><ele>144.0</ele><time>2026-04-12T09:52:49.998Z</time></trkpt><trkpt lat="45.19318717607317" lon="8.193804458216404"><ele>144.0</ele><time>2026-04-12T09:52:50.998Z</time></trkpt><trkpt lat="45.19304699493746" lon="8.193954238372585"><ele>144.0</ele><time>2026-04-12T09:52:51.998Z</time></trkpt><trkpt lat="45.19290394712775" lon="8.194102705593613"><ele>143.33333333333334</ele><time>2026-04-12T09:52:52.998Z</time></trkpt><trkpt lat="45.19276450443119" lon="8.194250427607125"><ele>142.66666666666669</ele><time>2026-04-12T09:52:53.998Z</time></trkpt><trkpt lat="45.19264314355162" lon="8.19438765241262"><ele>142.0</ele><time>2026-04-12T09:52:54.998Z</time></trkpt><trkpt lat="45.19253070536465" lon="8.194503133077394"><ele>142.0</ele><time>2026-04-12T09:52:55.998Z</time></trkpt><trkpt lat="45.19242936639221" lon="8.194617694303695"><ele>142.0</ele><time>2026-04-12T09:52:56.998Z</time></trkpt><trkpt lat="45.192337115082445" lon="8.194758469624512"><ele>142.0</ele><time>2026-04-12T09:52:57.998Z</time></trkpt><trkpt lat="45.192253332407354" lon="8.194817953857598"><ele>142.0</ele><time>2026-04-12T09:52:58.998Z</time></trkpt><trkpt lat="45.19215935083644" lon="8.194867989538956"><ele>142.66666666666669</ele><time>2026-04-12T09:52:59.998Z</time></trkpt><trkpt lat="45.19203314407905" lon="8.194860023516577"><ele>143.33333333333334</ele><time>2026-04-12T09:53:00.998Z</time></trkpt><trkpt lat="45.19188083114561" lon="8.194895419146222"><ele>144.0</ele><time>2026-04-12T09:53:01.998Z</time></trkpt><trkpt lat="45.191708490499444" lon="8.194909621403701"><ele>144.0</ele><time>2026-04-12T09:53:02.998Z</time></trkpt><trkpt lat="45.191516614650645" lon="8.194922877345562"><ele>144.0</ele><time>2026-04-12T09:53:03.998Z</time></trkpt><trkpt lat="45.19133499032937" lon="8.194953732232172"><ele>144.0</ele><time>2026-04-12T09:53:04.998Z</time></trkpt><trkpt lat="45.191186963508585" lon="8.194986024767795"><ele>143.6</ele><time>2026-04-12T09:53:05.998Z</time></trkpt><trkpt lat="45.19105501717829" lon="8.195021135169975"><ele>143.2</ele><time>2026-04-12T09:53:06.998Z</time></trkpt><trkpt lat="45.190943574288134" lon="8.195040557019384"><ele>142.79999999999998</ele><time>2026-04-12T09:53:07.998Z</time></trkpt><trkpt lat="45.190839979596866" lon="8.195050366999205"><ele>142.4</ele><time>2026-04-12T09:53:08.998Z</time></trkpt><trkpt lat="45.19076998597101" lon="8.195053498026002"><ele>142.0</ele><time>2026-04-12T09:53:09.998Z</time></trkpt><trkpt lat="45.190700999102155" lon="8.195075749108115"><ele>142.0</ele><time>2026-04-12T09:53:11.998Z</time></trkpt><trkpt lat="45.190677434502504" lon="8.195242018610388"><ele>142.0</ele><time>2026-04-12T09:53:13.998Z</time></trkpt><trkpt lat="45.190660839477765" lon="8.195347857418879"><ele>142.0</ele><time>2026-04-12T09:53:15Z</time></trkpt><trkpt lat="45.19065143596796" lon="8.195515748083489"><ele>142.0</ele><time>2026-04-12T09:53:16Z</time></trkpt><trkpt lat="45.19064097127718" lon="8.195734764440871"><ele>141.66666666666669</ele><time>2026-04-12T09:53:17Z</time></trkpt><trkpt lat="45.19062614970142" lon="8.195955942760163"><ele>141.33333333333334</ele><time>2026-04-12T09:53:18Z</time></trkpt><trkpt lat="45.1906072866519" lon="8.19620797561812"><ele>141.0</ele><time>2026-04-12T09:53:19Z</time></trkpt><trkpt lat="45.19058437512429" lon="8.19647727742938"><ele>141.66666666666666</ele><time>2026-04-12T09:53:20Z</time></trkpt><trkpt lat="45.19056525278517" lon="8.196734861360175"><ele>142.33333333333331</ele><time>2026-04-12T09:53:21Z</time></trkpt><trkpt lat="45.19055241102943" lon="8.19696099126115"><ele>143.0</ele><time>2026-04-12T09:53:22Z</time></trkpt><trkpt lat="45.19053896905285" lon="8.197149836247693"><ele>142.75</ele><time>2026-04-12T09:53:23Z</time></trkpt><trkpt lat="45.190524652988145" lon="8.197339961508813"><ele>142.5</ele><time>2026-04-12T09:53:24Z</time></trkpt><trkpt lat="45.190509634639795" lon="8.197517807668438"><ele>142.25</ele><time>2026-04-12T09:53:25Z</time></trkpt><trkpt lat="45.19049706875462" lon="8.197673425022959"><ele>142.0</ele><time>2026-04-12T09:53:26Z</time></trkpt><trkpt lat="45.19048553063761" lon="8.19778549534899"><ele>142.0</ele><time>2026-04-12T09:53:27Z</time></trkpt><trkpt lat="45.19046853196224" lon="8.197881627072995"><ele>142.0</ele><time>2026-04-12T09:53:28Z</time></trkpt><trkpt lat="45.1904021441626" lon="8.197921012158142"><ele>142.0</ele><time>2026-04-12T09:53:29Z</time></trkpt><trkpt lat="45.19033656686313" lon="8.197970163699672"><ele>142.0</ele><time>2026-04-12T09:53:30Z</time></trkpt><trkpt lat="45.19028743972453" lon="8.198044675543652"><ele>142.0</ele><time>2026-04-12T09:53:31Z</time></trkpt><trkpt lat="45.19022998657191" lon="8.198134199368639"><ele>142.0</ele><time>2026-04-12T09:53:32Z</time></trkpt><trkpt lat="45.190155752653446" lon="8.198240735846015"><ele>141.5</ele><time>2026-04-12T09:53:33Z</time></trkpt><trkpt lat="45.19010993246267" lon="8.198392190112257"><ele>141.0</ele><time>2026-04-12T09:53:34Z</time></trkpt><trkpt lat="45.19002411838463" lon="8.198527526480378"><ele>140.5</ele><time>2026-04-12T09:53:35Z</time></trkpt><trkpt lat="45.189960346294264" lon="8.198644636949027"><ele>140.0</ele><time>2026-04-12T09:53:36Z</time></trkpt><trkpt lat="45.18989360146451" lon="8.19878212891605"><ele>140.2</ele><time>2026-04-12T09:53:37Z</time></trkpt><trkpt lat="45.18979905413339" lon="8.198895657207554"><ele>140.4</ele><time>2026-04-12T09:53:38Z</time></trkpt><trkpt lat="45.189727586162135" lon="8.19899428612168"><ele>140.6</ele><time>2026-04-12T09:53:39Z</time></trkpt><trkpt lat="45.189661896628095" lon="8.199071331569952"><ele>140.8</ele><time>2026-04-12T09:53:40Z</time></trkpt><trkpt lat="45.18960093211636" lon="8.199142086724297"><ele>141.0</ele><time>2026-04-12T09:53:41Z</time></trkpt><trkpt lat="45.18954371897029" lon="8.199183600722261"><ele>141.0</ele><time>2026-04-12T09:53:43Z</time></trkpt><trkpt lat="45.18948130884571" lon="8.19919610813817"><ele>141.0</ele><time>2026-04-12T09:53:45Z</time></trkpt><trkpt lat="45.18937455790594" lon="8.199199032132176"><ele>141.0</ele><time>2026-04-12T09:53:47Z</time></trkpt><trkpt lat="45.18928962929014" lon="8.199202886843773"><ele>141.0</ele><time>2026-04-12T09:54:36.998Z</time></trkpt><trkpt lat="45.18920812677806" lon="8.199198750694265"><ele>141.0</ele><time>2026-04-12T09:54:37.998Z</time></trkpt><trkpt lat="45.18912389111098" lon="8.199198146021788"><ele>141.0</ele><time>2026-04-12T09:54:38.998Z</time></trkpt><trkpt lat="45.18904946291166" lon="8.199195018188979"><ele>140.8</ele><time>2026-04-12T09:54:39.998Z</time></trkpt><trkpt lat="45.188942261827265" lon="8.199196872760941"><ele>140.6</ele><time>2026-04-12T09:54:41.998Z</time></trkpt><trkpt lat="45.188831524373384" lon="8.199188463295792"><ele>140.4</ele><time>2026-04-12T09:54:43.998Z</time></trkpt><trkpt lat="45.18876695240008" lon="8.199186713469926"><ele>140.2</ele><time>2026-04-12T09:54:45.998Z</time></trkpt><trkpt lat="45.18875275571229" lon="8.199323526021852"><ele>140.0</ele><time>2026-04-12T09:54:46.998Z</time></trkpt><trkpt lat="45.18874818851077" lon="8.199437532142998"><ele>140.0</ele><time>2026-04-12T09:54:48.998Z</time></trkpt><trkpt lat="45.188769178449384" lon="8.199557697798687"><ele>140.0</ele><time>2026-04-12T09:54:51.998Z</time></trkpt><trkpt lat="45.1887732298097" lon="8.199647542916901"><ele>140.0</ele><time>2026-04-12T09:54:52.998Z</time></trkpt><trkpt lat="45.18877415981864" lon="8.199764113372275"><ele>140.0</ele><time>2026-04-12T09:54:53.998Z</time></trkpt><trkpt lat="45.18876486848997" lon="8.199885199133575"><ele>140.0</ele><time>2026-04-12T09:54:54.998Z</time></trkpt><trkpt lat="45.188764653428755" lon="8.200031981491833"><ele>140.0</ele><time>2026-04-12T09:54:55.998Z</time></trkpt><trkpt lat="45.18874116821674" lon="8.200188767705058"><ele>140.25</ele><time>2026-04-12T09:54:56.998Z</time></trkpt><trkpt lat="45.18873428967459" lon="8.200353723596447"><ele>140.5</ele><time>2026-04-12T09:54:57.998Z</time></trkpt><trkpt lat="45.18871539057844" lon="8.20050599165493"><ele>140.75</ele><time>2026-04-12T09:54:58.998Z</time></trkpt><trkpt lat="45.18869439241207" lon="8.200662889037636"><ele>141.0</ele><time>2026-04-12T09:54:59.998Z</time></trkpt><trkpt lat="45.18865126925675" lon="8.200823801296217"><ele>141.0</ele><time>2026-04-12T09:55:00.998Z</time></trkpt><trkpt lat="45.18860959065602" lon="8.201005517433591"><ele>141.0</ele><time>2026-04-12T09:55:01.998Z</time></trkpt><trkpt lat="45.188571160849065" lon="8.201212400537349"><ele>141.0</ele><time>2026-04-12T09:55:02.998Z</time></trkpt><trkpt lat="45.18852002946009" lon="8.201401829687"><ele>141.0</ele><time>2026-04-12T09:55:03.998Z</time></trkpt><trkpt lat="45.188453316281844" lon="8.201559466964165"><ele>140.8</ele><time>2026-04-12T09:55:04.998Z</time></trkpt><trkpt lat="45.18841408330355" lon="8.201704947520552"><ele>140.6</ele><time>2026-04-12T09:55:05.998Z</time></trkpt><trkpt lat="45.18839655409964" lon="8.201848900441627"><ele>140.4</ele><time>2026-04-12T09:55:06.998Z</time></trkpt><trkpt lat="45.18836398290149" lon="8.201988331253192"><ele>140.2</ele><time>2026-04-12T09:55:07.998Z</time></trkpt><trkpt lat="45.18835881269943" lon="8.202105426895717"><ele>140.0</ele><time>2026-04-12T09:55:08.998Z</time></trkpt><trkpt lat="45.18836339957239" lon="8.20223792944161"><ele>139.75</ele><time>2026-04-12T09:55:09.998Z</time></trkpt><trkpt lat="45.18835073726733" lon="8.202401180233789"><ele>139.5</ele><time>2026-04-12T09:55:10.998Z</time></trkpt><trkpt lat="45.18837668511958" lon="8.202587499269654"><ele>139.25</ele><time>2026-04-12T09:55:11.998Z</time></trkpt><trkpt lat="45.18837553492635" lon="8.202766665754902"><ele>139.0</ele><time>2026-04-12T09:55:12.998Z</time></trkpt><trkpt lat="45.18837113996117" lon="8.20293031792829"><ele>139.0</ele><time>2026-04-12T09:55:13.998Z</time></trkpt><trkpt lat="45.18835067028194" lon="8.203086289484835"><ele>139.0</ele><time>2026-04-12T09:55:14.998Z</time></trkpt><trkpt lat="45.188316780166296" lon="8.203252021541141"><ele>139.0</ele><time>2026-04-12T09:55:15.998Z</time></trkpt><trkpt lat="45.188266215830375" lon="8.203408983550194"><ele>139.0</ele><time>2026-04-12T09:55:16.998Z</time></trkpt><trkpt lat="45.188199657712666" lon="8.203569746288924"><ele>139.0</ele><time>2026-04-12T09:55:17.998Z</time></trkpt><trkpt lat="45.188114788052644" lon="8.203745041375084"><ele>139.0</ele><time>2026-04-12T09:55:18.997Z</time></trkpt><trkpt lat="45.18805173755275" lon="8.20391491011066"><ele>139.0</ele><time>2026-04-12T09:55:19.997Z</time></trkpt><trkpt lat="45.18798458850498" lon="8.204059410408304"><ele>139.0</ele><time>2026-04-12T09:55:21Z</time></trkpt><trkpt lat="45.187936540477025" lon="8.20421903657179"><ele>139.0</ele><time>2026-04-12T09:55:22Z</time></trkpt><trkpt lat="45.18790195146972" lon="8.204404768295827"><ele>139.0</ele><time>2026-04-12T09:55:23Z</time></trkpt><trkpt lat="45.18787127318628" lon="8.204606345293785"><ele>139.0</ele><time>2026-04-12T09:55:24Z</time></trkpt><trkpt lat="45.187836675054854" lon="8.204792230149494"><ele>139.0</ele><time>2026-04-12T09:55:25Z</time></trkpt><trkpt lat="45.18778583945889" lon="8.204948251116408"><ele>138.8</ele><time>2026-04-12T09:55:26Z</time></trkpt><trkpt lat="45.18775893093062" lon="8.205091782514096"><ele>138.60000000000002</ele><time>2026-04-12T09:55:27Z</time></trkpt><trkpt lat="45.187716868775304" lon="8.205216319591736"><ele>138.4</ele><time>2026-04-12T09:55:28Z</time></trkpt><trkpt lat="45.18766936616655" lon="8.205318183995725"><ele>138.20000000000002</ele><time>2026-04-12T09:55:29Z</time></trkpt><trkpt lat="45.18760289830873" lon="8.205407103976091"><ele>138.0</ele><time>2026-04-12T09:55:30Z</time></trkpt><trkpt lat="45.1875226268618" lon="8.205490354577227"><ele>138.0</ele><time>2026-04-12T09:55:31Z</time></trkpt><trkpt lat="45.18744018540843" lon="8.20557691766822"><ele>138.0</ele><time>2026-04-12T09:55:32Z</time></trkpt><trkpt lat="45.18737586904642" lon="8.205681415258576"><ele>138.0</ele><time>2026-04-12T09:55:33Z</time></trkpt><trkpt lat="45.18733286340883" lon="8.205804256021816"><ele>138.0</ele><time>2026-04-12T09:55:34Z</time></trkpt><trkpt lat="45.18729503891904" lon="8.205965262257859"><ele>138.0</ele><time>2026-04-12T09:55:35Z</time></trkpt><trkpt lat="45.18725773981751" lon="8.206154492522302"><ele>138.25</ele><time>2026-04-12T09:55:36Z</time></trkpt><trkpt lat="45.187223032882486" lon="8.206370150809702"><ele>138.5</ele><time>2026-04-12T09:55:37Z</time></trkpt><trkpt lat="45.18719648579607" lon="8.2065547478474"><ele>138.75</ele><time>2026-04-12T09:55:38Z</time></trkpt><trkpt lat="45.187167325464905" lon="8.206735582967308"><ele>139.0</ele><time>2026-04-12T09:55:39Z</time></trkpt><trkpt lat="45.187119830145086" lon="8.206900418023592"><ele>139.25</ele><time>2026-04-12T09:55:40Z</time></trkpt><trkpt lat="45.18707903631994" lon="8.207065664346047"><ele>139.5</ele><time>2026-04-12T09:55:41Z</time></trkpt><trkpt lat="45.18702484543911" lon="8.207182359175352"><ele>139.75</ele><time>2026-04-12T09:55:42Z</time></trkpt><trkpt lat="45.18695338811278" lon="8.20730434415641"><ele>140.0</ele><time>2026-04-12T09:55:43Z</time></trkpt><trkpt lat="45.186878331151476" lon="8.207442286081712"><ele>140.0</ele><time>2026-04-12T09:55:44Z</time></trkpt><trkpt lat="45.186803326466546" lon="8.207610724346551"><ele>140.0</ele><time>2026-04-12T09:55:45Z</time></trkpt><trkpt lat="45.186732968576386" lon="8.207805746680858"><ele>140.0</ele><time>2026-04-12T09:55:46Z</time></trkpt><trkpt lat="45.1866887164813" lon="8.207999840757964"><ele>140.0</ele><time>2026-04-12T09:55:47Z</time></trkpt><trkpt lat="45.18661041548134" lon="8.208140420137177"><ele>140.0</ele><time>2026-04-12T09:55:48Z</time></trkpt><trkpt lat="45.18652304872021" lon="8.208277057644601"><ele>140.0</ele><time>2026-04-12T09:55:49Z</time></trkpt><trkpt lat="45.18643008114346" lon="8.208441523963577"><ele>140.0</ele><time>2026-04-12T09:55:50Z</time></trkpt><trkpt lat="45.186309996782086" lon="8.208616636517082"><ele>139.33333333333331</ele><time>2026-04-12T09:55:51Z</time></trkpt><trkpt lat="45.186186240991724" lon="8.20880196206059"><ele>138.66666666666666</ele><time>2026-04-12T09:55:52Z</time></trkpt><trkpt lat="45.18607268535743" lon="8.208974943926881"><ele>138.0</ele><time>2026-04-12T09:55:53Z</time></trkpt><trkpt lat="45.18597047001846" lon="8.209123573709682"><ele>138.0</ele><time>2026-04-12T09:55:53.999Z</time></trkpt><trkpt lat="45.18587869030767" lon="8.20927640819334"><ele>138.0</ele><time>2026-04-12T09:55:54.999Z</time></trkpt><trkpt lat="45.18578437670284" lon="8.209453584246633"><ele>138.0</ele><time>2026-04-12T09:55:55.999Z</time></trkpt><trkpt lat="45.18570077129963" lon="8.209649818257295"><ele>138.20000000000002</ele><time>2026-04-12T09:55:56.999Z</time></trkpt><trkpt lat="45.18563077322369" lon="8.209824210396075"><ele>138.4</ele><time>2026-04-12T09:55:57.999Z</time></trkpt><trkpt lat="45.18557234634394" lon="8.20996019272968"><ele>138.60000000000002</ele><time>2026-04-12T09:55:58.999Z</time></trkpt><trkpt lat="45.18552388959115" lon="8.210079395194272"><ele>138.8</ele><time>2026-04-12T09:55:59.999Z</time></trkpt><trkpt lat="45.18549510866931" lon="8.210209101342185"><ele>139.0</ele><time>2026-04-12T09:56:00.999Z</time></trkpt><trkpt lat="45.18549062631911" lon="8.210354716965327"><ele>139.0</ele><time>2026-04-12T09:56:01.999Z</time></trkpt><trkpt lat="45.185499334667114" lon="8.21052110561099"><ele>139.0</ele><time>2026-04-12T09:56:02.999Z</time></trkpt><trkpt lat="45.185501697101635" lon="8.210707414054276"><ele>139.0</ele><time>2026-04-12T09:56:03.999Z</time></trkpt><trkpt lat="45.18546874447616" lon="8.21087265434464"><ele>139.0</ele><time>2026-04-12T09:56:04.999Z</time></trkpt><trkpt lat="45.185428980235024" lon="8.211022385787782"><ele>139.0</ele><time>2026-04-12T09:56:05.999Z</time></trkpt><trkpt lat="45.18538068380376" lon="8.211190931654286"><ele>139.0</ele><time>2026-04-12T09:56:06.999Z</time></trkpt><trkpt lat="45.18533535107371" lon="8.211382202835944"><ele>139.0</ele><time>2026-04-12T09:56:07.999Z</time></trkpt><trkpt lat="45.18528127545552" lon="8.211576142316481"><ele>139.0</ele><time>2026-04-12T09:56:08.999Z</time></trkpt><trkpt lat="45.18521831562315" lon="8.211767298137701"><ele>139.0</ele><time>2026-04-12T09:56:09.999Z</time></trkpt><trkpt lat="45.185145273895614" lon="8.211915781810015"><ele>139.0</ele><time>2026-04-12T09:56:10.999Z</time></trkpt><trkpt lat="45.18510150864205" lon="8.212062055407753"><ele>139.0</ele><time>2026-04-12T09:56:11.999Z</time></trkpt><trkpt lat="45.185031801087455" lon="8.212199699571231"><ele>139.0</ele><time>2026-04-12T09:56:12.999Z</time></trkpt><trkpt lat="45.185014977001295" lon="8.212314805125063"><ele>139.0</ele><time>2026-04-12T09:56:13.999Z</time></trkpt><trkpt lat="45.18499938694137" lon="8.212468531906723"><ele>139.0</ele><time>2026-04-12T09:56:14.999Z</time></trkpt><trkpt lat="45.184982825352044" lon="8.212633573120856"><ele>139.0</ele><time>2026-04-12T09:56:15.999Z</time></trkpt><trkpt lat="45.184923513610904" lon="8.212792652191457"><ele>139.0</ele><time>2026-04-12T09:56:16.999Z</time></trkpt><trkpt lat="45.18485485147977" lon="8.212972039239725"><ele>139.0</ele><time>2026-04-12T09:56:17.999Z</time></trkpt><trkpt lat="45.18479059426944" lon="8.213185183240757"><ele>138.5</ele><time>2026-04-12T09:56:18.999Z</time></trkpt><trkpt lat="45.18471894399823" lon="8.213370075524734"><ele>138.0</ele><time>2026-04-12T09:56:19.999Z</time></trkpt><trkpt lat="45.184664846774645" lon="8.21355192912764"><ele>137.5</ele><time>2026-04-12T09:56:20.999Z</time></trkpt><trkpt lat="45.184620076665134" lon="8.213736013571253"><ele>137.0</ele><time>2026-04-12T09:56:21.999Z</time></trkpt><trkpt lat="45.18458383173876" lon="8.213911661100424"><ele>137.0</ele><time>2026-04-12T09:56:22.999Z</time></trkpt><trkpt lat="45.184559564949495" lon="8.21409629052179"><ele>137.0</ele><time>2026-04-12T09:56:23.999Z</time></trkpt><trkpt lat="45.18454007055799" lon="8.214306418325384"><ele>137.0</ele><time>2026-04-12T09:56:24.999Z</time></trkpt><trkpt lat="45.18453171244724" lon="8.21452532692027"><ele>137.0</ele><time>2026-04-12T09:56:25.999Z</time></trkpt><trkpt lat="45.184483553207876" lon="8.21474067268647"><ele>137.0</ele><time>2026-04-12T09:56:26.999Z</time></trkpt><trkpt lat="45.184433144979586" lon="8.214968943648314"><ele>137.0</ele><time>2026-04-12T09:56:27.999Z</time></trkpt><trkpt lat="45.18438701298481" lon="8.215231352397167"><ele>137.0</ele><time>2026-04-12T09:56:28.999Z</time></trkpt><trkpt lat="45.18432403627453" lon="8.215428474017955"><ele>137.0</ele><time>2026-04-12T09:56:29.999Z</time></trkpt><trkpt lat="45.18428678031894" lon="8.21560189724454"><ele>137.0</ele><time>2026-04-12T09:56:30.999Z</time></trkpt><trkpt lat="45.18425432892299" lon="8.215766286380989"><ele>137.0</ele><time>2026-04-12T09:56:31.999Z</time></trkpt><trkpt lat="45.18423358144849" lon="8.215948449243397"><ele>137.0</ele><time>2026-04-12T09:56:32.999Z</time></trkpt><trkpt lat="45.18423017441187" lon="8.216131935566096"><ele>137.0</ele><time>2026-04-12T09:56:33.999Z</time></trkpt><trkpt lat="45.184240633663045" lon="8.216318449470435"><ele>137.0</ele><time>2026-04-12T09:56:34.999Z</time></trkpt><trkpt lat="45.184261193378646" lon="8.216517393434176"><ele>137.0</ele><time>2026-04-12T09:56:35.999Z</time></trkpt><trkpt lat="45.18430533362659" lon="8.216716087755522"><ele>137.0</ele><time>2026-04-12T09:56:36.999Z</time></trkpt><trkpt lat="45.18432061355544" lon="8.216933366396566"><ele>137.0</ele><time>2026-04-12T09:56:37.999Z</time></trkpt><trkpt lat="45.18436466636765" lon="8.21714017278372"><ele>137.0</ele><time>2026-04-12T09:56:38.998Z</time></trkpt><trkpt lat="45.18437633188673" lon="8.217332233232314"><ele>137.0</ele><time>2026-04-12T09:56:39.998Z</time></trkpt><trkpt lat="45.18439791620186" lon="8.217497530610036"><ele>137.0</ele><time>2026-04-12T09:56:40.998Z</time></trkpt><trkpt lat="45.18443164414244" lon="8.217656137979734"><ele>137.0</ele><time>2026-04-12T09:56:41.998Z</time></trkpt><trkpt lat="45.18444933361533" lon="8.217837857022932"><ele>137.0</ele><time>2026-04-12T09:56:42.998Z</time></trkpt><trkpt lat="45.184455275019346" lon="8.21802713766257"><ele>137.0</ele><time>2026-04-12T09:56:43.998Z</time></trkpt><trkpt lat="45.184478921052296" lon="8.218208618762784"><ele>137.0</ele><time>2026-04-12T09:56:44.998Z</time></trkpt><trkpt lat="45.18447910069336" lon="8.218399182108163"><ele>137.0</ele><time>2026-04-12T09:56:45.998Z</time></trkpt><trkpt lat="45.18448323257278" lon="8.218607438600108"><ele>137.0</ele><time>2026-04-12T09:56:46.998Z</time></trkpt><trkpt lat="45.184476892422644" lon="8.218818608824261"><ele>137.0</ele><time>2026-04-12T09:56:47.998Z</time></trkpt><trkpt lat="45.184478627822045" lon="8.218999133988191"><ele>137.0</ele><time>2026-04-12T09:56:48.998Z</time></trkpt><trkpt lat="45.18448545762867" lon="8.219158508757891"><ele>137.16666666666666</ele><time>2026-04-12T09:56:49.998Z</time></trkpt><trkpt lat="45.1845015169554" lon="8.219304240947904"><ele>137.33333333333331</ele><time>2026-04-12T09:56:50.998Z</time></trkpt><trkpt lat="45.184510636176114" lon="8.219444088592631"><ele>137.5</ele><time>2026-04-12T09:56:51.998Z</time></trkpt><trkpt lat="45.18453332722849" lon="8.219555294067158"><ele>137.66666666666666</ele><time>2026-04-12T09:56:52.998Z</time></trkpt><trkpt lat="45.18455325966628" lon="8.219664306828212"><ele>137.83333333333334</ele><time>2026-04-12T09:56:53.998Z</time></trkpt><trkpt lat="45.184572370107325" lon="8.219759323502588"><ele>138.0</ele><time>2026-04-12T09:56:54.998Z</time></trkpt><trkpt lat="45.18459096241547" lon="8.21988685210815"><ele>138.0</ele><time>2026-04-12T09:56:56.998Z</time></trkpt><trkpt lat="45.184583234973736" lon="8.220038102476757"><ele>138.0</ele><time>2026-04-12T09:56:58.998Z</time></trkpt><trkpt lat="45.18457624455262" lon="8.220153722815256"><ele>138.0</ele><time>2026-04-12T09:56:59.998Z</time></trkpt><trkpt lat="45.18454463150897" lon="8.220284988441989"><ele>138.0</ele><time>2026-04-12T09:57:00.998Z</time></trkpt><trkpt lat="45.184500733941746" lon="8.22040798412781"><ele>138.0</ele><time>2026-04-12T09:57:01.998Z</time></trkpt><trkpt lat="45.18443704005713" lon="8.220533125760278"><ele>138.0</ele><time>2026-04-12T09:57:02.998Z</time></trkpt><trkpt lat="45.184350607385916" lon="8.220653427742906"><ele>138.0</ele><time>2026-04-12T09:57:03.998Z</time></trkpt><trkpt lat="45.184230478458026" lon="8.22078423446363"><ele>138.0</ele><time>2026-04-12T09:57:04.998Z</time></trkpt><trkpt lat="45.184101311145426" lon="8.220964138644744"><ele>138.0</ele><time>2026-04-12T09:57:05.998Z</time></trkpt><trkpt lat="45.183948022849854" lon="8.221140919656138"><ele>138.0</ele><time>2026-04-12T09:57:06.998Z</time></trkpt><trkpt lat="45.183793056339454" lon="8.221330848167065"><ele>138.0</ele><time>2026-04-12T09:57:07.998Z</time></trkpt><trkpt lat="45.1836360769871" lon="8.221518419930915"><ele>138.0</ele><time>2026-04-12T09:57:08.998Z</time></trkpt><trkpt lat="45.18347001995602" lon="8.221681121639808"><ele>138.0</ele><time>2026-04-12T09:57:09.998Z</time></trkpt><trkpt lat="45.18333991502521" lon="8.22185192191233"><ele>138.0</ele><time>2026-04-12T09:57:10.998Z</time></trkpt><trkpt lat="45.18320864026354" lon="8.222006556431026"><ele>138.0</ele><time>2026-04-12T09:57:11.998Z</time></trkpt><trkpt lat="45.18308589237121" lon="8.222155403151847"><ele>138.0</ele><time>2026-04-12T09:57:12.998Z</time></trkpt><trkpt lat="45.18295426183107" lon="8.222279879029662"><ele>138.0</ele><time>2026-04-12T09:57:13.998Z</time></trkpt><trkpt lat="45.18282812309798" lon="8.222428391016377"><ele>138.0</ele><time>2026-04-12T09:57:14.998Z</time></trkpt><trkpt lat="45.182692491078456" lon="8.222588079961042"><ele>138.0</ele><time>2026-04-12T09:57:15.998Z</time></trkpt><trkpt lat="45.1825648349827" lon="8.222738378100656"><ele>138.0</ele><time>2026-04-12T09:57:16.998Z</time></trkpt><trkpt lat="45.18245979620778" lon="8.222889985298787"><ele>138.0</ele><time>2026-04-12T09:57:17.998Z</time></trkpt><trkpt lat="45.18235033607976" lon="8.223017196448565"><ele>138.0</ele><time>2026-04-12T09:57:18.998Z</time></trkpt><trkpt lat="45.18224255957075" lon="8.223148030398498"><ele>138.0</ele><time>2026-04-12T09:57:19.998Z</time></trkpt><trkpt lat="45.18213063162901" lon="8.223249595655716"><ele>138.0</ele><time>2026-04-12T09:57:20.998Z</time></trkpt><trkpt lat="45.1820394837894" lon="8.22338576436644"><ele>137.66666666666666</ele><time>2026-04-12T09:57:21.998Z</time></trkpt><trkpt lat="45.18192762355227" lon="8.22351466786156"><ele>137.33333333333331</ele><time>2026-04-12T09:57:22.998Z</time></trkpt><trkpt lat="45.18180710606941" lon="8.223655438948722"><ele>137.0</ele><time>2026-04-12T09:57:23.998Z</time></trkpt><trkpt lat="45.181681114932786" lon="8.223805091686907"><ele>137.0</ele><time>2026-04-12T09:57:24.997Z</time></trkpt><trkpt lat="45.18155665068453" lon="8.223958826652407"><ele>137.0</ele><time>2026-04-12T09:57:25.997Z</time></trkpt><trkpt lat="45.181425732292126" lon="8.224112108959943"><ele>137.0</ele><time>2026-04-12T09:57:27Z</time></trkpt><trkpt lat="45.181296233413896" lon="8.224258793358747"><ele>137.0</ele><time>2026-04-12T09:57:28Z</time></trkpt><trkpt lat="45.18118939182293" lon="8.224382850429496"><ele>137.0</ele><time>2026-04-12T09:57:29Z</time></trkpt><trkpt lat="45.18109531067848" lon="8.224498550903359"><ele>137.0</ele><time>2026-04-12T09:57:30Z</time></trkpt><trkpt lat="45.18101108845065" lon="8.224602102345804"><ele>137.0</ele><time>2026-04-12T09:57:31Z</time></trkpt><trkpt lat="45.18084997799404" lon="8.224763177789278"><ele>137.0</ele><time>2026-04-12T09:57:33Z</time></trkpt><trkpt lat="45.18074575276307" lon="8.224775642433489"><ele>137.0</ele><time>2026-04-12T09:57:34Z</time></trkpt><trkpt lat="45.18063654192256" lon="8.224804062517556"><ele>137.0</ele><time>2026-04-12T09:57:35Z</time></trkpt><trkpt lat="45.18051243165417" lon="8.224826901403503"><ele>137.0</ele><time>2026-04-12T09:57:36Z</time></trkpt><trkpt lat="45.18037191237245" lon="8.224847602917528"><ele>136.75</ele><time>2026-04-12T09:57:37Z</time></trkpt><trkpt lat="45.18022984032123" lon="8.22486853304674"><ele>136.5</ele><time>2026-04-12T09:57:38Z</time></trkpt><trkpt lat="45.18009063506226" lon="8.224880339472394"><ele>136.25</ele><time>2026-04-12T09:57:39Z</time></trkpt><trkpt lat="45.179982586257786" lon="8.224892174973599"><ele>136.0</ele><time>2026-04-12T09:57:40Z</time></trkpt><trkpt lat="45.179889504388754" lon="8.22494826948548"><ele>135.8</ele><time>2026-04-12T09:57:41Z</time></trkpt><trkpt lat="45.17980641992563" lon="8.224993606353479"><ele>135.6</ele><time>2026-04-12T09:57:42Z</time></trkpt><trkpt lat="45.1797300518255" lon="8.225064105553797"><ele>135.4</ele><time>2026-04-12T09:57:43Z</time></trkpt><trkpt lat="45.17963755492673" lon="8.225171040648565"><ele>135.2</ele><time>2026-04-12T09:57:44Z</time></trkpt><trkpt lat="45.17953995482422" lon="8.225277407356705"><ele>135.0</ele><time>2026-04-12T09:57:45Z</time></trkpt><trkpt lat="45.179417848474316" lon="8.225403919141995"><ele>135.0</ele><time>2026-04-12T09:57:46Z</time></trkpt><trkpt lat="45.17927957784549" lon="8.225513001979776"><ele>135.0</ele><time>2026-04-12T09:57:47Z</time></trkpt><trkpt lat="45.17912452616928" lon="8.225664293949096"><ele>135.0</ele><time>2026-04-12T09:57:48Z</time></trkpt><trkpt lat="45.17897720130461" lon="8.225808046457313"><ele>135.33333333333334</ele><time>2026-04-12T09:57:49Z</time></trkpt><trkpt lat="45.17883659564935" lon="8.225945242580464"><ele>135.66666666666669</ele><time>2026-04-12T09:57:50Z</time></trkpt><trkpt lat="45.17871331165949" lon="8.2260662381747"><ele>136.0</ele><time>2026-04-12T09:57:51Z</time></trkpt><trkpt lat="45.17858580983488" lon="8.226192995778627"><ele>136.0</ele><time>2026-04-12T09:57:52Z</time></trkpt><trkpt lat="45.17846259251006" lon="8.226342250841101"><ele>136.0</ele><time>2026-04-12T09:57:53Z</time></trkpt><trkpt lat="45.17832726484466" lon="8.226473115761388"><ele>136.0</ele><time>2026-04-12T09:57:54Z</time></trkpt><trkpt lat="45.17819408214588" lon="8.226604386914692"><ele>136.0</ele><time>2026-04-12T09:57:55Z</time></trkpt><trkpt lat="45.178061342365964" lon="8.226739007433604"><ele>136.0</ele><time>2026-04-12T09:57:56Z</time></trkpt><trkpt lat="45.17792668861274" lon="8.226872284459718"><ele>136.0</ele><time>2026-04-12T09:57:57Z</time></trkpt><trkpt lat="45.177811279682736" lon="8.22698603210697"><ele>136.0</ele><time>2026-04-12T09:57:58Z</time></trkpt><trkpt lat="45.177691516386034" lon="8.227103776960895"><ele>136.0</ele><time>2026-04-12T09:57:59Z</time></trkpt><trkpt lat="45.1775622099268" lon="8.227229545492973"><ele>136.0</ele><time>2026-04-12T09:58:00Z</time></trkpt><trkpt lat="45.177418396137476" lon="8.227340755605722"><ele>135.75</ele><time>2026-04-12T09:58:01Z</time></trkpt><trkpt lat="45.17728696991208" lon="8.227464061492014"><ele>135.5</ele><time>2026-04-12T09:58:02Z</time></trkpt><trkpt lat="45.17716978569425" lon="8.227570766574035"><ele>135.25</ele><time>2026-04-12T09:58:02.999Z</time></trkpt><trkpt lat="45.17706897602435" lon="8.227662561577853"><ele>135.0</ele><time>2026-04-12T09:58:03.999Z</time></trkpt><trkpt lat="45.17698589670465" lon="8.22776642204543"><ele>135.0</ele><time>2026-04-12T09:58:04.999Z</time></trkpt><trkpt lat="45.17690457089252" lon="8.227850815093015"><ele>135.0</ele><time>2026-04-12T09:58:05.999Z</time></trkpt><trkpt lat="45.17682035346379" lon="8.227947174983386"><ele>135.0</ele><time>2026-04-12T09:58:06.999Z</time></trkpt><trkpt lat="45.17676822684741" lon="8.228086158515888"><ele>135.0</ele><time>2026-04-12T09:58:07.999Z</time></trkpt><trkpt lat="45.17671670002598" lon="8.228215229610154"><ele>135.0</ele><time>2026-04-12T09:58:08.999Z</time></trkpt><trkpt lat="45.17668845663504" lon="8.228352112801266"><ele>135.0</ele><time>2026-04-12T09:58:09.999Z</time></trkpt><trkpt lat="45.176666820619445" lon="8.228517888149465"><ele>135.0</ele><time>2026-04-12T09:58:10.999Z</time></trkpt><trkpt lat="45.17661943249844" lon="8.22869987767062"><ele>135.0</ele><time>2026-04-12T09:58:11.999Z</time></trkpt><trkpt lat="45.17657967936436" lon="8.228909421604039"><ele>135.0</ele><time>2026-04-12T09:58:12.999Z</time></trkpt><trkpt lat="45.17655795551005" lon="8.229119626879273"><ele>135.0</ele><time>2026-04-12T09:58:13.999Z</time></trkpt><trkpt lat="45.17652555179891" lon="8.229284734608468"><ele>135.0</ele><time>2026-04-12T09:58:14.999Z</time></trkpt><trkpt lat="45.176508227056466" lon="8.22944659720687"><ele>135.0</ele><time>2026-04-12T09:58:15.999Z</time></trkpt><trkpt lat="45.17651374138848" lon="8.229606210022796"><ele>135.0</ele><time>2026-04-12T09:58:16.999Z</time></trkpt><trkpt lat="45.17652485149962" lon="8.229759420893105"><ele>134.75</ele><time>2026-04-12T09:58:17.999Z</time></trkpt><trkpt lat="45.17655305701344" lon="8.229913143402717"><ele>134.5</ele><time>2026-04-12T09:58:18.999Z</time></trkpt><trkpt lat="45.17659435430739" lon="8.230083772467058"><ele>134.25</ele><time>2026-04-12T09:58:19.999Z</time></trkpt><trkpt lat="45.17663830971568" lon="8.230271219604106"><ele>134.0</ele><time>2026-04-12T09:58:20.999Z</time></trkpt><trkpt lat="45.17668326662042" lon="8.230477953373413"><ele>134.66666666666666</ele><time>2026-04-12T09:58:21.999Z</time></trkpt><trkpt lat="45.176735517984746" lon="8.230706442056855"><ele>135.33333333333334</ele><time>2026-04-12T09:58:22.999Z</time></trkpt><trkpt lat="45.176784988559646" lon="8.23094497066261"><ele>136.0</ele><time>2026-04-12T09:58:23.999Z</time></trkpt><trkpt lat="45.17682838801416" lon="8.23116518553026"><ele>136.0</ele><time>2026-04-12T09:58:24.999Z</time></trkpt><trkpt lat="45.17687191242531" lon="8.23134585857102"><ele>136.0</ele><time>2026-04-12T09:58:25.999Z</time></trkpt><trkpt lat="45.176908373627214" lon="8.231512306501884"><ele>136.0</ele><time>2026-04-12T09:58:26.999Z</time></trkpt><trkpt lat="45.1769295723243" lon="8.231670480411129"><ele>136.0</ele><time>2026-04-12T09:58:27.999Z</time></trkpt><trkpt lat="45.176944204555696" lon="8.231835423959852"><ele>136.0</ele><time>2026-04-12T09:58:28.999Z</time></trkpt><trkpt lat="45.176931871774734" lon="8.232022913494509"><ele>136.0</ele><time>2026-04-12T09:58:29.999Z</time></trkpt><trkpt lat="45.17696529086861" lon="8.23221600621792"><ele>136.0</ele><time>2026-04-12T09:58:30.999Z</time></trkpt><trkpt lat="45.176995458369156" lon="8.232417371106923"><ele>136.0</ele><time>2026-04-12T09:58:31.999Z</time></trkpt><trkpt lat="45.17704407025332" lon="8.232635800500796"><ele>136.0</ele><time>2026-04-12T09:58:32.999Z</time></trkpt><trkpt lat="45.177099294033574" lon="8.232871743975927"><ele>136.0</ele><time>2026-04-12T09:58:33.999Z</time></trkpt><trkpt lat="45.17714868579901" lon="8.23308954587764"><ele>136.0</ele><time>2026-04-12T09:58:34.999Z</time></trkpt><trkpt lat="45.17718710711663" lon="8.233272074717942"><ele>135.6</ele><time>2026-04-12T09:58:35.999Z</time></trkpt><trkpt lat="45.17722070434051" lon="8.233436465856931"><ele>135.2</ele><time>2026-04-12T09:58:36.999Z</time></trkpt><trkpt lat="45.17725184229313" lon="8.233584126293113"><ele>134.8</ele><time>2026-04-12T09:58:37.999Z</time></trkpt><trkpt lat="45.17728880078187" lon="8.233703668070454"><ele>134.4</ele><time>2026-04-12T09:58:38.999Z</time></trkpt><trkpt lat="45.17734423382672" lon="8.233817728111868"><ele>134.0</ele><time>2026-04-12T09:58:39.999Z</time></trkpt><trkpt lat="45.17742292100778" lon="8.233923254004242"><ele>134.0</ele><time>2026-04-12T09:58:40.999Z</time></trkpt><trkpt lat="45.17752088024375" lon="8.234031848810776"><ele>134.0</ele><time>2026-04-12T09:58:41.999Z</time></trkpt><trkpt lat="45.17761329656391" lon="8.234140951358063"><ele>134.0</ele><time>2026-04-12T09:58:42.999Z</time></trkpt><trkpt lat="45.17769329267254" lon="8.234247871622443"><ele>134.0</ele><time>2026-04-12T09:58:43.999Z</time></trkpt><trkpt lat="45.17776179404773" lon="8.2343389382618"><ele>134.0</ele><time>2026-04-12T09:58:44.999Z</time></trkpt><trkpt lat="45.17781698767757" lon="8.234434367705283"><ele>134.0</ele><time>2026-04-12T09:58:45.999Z</time></trkpt><trkpt lat="45.17788956368067" lon="8.234530136589969"><ele>134.0</ele><time>2026-04-12T09:58:46.999Z</time></trkpt><trkpt lat="45.17789065633378" lon="8.234779134018279"><ele>134.0</ele><time>2026-04-12T09:58:47.999Z</time></trkpt><trkpt lat="45.17793569171739" lon="8.23499942221481"><ele>134.0</ele><time>2026-04-12T09:58:48.999Z</time></trkpt><trkpt lat="45.177985349247116" lon="8.23524477612628"><ele>134.33333333333331</ele><time>2026-04-12T09:58:49.998Z</time></trkpt><trkpt lat="45.17804062163421" lon="8.235497083297284"><ele>134.66666666666666</ele><time>2026-04-12T09:58:50.998Z</time></trkpt><trkpt lat="45.17809408588489" lon="8.235722412693402"><ele>135.0</ele><time>2026-04-12T09:58:51.998Z</time></trkpt><trkpt lat="45.178136373787154" lon="8.23593393073486"><ele>134.75</ele><time>2026-04-12T09:58:52.998Z</time></trkpt><trkpt lat="45.17817845496817" lon="8.236134233972464"><ele>134.5</ele><time>2026-04-12T09:58:53.998Z</time></trkpt><trkpt lat="45.17822084350853" lon="8.236329516762869"><ele>134.25</ele><time>2026-04-12T09:58:54.998Z</time></trkpt><trkpt lat="45.17825992892082" lon="8.23653160765594"><ele>134.0</ele><time>2026-04-12T09:58:55.998Z</time></trkpt><trkpt lat="45.17830242346575" lon="8.236736772059642"><ele>134.0</ele><time>2026-04-12T09:58:56.998Z</time></trkpt><trkpt lat="45.178342176233215" lon="8.236930968980815"><ele>134.0</ele><time>2026-04-12T09:58:57.998Z</time></trkpt><trkpt lat="45.17837108067982" lon="8.237112805540276"><ele>134.0</ele><time>2026-04-12T09:58:58.998Z</time></trkpt><trkpt lat="45.178388082624295" lon="8.237306627838297"><ele>134.0</ele><time>2026-04-12T09:58:59.998Z</time></trkpt><trkpt lat="45.17839325359144" lon="8.237505814183008"><ele>133.66666666666666</ele><time>2026-04-12T09:59:00.998Z</time></trkpt><trkpt lat="45.17838465364002" lon="8.237708167469194"><ele>133.33333333333334</ele><time>2026-04-12T09:59:01.998Z</time></trkpt><trkpt lat="45.17836506976727" lon="8.23791763750894"><ele>133.0</ele><time>2026-04-12T09:59:02.998Z</time></trkpt><trkpt lat="45.1783343565439" lon="8.238137604673913"><ele>133.0</ele><time>2026-04-12T09:59:03.998Z</time></trkpt><trkpt lat="45.17830212231768" lon="8.238381076178255"><ele>133.0</ele><time>2026-04-12T09:59:04.998Z</time></trkpt><trkpt lat="45.178274628339885" lon="8.238639699307223"><ele>133.0</ele><time>2026-04-12T09:59:05.998Z</time></trkpt><trkpt lat="45.178250081042535" lon="8.238886252506626"><ele>133.0</ele><time>2026-04-12T09:59:06.998Z</time></trkpt><trkpt lat="45.17822936410374" lon="8.239109732781287"><ele>133.0</ele><time>2026-04-12T09:59:07.998Z</time></trkpt><trkpt lat="45.178210800428865" lon="8.239327329787265"><ele>133.0</ele><time>2026-04-12T09:59:08.998Z</time></trkpt><trkpt lat="45.17819797291303" lon="8.239562764011346"><ele>133.0</ele><time>2026-04-12T09:59:09.998Z</time></trkpt><trkpt lat="45.17818750708562" lon="8.239814947602277"><ele>133.0</ele><time>2026-04-12T09:59:10.998Z</time></trkpt><trkpt lat="45.17818549172336" lon="8.240089377517453"><ele>133.0</ele><time>2026-04-12T09:59:11.998Z</time></trkpt><trkpt lat="45.178184319133855" lon="8.24034218514353"><ele>133.0</ele><time>2026-04-12T09:59:12.998Z</time></trkpt><trkpt lat="45.17818156718028" lon="8.240596336488773"><ele>133.0</ele><time>2026-04-12T09:59:13.998Z</time></trkpt><trkpt lat="45.178178845096674" lon="8.240849446985218"><ele>133.0</ele><time>2026-04-12T09:59:14.998Z</time></trkpt><trkpt lat="45.17817358604935" lon="8.24111883363809"><ele>132.66666666666669</ele><time>2026-04-12T09:59:15.998Z</time></trkpt><trkpt lat="45.17816730902111" lon="8.241362201285366"><ele>132.33333333333334</ele><time>2026-04-12T09:59:16.998Z</time></trkpt><trkpt lat="45.17816262016497" lon="8.241570124615615"><ele>132.0</ele><time>2026-04-12T09:59:17.998Z</time></trkpt><trkpt lat="45.178161092856996" lon="8.241780103938297"><ele>132.5</ele><time>2026-04-12T09:59:18.998Z</time></trkpt><trkpt lat="45.178164434012864" lon="8.241987855163416"><ele>133.0</ele><time>2026-04-12T09:59:19.998Z</time></trkpt><trkpt lat="45.178177341081856" lon="8.242180910811932"><ele>133.5</ele><time>2026-04-12T09:59:20.998Z</time></trkpt><trkpt lat="45.17821203196858" lon="8.242385970716771"><ele>134.0</ele><time>2026-04-12T09:59:21.998Z</time></trkpt><trkpt lat="45.17825947544735" lon="8.24263636947349"><ele>134.0</ele><time>2026-04-12T09:59:22.998Z</time></trkpt><trkpt lat="45.178314966888884" lon="8.242883939572632"><ele>134.0</ele><time>2026-04-12T09:59:23.998Z</time></trkpt><trkpt lat="45.17838054469713" lon="8.24317024365411"><ele>134.0</ele><time>2026-04-12T09:59:24.998Z</time></trkpt><trkpt lat="45.178455505704434" lon="8.243478657223758"><ele>134.0</ele><time>2026-04-12T09:59:25.998Z</time></trkpt><trkpt lat="45.17852856130531" lon="8.243775030648216"><ele>134.0</ele><time>2026-04-12T09:59:26.998Z</time></trkpt><trkpt lat="45.178596646362536" lon="8.244051896130888"><ele>134.0</ele><time>2026-04-12T09:59:27.998Z</time></trkpt><trkpt lat="45.17866057640538" lon="8.244319535407781"><ele>133.66666666666666</ele><time>2026-04-12T09:59:28.998Z</time></trkpt><trkpt lat="45.17872670631734" lon="8.244602038220814"><ele>133.33333333333334</ele><time>2026-04-12T09:59:29.998Z</time></trkpt><trkpt lat="45.17878998071956" lon="8.244868437266097"><ele>133.0</ele><time>2026-04-12T09:59:30.998Z</time></trkpt><trkpt lat="45.178843954762236" lon="8.24510538267464"><ele>132.33333333333334</ele><time>2026-04-12T09:59:31.998Z</time></trkpt><trkpt lat="45.17889802371709" lon="8.245329702563087"><ele>131.66666666666666</ele><time>2026-04-12T09:59:33Z</time></trkpt><trkpt lat="45.17894963735393" lon="8.245560929270003"><ele>131.0</ele><time>2026-04-12T09:59:34Z</time></trkpt><trkpt lat="45.179013194230826" lon="8.24580676102781"><ele>131.33333333333331</ele><time>2026-04-12T09:59:35Z</time></trkpt><trkpt lat="45.17908682160592" lon="8.246064231021487"><ele>131.66666666666666</ele><time>2026-04-12T09:59:36Z</time></trkpt><trkpt lat="45.17916962865679" lon="8.246328444000534"><ele>132.0</ele><time>2026-04-12T09:59:37Z</time></trkpt><trkpt lat="45.17926161828722" lon="8.246603507866002"><ele>132.0</ele><time>2026-04-12T09:59:38Z</time></trkpt><trkpt lat="45.17935399445315" lon="8.246869361909162"><ele>132.0</ele><time>2026-04-12T09:59:39Z</time></trkpt><trkpt lat="45.179441410880656" lon="8.247123909404015"><ele>132.0</ele><time>2026-04-12T09:59:40Z</time></trkpt><trkpt lat="45.179536832627974" lon="8.247376557893324"><ele>132.0</ele><time>2026-04-12T09:59:41Z</time></trkpt><trkpt lat="45.1796282668173" lon="8.24762945771602"><ele>132.0</ele><time>2026-04-12T09:59:42Z</time></trkpt><trkpt lat="45.179722757684566" lon="8.247883981906503"><ele>132.0</ele><time>2026-04-12T09:59:43Z</time></trkpt><trkpt lat="45.179811813775714" lon="8.248129733673029"><ele>132.66666666666666</ele><time>2026-04-12T09:59:44Z</time></trkpt><trkpt lat="45.179892015747456" lon="8.248355743502879"><ele>133.33333333333331</ele><time>2026-04-12T09:59:45Z</time></trkpt><trkpt lat="45.179973195850266" lon="8.248586207121091"><ele>134.0</ele><time>2026-04-12T09:59:46Z</time></trkpt><trkpt lat="45.180057595135494" lon="8.24881515317649"><ele>133.33333333333331</ele><time>2026-04-12T09:59:47Z</time></trkpt><trkpt lat="45.1801424696186" lon="8.249044775289821"><ele>132.66666666666666</ele><time>2026-04-12T09:59:48Z</time></trkpt><trkpt lat="45.18022540253412" lon="8.249274260905787"><ele>132.0</ele><time>2026-04-12T09:59:49Z</time></trkpt><trkpt lat="45.18031491289302" lon="8.249509922391196"><ele>132.0</ele><time>2026-04-12T09:59:50Z</time></trkpt><trkpt lat="45.180408180518775" lon="8.249739041923469"><ele>132.0</ele><time>2026-04-12T09:59:51Z</time></trkpt><trkpt lat="45.18049455195427" lon="8.249952817235645"><ele>132.0</ele><time>2026-04-12T09:59:52Z</time></trkpt><trkpt lat="45.1805839338598" lon="8.250177806846732"><ele>131.66666666666666</ele><time>2026-04-12T09:59:53Z</time></trkpt><trkpt lat="45.180681403719134" lon="8.250415994267975"><ele>131.33333333333331</ele><time>2026-04-12T09:59:54Z</time></trkpt><trkpt lat="45.18078370023301" lon="8.2506724948579"><ele>131.0</ele><time>2026-04-12T09:59:55Z</time></trkpt><trkpt lat="45.18089795187818" lon="8.250921583393543"><ele>131.0</ele><time>2026-04-12T09:59:56Z</time></trkpt><trkpt lat="45.181002531873574" lon="8.25115286577816"><ele>131.0</ele><time>2026-04-12T09:59:57Z</time></trkpt><trkpt lat="45.18109711385772" lon="8.251360528452201"><ele>131.0</ele><time>2026-04-12T09:59:58Z</time></trkpt><trkpt lat="45.18119026419752" lon="8.251565299291535"><ele>131.33333333333331</ele><time>2026-04-12T09:59:59Z</time></trkpt><trkpt lat="45.18127452925136" lon="8.251765197320651"><ele>131.66666666666666</ele><time>2026-04-12T10:00:00Z</time></trkpt><trkpt lat="45.18135449365871" lon="8.251955031388526"><ele>132.0</ele><time>2026-04-12T10:00:01Z</time></trkpt><trkpt lat="45.18143743505255" lon="8.252145346558192"><ele>131.66666666666666</ele><time>2026-04-12T10:00:02Z</time></trkpt><trkpt lat="45.181529267016984" lon="8.25234454369173"><ele>131.33333333333331</ele><time>2026-04-12T10:00:03Z</time></trkpt><trkpt lat="45.18162678902654" lon="8.25256359162175"><ele>131.0</ele><time>2026-04-12T10:00:04Z</time></trkpt><trkpt lat="45.181726411442135" lon="8.252792011313916"><ele>131.0</ele><time>2026-04-12T10:00:05Z</time></trkpt><trkpt lat="45.18181038204791" lon="8.252987199712464"><ele>131.0</ele><time>2026-04-12T10:00:06Z</time></trkpt><trkpt lat="45.181893400820734" lon="8.253170922139523"><ele>131.0</ele><time>2026-04-12T10:00:07Z</time></trkpt><trkpt lat="45.181981801977045" lon="8.25336744112064"><ele>131.0</ele><time>2026-04-12T10:00:08Z</time></trkpt><trkpt lat="45.182071574023965" lon="8.253567590036287"><ele>131.0</ele><time>2026-04-12T10:00:09Z</time></trkpt><trkpt lat="45.182151713333305" lon="8.25374449267418"><ele>131.0</ele><time>2026-04-12T10:00:10Z</time></trkpt><trkpt lat="45.182229227477364" lon="8.25391936079296"><ele>131.25</ele><time>2026-04-12T10:00:10.999Z</time></trkpt><trkpt lat="45.18229853238618" lon="8.254079004311665"><ele>131.5</ele><time>2026-04-12T10:00:11.999Z</time></trkpt><trkpt lat="45.18235943161374" lon="8.254237349128394"><ele>131.75</ele><time>2026-04-12T10:00:12.999Z</time></trkpt><trkpt lat="45.18240423632173" lon="8.254392277273373"><ele>132.0</ele><time>2026-04-12T10:00:13.999Z</time></trkpt><trkpt lat="45.18244495033302" lon="8.254568559240779"><ele>131.33333333333334</ele><time>2026-04-12T10:00:14.999Z</time></trkpt><trkpt lat="45.18248453346203" lon="8.254776181090758"><ele>130.66666666666669</ele><time>2026-04-12T10:00:15.999Z</time></trkpt><trkpt lat="45.18252218136235" lon="8.255015394083713"><ele>130.0</ele><time>2026-04-12T10:00:16.999Z</time></trkpt><trkpt lat="45.18255771726019" lon="8.255267873099633"><ele>129.66666666666669</ele><time>2026-04-12T10:00:17.999Z</time></trkpt><trkpt lat="45.18259695019475" lon="8.25554245891973"><ele>129.33333333333334</ele><time>2026-04-12T10:00:18.999Z</time></trkpt><trkpt lat="45.18264017989921" lon="8.255844644062067"><ele>129.0</ele><time>2026-04-12T10:00:19.999Z</time></trkpt><trkpt lat="45.182680304720364" lon="8.256116745874818"><ele>129.0</ele><time>2026-04-12T10:00:20.999Z</time></trkpt><trkpt lat="45.182720119992794" lon="8.256383647645283"><ele>129.0</ele><time>2026-04-12T10:00:21.999Z</time></trkpt><trkpt lat="45.182760452438366" lon="8.256650726095437"><ele>129.0</ele><time>2026-04-12T10:00:22.999Z</time></trkpt><trkpt lat="45.18279992832154" lon="8.256904603688978"><ele>129.33333333333334</ele><time>2026-04-12T10:00:23.999Z</time></trkpt><trkpt lat="45.18283960722553" lon="8.257165536560894"><ele>129.66666666666669</ele><time>2026-04-12T10:00:24.999Z</time></trkpt><trkpt lat="45.182880427032295" lon="8.257445769455522"><ele>130.0</ele><time>2026-04-12T10:00:25.999Z</time></trkpt><trkpt lat="45.18291946377699" lon="8.257729037521399"><ele>130.33333333333334</ele><time>2026-04-12T10:00:26.999Z</time></trkpt><trkpt lat="45.182962036854924" lon="8.258016555424184"><ele>130.66666666666666</ele><time>2026-04-12T10:00:27.999Z</time></trkpt><trkpt lat="45.18300492943524" lon="8.258301054371378"><ele>131.0</ele><time>2026-04-12T10:00:28.999Z</time></trkpt><trkpt lat="45.18304896188947" lon="8.258595449036516"><ele>131.0</ele><time>2026-04-12T10:00:29.999Z</time></trkpt><trkpt lat="45.183088500548216" lon="8.258884449211466"><ele>131.0</ele><time>2026-04-12T10:00:30.999Z</time></trkpt><trkpt lat="45.183126745677306" lon="8.259174394873323"><ele>131.0</ele><time>2026-04-12T10:00:31.999Z</time></trkpt><trkpt lat="45.183161946394435" lon="8.259445443450304"><ele>131.0</ele><time>2026-04-12T10:00:32.999Z</time></trkpt><trkpt lat="45.18319170410022" lon="8.25969477500356"><ele>131.0</ele><time>2026-04-12T10:00:33.999Z</time></trkpt><trkpt lat="45.183227151919965" lon="8.259943193435838"><ele>131.0</ele><time>2026-04-12T10:00:34.999Z</time></trkpt><trkpt lat="45.183264798742634" lon="8.260213448825937"><ele>131.0</ele><time>2026-04-12T10:00:35.999Z</time></trkpt><trkpt lat="45.18330214399517" lon="8.260494360910103"><ele>131.0</ele><time>2026-04-12T10:00:36.999Z</time></trkpt><trkpt lat="45.18334278262976" lon="8.260783499681974"><ele>131.0</ele><time>2026-04-12T10:00:37.999Z</time></trkpt><trkpt lat="45.183380649366356" lon="8.261057892897462"><ele>131.0</ele><time>2026-04-12T10:00:38.999Z</time></trkpt><trkpt lat="45.183416275636816" lon="8.261323144752916"><ele>131.0</ele><time>2026-04-12T10:00:39.999Z</time></trkpt><trkpt lat="45.183452338584935" lon="8.261582354930473"><ele>131.0</ele><time>2026-04-12T10:00:40.999Z</time></trkpt><trkpt lat="45.18348996853351" lon="8.261858569646252"><ele>130.66666666666666</ele><time>2026-04-12T10:00:41.999Z</time></trkpt><trkpt lat="45.183522377754194" lon="8.262117450510589"><ele>130.33333333333334</ele><time>2026-04-12T10:00:42.999Z</time></trkpt><trkpt lat="45.18355042154968" lon="8.262355870254689"><ele>130.0</ele><time>2026-04-12T10:00:43.999Z</time></trkpt><trkpt lat="45.18357473811359" lon="8.262592837871363"><ele>129.66666666666669</ele><time>2026-04-12T10:00:44.999Z</time></trkpt><trkpt lat="45.18358277906753" lon="8.262814814439775"><ele>129.33333333333334</ele><time>2026-04-12T10:00:45.999Z</time></trkpt><trkpt lat="45.18359669017016" lon="8.263064319521213"><ele>129.0</ele><time>2026-04-12T10:00:46.999Z</time></trkpt><trkpt lat="45.18361698297787" lon="8.263346741704773"><ele>129.66666666666666</ele><time>2026-04-12T10:00:47.999Z</time></trkpt><trkpt lat="45.18364465367954" lon="8.263650907827351"><ele>130.33333333333331</ele><time>2026-04-12T10:00:48.999Z</time></trkpt><trkpt lat="45.183671414170725" lon="8.26394709349288"><ele>131.0</ele><time>2026-04-12T10:00:49.999Z</time></trkpt><trkpt lat="45.18369610390955" lon="8.264237096243905"><ele>130.66666666666666</ele><time>2026-04-12T10:00:50.999Z</time></trkpt><trkpt lat="45.183724027560565" lon="8.264518623641832"><ele>130.33333333333334</ele><time>2026-04-12T10:00:51.999Z</time></trkpt><trkpt lat="45.183801456605636" lon="8.26478528836487"><ele>130.0</ele><time>2026-04-12T10:00:52.999Z</time></trkpt><trkpt lat="45.18377713419523" lon="8.265017024324257"><ele>130.0</ele><time>2026-04-12T10:00:53.999Z</time></trkpt><trkpt lat="45.183804905590826" lon="8.26526448384607"><ele>130.0</ele><time>2026-04-12T10:00:54.999Z</time></trkpt><trkpt lat="45.18381654247501" lon="8.265531408448386"><ele>130.0</ele><time>2026-04-12T10:00:55.999Z</time></trkpt><trkpt lat="45.18384369761446" lon="8.26578724919163"><ele>129.75</ele><time>2026-04-12T10:00:56.998Z</time></trkpt><trkpt lat="45.183884371820945" lon="8.266013105227222"><ele>129.5</ele><time>2026-04-12T10:00:57.998Z</time></trkpt><trkpt lat="45.18390042040885" lon="8.266208986825824"><ele>129.25</ele><time>2026-04-12T10:00:58.998Z</time></trkpt><trkpt lat="45.183921588188724" lon="8.266412801512464"><ele>129.0</ele><time>2026-04-12T10:00:59.998Z</time></trkpt><trkpt lat="45.18394553653838" lon="8.266654011740322"><ele>129.66666666666666</ele><time>2026-04-12T10:01:00.998Z</time></trkpt><trkpt lat="45.18397102771311" lon="8.26688778058709"><ele>130.33333333333331</ele><time>2026-04-12T10:01:01.998Z</time></trkpt><trkpt lat="45.18399300713977" lon="8.26710827861363"><ele>131.0</ele><time>2026-04-12T10:01:02.998Z</time></trkpt><trkpt lat="45.18401615590528" lon="8.267313019642055"><ele>131.25</ele><time>2026-04-12T10:01:03.998Z</time></trkpt><trkpt lat="45.18402116498423" lon="8.26752194027385"><ele>131.5</ele><time>2026-04-12T10:01:04.998Z</time></trkpt><trkpt lat="45.184041484287434" lon="8.267717698335888"><ele>131.75</ele><time>2026-04-12T10:01:05.998Z</time></trkpt><trkpt lat="45.184077051447154" lon="8.267919496389663"><ele>132.0</ele><time>2026-04-12T10:01:06.998Z</time></trkpt><trkpt lat="45.18409635286966" lon="8.268118437235675"><ele>132.0</ele><time>2026-04-12T10:01:07.998Z</time></trkpt><trkpt lat="45.18411718925889" lon="8.268322548598494"><ele>132.0</ele><time>2026-04-12T10:01:08.998Z</time></trkpt><trkpt lat="45.18413495145527" lon="8.268523408223476"><ele>132.0</ele><time>2026-04-12T10:01:09.998Z</time></trkpt><trkpt lat="45.18415585024881" lon="8.26872240505136"><ele>132.0</ele><time>2026-04-12T10:01:10.998Z</time></trkpt><trkpt lat="45.1841778903383" lon="8.268913851583267"><ele>131.5</ele><time>2026-04-12T10:01:11.998Z</time></trkpt><trkpt lat="45.184195425754325" lon="8.269096709438882"><ele>131.0</ele><time>2026-04-12T10:01:12.998Z</time></trkpt><trkpt lat="45.184200101621585" lon="8.269261976923453"><ele>130.5</ele><time>2026-04-12T10:01:13.998Z</time></trkpt><trkpt lat="45.18421778337368" lon="8.269512785941664"><ele>130.0</ele><time>2026-04-12T10:01:15.998Z</time></trkpt><trkpt lat="45.18421776915253" lon="8.26960636754512"><ele>130.0</ele><time>2026-04-12T10:01:16.998Z</time></trkpt><trkpt lat="45.184232630373785" lon="8.269705252461383"><ele>130.0</ele><time>2026-04-12T10:01:17.998Z</time></trkpt><trkpt lat="45.18430075932357" lon="8.2697985016864"><ele>130.0</ele><time>2026-04-12T10:01:18.998Z</time></trkpt><trkpt lat="45.184339600442634" lon="8.269931939112759"><ele>130.0</ele><time>2026-04-12T10:01:19.998Z</time></trkpt><trkpt lat="45.18433507271102" lon="8.270067435130288"><ele>130.0</ele><time>2026-04-12T10:01:20.998Z</time></trkpt><trkpt lat="45.18435124878825" lon="8.270233067510379"><ele>130.0</ele><time>2026-04-12T10:01:21.998Z</time></trkpt><trkpt lat="45.18437030410319" lon="8.270417640833188"><ele>130.0</ele><time>2026-04-12T10:01:22.998Z</time></trkpt><trkpt lat="45.184392036025564" lon="8.270628140258593"><ele>130.0</ele><time>2026-04-12T10:01:23.998Z</time></trkpt><trkpt lat="45.184433532429246" lon="8.270867937356272"><ele>130.0</ele><time>2026-04-12T10:01:24.998Z</time></trkpt><trkpt lat="45.184455796059524" lon="8.27112290210408"><ele>130.0</ele><time>2026-04-12T10:01:25.998Z</time></trkpt><trkpt lat="45.184481489807546" lon="8.271356168039848"><ele>130.0</ele><time>2026-04-12T10:01:26.998Z</time></trkpt><trkpt lat="45.184506107125515" lon="8.2715803819383"><ele>130.0</ele><time>2026-04-12T10:01:27.998Z</time></trkpt><trkpt lat="45.18453044935851" lon="8.271813163855938"><ele>130.0</ele><time>2026-04-12T10:01:28.998Z</time></trkpt><trkpt lat="45.184553703953625" lon="8.272049257835706"><ele>130.0</ele><time>2026-04-12T10:01:29.998Z</time></trkpt><trkpt lat="45.184576986271836" lon="8.272281101327893"><ele>130.25</ele><time>2026-04-12T10:01:30.998Z</time></trkpt><trkpt lat="45.1845953222993" lon="8.272493708802436"><ele>130.5</ele><time>2026-04-12T10:01:31.998Z</time></trkpt><trkpt lat="45.18461503880158" lon="8.27270484774179"><ele>130.75</ele><time>2026-04-12T10:01:32.998Z</time></trkpt><trkpt lat="45.18463080177278" lon="8.272889506301905"><ele>131.0</ele><time>2026-04-12T10:01:33.998Z</time></trkpt><trkpt lat="45.18464699460779" lon="8.273049825292684"><ele>131.0</ele><time>2026-04-12T10:01:34.998Z</time></trkpt><trkpt lat="45.184662355233236" lon="8.273199174820022"><ele>131.0</ele><time>2026-04-12T10:01:35.998Z</time></trkpt><trkpt lat="45.18467391906029" lon="8.273347932852625"><ele>131.0</ele><time>2026-04-12T10:01:36.998Z</time></trkpt><trkpt lat="45.18467228899978" lon="8.27351659388232"><ele>131.0</ele><time>2026-04-12T10:01:37.998Z</time></trkpt><trkpt lat="45.18467022364203" lon="8.273661243225195"><ele>131.0</ele><time>2026-04-12T10:01:39Z</time></trkpt><trkpt lat="45.18466736377807" lon="8.273790180481935"><ele>131.0</ele><time>2026-04-12T10:01:40Z</time></trkpt><trkpt lat="45.18466122078344" lon="8.273896764230804"><ele>131.0</ele><time>2026-04-12T10:01:41Z</time></trkpt><trkpt lat="45.184677036711825" lon="8.273985523883812"><ele>131.0</ele><time>2026-04-12T10:01:42Z</time></trkpt><trkpt lat="45.18475206250221" lon="8.27408946549278"><ele>131.0</ele><time>2026-04-12T10:01:44Z</time></trkpt><trkpt lat="45.18480695151887" lon="8.274133586571258"><ele>131.0</ele><time>2026-04-12T10:01:45Z</time></trkpt><trkpt lat="45.18489199332642" lon="8.27414006975965"><ele>131.0</ele><time>2026-04-12T10:01:46Z</time></trkpt><trkpt lat="45.1849835460465" lon="8.274139528730387"><ele>131.0</ele><time>2026-04-12T10:01:47Z</time></trkpt><trkpt lat="45.185046880005736" lon="8.274106776168024"><ele>131.0</ele><time>2026-04-12T10:01:48Z</time></trkpt><trkpt lat="45.18510046704738" lon="8.274056274156358"><ele>131.0</ele><time>2026-04-12T10:01:49Z</time></trkpt><trkpt lat="45.18516282386548" lon="8.273906679726181"><ele>131.0</ele><time>2026-04-12T10:01:51Z</time></trkpt><trkpt lat="45.18517619509777" lon="8.273798664654022"><ele>131.0</ele><time>2026-04-12T10:01:52Z</time></trkpt><trkpt lat="45.185176885461495" lon="8.27367353823522"><ele>131.0</ele><time>2026-04-12T10:01:53Z</time></trkpt><trkpt lat="45.18520091099684" lon="8.273569528887412"><ele>131.0</ele><time>2026-04-12T10:01:54Z</time></trkpt><trkpt lat="45.1852107368835" lon="8.27340834702668"><ele>131.0</ele><time>2026-04-12T10:01:56Z</time></trkpt><trkpt lat="45.18520556385591" lon="8.273272312416086"><ele>131.0</ele><time>2026-04-12T10:01:58Z</time></trkpt><trkpt lat="45.18521206765469" lon="8.27316635536881"><ele>131.0</ele><time>2026-04-12T10:01:59Z</time></trkpt><trkpt lat="45.18523322828983" lon="8.273039401592419"><ele>131.0</ele><time>2026-04-12T10:02:00Z</time></trkpt><trkpt lat="45.18524300486037" lon="8.272879027997297"><ele>131.0</ele><time>2026-04-12T10:02:01Z</time></trkpt><trkpt lat="45.18525441679443" lon="8.272693729605445"><ele>131.0</ele><time>2026-04-12T10:02:02Z</time></trkpt><trkpt lat="45.18525406080872" lon="8.272477074444433"><ele>131.0</ele><time>2026-04-12T10:02:03Z</time></trkpt><trkpt lat="45.18526974808309" lon="8.27226960852731"><ele>131.0</ele><time>2026-04-12T10:02:04Z</time></trkpt><trkpt lat="45.185294870058435" lon="8.272096241550864"><ele>131.0</ele><time>2026-04-12T10:02:05Z</time></trkpt><trkpt lat="45.18534481618037" lon="8.271969535738291"><ele>131.0</ele><time>2026-04-12T10:02:06Z</time></trkpt><trkpt lat="45.18537453434655" lon="8.27187555360217"><ele>131.0</ele><time>2026-04-12T10:02:07Z</time></trkpt><trkpt lat="45.18542232777639" lon="8.271787444442822"><ele>131.0</ele><time>2026-04-12T10:02:10Z</time></trkpt><trkpt lat="45.18537795949472" lon="8.27185289460533"><ele>131.0</ele><time>2026-04-12T10:02:13.999Z</time></trkpt><trkpt lat="45.185294197367746" lon="8.271871176560257"><ele>131.0</ele><time>2026-04-12T10:02:14.999Z</time></trkpt><trkpt lat="45.18530589754148" lon="8.27198845709047"><ele>131.0</ele><time>2026-04-12T10:02:15.999Z</time></trkpt><trkpt lat="45.185295994161265" lon="8.272099294332797"><ele>131.0</ele><time>2026-04-12T10:02:16.999Z</time></trkpt><trkpt lat="45.185279145342086" lon="8.272228743602097"><ele>131.0</ele><time>2026-04-12T10:02:17.999Z</time></trkpt><trkpt lat="45.1852615556581" lon="8.272349868678386"><ele>131.0</ele><time>2026-04-12T10:02:18.999Z</time></trkpt><trkpt lat="45.18524946689933" lon="8.27249256192183"><ele>131.0</ele><time>2026-04-12T10:02:19.999Z</time></trkpt><trkpt lat="45.18524254799733" lon="8.272639949977622"><ele>131.0</ele><time>2026-04-12T10:02:20.999Z</time></trkpt><trkpt lat="45.18523325312274" lon="8.27280480942387"><ele>131.0</ele><time>2026-04-12T10:02:21.999Z</time></trkpt><trkpt lat="45.18522041294331" lon="8.272985193173145"><ele>131.0</ele><time>2026-04-12T10:02:22.999Z</time></trkpt><trkpt lat="45.18520574792053" lon="8.273169414854978"><ele>131.0</ele><time>2026-04-12T10:02:23.999Z</time></trkpt><trkpt lat="45.185198704023115" lon="8.273324547557673"><ele>131.0</ele><time>2026-04-12T10:02:24.999Z</time></trkpt><trkpt lat="45.18519033048536" lon="8.273465232508746"><ele>131.0</ele><time>2026-04-12T10:02:25.999Z</time></trkpt><trkpt lat="45.185181626866694" lon="8.273588178811142"><ele>131.0</ele><time>2026-04-12T10:02:26.999Z</time></trkpt><trkpt lat="45.18517217219785" lon="8.273706185629676"><ele>131.0</ele><time>2026-04-12T10:02:27.999Z</time></trkpt><trkpt lat="45.18516186071759" lon="8.273827716540493"><ele>131.0</ele><time>2026-04-12T10:02:28.999Z</time></trkpt><trkpt lat="45.18513069563857" lon="8.273930074306145"><ele>131.0</ele><time>2026-04-12T10:02:29.999Z</time></trkpt><trkpt lat="45.185077800368404" lon="8.274022775575965"><ele>130.8</ele><time>2026-04-12T10:02:30.999Z</time></trkpt><trkpt lat="45.185011956755375" lon="8.274091931748712"><ele>130.6</ele><time>2026-04-12T10:02:31.999Z</time></trkpt><trkpt lat="45.184909423916466" lon="8.27416180122438"><ele>130.4</ele><time>2026-04-12T10:02:33.999Z</time></trkpt><trkpt lat="45.184816819333925" lon="8.274123069788994"><ele>130.2</ele><time>2026-04-12T10:02:35.999Z</time></trkpt><trkpt lat="45.18477403352954" lon="8.2740491850634"><ele>130.0</ele><time>2026-04-12T10:02:37.999Z</time></trkpt><trkpt lat="45.18479876471569" lon="8.274186663231996"><ele>130.00000000000003</ele><time>2026-04-12T10:02:43.999Z</time></trkpt><trkpt lat="45.1848692166346" lon="8.274167913205673"><ele>130.0</ele><time>2026-04-12T10:02:44.999Z</time></trkpt><trkpt lat="45.184934314193" lon="8.274145410151204"><ele>130.0</ele><time>2026-04-12T10:02:45.999Z</time></trkpt><trkpt lat="45.184999636955354" lon="8.274127178461054"><ele>130.0</ele><time>2026-04-12T10:02:46.999Z</time></trkpt><trkpt lat="45.18505480955976" lon="8.27408340442588"><ele>130.0</ele><time>2026-04-12T10:02:47.999Z</time></trkpt><trkpt lat="45.185101502237124" lon="8.274008988800993"><ele>130.00000000000003</ele><time>2026-04-12T10:02:48.999Z</time></trkpt><trkpt lat="45.18513889353599" lon="8.2738955022885"><ele>130.0</ele><time>2026-04-12T10:02:49.999Z</time></trkpt><trkpt lat="45.185170594347575" lon="8.27377360779823"><ele>130.0</ele><time>2026-04-12T10:02:50.999Z</time></trkpt><trkpt lat="45.1851895997753" lon="8.273613975781391"><ele>130.0</ele><time>2026-04-12T10:02:51.999Z</time></trkpt><trkpt lat="45.185198032410526" lon="8.27344608998779"><ele>130.0</ele><time>2026-04-12T10:02:52.999Z</time></trkpt><trkpt lat="45.185202552866954" lon="8.27325873404053"><ele>130.0</ele><time>2026-04-12T10:02:53.999Z</time></trkpt><trkpt lat="45.185211689813606" lon="8.273046881572508"><ele>130.0</ele><time>2026-04-12T10:02:54.999Z</time></trkpt><trkpt lat="45.185223704919665" lon="8.27283643664415"><ele>130.0</ele><time>2026-04-12T10:02:55.999Z</time></trkpt><trkpt lat="45.185238863483185" lon="8.272627038494438"><ele>130.0</ele><time>2026-04-12T10:02:56.998Z</time></trkpt><trkpt lat="45.18526004003559" lon="8.272442379807062"><ele>130.0</ele><time>2026-04-12T10:02:57.998Z</time></trkpt><trkpt lat="45.18527614604631" lon="8.272282663100178"><ele>130.2</ele><time>2026-04-12T10:02:58.998Z</time></trkpt><trkpt lat="45.1852979557592" lon="8.27214716249083"><ele>130.4</ele><time>2026-04-12T10:02:59.998Z</time></trkpt><trkpt lat="45.185318887471595" lon="8.272023104343402"><ele>130.6</ele><time>2026-04-12T10:03:00.998Z</time></trkpt><trkpt lat="45.18533841527103" lon="8.271904573016203"><ele>130.8</ele><time>2026-04-12T10:03:01.998Z</time></trkpt><trkpt lat="45.185344716797154" lon="8.271756679273212"><ele>131.0</ele><time>2026-04-12T10:03:02.998Z</time></trkpt><trkpt lat="45.18534121809628" lon="8.271568840063972"><ele>131.66666666666666</ele><time>2026-04-12T10:03:03.998Z</time></trkpt><trkpt lat="45.18532996551834" lon="8.271342830950612"><ele>132.33333333333334</ele><time>2026-04-12T10:03:04.998Z</time></trkpt><trkpt lat="45.18531411246726" lon="8.271103408468285"><ele>133.0</ele><time>2026-04-12T10:03:05.998Z</time></trkpt><trkpt lat="45.185284565930054" lon="8.270821496582592"><ele>132.33333333333334</ele><time>2026-04-12T10:03:06.998Z</time></trkpt><trkpt lat="45.18525222750295" lon="8.27053592702133"><ele>131.66666666666666</ele><time>2026-04-12T10:03:07.998Z</time></trkpt><trkpt lat="45.185219795461414" lon="8.270278998037503"><ele>131.0</ele><time>2026-04-12T10:03:08.998Z</time></trkpt><trkpt lat="45.18518388478603" lon="8.270022561357743"><ele>131.0</ele><time>2026-04-12T10:03:09.998Z</time></trkpt><trkpt lat="45.18515154882787" lon="8.269766519161053"><ele>131.0</ele><time>2026-04-12T10:03:10.998Z</time></trkpt><trkpt lat="45.18511959897668" lon="8.269535729698637"><ele>131.0</ele><time>2026-04-12T10:03:11.998Z</time></trkpt><trkpt lat="45.18508880049534" lon="8.269326337227515"><ele>131.0</ele><time>2026-04-12T10:03:12.998Z</time></trkpt><trkpt lat="45.185059100545125" lon="8.269124750866009"><ele>131.0</ele><time>2026-04-12T10:03:13.998Z</time></trkpt><trkpt lat="45.18503024719926" lon="8.268907521832764"><ele>131.0</ele><time>2026-04-12T10:03:14.998Z</time></trkpt><trkpt lat="45.18499521423012" lon="8.268670295793104"><ele>131.0</ele><time>2026-04-12T10:03:15.998Z</time></trkpt><trkpt lat="45.184956173169404" lon="8.268423583341571"><ele>131.0</ele><time>2026-04-12T10:03:16.998Z</time></trkpt><trkpt lat="45.18491512236058" lon="8.268178672386282"><ele>131.0</ele><time>2026-04-12T10:03:17.998Z</time></trkpt><trkpt lat="45.184870243668634" lon="8.26796275748752"><ele>131.66666666666666</ele><time>2026-04-12T10:03:18.998Z</time></trkpt><trkpt lat="45.18482580681037" lon="8.26775524821182"><ele>132.33333333333334</ele><time>2026-04-12T10:03:19.998Z</time></trkpt><trkpt lat="45.18478065478515" lon="8.267538088735693"><ele>133.0</ele><time>2026-04-12T10:03:20.998Z</time></trkpt><trkpt lat="45.18473125012799" lon="8.267321193214219"><ele>132.5</ele><time>2026-04-12T10:03:21.998Z</time></trkpt><trkpt lat="45.184690303734804" lon="8.267109533480033"><ele>132.0</ele><time>2026-04-12T10:03:22.998Z</time></trkpt><trkpt lat="45.18464697688785" lon="8.266914075921031"><ele>131.5</ele><time>2026-04-12T10:03:23.998Z</time></trkpt><trkpt lat="45.184607475579405" lon="8.266737431484271"><ele>131.0</ele><time>2026-04-12T10:03:24.998Z</time></trkpt><trkpt lat="45.18456796875381" lon="8.266575190268556"><ele>131.4</ele><time>2026-04-12T10:03:25.998Z</time></trkpt><trkpt lat="45.18454794050853" lon="8.266392324573513"><ele>131.8</ele><time>2026-04-12T10:03:26.998Z</time></trkpt><trkpt lat="45.184498736215716" lon="8.266224789443"><ele>132.20000000000002</ele><time>2026-04-12T10:03:27.998Z</time></trkpt><trkpt lat="45.18447902434208" lon="8.266131604413143"><ele>132.6</ele><time>2026-04-12T10:03:28.998Z</time></trkpt><trkpt lat="45.18451039289989" lon="8.266211881245429"><ele>133.0</ele><time>2026-04-12T10:03:47.999Z</time></trkpt><trkpt lat="45.18453943307575" lon="8.266365212214504"><ele>132.5</ele><time>2026-04-12T10:03:48.999Z</time></trkpt><trkpt lat="45.184568795904156" lon="8.266477807800161"><ele>132.0</ele><time>2026-04-12T10:03:49.999Z</time></trkpt><trkpt lat="45.18462101068782" lon="8.266623504526471"><ele>131.5</ele><time>2026-04-12T10:03:50.999Z</time></trkpt><trkpt lat="45.18465641167129" lon="8.266865350057211"><ele>131.0</ele><time>2026-04-12T10:03:51.999Z</time></trkpt><trkpt lat="45.18469822585114" lon="8.267097549889964"><ele>131.33333333333331</ele><time>2026-04-12T10:03:52.999Z</time></trkpt><trkpt lat="45.18475066455185" lon="8.267355810770184"><ele>131.66666666666666</ele><time>2026-04-12T10:03:54Z</time></trkpt><trkpt lat="45.18480576323089" lon="8.26762307466939"><ele>132.0</ele><time>2026-04-12T10:03:55Z</time></trkpt><trkpt lat="45.18486510950717" lon="8.267899300364329"><ele>131.66666666666666</ele><time>2026-04-12T10:03:56Z</time></trkpt><trkpt lat="45.18491962989046" lon="8.268168885236614"><ele>131.33333333333331</ele><time>2026-04-12T10:03:57Z</time></trkpt><trkpt lat="45.18497106050579" lon="8.268449976647831"><ele>131.0</ele><time>2026-04-12T10:03:58Z</time></trkpt><trkpt lat="45.18501842132868" lon="8.268763187002643"><ele>131.0</ele><time>2026-04-12T10:03:59Z</time></trkpt><trkpt lat="45.185064615302466" lon="8.269092227073886"><ele>131.0</ele><time>2026-04-12T10:04:00Z</time></trkpt><trkpt lat="45.185104279385826" lon="8.269441568681579"><ele>131.0</ele><time>2026-04-12T10:04:01Z</time></trkpt><trkpt lat="45.18514622063519" lon="8.269789069742968"><ele>131.0</ele><time>2026-04-12T10:04:02Z</time></trkpt><trkpt lat="45.18518964786491" lon="8.270119304856802"><ele>131.0</ele><time>2026-04-12T10:04:03Z</time></trkpt><trkpt lat="45.185231449349544" lon="8.270429234654221"><ele>131.0</ele><time>2026-04-12T10:04:04Z</time></trkpt><trkpt lat="45.18524281603025" lon="8.27071862005659"><ele>131.0</ele><time>2026-04-12T10:04:05Z</time></trkpt><trkpt lat="45.18526984917701" lon="8.270981692226432"><ele>131.0</ele><time>2026-04-12T10:04:06Z</time></trkpt><trkpt lat="45.18529384142125" lon="8.271226275456003"><ele>131.0</ele><time>2026-04-12T10:04:07Z</time></trkpt><trkpt lat="45.18531264940471" lon="8.27145190769821"><ele>131.0</ele><time>2026-04-12T10:04:08Z</time></trkpt><trkpt lat="45.18532045397406" lon="8.271654328606871"><ele>131.0</ele><time>2026-04-12T10:04:08.999Z</time></trkpt><trkpt lat="45.185316117000895" lon="8.271839112828456"><ele>131.0</ele><time>2026-04-12T10:04:09.999Z</time></trkpt><trkpt lat="45.18530950438549" lon="8.272003962062414"><ele>131.0</ele><time>2026-04-12T10:04:10.999Z</time></trkpt><trkpt lat="45.185260631455655" lon="8.27218516443317"><ele>131.0</ele><time>2026-04-12T10:04:11.999Z</time></trkpt><trkpt lat="45.185244607391155" lon="8.27232830554605"><ele>130.66666666666666</ele><time>2026-04-12T10:04:12.999Z</time></trkpt><trkpt lat="45.18522751979086" lon="8.272599439957741"><ele>130.33333333333334</ele><time>2026-04-12T10:04:13.999Z</time></trkpt><trkpt lat="45.18521085463045" lon="8.272858272768051"><ele>130.0</ele><time>2026-04-12T10:04:14.999Z</time></trkpt><trkpt lat="45.18519516170679" lon="8.27307187066233"><ele>130.25</ele><time>2026-04-12T10:04:15.999Z</time></trkpt><trkpt lat="45.18518561063525" lon="8.273272371381944"><ele>130.5</ele><time>2026-04-12T10:04:16.999Z</time></trkpt><trkpt lat="45.18517573984855" lon="8.273434290292057"><ele>130.75</ele><time>2026-04-12T10:04:17.999Z</time></trkpt><trkpt lat="45.1851631029452" lon="8.273620377504722"><ele>131.0</ele><time>2026-04-12T10:04:18.999Z</time></trkpt><trkpt lat="45.18516392323601" lon="8.273767016792874"><ele>131.0</ele><time>2026-04-12T10:04:19.999Z</time></trkpt><trkpt lat="45.18513024276075" lon="8.273890379922273"><ele>131.0</ele><time>2026-04-12T10:04:20.999Z</time></trkpt><trkpt lat="45.18503463152382" lon="8.274086731911526"><ele>131.0</ele><time>2026-04-12T10:04:22.999Z</time></trkpt><trkpt lat="45.184966981620235" lon="8.274131126300157"><ele>131.0</ele><time>2026-04-12T10:04:23.999Z</time></trkpt><trkpt lat="45.18489175331962" lon="8.274115041834476"><ele>131.0</ele><time>2026-04-12T10:04:24.999Z</time></trkpt><trkpt lat="45.18482010490925" lon="8.27410817071958"><ele>131.0</ele><time>2026-04-12T10:04:25.999Z</time></trkpt><trkpt lat="45.18476634346454" lon="8.274049802157192"><ele>131.0</ele><time>2026-04-12T10:04:26.999Z</time></trkpt><trkpt lat="45.18471744618939" lon="8.273987510783016"><ele>131.0</ele><time>2026-04-12T10:04:27.999Z</time></trkpt><trkpt lat="45.18467713898626" lon="8.273844245476234"><ele>131.0</ele><time>2026-04-12T10:04:29.999Z</time></trkpt><trkpt lat="45.18470215074472" lon="8.273723519939017"><ele>131.0</ele><time>2026-04-12T10:04:30.999Z</time></trkpt><trkpt lat="45.18470473891757" lon="8.273606832048713"><ele>131.0</ele><time>2026-04-12T10:04:31.999Z</time></trkpt><trkpt lat="45.18468605271347" lon="8.27344312286401"><ele>131.0</ele><time>2026-04-12T10:04:32.999Z</time></trkpt><trkpt lat="45.18468162094403" lon="8.273267329635704"><ele>131.0</ele><time>2026-04-12T10:04:33.999Z</time></trkpt><trkpt lat="45.184661630509325" lon="8.273094381876875"><ele>131.0</ele><time>2026-04-12T10:04:34.999Z</time></trkpt><trkpt lat="45.18464040932728" lon="8.27289206676554"><ele>131.0</ele><time>2026-04-12T10:04:35.999Z</time></trkpt><trkpt lat="45.18463183756734" lon="8.27265820382916"><ele>131.0</ele><time>2026-04-12T10:04:36.999Z</time></trkpt><trkpt lat="45.18459108527289" lon="8.272397146321811"><ele>131.0</ele><time>2026-04-12T10:04:37.999Z</time></trkpt><trkpt lat="45.18456915795411" lon="8.272116527953813"><ele>131.0</ele><time>2026-04-12T10:04:38.999Z</time></trkpt><trkpt lat="45.18454692288098" lon="8.27189615443394"><ele>130.75</ele><time>2026-04-12T10:04:39.999Z</time></trkpt><trkpt lat="45.18452214643243" lon="8.271674121951712"><ele>130.5</ele><time>2026-04-12T10:04:40.999Z</time></trkpt><trkpt lat="45.18450502231703" lon="8.271500482531698"><ele>130.25</ele><time>2026-04-12T10:04:41.999Z</time></trkpt><trkpt lat="45.18448561500567" lon="8.271312942783378"><ele>130.0</ele><time>2026-04-12T10:04:42.999Z</time></trkpt><trkpt lat="45.18446534176051" lon="8.271136958945695"><ele>130.0</ele><time>2026-04-12T10:04:43.999Z</time></trkpt><trkpt lat="45.18444666334106" lon="8.270970934184067"><ele>130.0</ele><time>2026-04-12T10:04:44.999Z</time></trkpt><trkpt lat="45.184426103638074" lon="8.270793886453436"><ele>130.0</ele><time>2026-04-12T10:04:45.999Z</time></trkpt><trkpt lat="45.18441540649947" lon="8.270630776452162"><ele>130.0</ele><time>2026-04-12T10:04:46.999Z</time></trkpt><trkpt lat="45.184400073537255" lon="8.270484986476248"><ele>130.0</ele><time>2026-04-12T10:04:47.999Z</time></trkpt><trkpt lat="45.1843836266134" lon="8.270326445145086"><ele>130.0</ele><time>2026-04-12T10:04:48.999Z</time></trkpt><trkpt lat="45.184365070692586" lon="8.270152127484705"><ele>130.0</ele><time>2026-04-12T10:04:49.999Z</time></trkpt><trkpt lat="45.18434737741078" lon="8.269989633702776"><ele>130.0</ele><time>2026-04-12T10:04:50.999Z</time></trkpt><trkpt lat="45.184334291109415" lon="8.269865861693582"><ele>130.0</ele><time>2026-04-12T10:04:51.999Z</time></trkpt><trkpt lat="45.184327257003396" lon="8.269770043023637"><ele>130.0</ele><time>2026-04-12T10:04:52.999Z</time></trkpt><trkpt lat="45.18426837671057" lon="8.269712044047571"><ele>130.0</ele><time>2026-04-12T10:04:53.999Z</time></trkpt><trkpt lat="45.18422811682156" lon="8.269632628833872"><ele>130.0</ele><time>2026-04-12T10:04:56.999Z</time></trkpt><trkpt lat="45.1840442728112" lon="8.269864138806257"><ele>130.0</ele><time>2026-04-12T10:05:01.999Z</time></trkpt><trkpt lat="45.18395958043673" lon="8.269956599296696"><ele>129.25</ele><time>2026-04-12T10:05:02.999Z</time></trkpt><trkpt lat="45.183860350065785" lon="8.27006261586713"><ele>128.5</ele><time>2026-04-12T10:05:03.999Z</time></trkpt><trkpt lat="45.183753227258606" lon="8.270176768458725"><ele>127.75</ele><time>2026-04-12T10:05:04.998Z</time></trkpt><trkpt lat="45.1836376042419" lon="8.270308282626612"><ele>127.0</ele><time>2026-04-12T10:05:05.998Z</time></trkpt><trkpt lat="45.18351359399563" lon="8.270448286417265"><ele>127.0</ele><time>2026-04-12T10:05:06.998Z</time></trkpt><trkpt lat="45.18338991177136" lon="8.27057904258528"><ele>127.0</ele><time>2026-04-12T10:05:07.998Z</time></trkpt><trkpt lat="45.18328633246198" lon="8.270692580477462"><ele>127.0</ele><time>2026-04-12T10:05:08.998Z</time></trkpt><trkpt lat="45.18319586803569" lon="8.27079454300604"><ele>127.0</ele><time>2026-04-12T10:05:09.998Z</time></trkpt><trkpt lat="45.183121039322785" lon="8.270886986205202"><ele>127.00000000000001</ele><time>2026-04-12T10:05:10.998Z</time></trkpt><trkpt lat="45.183066321324006" lon="8.270973930061965"><ele>127.0</ele><time>2026-04-12T10:05:11.998Z</time></trkpt><trkpt lat="45.1830320535201" lon="8.271077145170803"><ele>127.0</ele><time>2026-04-12T10:05:12.998Z</time></trkpt><trkpt lat="45.18300832956345" lon="8.271191069978265"><ele>127.0</ele><time>2026-04-12T10:05:13.998Z</time></trkpt><trkpt lat="45.182999112011416" lon="8.271310853991704"><ele>127.00000000000001</ele><time>2026-04-12T10:05:14.998Z</time></trkpt><trkpt lat="45.18299072148516" lon="8.271447039791841"><ele>127.0</ele><time>2026-04-12T10:05:15.998Z</time></trkpt><trkpt lat="45.18297968524521" lon="8.271593875317663"><ele>127.25</ele><time>2026-04-12T10:05:16.998Z</time></trkpt><trkpt lat="45.18296259107745" lon="8.271746704820718"><ele>127.5</ele><time>2026-04-12T10:05:17.998Z</time></trkpt><trkpt lat="45.18294770610144" lon="8.271901187746973"><ele>127.75</ele><time>2026-04-12T10:05:18.998Z</time></trkpt><trkpt lat="45.18292770224419" lon="8.2720615930146"><ele>128.0</ele><time>2026-04-12T10:05:19.998Z</time></trkpt><trkpt lat="45.18290284381019" lon="8.272227794946525"><ele>128.0</ele><time>2026-04-12T10:05:20.998Z</time></trkpt><trkpt lat="45.182881262773684" lon="8.272411541937538"><ele>128.0</ele><time>2026-04-12T10:05:21.998Z</time></trkpt><trkpt lat="45.182860315455265" lon="8.272611995316664"><ele>128.0</ele><time>2026-04-12T10:05:22.998Z</time></trkpt><trkpt lat="45.18283895131153" lon="8.272819573918571"><ele>128.0</ele><time>2026-04-12T10:05:23.998Z</time></trkpt><trkpt lat="45.18281245120918" lon="8.273025526646919"><ele>127.5</ele><time>2026-04-12T10:05:24.998Z</time></trkpt><trkpt lat="45.18279170110412" lon="8.273212558403177"><ele>127.0</ele><time>2026-04-12T10:05:25.998Z</time></trkpt><trkpt lat="45.182775404160054" lon="8.273372218524434"><ele>126.5</ele><time>2026-04-12T10:05:26.998Z</time></trkpt><trkpt lat="45.1827575916971" lon="8.273518366892178"><ele>126.0</ele><time>2026-04-12T10:05:27.998Z</time></trkpt><trkpt lat="45.18274224970517" lon="8.273656787395588"><ele>126.0</ele><time>2026-04-12T10:05:28.998Z</time></trkpt><trkpt lat="45.18272850056205" lon="8.27378270094761"><ele>126.0</ele><time>2026-04-12T10:05:29.998Z</time></trkpt><trkpt lat="45.18271477386656" lon="8.27389297089391"><ele>126.0</ele><time>2026-04-12T10:05:30.998Z</time></trkpt><trkpt lat="45.18270030293619" lon="8.274000481813426"><ele>126.0</ele><time>2026-04-12T10:05:31.998Z</time></trkpt><trkpt lat="45.1826872163433" lon="8.274090072242352"><ele>126.0</ele><time>2026-04-12T10:05:32.998Z</time></trkpt><trkpt lat="45.182664913083784" lon="8.274238357092667"><ele>126.0</ele><time>2026-04-12T10:05:34.998Z</time></trkpt><trkpt lat="45.18266632539444" lon="8.274333829476808"><ele>126.0</ele><time>2026-04-12T10:05:37.998Z</time></trkpt><trkpt lat="45.182736311485876" lon="8.27430269127664"><ele>126.0</ele><time>2026-04-12T10:05:40.998Z</time></trkpt><trkpt lat="45.182728094167366" lon="8.274170072471094"><ele>126.0</ele><time>2026-04-12T10:05:42.998Z</time></trkpt><trkpt lat="45.18270673983761" lon="8.274040012848015"><ele>126.0</ele><time>2026-04-12T10:05:43.998Z</time></trkpt><trkpt lat="45.182714119707626" lon="8.27391427484624"><ele>126.0</ele><time>2026-04-12T10:05:44.998Z</time></trkpt><trkpt lat="45.182736975052904" lon="8.273766869040955"><ele>126.0</ele><time>2026-04-12T10:05:45.998Z</time></trkpt><trkpt lat="45.182759004091224" lon="8.273609202216281"><ele>126.0</ele><time>2026-04-12T10:05:46.998Z</time></trkpt><trkpt lat="45.18278421782792" lon="8.273426527825363"><ele>126.0</ele><time>2026-04-12T10:05:47.998Z</time></trkpt><trkpt lat="45.18280193794501" lon="8.2732434470641"><ele>126.0</ele><time>2026-04-12T10:05:48.998Z</time></trkpt><trkpt lat="45.18282323575461" lon="8.27305942645448"><ele>126.5</ele><time>2026-04-12T10:05:49.998Z</time></trkpt><trkpt lat="45.18284921353235" lon="8.272864092916336"><ele>127.0</ele><time>2026-04-12T10:05:51Z</time></trkpt><trkpt lat="45.182871816994265" lon="8.27266475889044"><ele>127.5</ele><time>2026-04-12T10:05:52Z</time></trkpt><trkpt lat="45.18289551083101" lon="8.272454229479521"><ele>128.0</ele><time>2026-04-12T10:05:53Z</time></trkpt><trkpt lat="45.18291946396987" lon="8.272244423709468"><ele>128.0</ele><time>2026-04-12T10:05:54Z</time></trkpt><trkpt lat="45.18294079236391" lon="8.272061806004842"><ele>128.0</ele><time>2026-04-12T10:05:55Z</time></trkpt><trkpt lat="45.1829594080226" lon="8.271868031878835"><ele>128.0</ele><time>2026-04-12T10:05:56Z</time></trkpt><trkpt lat="45.182979200655275" lon="8.2716909385289"><ele>128.0</ele><time>2026-04-12T10:05:57Z</time></trkpt><trkpt lat="45.18300105811797" lon="8.271524380085744"><ele>127.80000000000001</ele><time>2026-04-12T10:05:58Z</time></trkpt><trkpt lat="45.18301708669853" lon="8.27137792847247"><ele>127.60000000000001</ele><time>2026-04-12T10:05:59Z</time></trkpt><trkpt lat="45.18303203430968" lon="8.271227246745259"><ele>127.39999999999999</ele><time>2026-04-12T10:06:00Z</time></trkpt><trkpt lat="45.18304663207256" lon="8.271091277047148"><ele>127.19999999999999</ele><time>2026-04-12T10:06:01Z</time></trkpt><trkpt lat="45.18308262882343" lon="8.270974440183206"><ele>127.0</ele><time>2026-04-12T10:06:02Z</time></trkpt><trkpt lat="45.18312989363066" lon="8.27088483007481"><ele>127.0</ele><time>2026-04-12T10:06:03Z</time></trkpt><trkpt lat="45.1831901267917" lon="8.270802048283233"><ele>126.99999999999999</ele><time>2026-04-12T10:06:04Z</time></trkpt><trkpt lat="45.18326311380697" lon="8.270719077886795"><ele>126.99999999999999</ele><time>2026-04-12T10:06:05Z</time></trkpt><trkpt lat="45.18333823638434" lon="8.270632706045593"><ele>127.0</ele><time>2026-04-12T10:06:06Z</time></trkpt><trkpt lat="45.18342444480152" lon="8.270538721940952"><ele>127.0</ele><time>2026-04-12T10:06:07Z</time></trkpt><trkpt lat="45.183527228109575" lon="8.270425593209412"><ele>127.0</ele><time>2026-04-12T10:06:08Z</time></trkpt><trkpt lat="45.183644325090555" lon="8.270296372304347"><ele>127.0</ele><time>2026-04-12T10:06:09Z</time></trkpt><trkpt lat="45.18377003338474" lon="8.270158933644241"><ele>127.0</ele><time>2026-04-12T10:06:10Z</time></trkpt><trkpt lat="45.183891488181665" lon="8.270028646464155"><ele>127.0</ele><time>2026-04-12T10:06:11Z</time></trkpt><trkpt lat="45.18399357759613" lon="8.269915674204881"><ele>126.99999999999999</ele><time>2026-04-12T10:06:12Z</time></trkpt><trkpt lat="45.18408023372229" lon="8.269814274245238"><ele>126.99999999999999</ele><time>2026-04-12T10:06:13Z</time></trkpt><trkpt lat="45.18415521777451" lon="8.269733470966735"><ele>127.0</ele><time>2026-04-12T10:06:14Z</time></trkpt><trkpt lat="45.18420493491975" lon="8.269674198023615"><ele>127.0</ele><time>2026-04-12T10:06:15Z</time></trkpt><trkpt lat="45.18424789773972" lon="8.269539627699174"><ele>127.50000000000001</ele><time>2026-04-12T10:06:17Z</time></trkpt><trkpt lat="45.18425137785244" lon="8.269445482658721"><ele>128.0</ele><time>2026-04-12T10:06:18Z</time></trkpt><trkpt lat="45.184246768434356" lon="8.26934718863568"><ele>128.5</ele><time>2026-04-12T10:06:19Z</time></trkpt><trkpt lat="45.184235401388705" lon="8.269227939159153"><ele>129.0</ele><time>2026-04-12T10:06:20Z</time></trkpt><trkpt lat="45.1842028411901" lon="8.269077676038497"><ele>129.5</ele><time>2026-04-12T10:06:21Z</time></trkpt><trkpt lat="45.184189281882865" lon="8.268923690893997"><ele>130.0</ele><time>2026-04-12T10:06:22Z</time></trkpt><trkpt lat="45.18416742419799" lon="8.268724789821526"><ele>130.66666666666669</ele><time>2026-04-12T10:06:23Z</time></trkpt><trkpt lat="45.18415780316642" lon="8.268514151832049"><ele>131.33333333333334</ele><time>2026-04-12T10:06:24Z</time></trkpt><trkpt lat="45.18412110042327" lon="8.268298023335536"><ele>132.0</ele><time>2026-04-12T10:06:25Z</time></trkpt><trkpt lat="45.18410011639396" lon="8.268074865813183"><ele>132.33333333333334</ele><time>2026-04-12T10:06:26Z</time></trkpt><trkpt lat="45.18407538443362" lon="8.26783773652923"><ele>132.66666666666669</ele><time>2026-04-12T10:06:27Z</time></trkpt><trkpt lat="45.18404954277599" lon="8.267584144224985"><ele>133.0</ele><time>2026-04-12T10:06:27.999Z</time></trkpt><trkpt lat="45.18402224628549" lon="8.267314745185564"><ele>132.33333333333334</ele><time>2026-04-12T10:06:28.999Z</time></trkpt><trkpt lat="45.18399432661008" lon="8.267068681741717"><ele>131.66666666666666</ele><time>2026-04-12T10:06:29.999Z</time></trkpt><trkpt lat="45.18397110104863" lon="8.266824517346349"><ele>131.0</ele><time>2026-04-12T10:06:30.999Z</time></trkpt><trkpt lat="45.18394977989147" lon="8.266584787375244"><ele>130.33333333333331</ele><time>2026-04-12T10:06:31.999Z</time></trkpt><trkpt lat="45.183924974693824" lon="8.266337737849822"><ele>129.66666666666666</ele><time>2026-04-12T10:06:32.999Z</time></trkpt><trkpt lat="45.18389846317566" lon="8.266085952634592"><ele>129.0</ele><time>2026-04-12T10:06:33.999Z</time></trkpt><trkpt lat="45.18387056770143" lon="8.265821692953958"><ele>129.33333333333334</ele><time>2026-04-12T10:06:34.999Z</time></trkpt><trkpt lat="45.1838432494207" lon="8.265561375119239"><ele>129.66666666666669</ele><time>2026-04-12T10:06:35.999Z</time></trkpt><trkpt lat="45.18381574437553" lon="8.265313368770952"><ele>130.0</ele><time>2026-04-12T10:06:36.999Z</time></trkpt><trkpt lat="45.18379217470823" lon="8.265105962367642"><ele>130.0</ele><time>2026-04-12T10:06:37.999Z</time></trkpt><trkpt lat="45.183787096514926" lon="8.264936814492142"><ele>130.0</ele><time>2026-04-12T10:06:38.999Z</time></trkpt><trkpt lat="45.18378824602306" lon="8.264828816276095"><ele>130.0</ele><time>2026-04-12T10:06:39.999Z</time></trkpt><trkpt lat="45.18384112461554" lon="8.264760432325337"><ele>130.0</ele><time>2026-04-12T10:06:58.999Z</time></trkpt><trkpt lat="45.1838308297638" lon="8.26461635634886"><ele>130.0</ele><time>2026-04-12T10:07:00.999Z</time></trkpt><trkpt lat="45.18386728573803" lon="8.264530059338822"><ele>130.0</ele><time>2026-04-12T10:07:02.999Z</time></trkpt><trkpt lat="45.18397726274263" lon="8.264470789339144"><ele>130.83333333333334</ele><time>2026-04-12T10:07:05.999Z</time></trkpt><trkpt lat="45.18405463996835" lon="8.264449395549796"><ele>131.66666666666669</ele><time>2026-04-12T10:07:06.999Z</time></trkpt><trkpt lat="45.18413342701985" lon="8.264422464418564"><ele>132.5</ele><time>2026-04-12T10:07:07.999Z</time></trkpt><trkpt lat="45.18419804181723" lon="8.264400455398073"><ele>133.33333333333334</ele><time>2026-04-12T10:07:08.999Z</time></trkpt><trkpt lat="45.18428707075489" lon="8.264348377744607"><ele>134.16666666666666</ele><time>2026-04-12T10:07:10.999Z</time></trkpt><trkpt lat="45.18435742695059" lon="8.2642105204754"><ele>135.0</ele><time>2026-04-12T10:07:12.999Z</time></trkpt><trkpt lat="45.18439878111227" lon="8.264125380329343"><ele>135.0</ele><time>2026-04-12T10:07:13.999Z</time></trkpt><trkpt lat="45.184429400547394" lon="8.264033973321895"><ele>135.0</ele><time>2026-04-12T10:07:14.999Z</time></trkpt><trkpt lat="45.184437459168386" lon="8.263926436189136"><ele>135.0</ele><time>2026-04-12T10:07:15.999Z</time></trkpt><trkpt lat="45.18445231911988" lon="8.263800714886202"><ele>135.0</ele><time>2026-04-12T10:07:16.999Z</time></trkpt><trkpt lat="45.184487765513246" lon="8.263669317232965"><ele>135.0</ele><time>2026-04-12T10:07:17.999Z</time></trkpt><trkpt lat="45.18452180098362" lon="8.263571144935884"><ele>135.0</ele><time>2026-04-12T10:07:18.998Z</time></trkpt><trkpt lat="45.184585528502524" lon="8.263416616095295"><ele>134.0</ele><time>2026-04-12T10:07:19.998Z</time></trkpt><trkpt lat="45.18462007741878" lon="8.263253314765022"><ele>133.0</ele><time>2026-04-12T10:07:20.998Z</time></trkpt><trkpt lat="45.18468765671399" lon="8.263110413619765"><ele>132.0</ele><time>2026-04-12T10:07:21.998Z</time></trkpt><trkpt lat="45.18475795841525" lon="8.262962266487563"><ele>131.0</ele><time>2026-04-12T10:07:22.998Z</time></trkpt><trkpt lat="45.18482772482392" lon="8.262809794319423"><ele>131.5</ele><time>2026-04-12T10:07:23.998Z</time></trkpt><trkpt lat="45.18491241643854" lon="8.26264998569173"><ele>132.0</ele><time>2026-04-12T10:07:24.998Z</time></trkpt><trkpt lat="45.184999388251235" lon="8.262474264132845"><ele>132.5</ele><time>2026-04-12T10:07:25.998Z</time></trkpt><trkpt lat="45.18507746035002" lon="8.262301040387566"><ele>133.0</ele><time>2026-04-12T10:07:26.998Z</time></trkpt><trkpt lat="45.18514429946052" lon="8.262107325289476"><ele>133.0</ele><time>2026-04-12T10:07:27.998Z</time></trkpt><trkpt lat="45.185227189950446" lon="8.261953593840929"><ele>133.0</ele><time>2026-04-12T10:07:28.998Z</time></trkpt><trkpt lat="45.18531572455708" lon="8.2618136899505"><ele>133.0</ele><time>2026-04-12T10:07:29.998Z</time></trkpt><trkpt lat="45.185379776156104" lon="8.26168213220758"><ele>133.0</ele><time>2026-04-12T10:07:30.998Z</time></trkpt><trkpt lat="45.185414829776754" lon="8.261547153070495"><ele>133.0</ele><time>2026-04-12T10:07:31.998Z</time></trkpt><trkpt lat="45.18543798534026" lon="8.261438126493141"><ele>133.0</ele><time>2026-04-12T10:07:32.998Z</time></trkpt><trkpt lat="45.185452115096346" lon="8.26133014056512"><ele>133.0</ele><time>2026-04-12T10:07:33.998Z</time></trkpt><trkpt lat="45.18549428465055" lon="8.26119431968842"><ele>133.0</ele><time>2026-04-12T10:07:35.998Z</time></trkpt><trkpt lat="45.18559181453751" lon="8.261128061058832"><ele>133.0</ele><time>2026-04-12T10:07:37.998Z</time></trkpt><trkpt lat="45.18571775241361" lon="8.261160928515197"><ele>133.0</ele><time>2026-04-12T10:07:39.998Z</time></trkpt><trkpt lat="45.18577548589513" lon="8.26121590097058"><ele>133.0</ele><time>2026-04-12T10:07:40.998Z</time></trkpt><trkpt lat="45.18583333992636" lon="8.26127464975096"><ele>133.0</ele><time>2026-04-12T10:07:41.998Z</time></trkpt><trkpt lat="45.185917512947306" lon="8.26130511319045"><ele>133.0</ele><time>2026-04-12T10:07:42.998Z</time></trkpt><trkpt lat="45.18600563807862" lon="8.261340929540802"><ele>133.0</ele><time>2026-04-12T10:07:43.998Z</time></trkpt><trkpt lat="45.186103170864925" lon="8.261371497119413"><ele>133.0</ele><time>2026-04-12T10:07:44.998Z</time></trkpt><trkpt lat="45.186170537121335" lon="8.261420813990899"><ele>133.0</ele><time>2026-04-12T10:07:45.998Z</time></trkpt><trkpt lat="45.18621652803299" lon="8.261512002652909"><ele>133.0</ele><time>2026-04-12T10:07:46.998Z</time></trkpt><trkpt lat="45.18627155709612" lon="8.261609400461758"><ele>133.0</ele><time>2026-04-12T10:07:47.998Z</time></trkpt><trkpt lat="45.18633261268689" lon="8.261735053549343"><ele>133.0</ele><time>2026-04-12T10:07:48.998Z</time></trkpt><trkpt lat="45.18641484430222" lon="8.261879790472355"><ele>133.0</ele><time>2026-04-12T10:07:49.998Z</time></trkpt><trkpt lat="45.186519658446336" lon="8.262028813364417"><ele>133.0</ele><time>2026-04-12T10:07:50.998Z</time></trkpt><trkpt lat="45.18661028245702" lon="8.262212505829245"><ele>133.0</ele><time>2026-04-12T10:07:51.998Z</time></trkpt><trkpt lat="45.18670745148755" lon="8.26237168381095"><ele>133.0</ele><time>2026-04-12T10:07:52.998Z</time></trkpt><trkpt lat="45.18677874579547" lon="8.262540786467653"><ele>133.0</ele><time>2026-04-12T10:07:53.998Z</time></trkpt><trkpt lat="45.18686479886678" lon="8.262707894174273"><ele>133.33333333333334</ele><time>2026-04-12T10:07:54.998Z</time></trkpt><trkpt lat="45.18695525187885" lon="8.26287683713091"><ele>133.66666666666666</ele><time>2026-04-12T10:07:55.998Z</time></trkpt><trkpt lat="45.18704950455319" lon="8.263046374761883"><ele>134.0</ele><time>2026-04-12T10:07:57Z</time></trkpt><trkpt lat="45.18715342131416" lon="8.263233295723165"><ele>134.0</ele><time>2026-04-12T10:07:58Z</time></trkpt><trkpt lat="45.187249117065335" lon="8.263405428753494"><ele>134.0</ele><time>2026-04-12T10:07:59Z</time></trkpt><trkpt lat="45.18733433519601" lon="8.263558715597048"><ele>134.0</ele><time>2026-04-12T10:08:00Z</time></trkpt><trkpt lat="45.18740981591552" lon="8.26369448664142"><ele>134.0</ele><time>2026-04-12T10:08:01Z</time></trkpt><trkpt lat="45.18748887938296" lon="8.263836702499061"><ele>133.75</ele><time>2026-04-12T10:08:02Z</time></trkpt><trkpt lat="45.187567275479445" lon="8.263977056449141"><ele>133.5</ele><time>2026-04-12T10:08:03Z</time></trkpt><trkpt lat="45.18764744778521" lon="8.264119661100564"><ele>133.25</ele><time>2026-04-12T10:08:04Z</time></trkpt><trkpt lat="45.1877322813426" lon="8.264236837431158"><ele>133.0</ele><time>2026-04-12T10:08:05Z</time></trkpt><trkpt lat="45.18779714525108" lon="8.264348136876448"><ele>133.0</ele><time>2026-04-12T10:08:06Z</time></trkpt><trkpt lat="45.187856776854844" lon="8.264448679658356"><ele>133.0</ele><time>2026-04-12T10:08:07Z</time></trkpt><trkpt lat="45.18789658068154" lon="8.264562144939424"><ele>133.0</ele><time>2026-04-12T10:08:08Z</time></trkpt><trkpt lat="45.18794191086344" lon="8.264658143503553"><ele>133.0</ele><time>2026-04-12T10:08:09Z</time></trkpt><trkpt lat="45.18797534827175" lon="8.26474646406498"><ele>133.0</ele><time>2026-04-12T10:08:10Z</time></trkpt><trkpt lat="45.18800813124019" lon="8.264835329799451"><ele>133.0</ele><time>2026-04-12T10:08:11Z</time></trkpt><trkpt lat="45.18806059554796" lon="8.26496581335655"><ele>132.75</ele><time>2026-04-12T10:08:13Z</time></trkpt><trkpt lat="45.1882184973823" lon="8.264972605243361"><ele>132.5</ele><time>2026-04-12T10:08:15Z</time></trkpt><trkpt lat="45.188299897593325" lon="8.26491904711352"><ele>132.25</ele><time>2026-04-12T10:08:16Z</time></trkpt><trkpt lat="45.18841124535964" lon="8.26489122316301"><ele>132.0</ele><time>2026-04-12T10:08:17Z</time></trkpt><trkpt lat="45.18852757958723" lon="8.264839431685358"><ele>132.0</ele><time>2026-04-12T10:08:18Z</time></trkpt><trkpt lat="45.188628528232115" lon="8.264794489835033"><ele>132.0</ele><time>2026-04-12T10:08:19Z</time></trkpt><trkpt lat="45.18870904585933" lon="8.264760131117967"><ele>132.0</ele><time>2026-04-12T10:08:20Z</time></trkpt><trkpt lat="45.188801379831396" lon="8.264708742630113"><ele>132.0</ele><time>2026-04-12T10:08:22Z</time></trkpt><trkpt lat="45.18887041948539" lon="8.264713749082611"><ele>132.0</ele><time>2026-04-12T10:08:25Z</time></trkpt><trkpt lat="45.18888759933998" lon="8.264924998619113"><ele>132.0</ele><time>2026-04-12T10:08:27Z</time></trkpt><trkpt lat="45.188892947049716" lon="8.265081067053861"><ele>132.0</ele><time>2026-04-12T10:08:28Z</time></trkpt><trkpt lat="45.18887467669336" lon="8.265259250721785"><ele>132.0</ele><time>2026-04-12T10:08:29Z</time></trkpt><trkpt lat="45.18886008726907" lon="8.265471849980635"><ele>132.0</ele><time>2026-04-12T10:08:30Z</time></trkpt><trkpt lat="45.18884758418662" lon="8.265707350521861"><ele>131.66666666666666</ele><time>2026-04-12T10:08:31Z</time></trkpt><trkpt lat="45.18884128133957" lon="8.265961714424915"><ele>131.33333333333331</ele><time>2026-04-12T10:08:32Z</time></trkpt><trkpt lat="45.188827303118174" lon="8.266248811784253"><ele>131.0</ele><time>2026-04-12T10:08:33Z</time></trkpt><trkpt lat="45.188807553063505" lon="8.266554805430463"><ele>130.0</ele><time>2026-04-12T10:08:34Z</time></trkpt><trkpt lat="45.188791877519435" lon="8.266905202287889"><ele>129.0</ele><time>2026-04-12T10:08:35Z</time></trkpt><trkpt lat="45.18877164136948" lon="8.267261848329913"><ele>129.5</ele><time>2026-04-12T10:08:36Z</time></trkpt><trkpt lat="45.18875316923495" lon="8.267661374703781"><ele>130.0</ele><time>2026-04-12T10:08:36.999Z</time></trkpt><trkpt lat="45.18873190376847" lon="8.268072188189118"><ele>130.0</ele><time>2026-04-12T10:08:37.999Z</time></trkpt><trkpt lat="45.18871480072907" lon="8.268496545006546"><ele>130.0</ele><time>2026-04-12T10:08:38.999Z</time></trkpt><trkpt lat="45.18869585725906" lon="8.268943693163962"><ele>130.0</ele><time>2026-04-12T10:08:39.999Z</time></trkpt><trkpt lat="45.18866977081732" lon="8.269365454168003"><ele>130.0</ele><time>2026-04-12T10:08:40.999Z</time></trkpt><trkpt lat="45.18865034135352" lon="8.269773654879241"><ele>129.5</ele><time>2026-04-12T10:08:41.999Z</time></trkpt><trkpt lat="45.18863041628162" lon="8.270181427452654"><ele>129.0</ele><time>2026-04-12T10:08:42.999Z</time></trkpt><trkpt lat="45.18860938954398" lon="8.270600460944552"><ele>128.5</ele><time>2026-04-12T10:08:43.999Z</time></trkpt><trkpt lat="45.18858794067075" lon="8.271016695456334"><ele>128.0</ele><time>2026-04-12T10:08:44.999Z</time></trkpt><trkpt lat="45.1885465584616" lon="8.271841979468634"><ele>130.0</ele><time>2026-04-12T10:08:46.999Z</time></trkpt><trkpt lat="45.18852507643173" lon="8.272246136851503"><ele>132.0</ele><time>2026-04-12T10:08:47.999Z</time></trkpt><trkpt lat="45.188505890163285" lon="8.272633491450348"><ele>132.0</ele><time>2026-04-12T10:08:48.999Z</time></trkpt><trkpt lat="45.18848735621659" lon="8.27300250893404"><ele>132.0</ele><time>2026-04-12T10:08:49.999Z</time></trkpt><trkpt lat="45.188469836308585" lon="8.273364098770262"><ele>131.5</ele><time>2026-04-12T10:08:50.999Z</time></trkpt><trkpt lat="45.188449409660834" lon="8.273728844974464"><ele>131.0</ele><time>2026-04-12T10:08:51.999Z</time></trkpt><trkpt lat="45.18842355865192" lon="8.27408316495277"><ele>130.0</ele><time>2026-04-12T10:08:52.999Z</time></trkpt><trkpt lat="45.18840382087068" lon="8.274433432287548"><ele>129.0</ele><time>2026-04-12T10:08:53.999Z</time></trkpt><trkpt lat="45.18839516950737" lon="8.27477580877767"><ele>129.0</ele><time>2026-04-12T10:08:54.999Z</time></trkpt><trkpt lat="45.18838275186617" lon="8.275115033200743"><ele>129.0</ele><time>2026-04-12T10:08:55.999Z</time></trkpt><trkpt lat="45.18836804372782" lon="8.275445825764981"><ele>129.0</ele><time>2026-04-12T10:08:56.999Z</time></trkpt><trkpt lat="45.188352889369355" lon="8.275758943278703"><ele>129.0</ele><time>2026-04-12T10:08:57.999Z</time></trkpt><trkpt lat="45.18833916834768" lon="8.276067570998881"><ele>129.0</ele><time>2026-04-12T10:08:58.999Z</time></trkpt><trkpt lat="45.18832253586814" lon="8.276363684635218"><ele>128.66666666666666</ele><time>2026-04-12T10:08:59.999Z</time></trkpt><trkpt lat="45.18830684832482" lon="8.276660225513359"><ele>128.33333333333331</ele><time>2026-04-12T10:09:00.999Z</time></trkpt><trkpt lat="45.188294989745785" lon="8.276949703170445"><ele>128.0</ele><time>2026-04-12T10:09:01.999Z</time></trkpt><trkpt lat="45.18828441668684" lon="8.277238408632224"><ele>128.33333333333331</ele><time>2026-04-12T10:09:02.999Z</time></trkpt><trkpt lat="45.18827082949576" lon="8.277530670908382"><ele>128.66666666666666</ele><time>2026-04-12T10:09:03.999Z</time></trkpt><trkpt lat="45.18825464258439" lon="8.277838467925585"><ele>129.0</ele><time>2026-04-12T10:09:04.999Z</time></trkpt><trkpt lat="45.18823859863966" lon="8.27815267080684"><ele>131.0</ele><time>2026-04-12T10:09:05.999Z</time></trkpt><trkpt lat="45.188219745509116" lon="8.278479609774818"><ele>133.0</ele><time>2026-04-12T10:09:06.999Z</time></trkpt><trkpt lat="45.188204763989226" lon="8.278801039161001"><ele>132.0</ele><time>2026-04-12T10:09:07.999Z</time></trkpt><trkpt lat="45.188189472676044" lon="8.279120941912218"><ele>131.0</ele><time>2026-04-12T10:09:08.999Z</time></trkpt><trkpt lat="45.18817409384313" lon="8.279443287333159"><ele>131.0</ele><time>2026-04-12T10:09:09.999Z</time></trkpt><trkpt lat="45.188157443109866" lon="8.279765134244494"><ele>131.0</ele><time>2026-04-12T10:09:10.999Z</time></trkpt><trkpt lat="45.18814033252269" lon="8.280089867465266"><ele>130.5</ele><time>2026-04-12T10:09:11.999Z</time></trkpt><trkpt lat="45.18812507370891" lon="8.280414145248239"><ele>130.0</ele><time>2026-04-12T10:09:12.999Z</time></trkpt><trkpt lat="45.18810873723988" lon="8.280736135222877"><ele>130.0</ele><time>2026-04-12T10:09:13.999Z</time></trkpt><trkpt lat="45.18809140404103" lon="8.28106305174081"><ele>130.0</ele><time>2026-04-12T10:09:14.999Z</time></trkpt><trkpt lat="45.188072602548075" lon="8.28139921930186"><ele>130.5</ele><time>2026-04-12T10:09:15.999Z</time></trkpt><trkpt lat="45.188056870141196" lon="8.281742204544983"><ele>131.0</ele><time>2026-04-12T10:09:16.999Z</time></trkpt><trkpt lat="45.18804308624852" lon="8.282095493885238"><ele>130.5</ele><time>2026-04-12T10:09:17.999Z</time></trkpt><trkpt lat="45.18802723300006" lon="8.282436626978917"><ele>130.0</ele><time>2026-04-12T10:09:18.999Z</time></trkpt><trkpt lat="45.18801006346808" lon="8.282770998809038"><ele>130.0</ele><time>2026-04-12T10:09:19.999Z</time></trkpt><trkpt lat="45.187993724101155" lon="8.283102270886637"><ele>130.0</ele><time>2026-04-12T10:09:20.999Z</time></trkpt><trkpt lat="45.18797684374068" lon="8.283430265989102"><ele>130.0</ele><time>2026-04-12T10:09:21.999Z</time></trkpt><trkpt lat="45.187958355017244" lon="8.283756416546227"><ele>130.0</ele><time>2026-04-12T10:09:22.999Z</time></trkpt><trkpt lat="45.18793827114447" lon="8.284087045196234"><ele>129.5</ele><time>2026-04-12T10:09:23.999Z</time></trkpt><trkpt lat="45.187921553322624" lon="8.284427679228376"><ele>129.0</ele><time>2026-04-12T10:09:24.999Z</time></trkpt><trkpt lat="45.18790723366068" lon="8.284766038934595"><ele>129.0</ele><time>2026-04-12T10:09:25.999Z</time></trkpt><trkpt lat="45.187890688073075" lon="8.285111643283036"><ele>129.0</ele><time>2026-04-12T10:09:26.999Z</time></trkpt><trkpt lat="45.18787432362621" lon="8.285454359719143"><ele>129.5</ele><time>2026-04-12T10:09:27.998Z</time></trkpt><trkpt lat="45.18785695650784" lon="8.285790742017298"><ele>130.0</ele><time>2026-04-12T10:09:28.998Z</time></trkpt><trkpt lat="45.187841644328714" lon="8.28612210056763"><ele>129.5</ele><time>2026-04-12T10:09:29.998Z</time></trkpt><trkpt lat="45.187827057057994" lon="8.286449384482426"><ele>129.0</ele><time>2026-04-12T10:09:30.998Z</time></trkpt><trkpt lat="45.1878138645241" lon="8.286777055168042"><ele>129.0</ele><time>2026-04-12T10:09:31.998Z</time></trkpt><trkpt lat="45.187799893288805" lon="8.287106082115004"><ele>129.0</ele><time>2026-04-12T10:09:32.998Z</time></trkpt><trkpt lat="45.18778389901595" lon="8.287435312042167"><ele>128.5</ele><time>2026-04-12T10:09:33.998Z</time></trkpt><trkpt lat="45.18776826596335" lon="8.287769931616902"><ele>128.0</ele><time>2026-04-12T10:09:34.998Z</time></trkpt><trkpt lat="45.1877531057189" lon="8.288102205597943"><ele>128.0</ele><time>2026-04-12T10:09:35.998Z</time></trkpt><trkpt lat="45.1877368589753" lon="8.288436631842112"><ele>128.0</ele><time>2026-04-12T10:09:36.998Z</time></trkpt><trkpt lat="45.1877223277489" lon="8.28876978150155"><ele>129.0</ele><time>2026-04-12T10:09:37.998Z</time></trkpt><trkpt lat="45.18770848150609" lon="8.289100376492406"><ele>130.0</ele><time>2026-04-12T10:09:38.998Z</time></trkpt><trkpt lat="45.1876944444466" lon="8.2894300216353"><ele>131.5</ele><time>2026-04-12T10:09:39.998Z</time></trkpt><trkpt lat="45.18767888189279" lon="8.289759831930079"><ele>133.0</ele><time>2026-04-12T10:09:40.998Z</time></trkpt><trkpt lat="45.18766412425684" lon="8.290084169772326"><ele>133.0</ele><time>2026-04-12T10:09:41.998Z</time></trkpt><trkpt lat="45.187647695637274" lon="8.290400408307312"><ele>133.0</ele><time>2026-04-12T10:09:42.998Z</time></trkpt><trkpt lat="45.18763281912903" lon="8.290701060951196"><ele>133.0</ele><time>2026-04-12T10:09:43.998Z</time></trkpt><trkpt lat="45.18761622994561" lon="8.29099556486723"><ele>133.33333333333334</ele><time>2026-04-12T10:09:44.998Z</time></trkpt><trkpt lat="45.18760042666616" lon="8.291287301314137"><ele>133.66666666666666</ele><time>2026-04-12T10:09:45.998Z</time></trkpt><trkpt lat="45.1875844306697" lon="8.291585513462305"><ele>134.0</ele><time>2026-04-12T10:09:46.998Z</time></trkpt><trkpt lat="45.18756899195608" lon="8.291882351223435"><ele>133.0</ele><time>2026-04-12T10:09:47.998Z</time></trkpt><trkpt lat="45.18755610909898" lon="8.292163010057783"><ele>132.0</ele><time>2026-04-12T10:09:48.998Z</time></trkpt><trkpt lat="45.18754256003909" lon="8.292422118806284"><ele>131.0</ele><time>2026-04-12T10:09:49.998Z</time></trkpt><trkpt lat="45.187528770124864" lon="8.292667714961954"><ele>130.66666666666666</ele><time>2026-04-12T10:09:50.998Z</time></trkpt><trkpt lat="45.18751700553112" lon="8.292894879502775"><ele>130.33333333333334</ele><time>2026-04-12T10:09:51.998Z</time></trkpt><trkpt lat="45.187503857197946" lon="8.293107832084347"><ele>130.0</ele><time>2026-04-12T10:09:52.998Z</time></trkpt><trkpt lat="45.18749031553489" lon="8.293306830914897"><ele>131.0</ele><time>2026-04-12T10:09:53.998Z</time></trkpt><trkpt lat="45.18747576361563" lon="8.293497629187526"><ele>132.0</ele><time>2026-04-12T10:09:54.998Z</time></trkpt><trkpt lat="45.187462426754195" lon="8.293710510732186"><ele>133.0</ele><time>2026-04-12T10:09:55.998Z</time></trkpt><trkpt lat="45.18744981475087" lon="8.293945977707079"><ele>133.0</ele><time>2026-04-12T10:09:56.998Z</time></trkpt><trkpt lat="45.18743299634619" lon="8.294195859911971"><ele>133.0</ele><time>2026-04-12T10:09:57.998Z</time></trkpt><trkpt lat="45.187417571857225" lon="8.29445390291497"><ele>133.0</ele><time>2026-04-12T10:09:58.998Z</time></trkpt><trkpt lat="45.187403425490935" lon="8.294704031153021"><ele>132.33333333333334</ele><time>2026-04-12T10:09:59.998Z</time></trkpt><trkpt lat="45.187389009015504" lon="8.294936908143177"><ele>131.66666666666666</ele><time>2026-04-12T10:10:00.998Z</time></trkpt><trkpt lat="45.18737995342437" lon="8.295150096556663"><ele>131.0</ele><time>2026-04-12T10:10:01.998Z</time></trkpt><trkpt lat="45.1873717487394" lon="8.295341750715313"><ele>131.0</ele><time>2026-04-12T10:10:03Z</time></trkpt><trkpt lat="45.18736437175022" lon="8.295502097357042"><ele>131.0</ele><time>2026-04-12T10:10:04Z</time></trkpt><trkpt lat="45.187359672022566" lon="8.295641263492033"><ele>131.0</ele><time>2026-04-12T10:10:05Z</time></trkpt><trkpt lat="45.18735217498613" lon="8.2957598601625"><ele>131.0</ele><time>2026-04-12T10:10:06Z</time></trkpt><trkpt lat="45.18732565996531" lon="8.295856179342987"><ele>131.0</ele><time>2026-04-12T10:10:07Z</time></trkpt><trkpt lat="45.18727262889323" lon="8.295916247930393"><ele>131.0</ele><time>2026-04-12T10:10:08Z</time></trkpt><trkpt lat="45.187190561291125" lon="8.295958202179683"><ele>131.0</ele><time>2026-04-12T10:10:09Z</time></trkpt><trkpt lat="45.18708339331027" lon="8.295953005395313"><ele>131.0</ele><time>2026-04-12T10:10:10Z</time></trkpt><trkpt lat="45.18694273694055" lon="8.295928632076826"><ele>131.0</ele><time>2026-04-12T10:10:11Z</time></trkpt><trkpt lat="45.18678005072812" lon="8.29591722489683"><ele>131.0</ele><time>2026-04-12T10:10:12Z</time></trkpt><trkpt lat="45.186589886048424" lon="8.295908614052363"><ele>130.66666666666666</ele><time>2026-04-12T10:10:13Z</time></trkpt><trkpt lat="45.18639784343691" lon="8.295903010014849"><ele>130.33333333333334</ele><time>2026-04-12T10:10:14Z</time></trkpt><trkpt lat="45.18618747786124" lon="8.295891775048755"><ele>130.0</ele><time>2026-04-12T10:10:15Z</time></trkpt><trkpt lat="45.18598417055656" lon="8.295878781821218"><ele>130.0</ele><time>2026-04-12T10:10:16Z</time></trkpt><trkpt lat="45.18580417491048" lon="8.295867867530335"><ele>130.0</ele><time>2026-04-12T10:10:17Z</time></trkpt><trkpt lat="45.18563904970283" lon="8.295859587897176"><ele>130.0</ele><time>2026-04-12T10:10:18Z</time></trkpt><trkpt lat="45.18548036026021" lon="8.295852826621426"><ele>130.33333333333334</ele><time>2026-04-12T10:10:19Z</time></trkpt><trkpt lat="45.18531727653433" lon="8.295845214584038"><ele>130.66666666666666</ele><time>2026-04-12T10:10:20Z</time></trkpt><trkpt lat="45.18515911522302" lon="8.295832030789764"><ele>131.0</ele><time>2026-04-12T10:10:21Z</time></trkpt><trkpt lat="45.18499866197681" lon="8.295817793202408"><ele>131.0</ele><time>2026-04-12T10:10:22Z</time></trkpt><trkpt lat="45.18483950333977" lon="8.295808361036752"><ele>131.0</ele><time>2026-04-12T10:10:23Z</time></trkpt><trkpt lat="45.18469624695296" lon="8.29579984267317"><ele>131.0</ele><time>2026-04-12T10:10:24Z</time></trkpt><trkpt lat="45.184559828037095" lon="8.295791425573718"><ele>131.0</ele><time>2026-04-12T10:10:25Z</time></trkpt><trkpt lat="45.184421145236456" lon="8.295775877588383"><ele>131.0</ele><time>2026-04-12T10:10:26Z</time></trkpt><trkpt lat="45.18427406821577" lon="8.295763153492329"><ele>131.0</ele><time>2026-04-12T10:10:27Z</time></trkpt><trkpt lat="45.18411825891687" lon="8.295754619734508"><ele>131.0</ele><time>2026-04-12T10:10:28Z</time></trkpt><trkpt lat="45.18394970694241" lon="8.295748393244835"><ele>129.66666666666666</ele><time>2026-04-12T10:10:29Z</time></trkpt><trkpt lat="45.183772067654324" lon="8.295740062815122"><ele>128.33333333333334</ele><time>2026-04-12T10:10:30Z</time></trkpt><trkpt lat="45.18359568390193" lon="8.295729394294243"><ele>127.0</ele><time>2026-04-12T10:10:31Z</time></trkpt><trkpt lat="45.18342763757446" lon="8.295713595248388"><ele>127.0</ele><time>2026-04-12T10:10:32Z</time></trkpt><trkpt lat="45.18325178068187" lon="8.295710405014594"><ele>127.0</ele><time>2026-04-12T10:10:33Z</time></trkpt><trkpt lat="45.18304120522993" lon="8.295692858260026"><ele>127.0</ele><time>2026-04-12T10:10:34Z</time></trkpt><trkpt lat="45.182804192271945" lon="8.295679867097647"><ele>127.0</ele><time>2026-04-12T10:10:35Z</time></trkpt><trkpt lat="45.18254552971539" lon="8.29567835336972"><ele>127.0</ele><time>2026-04-12T10:10:36Z</time></trkpt><trkpt lat="45.18231850240128" lon="8.29566673276337"><ele>127.0</ele><time>2026-04-12T10:10:37Z</time></trkpt><trkpt lat="45.182110044762105" lon="8.295643460417157"><ele>127.0</ele><time>2026-04-12T10:10:38Z</time></trkpt><trkpt lat="45.181905199438184" lon="8.295637510847781"><ele>127.0</ele><time>2026-04-12T10:10:39Z</time></trkpt><trkpt lat="45.18168878373393" lon="8.295627894208256"><ele>128.0</ele><time>2026-04-12T10:10:40Z</time></trkpt><trkpt lat="45.18148064726211" lon="8.295614190269797"><ele>129.0</ele><time>2026-04-12T10:10:41Z</time></trkpt><trkpt lat="45.18128365701132" lon="8.295600572506363"><ele>130.0</ele><time>2026-04-12T10:10:41.999Z</time></trkpt><trkpt lat="45.18109144052091" lon="8.295589436188902"><ele>129.66666666666669</ele><time>2026-04-12T10:10:42.999Z</time></trkpt><trkpt lat="45.180916710168994" lon="8.295583101529012"><ele>129.33333333333334</ele><time>2026-04-12T10:10:43.999Z</time></trkpt><trkpt lat="45.18074931649996" lon="8.295570736939725"><ele>129.0</ele><time>2026-04-12T10:10:44.999Z</time></trkpt><trkpt lat="45.18058335211693" lon="8.295564129346822"><ele>128.33333333333334</ele><time>2026-04-12T10:10:45.999Z</time></trkpt><trkpt lat="45.180413264190506" lon="8.295558001690322"><ele>127.66666666666667</ele><time>2026-04-12T10:10:46.999Z</time></trkpt><trkpt lat="45.1802390581755" lon="8.295550931728584"><ele>127.0</ele><time>2026-04-12T10:10:47.999Z</time></trkpt><trkpt lat="45.18006630862926" lon="8.29553704848868"><ele>127.0</ele><time>2026-04-12T10:10:48.999Z</time></trkpt><trkpt lat="45.179898269873924" lon="8.295519475571744"><ele>127.0</ele><time>2026-04-12T10:10:49.999Z</time></trkpt><trkpt lat="45.179739503886225" lon="8.295489976357223"><ele>127.0</ele><time>2026-04-12T10:10:50.999Z</time></trkpt><trkpt lat="45.179590753642024" lon="8.295458300450171"><ele>127.0</ele><time>2026-04-12T10:10:51.999Z</time></trkpt><trkpt lat="45.17943403608472" lon="8.295409095972358"><ele>127.0</ele><time>2026-04-12T10:10:52.999Z</time></trkpt><trkpt lat="45.17929175785513" lon="8.29534468686306"><ele>127.0</ele><time>2026-04-12T10:10:53.999Z</time></trkpt><trkpt lat="45.179139561422076" lon="8.295279802181161"><ele>127.0</ele><time>2026-04-12T10:10:54.999Z</time></trkpt><trkpt lat="45.17898741193671" lon="8.295206268663124"><ele>127.0</ele><time>2026-04-12T10:10:55.999Z</time></trkpt><trkpt lat="45.17884363299051" lon="8.29513274377907"><ele>127.0</ele><time>2026-04-12T10:10:56.999Z</time></trkpt><trkpt lat="45.17871431964027" lon="8.295064951382269"><ele>127.0</ele><time>2026-04-12T10:10:57.999Z</time></trkpt><trkpt lat="45.178579132700264" lon="8.295004745223926"><ele>127.0</ele><time>2026-04-12T10:10:58.999Z</time></trkpt><trkpt lat="45.178423099421394" lon="8.294933515980414"><ele>127.0</ele><time>2026-04-12T10:10:59.999Z</time></trkpt><trkpt lat="45.178242177999444" lon="8.294849538670626"><ele>127.5</ele><time>2026-04-12T10:11:00.999Z</time></trkpt><trkpt lat="45.178043630030416" lon="8.294736471450012"><ele>128.0</ele><time>2026-04-12T10:11:01.999Z</time></trkpt><trkpt lat="45.177819599633445" lon="8.294628588302164"><ele>128.0</ele><time>2026-04-12T10:11:02.999Z</time></trkpt><trkpt lat="45.17757144258237" lon="8.294528727029538"><ele>128.0</ele><time>2026-04-12T10:11:03.999Z</time></trkpt><trkpt lat="45.177317654432535" lon="8.294390426280364"><ele>128.5</ele><time>2026-04-12T10:11:04.999Z</time></trkpt><trkpt lat="45.17707787068747" lon="8.294273782089258"><ele>129.0</ele><time>2026-04-12T10:11:05.999Z</time></trkpt><trkpt lat="45.176861365269744" lon="8.294169594060312"><ele>129.0</ele><time>2026-04-12T10:11:06.999Z</time></trkpt><trkpt lat="45.176662150174565" lon="8.294068469490224"><ele>129.0</ele><time>2026-04-12T10:11:07.999Z</time></trkpt><trkpt lat="45.17648385006489" lon="8.29398058032673"><ele>129.0</ele><time>2026-04-12T10:11:08.999Z</time></trkpt><trkpt lat="45.17632989794798" lon="8.293900076987834"><ele>128.66666666666666</ele><time>2026-04-12T10:11:09.999Z</time></trkpt><trkpt lat="45.17618884713514" lon="8.293819244007608"><ele>128.33333333333331</ele><time>2026-04-12T10:11:10.999Z</time></trkpt><trkpt lat="45.176060329568024" lon="8.29371721896884"><ele>128.0</ele><time>2026-04-12T10:11:11.999Z</time></trkpt><trkpt lat="45.17593275795934" lon="8.293574044360126"><ele>128.0</ele><time>2026-04-12T10:11:12.999Z</time></trkpt><trkpt lat="45.17581092982367" lon="8.293402412439889"><ele>128.0</ele><time>2026-04-12T10:11:13.999Z</time></trkpt><trkpt lat="45.17570618063551" lon="8.29320386715421"><ele>128.0</ele><time>2026-04-12T10:11:14.999Z</time></trkpt><trkpt lat="45.17560392913875" lon="8.292996813946768"><ele>126.66666666666666</ele><time>2026-04-12T10:11:15.999Z</time></trkpt><trkpt lat="45.17549220050681" lon="8.292795268696096"><ele>125.33333333333334</ele><time>2026-04-12T10:11:16.999Z</time></trkpt><trkpt lat="45.175373340304006" lon="8.292590248704446"><ele>124.0</ele><time>2026-04-12T10:11:17.999Z</time></trkpt><trkpt lat="45.175245989259814" lon="8.292371723575476"><ele>124.0</ele><time>2026-04-12T10:11:18.999Z</time></trkpt><trkpt lat="45.17511406944576" lon="8.29214439574632"><ele>124.0</ele><time>2026-04-12T10:11:19.999Z</time></trkpt><trkpt lat="45.17498007390226" lon="8.291910956382516"><ele>124.0</ele><time>2026-04-12T10:11:20.999Z</time></trkpt><trkpt lat="45.17485143707094" lon="8.291679504674056"><ele>124.33333333333334</ele><time>2026-04-12T10:11:21.999Z</time></trkpt><trkpt lat="45.17472500797182" lon="8.291448663275355"><ele>124.66666666666666</ele><time>2026-04-12T10:11:22.999Z</time></trkpt><trkpt lat="45.174600678828476" lon="8.291219103092214"><ele>125.0</ele><time>2026-04-12T10:11:23.999Z</time></trkpt><trkpt lat="45.17447768878714" lon="8.290997919022944"><ele>127.0</ele><time>2026-04-12T10:11:24.999Z</time></trkpt><trkpt lat="45.17435862973792" lon="8.290789311367565"><ele>129.0</ele><time>2026-04-12T10:11:25.999Z</time></trkpt><trkpt lat="45.17425052977613" lon="8.290594507443478"><ele>131.0</ele><time>2026-04-12T10:11:26.999Z</time></trkpt><trkpt lat="45.17415024664399" lon="8.29041127904002"><ele>131.5</ele><time>2026-04-12T10:11:27.999Z</time></trkpt><trkpt lat="45.17405302756463" lon="8.290245601529135"><ele>132.0</ele><time>2026-04-12T10:11:28.998Z</time></trkpt><trkpt lat="45.17395601165239" lon="8.290095245645833"><ele>132.5</ele><time>2026-04-12T10:11:29.998Z</time></trkpt><trkpt lat="45.173860555451974" lon="8.289959666578417"><ele>133.0</ele><time>2026-04-12T10:11:30.998Z</time></trkpt><trkpt lat="45.17374939213348" lon="8.289834533964232"><ele>133.0</ele><time>2026-04-12T10:11:31.998Z</time></trkpt><trkpt lat="45.17361816765283" lon="8.289706663600413"><ele>133.0</ele><time>2026-04-12T10:11:32.998Z</time></trkpt><trkpt lat="45.17346438722905" lon="8.28957948785028"><ele>133.0</ele><time>2026-04-12T10:11:33.998Z</time></trkpt><trkpt lat="45.17328750008378" lon="8.28945052649597"><ele>132.0</ele><time>2026-04-12T10:11:34.998Z</time></trkpt><trkpt lat="45.17309848691703" lon="8.289284680800693"><ele>131.0</ele><time>2026-04-12T10:11:35.998Z</time></trkpt><trkpt lat="45.17288519144478" lon="8.289119652968877"><ele>131.0</ele><time>2026-04-12T10:11:36.998Z</time></trkpt><trkpt lat="45.17267199543173" lon="8.288979750768808"><ele>131.0</ele><time>2026-04-12T10:11:37.998Z</time></trkpt><trkpt lat="45.172490371435224" lon="8.288838958968967"><ele>131.0</ele><time>2026-04-12T10:11:38.998Z</time></trkpt><trkpt lat="45.172323098895106" lon="8.288703789467963"><ele>134.33333333333331</ele><time>2026-04-12T10:11:39.998Z</time></trkpt><trkpt lat="45.172166963412884" lon="8.288570598966235"><ele>137.66666666666666</ele><time>2026-04-12T10:11:40.998Z</time></trkpt><trkpt lat="45.172027610705065" lon="8.288427510861244"><ele>141.0</ele><time>2026-04-12T10:11:41.998Z</time></trkpt><trkpt lat="45.17191184416867" lon="8.288266324780166"><ele>141.66666666666666</ele><time>2026-04-12T10:11:42.998Z</time></trkpt><trkpt lat="45.17180149622053" lon="8.2880732126156"><ele>142.33333333333331</ele><time>2026-04-12T10:11:43.998Z</time></trkpt><trkpt lat="45.171709597006284" lon="8.28786090780718"><ele>143.0</ele><time>2026-04-12T10:11:44.998Z</time></trkpt><trkpt lat="45.171646159273166" lon="8.287633501334836"><ele>143.0</ele><time>2026-04-12T10:11:45.998Z</time></trkpt><trkpt lat="45.17160446309862" lon="8.287374628044724"><ele>143.0</ele><time>2026-04-12T10:11:46.998Z</time></trkpt><trkpt lat="45.1715857833201" lon="8.287103277467155"><ele>143.0</ele><time>2026-04-12T10:11:47.998Z</time></trkpt><trkpt lat="45.171593025201965" lon="8.28682939940471"><ele>145.5</ele><time>2026-04-12T10:11:48.998Z</time></trkpt><trkpt lat="45.17162622146626" lon="8.28651897415655"><ele>148.0</ele><time>2026-04-12T10:11:49.998Z</time></trkpt><trkpt lat="45.17167647786764" lon="8.286190932594087"><ele>148.5</ele><time>2026-04-12T10:11:50.998Z</time></trkpt><trkpt lat="45.17172422701593" lon="8.285860051392794"><ele>149.0</ele><time>2026-04-12T10:11:51.998Z</time></trkpt><trkpt lat="45.17179488983515" lon="8.28556989081777"><ele>149.66666666666666</ele><time>2026-04-12T10:11:52.998Z</time></trkpt><trkpt lat="45.171842508669954" lon="8.285271152507876"><ele>150.33333333333334</ele><time>2026-04-12T10:11:53.998Z</time></trkpt><trkpt lat="45.17187962837764" lon="8.284949026902414"><ele>151.0</ele><time>2026-04-12T10:11:54.998Z</time></trkpt><trkpt lat="45.17188803447859" lon="8.284653393045351"><ele>151.33333333333334</ele><time>2026-04-12T10:11:55.998Z</time></trkpt><trkpt lat="45.17190084175094" lon="8.284379816445135"><ele>151.66666666666666</ele><time>2026-04-12T10:11:56.998Z</time></trkpt><trkpt lat="45.17191929141088" lon="8.284112646176933"><ele>152.0</ele><time>2026-04-12T10:11:57.998Z</time></trkpt><trkpt lat="45.17199448594711" lon="8.283841350156525"><ele>154.0</ele><time>2026-04-12T10:11:58.998Z</time></trkpt><trkpt lat="45.172082852071746" lon="8.283563667570386"><ele>156.0</ele><time>2026-04-12T10:11:59.998Z</time></trkpt><trkpt lat="45.172185668488126" lon="8.283264488339697"><ele>158.0</ele><time>2026-04-12T10:12:00.998Z</time></trkpt><trkpt lat="45.172334469861646" lon="8.282990191714925"><ele>156.5</ele><time>2026-04-12T10:12:01.998Z</time></trkpt><trkpt lat="45.172481241235" lon="8.282692159707132"><ele>155.0</ele><time>2026-04-12T10:12:02.998Z</time></trkpt><trkpt lat="45.17260109299632" lon="8.282407100648616"><ele>157.33333333333331</ele><time>2026-04-12T10:12:03.998Z</time></trkpt><trkpt lat="45.17273065585888" lon="8.282152065768496"><ele>159.66666666666666</ele><time>2026-04-12T10:12:04.998Z</time></trkpt><trkpt lat="45.17284721054452" lon="8.281903988205883"><ele>162.0</ele><time>2026-04-12T10:12:05.998Z</time></trkpt><trkpt lat="45.17295283277495" lon="8.281673520069848"><ele>162.0</ele><time>2026-04-12T10:12:06.998Z</time></trkpt><trkpt lat="45.173053834300156" lon="8.281459453335657"><ele>162.0</ele><time>2026-04-12T10:12:07.998Z</time></trkpt><trkpt lat="45.17315174154051" lon="8.281253930069592"><ele>162.0</ele><time>2026-04-12T10:12:09Z</time></trkpt><trkpt lat="45.17324356772963" lon="8.28105428439379"><ele>161.25</ele><time>2026-04-12T10:12:10Z</time></trkpt><trkpt lat="45.1733185545348" lon="8.280851795430488"><ele>160.5</ele><time>2026-04-12T10:12:11Z</time></trkpt><trkpt lat="45.17335045820674" lon="8.280651197319473"><ele>159.75</ele><time>2026-04-12T10:12:12Z</time></trkpt><trkpt lat="45.17335236614175" lon="8.280481634934144"><ele>159.0</ele><time>2026-04-12T10:12:13Z</time></trkpt><trkpt lat="45.173326745074135" lon="8.280302112856663"><ele>158.5</ele><time>2026-04-12T10:12:14Z</time></trkpt><trkpt lat="45.17327743667618" lon="8.280137275921861"><ele>158.0</ele><time>2026-04-12T10:12:15Z</time></trkpt><trkpt lat="45.173203624417305" lon="8.280018369002486"><ele>157.5</ele><time>2026-04-12T10:12:16Z</time></trkpt><trkpt lat="45.17310781599102" lon="8.279927707745493"><ele>157.0</ele><time>2026-04-12T10:12:17Z</time></trkpt><trkpt lat="45.17298772482259" lon="8.279890023872603"><ele>160.75</ele><time>2026-04-12T10:12:18Z</time></trkpt><trkpt lat="45.17287407981641" lon="8.27987985940564"><ele>164.5</ele><time>2026-04-12T10:12:19Z</time></trkpt><trkpt lat="45.17274981510495" lon="8.279894860676805"><ele>168.25</ele><time>2026-04-12T10:12:20Z</time></trkpt><trkpt lat="45.1726208445326" lon="8.27995615089972"><ele>172.0</ele><time>2026-04-12T10:12:21Z</time></trkpt><trkpt lat="45.172497707201366" lon="8.280072099885615"><ele>172.0</ele><time>2026-04-12T10:12:22Z</time></trkpt><trkpt lat="45.17239389357792" lon="8.280247247177709"><ele>172.0</ele><time>2026-04-12T10:12:23Z</time></trkpt><trkpt lat="45.17228402778773" lon="8.280475951111242"><ele>172.0</ele><time>2026-04-12T10:12:24Z</time></trkpt><trkpt lat="45.1721840194161" lon="8.280756852653237"><ele>175.5</ele><time>2026-04-12T10:12:25Z</time></trkpt><trkpt lat="45.1720738668499" lon="8.281073089569917"><ele>179.0</ele><time>2026-04-12T10:12:26Z</time></trkpt><trkpt lat="45.17195533619707" lon="8.281408958963528"><ele>175.5</ele><time>2026-04-12T10:12:27Z</time></trkpt><trkpt lat="45.171822521185504" lon="8.281755991005573"><ele>172.0</ele><time>2026-04-12T10:12:28Z</time></trkpt><trkpt lat="45.171686150440195" lon="8.282117924386094"><ele>173.5</ele><time>2026-04-12T10:12:29Z</time></trkpt><trkpt lat="45.17156239071597" lon="8.282441928074912"><ele>175.0</ele><time>2026-04-12T10:12:30Z</time></trkpt><trkpt lat="45.17146107251681" lon="8.282725727074249"><ele>175.0</ele><time>2026-04-12T10:12:31Z</time></trkpt><trkpt lat="45.171373021328996" lon="8.282960341199175"><ele>175.0</ele><time>2026-04-12T10:12:32Z</time></trkpt><trkpt lat="45.17126664692941" lon="8.283125768756367"><ele>175.0</ele><time>2026-04-12T10:12:33Z</time></trkpt><trkpt lat="45.1711695205853" lon="8.283251987450104"><ele>175.25</ele><time>2026-04-12T10:12:34Z</time></trkpt><trkpt lat="45.171066971431934" lon="8.283353147334259"><ele>175.5</ele><time>2026-04-12T10:12:35Z</time></trkpt><trkpt lat="45.17092865236393" lon="8.283427469253985"><ele>175.75</ele><time>2026-04-12T10:12:36Z</time></trkpt><trkpt lat="45.17076530870566" lon="8.283481708270129"><ele>176.0</ele><time>2026-04-12T10:12:37Z</time></trkpt><trkpt lat="45.1705549638685" lon="8.283525569568482"><ele>176.0</ele><time>2026-04-12T10:12:38Z</time></trkpt><trkpt lat="45.170342939192004" lon="8.283539397103713"><ele>176.0</ele><time>2026-04-12T10:12:39Z</time></trkpt><trkpt lat="45.1701574504504" lon="8.28355232904914"><ele>176.0</ele><time>2026-04-12T10:12:40Z</time></trkpt><trkpt lat="45.169989241660645" lon="8.283585624713856"><ele>178.33333333333331</ele><time>2026-04-12T10:12:41Z</time></trkpt><trkpt lat="45.16982488487451" lon="8.283660772683044"><ele>180.66666666666666</ele><time>2026-04-12T10:12:42Z</time></trkpt><trkpt lat="45.16966852249584" lon="8.283796705404061"><ele>183.0</ele><time>2026-04-12T10:12:43Z</time></trkpt><trkpt lat="45.16953079705225" lon="8.283935491541696"><ele>183.0</ele><time>2026-04-12T10:12:44Z</time></trkpt><trkpt lat="45.169413673952484" lon="8.284058930732064"><ele>183.0</ele><time>2026-04-12T10:12:45Z</time></trkpt><trkpt lat="45.1693142098767" lon="8.28421983833618"><ele>183.0</ele><time>2026-04-12T10:12:46Z</time></trkpt><trkpt lat="45.16923364911718" lon="8.284437351064742"><ele>183.0</ele><time>2026-04-12T10:12:47Z</time></trkpt><trkpt lat="45.169170283193594" lon="8.284705270442842"><ele>183.0</ele><time>2026-04-12T10:12:48Z</time></trkpt><trkpt lat="45.169128613475706" lon="8.284969108726324"><ele>183.0</ele><time>2026-04-12T10:12:49Z</time></trkpt><trkpt lat="45.169121659298845" lon="8.285175485048534"><ele>182.33333333333334</ele><time>2026-04-12T10:12:50Z</time></trkpt><trkpt lat="45.16915021454509" lon="8.285376571822976"><ele>181.66666666666669</ele><time>2026-04-12T10:12:51Z</time></trkpt><trkpt lat="45.16921884102277" lon="8.28558034162975"><ele>181.0</ele><time>2026-04-12T10:12:52Z</time></trkpt><trkpt lat="45.1693083599335" lon="8.285791527984978"><ele>183.25</ele><time>2026-04-12T10:12:53Z</time></trkpt><trkpt lat="45.16939556198898" lon="8.285985488149729"><ele>185.5</ele><time>2026-04-12T10:12:53.999Z</time></trkpt><trkpt lat="45.16946654266489" lon="8.286158816645298"><ele>187.75</ele><time>2026-04-12T10:12:54.999Z</time></trkpt><trkpt lat="45.169524707540255" lon="8.28631140564859"><ele>190.0</ele><time>2026-04-12T10:12:55.999Z</time></trkpt><trkpt lat="45.16956049438401" lon="8.286461243702718"><ele>191.0</ele><time>2026-04-12T10:12:56.999Z</time></trkpt><trkpt lat="45.16959552166854" lon="8.286619553511642"><ele>192.0</ele><time>2026-04-12T10:12:57.999Z</time></trkpt><trkpt lat="45.169556703966926" lon="8.286807366517397"><ele>193.0</ele><time>2026-04-12T10:12:58.999Z</time></trkpt><trkpt lat="45.169492625856016" lon="8.287001660660113"><ele>194.0</ele><time>2026-04-12T10:12:59.999Z</time></trkpt><trkpt lat="45.16941021952144" lon="8.287164410723777"><ele>193.5</ele><time>2026-04-12T10:13:00.999Z</time></trkpt><trkpt lat="45.169290538231245" lon="8.287284951904123"><ele>193.0</ele><time>2026-04-12T10:13:01.999Z</time></trkpt><trkpt lat="45.16917682978862" lon="8.287410643678507"><ele>192.5</ele><time>2026-04-12T10:13:02.999Z</time></trkpt><trkpt lat="45.16904804180692" lon="8.287487808171141"><ele>192.0</ele><time>2026-04-12T10:13:03.999Z</time></trkpt><trkpt lat="45.16891084579291" lon="8.28752104460962"><ele>192.0</ele><time>2026-04-12T10:13:04.999Z</time></trkpt><trkpt lat="45.1687568159452" lon="8.287502758026315"><ele>192.0</ele><time>2026-04-12T10:13:05.999Z</time></trkpt><trkpt lat="45.16857525313339" lon="8.287439961225532"><ele>192.0</ele><time>2026-04-12T10:13:06.999Z</time></trkpt><trkpt lat="45.1683682336009" lon="8.287344376719407"><ele>188.0</ele><time>2026-04-12T10:13:07.999Z</time></trkpt><trkpt lat="45.16813735548283" lon="8.287237407565003"><ele>184.0</ele><time>2026-04-12T10:13:08.999Z</time></trkpt><trkpt lat="45.167927689422655" lon="8.287124027362374"><ele>184.0</ele><time>2026-04-12T10:13:09.999Z</time></trkpt><trkpt lat="45.167746646171075" lon="8.287039678233475"><ele>184.0</ele><time>2026-04-12T10:13:10.999Z</time></trkpt><trkpt lat="45.16755364240507" lon="8.286956884419011"><ele>184.0</ele><time>2026-04-12T10:13:11.999Z</time></trkpt><trkpt lat="45.167375212079314" lon="8.286906089796092"><ele>184.33333333333334</ele><time>2026-04-12T10:13:12.999Z</time></trkpt><trkpt lat="45.167202267813785" lon="8.28690260816612"><ele>184.66666666666666</ele><time>2026-04-12T10:13:13.999Z</time></trkpt><trkpt lat="45.16703603580796" lon="8.286924688013556"><ele>185.0</ele><time>2026-04-12T10:13:14.999Z</time></trkpt><trkpt lat="45.1668664927168" lon="8.286989008096125"><ele>185.0</ele><time>2026-04-12T10:13:15.999Z</time></trkpt><trkpt lat="45.16671823870288" lon="8.287121807942697"><ele>185.0</ele><time>2026-04-12T10:13:16.999Z</time></trkpt><trkpt lat="45.16659373999756" lon="8.287276216461644"><ele>185.0</ele><time>2026-04-12T10:13:17.999Z</time></trkpt><trkpt lat="45.16649296263596" lon="8.287459421668336"><ele>191.33333333333331</ele><time>2026-04-12T10:13:18.999Z</time></trkpt><trkpt lat="45.166408252065395" lon="8.28768347798282"><ele>197.66666666666666</ele><time>2026-04-12T10:13:19.999Z</time></trkpt><trkpt lat="45.166301114363236" lon="8.287962364816266"><ele>204.0</ele><time>2026-04-12T10:13:20.999Z</time></trkpt><trkpt lat="45.16621526211887" lon="8.288275318980258"><ele>204.0</ele><time>2026-04-12T10:13:21.999Z</time></trkpt><trkpt lat="45.16610887027435" lon="8.288620332215178"><ele>204.0</ele><time>2026-04-12T10:13:22.999Z</time></trkpt><trkpt lat="45.1660007682602" lon="8.289008045973555"><ele>202.0</ele><time>2026-04-12T10:13:23.999Z</time></trkpt><trkpt lat="45.16591573283921" lon="8.289396117457763"><ele>200.0</ele><time>2026-04-12T10:13:24.999Z</time></trkpt><trkpt lat="45.16583686847259" lon="8.28976638760752"><ele>197.5</ele><time>2026-04-12T10:13:25.999Z</time></trkpt><trkpt lat="45.16575549934374" lon="8.290089409815472"><ele>195.0</ele><time>2026-04-12T10:13:26.999Z</time></trkpt><trkpt lat="45.16568240246121" lon="8.290396719077979"><ele>202.0</ele><time>2026-04-12T10:13:27.999Z</time></trkpt><trkpt lat="45.165606807454054" lon="8.290699841784035"><ele>209.0</ele><time>2026-04-12T10:13:28.999Z</time></trkpt><trkpt lat="45.165525372357095" lon="8.290936683823476"><ele>216.0</ele><time>2026-04-12T10:13:29.999Z</time></trkpt><trkpt lat="45.16545389778902" lon="8.29112148622199"><ele>216.0</ele><time>2026-04-12T10:13:30.999Z</time></trkpt><trkpt lat="45.16536431430027" lon="8.291243232506245"><ele>216.0</ele><time>2026-04-12T10:13:31.999Z</time></trkpt><trkpt lat="45.16523742174366" lon="8.29138841263163"><ele>216.0</ele><time>2026-04-12T10:13:32.999Z</time></trkpt><trkpt lat="45.16508535259391" lon="8.291563219964132"><ele>212.0</ele><time>2026-04-12T10:13:33.999Z</time></trkpt><trkpt lat="45.164969652676135" lon="8.291690385570288"><ele>208.0</ele><time>2026-04-12T10:13:34.999Z</time></trkpt><trkpt lat="45.164873179340994" lon="8.291754965759402"><ele>204.0</ele><time>2026-04-12T10:13:35.999Z</time></trkpt><trkpt lat="45.164767334778304" lon="8.29177126691265"><ele>200.0</ele><time>2026-04-12T10:13:36.999Z</time></trkpt><trkpt lat="45.164641295848675" lon="8.29175567222606"><ele>199.66666666666669</ele><time>2026-04-12T10:13:37.999Z</time></trkpt><trkpt lat="45.16448052263632" lon="8.29169689668875"><ele>199.33333333333331</ele><time>2026-04-12T10:13:38.999Z</time></trkpt><trkpt lat="45.16430691359549" lon="8.29158884949972"><ele>199.0</ele><time>2026-04-12T10:13:39.999Z</time></trkpt><trkpt lat="45.16416155628898" lon="8.291466183468948"><ele>198.66666666666666</ele><time>2026-04-12T10:13:40.998Z</time></trkpt><trkpt lat="45.164064920610215" lon="8.291281739964656"><ele>198.33333333333331</ele><time>2026-04-12T10:13:41.998Z</time></trkpt><trkpt lat="45.16397321686543" lon="8.291074754487424"><ele>198.0</ele><time>2026-04-12T10:13:42.998Z</time></trkpt><trkpt lat="45.163880529404864" lon="8.29082459188302"><ele>200.0</ele><time>2026-04-12T10:13:43.998Z</time></trkpt><trkpt lat="45.1638260065953" lon="8.290584649199"><ele>202.0</ele><time>2026-04-12T10:13:44.998Z</time></trkpt><trkpt lat="45.16377651944416" lon="8.290410766609002"><ele>204.0</ele><time>2026-04-12T10:13:45.998Z</time></trkpt><trkpt lat="45.163705917151894" lon="8.290259957703578"><ele>206.0</ele><time>2026-04-12T10:13:46.998Z</time></trkpt><trkpt lat="45.16360084949848" lon="8.290105519999784"><ele>206.0</ele><time>2026-04-12T10:13:47.998Z</time></trkpt><trkpt lat="45.16345818481845" lon="8.289978673491019"><ele>206.0</ele><time>2026-04-12T10:13:48.998Z</time></trkpt><trkpt lat="45.163290755585784" lon="8.289886766628046"><ele>206.0</ele><time>2026-04-12T10:13:49.998Z</time></trkpt><trkpt lat="45.163116083306186" lon="8.289840737368642"><ele>209.0</ele><time>2026-04-12T10:13:50.998Z</time></trkpt><trkpt lat="45.16293475147077" lon="8.289848593861612"><ele>212.0</ele><time>2026-04-12T10:13:51.998Z</time></trkpt><trkpt lat="45.162751274050656" lon="8.289894000915446"><ele>215.0</ele><time>2026-04-12T10:13:52.998Z</time></trkpt><trkpt lat="45.162603373726675" lon="8.28996822443331"><ele>215.0</ele><time>2026-04-12T10:13:53.998Z</time></trkpt><trkpt lat="45.16247911461644" lon="8.290084026264566"><ele>215.0</ele><time>2026-04-12T10:13:54.998Z</time></trkpt><trkpt lat="45.162355600978394" lon="8.290255573751654"><ele>215.0</ele><time>2026-04-12T10:13:55.998Z</time></trkpt><trkpt lat="45.16223686423486" lon="8.290478855006006"><ele>217.66666666666669</ele><time>2026-04-12T10:13:56.998Z</time></trkpt><trkpt lat="45.1621351462364" lon="8.290736803970903"><ele>220.33333333333331</ele><time>2026-04-12T10:13:57.998Z</time></trkpt><trkpt lat="45.162031098105096" lon="8.291009522553841"><ele>223.0</ele><time>2026-04-12T10:13:58.998Z</time></trkpt><trkpt lat="45.16193906723839" lon="8.291244531988223"><ele>221.75</ele><time>2026-04-12T10:13:59.998Z</time></trkpt><trkpt lat="45.16185798390108" lon="8.291427177572706"><ele>220.5</ele><time>2026-04-12T10:14:00.998Z</time></trkpt><trkpt lat="45.16177421261384" lon="8.291580492215717"><ele>219.25</ele><time>2026-04-12T10:14:01.998Z</time></trkpt><trkpt lat="45.16166874779803" lon="8.291745441205107"><ele>218.0</ele><time>2026-04-12T10:14:02.998Z</time></trkpt><trkpt lat="45.16153184394021" lon="8.291925989220426"><ele>218.33333333333334</ele><time>2026-04-12T10:14:03.998Z</time></trkpt><trkpt lat="45.161368456615804" lon="8.292121766588085"><ele>218.66666666666669</ele><time>2026-04-12T10:14:04.998Z</time></trkpt><trkpt lat="45.161213879203146" lon="8.292277610954766"><ele>219.0</ele><time>2026-04-12T10:14:05.998Z</time></trkpt><trkpt lat="45.161085207545945" lon="8.292352421450898"><ele>219.0</ele><time>2026-04-12T10:14:06.998Z</time></trkpt><trkpt lat="45.160954164707135" lon="8.292400791655332"><ele>219.0</ele><time>2026-04-12T10:14:07.998Z</time></trkpt><trkpt lat="45.160807260983574" lon="8.292419320554691"><ele>219.0</ele><time>2026-04-12T10:14:08.998Z</time></trkpt><trkpt lat="45.16064265844687" lon="8.292409310040307"><ele>219.0</ele><time>2026-04-12T10:14:09.998Z</time></trkpt><trkpt lat="45.160476545341616" lon="8.292344512583844"><ele>219.5</ele><time>2026-04-12T10:14:10.998Z</time></trkpt><trkpt lat="45.16032777321378" lon="8.292243501604277"><ele>220.0</ele><time>2026-04-12T10:14:11.998Z</time></trkpt><trkpt lat="45.160211425837716" lon="8.292116578894458"><ele>220.5</ele><time>2026-04-12T10:14:12.998Z</time></trkpt><trkpt lat="45.1601100061383" lon="8.291995762666016"><ele>221.0</ele><time>2026-04-12T10:14:13.998Z</time></trkpt><trkpt lat="45.16001353162737" lon="8.291899402135552"><ele>221.0</ele><time>2026-04-12T10:14:15Z</time></trkpt><trkpt lat="45.159923337919324" lon="8.291780986382802"><ele>221.00000000000003</ele><time>2026-04-12T10:14:16Z</time></trkpt><trkpt lat="45.15983278402106" lon="8.291688976739096"><ele>221.00000000000003</ele><time>2026-04-12T10:14:17Z</time></trkpt><trkpt lat="45.15974546575469" lon="8.291639665184025"><ele>221.0</ele><time>2026-04-12T10:14:18Z</time></trkpt><trkpt lat="45.15964005980592" lon="8.291613991127583"><ele>221.0</ele><time>2026-04-12T10:14:19Z</time></trkpt><trkpt lat="45.159503126366495" lon="8.291626695151699"><ele>220.66666666666669</ele><time>2026-04-12T10:14:20Z</time></trkpt><trkpt lat="45.159336849981095" lon="8.291649920795706"><ele>220.33333333333331</ele><time>2026-04-12T10:14:21Z</time></trkpt><trkpt lat="45.15913688820828" lon="8.291675658295778"><ele>220.0</ele><time>2026-04-12T10:14:22Z</time></trkpt><trkpt lat="45.158926765199496" lon="8.291707657563695"><ele>217.0</ele><time>2026-04-12T10:14:23Z</time></trkpt><trkpt lat="45.15872948031259" lon="8.291756305577536"><ele>214.0</ele><time>2026-04-12T10:14:24Z</time></trkpt><trkpt lat="45.158524588233625" lon="8.291836355904202"><ele>211.0</ele><time>2026-04-12T10:14:25Z</time></trkpt><trkpt lat="45.15830282648369" lon="8.291962053705424"><ele>207.5</ele><time>2026-04-12T10:14:26Z</time></trkpt><trkpt lat="45.15806679967036" lon="8.292106424345457"><ele>204.0</ele><time>2026-04-12T10:14:27Z</time></trkpt><trkpt lat="45.15785011918023" lon="8.292214484749534"><ele>205.33333333333331</ele><time>2026-04-12T10:14:28Z</time></trkpt><trkpt lat="45.157655912894164" lon="8.292306613858852"><ele>206.66666666666666</ele><time>2026-04-12T10:14:29Z</time></trkpt><trkpt lat="45.15747859492042" lon="8.292410518278768"><ele>208.0</ele><time>2026-04-12T10:14:30Z</time></trkpt><trkpt lat="45.15731829832186" lon="8.292528756541152"><ele>208.0</ele><time>2026-04-12T10:14:31Z</time></trkpt><trkpt lat="45.15717942312158" lon="8.292655724919312"><ele>208.0</ele><time>2026-04-12T10:14:32Z</time></trkpt><trkpt lat="45.15704679799191" lon="8.292777309670024"><ele>208.0</ele><time>2026-04-12T10:14:33Z</time></trkpt><trkpt lat="45.15691781909548" lon="8.292882067648964"><ele>208.0</ele><time>2026-04-12T10:14:34Z</time></trkpt><trkpt lat="45.156772581465454" lon="8.292973731133047"><ele>208.0</ele><time>2026-04-12T10:14:35Z</time></trkpt><trkpt lat="45.156594611938345" lon="8.292988028486917"><ele>208.0</ele><time>2026-04-12T10:14:36Z</time></trkpt><trkpt lat="45.15640183492452" lon="8.292996498263362"><ele>204.0</ele><time>2026-04-12T10:14:37Z</time></trkpt><trkpt lat="45.15617918340711" lon="8.293001144978225"><ele>200.0</ele><time>2026-04-12T10:14:38Z</time></trkpt><trkpt lat="45.15593458715477" lon="8.293022484280556"><ele>198.5</ele><time>2026-04-12T10:14:39Z</time></trkpt><trkpt lat="45.15567553364575" lon="8.293022095033622"><ele>197.0</ele><time>2026-04-12T10:14:40Z</time></trkpt><trkpt lat="45.15544670602682" lon="8.293023808777994"><ele>197.0</ele><time>2026-04-12T10:14:41Z</time></trkpt><trkpt lat="45.155234918198595" lon="8.293025590781165"><ele>197.0</ele><time>2026-04-12T10:14:42Z</time></trkpt><trkpt lat="45.15502419676643" lon="8.293015504253828"><ele>197.0</ele><time>2026-04-12T10:14:43Z</time></trkpt><trkpt lat="45.15481252774109" lon="8.292977918228402"><ele>196.66666666666669</ele><time>2026-04-12T10:14:44Z</time></trkpt><trkpt lat="45.15463140822049" lon="8.29293253888357"><ele>196.33333333333331</ele><time>2026-04-12T10:14:45Z</time></trkpt><trkpt lat="45.15447664988615" lon="8.292894270747643"><ele>196.0</ele><time>2026-04-12T10:14:46Z</time></trkpt><trkpt lat="45.154327208466405" lon="8.292865292268324"><ele>196.0</ele><time>2026-04-12T10:14:47Z</time></trkpt><trkpt lat="45.15419174413256" lon="8.292862018900854"><ele>196.0</ele><time>2026-04-12T10:14:48Z</time></trkpt><trkpt lat="45.15404916437516" lon="8.292898531563056"><ele>196.0</ele><time>2026-04-12T10:14:49Z</time></trkpt><trkpt lat="45.153914740186316" lon="8.292975411825562"><ele>196.0</ele><time>2026-04-12T10:14:50Z</time></trkpt><trkpt lat="45.153830712295346" lon="8.293074297084116"><ele>195.4</ele><time>2026-04-12T10:14:51Z</time></trkpt><trkpt lat="45.153765599295696" lon="8.293156104761568"><ele>194.8</ele><time>2026-04-12T10:14:52Z</time></trkpt><trkpt lat="45.1536376969964" lon="8.293159855162754"><ele>194.20000000000002</ele><time>2026-04-12T10:14:54Z</time></trkpt><trkpt lat="45.15355550339421" lon="8.293157876484786"><ele>193.60000000000002</ele><time>2026-04-12T10:14:54.999Z</time></trkpt><trkpt lat="45.15348675366708" lon="8.293114262301678"><ele>193.0</ele><time>2026-04-12T10:14:55.999Z</time></trkpt><trkpt lat="45.15345071475674" lon="8.293011696725989"><ele>192.4</ele><time>2026-04-12T10:14:56.999Z</time></trkpt><trkpt lat="45.15342101876493" lon="8.292858784886464"><ele>191.8</ele><time>2026-04-12T10:14:57.999Z</time></trkpt><trkpt lat="45.15338993868516" lon="8.292673640822738"><ele>191.2</ele><time>2026-04-12T10:14:58.999Z</time></trkpt><trkpt lat="45.15338924595363" lon="8.29253265127243"><ele>190.6</ele><time>2026-04-12T10:14:59.999Z</time></trkpt><trkpt lat="45.15342775608543" lon="8.292410516507609"><ele>190.0</ele><time>2026-04-12T10:15:00.999Z</time></trkpt><trkpt lat="45.15349047238017" lon="8.292314965750498"><ele>188.0</ele><time>2026-04-12T10:15:01.999Z</time></trkpt><trkpt lat="45.153518545928165" lon="8.292211783937839"><ele>186.0</ele><time>2026-04-12T10:15:02.999Z</time></trkpt><trkpt lat="45.153507644813494" lon="8.292094067529682"><ele>184.0</ele><time>2026-04-12T10:15:03.999Z</time></trkpt><trkpt lat="45.15346348572655" lon="8.291982222359465"><ele>182.0</ele><time>2026-04-12T10:15:04.999Z</time></trkpt><trkpt lat="45.15336457423667" lon="8.291910770259022"><ele>180.0</ele><time>2026-04-12T10:15:05.999Z</time></trkpt><trkpt lat="45.15327826188097" lon="8.291857217648152"><ele>179.0</ele><time>2026-04-12T10:15:06.999Z</time></trkpt><trkpt lat="45.15318288839355" lon="8.291918034533019"><ele>178.0</ele><time>2026-04-12T10:15:07.999Z</time></trkpt><trkpt lat="45.15311079607142" lon="8.292014869980676"><ele>177.0</ele><time>2026-04-12T10:15:08.999Z</time></trkpt><trkpt lat="45.15305633412203" lon="8.292165978389777"><ele>176.0</ele><time>2026-04-12T10:15:09.999Z</time></trkpt><trkpt lat="45.15297145123495" lon="8.292375436712858"><ele>176.0</ele><time>2026-04-12T10:15:10.999Z</time></trkpt><trkpt lat="45.152882025187814" lon="8.29262493120698"><ele>176.0</ele><time>2026-04-12T10:15:11.999Z</time></trkpt><trkpt lat="45.15278025302657" lon="8.292896656741394"><ele>176.0</ele><time>2026-04-12T10:15:12.999Z</time></trkpt><trkpt lat="45.15264451534662" lon="8.293182543719988"><ele>176.5</ele><time>2026-04-12T10:15:13.999Z</time></trkpt><trkpt lat="45.152482225654424" lon="8.293428257177142"><ele>177.0</ele><time>2026-04-12T10:15:14.999Z</time></trkpt><trkpt lat="45.15231815097918" lon="8.293664587429983"><ele>173.0</ele><time>2026-04-12T10:15:15.999Z</time></trkpt><trkpt lat="45.15217299694352" lon="8.293881840613857"><ele>169.0</ele><time>2026-04-12T10:15:16.999Z</time></trkpt><trkpt lat="45.15206052888735" lon="8.294105361613443"><ele>165.0</ele><time>2026-04-12T10:15:17.999Z</time></trkpt><trkpt lat="45.151948371459355" lon="8.294307144385632"><ele>164.66666666666666</ele><time>2026-04-12T10:15:18.999Z</time></trkpt><trkpt lat="45.15182456019006" lon="8.2944904290736"><ele>164.33333333333331</ele><time>2026-04-12T10:15:19.999Z</time></trkpt><trkpt lat="45.15172645954961" lon="8.294665600574174"><ele>164.0</ele><time>2026-04-12T10:15:20.999Z</time></trkpt><trkpt lat="45.151648252520104" lon="8.294806554454317"><ele>164.33333333333331</ele><time>2026-04-12T10:15:21.999Z</time></trkpt><trkpt lat="45.15159057082849" lon="8.29491051554991"><ele>164.66666666666666</ele><time>2026-04-12T10:15:22.999Z</time></trkpt><trkpt lat="45.151543904937775" lon="8.294987611154792"><ele>165.0</ele><time>2026-04-12T10:15:23.999Z</time></trkpt><trkpt lat="45.15147568590381" lon="8.295021658600442"><ele>165.33333333333334</ele><time>2026-04-12T10:15:25.999Z</time></trkpt><trkpt lat="45.15145060710159" lon="8.294884639456205"><ele>165.66666666666669</ele><time>2026-04-12T10:15:27.999Z</time></trkpt><trkpt lat="45.151459826961386" lon="8.29475007972918"><ele>166.0</ele><time>2026-04-12T10:15:28.999Z</time></trkpt><trkpt lat="45.1514645559004" lon="8.294569308185904"><ele>165.66666666666669</ele><time>2026-04-12T10:15:29.999Z</time></trkpt><trkpt lat="45.15146904048199" lon="8.294338234241717"><ele>165.33333333333334</ele><time>2026-04-12T10:15:30.999Z</time></trkpt><trkpt lat="45.15147912671166" lon="8.294079499962786"><ele>165.0</ele><time>2026-04-12T10:15:31.999Z</time></trkpt><trkpt lat="45.15152866246059" lon="8.293799039511516"><ele>165.0</ele><time>2026-04-12T10:15:32.999Z</time></trkpt><trkpt lat="45.15161314745017" lon="8.293508099617831"><ele>165.0</ele><time>2026-04-12T10:15:33.999Z</time></trkpt><trkpt lat="45.15171298132459" lon="8.293173125343866"><ele>166.0</ele><time>2026-04-12T10:15:34.999Z</time></trkpt><trkpt lat="45.15180535934635" lon="8.292820790367621"><ele>167.0</ele><time>2026-04-12T10:15:35.999Z</time></trkpt><trkpt lat="45.151900140864676" lon="8.292508807707822"><ele>168.33333333333331</ele><time>2026-04-12T10:15:36.999Z</time></trkpt><trkpt lat="45.151991747069474" lon="8.292210344660077"><ele>169.66666666666666</ele><time>2026-04-12T10:15:37.999Z</time></trkpt><trkpt lat="45.15207745143379" lon="8.291961104847633"><ele>171.0</ele><time>2026-04-12T10:15:38.998Z</time></trkpt><trkpt lat="45.15216328946322" lon="8.291736708059961"><ele>171.0</ele><time>2026-04-12T10:15:39.998Z</time></trkpt><trkpt lat="45.15225462170138" lon="8.29154918046144"><ele>171.0</ele><time>2026-04-12T10:15:40.998Z</time></trkpt><trkpt lat="45.152348967257126" lon="8.2913668239366"><ele>171.0</ele><time>2026-04-12T10:15:41.998Z</time></trkpt><trkpt lat="45.15243131576213" lon="8.291178820561997"><ele>170.0</ele><time>2026-04-12T10:15:42.998Z</time></trkpt><trkpt lat="45.1524909374412" lon="8.290984945017943"><ele>169.0</ele><time>2026-04-12T10:15:43.998Z</time></trkpt><trkpt lat="45.152511480849576" lon="8.29077068335042"><ele>168.0</ele><time>2026-04-12T10:15:44.998Z</time></trkpt><trkpt lat="45.1525038215049" lon="8.290523925454968"><ele>167.33333333333334</ele><time>2026-04-12T10:15:45.998Z</time></trkpt><trkpt lat="45.15247023306145" lon="8.290241248207865"><ele>166.66666666666669</ele><time>2026-04-12T10:15:46.998Z</time></trkpt><trkpt lat="45.152431887321775" lon="8.289922113613592"><ele>166.0</ele><time>2026-04-12T10:15:47.998Z</time></trkpt><trkpt lat="45.15239560556266" lon="8.289582666424868"><ele>166.5</ele><time>2026-04-12T10:15:48.998Z</time></trkpt><trkpt lat="45.15234877286671" lon="8.28921085899951"><ele>167.0</ele><time>2026-04-12T10:15:49.998Z</time></trkpt><trkpt lat="45.152303308304155" lon="8.288830411540955"><ele>168.0</ele><time>2026-04-12T10:15:50.998Z</time></trkpt><trkpt lat="45.15222266883045" lon="8.28843717271052"><ele>169.0</ele><time>2026-04-12T10:15:51.998Z</time></trkpt><trkpt lat="45.15214056872094" lon="8.28802315064357"><ele>170.0</ele><time>2026-04-12T10:15:52.998Z</time></trkpt><trkpt lat="45.15204094724268" lon="8.28761765483932"><ele>171.0</ele><time>2026-04-12T10:15:53.998Z</time></trkpt><trkpt lat="45.15196552729595" lon="8.287241316011203"><ele>171.5</ele><time>2026-04-12T10:15:54.998Z</time></trkpt><trkpt lat="45.15189596276471" lon="8.286908049605476"><ele>172.0</ele><time>2026-04-12T10:15:55.998Z</time></trkpt><trkpt lat="45.15182430876373" lon="8.286578660434175"><ele>173.5</ele><time>2026-04-12T10:15:56.998Z</time></trkpt><trkpt lat="45.15174684590962" lon="8.286230688927766"><ele>175.0</ele><time>2026-04-12T10:15:57.998Z</time></trkpt><trkpt lat="45.15166400399645" lon="8.285864952361846"><ele>174.0</ele><time>2026-04-12T10:15:58.998Z</time></trkpt><trkpt lat="45.15157809662125" lon="8.285480398004841"><ele>173.0</ele><time>2026-04-12T10:15:59.998Z</time></trkpt><trkpt lat="45.15149270321181" lon="8.285083557456648"><ele>173.5</ele><time>2026-04-12T10:16:00.998Z</time></trkpt><trkpt lat="45.15140164327534" lon="8.284657687821138"><ele>174.0</ele><time>2026-04-12T10:16:01.998Z</time></trkpt><trkpt lat="45.15130704715803" lon="8.284234290970666"><ele>175.5</ele><time>2026-04-12T10:16:02.998Z</time></trkpt><trkpt lat="45.15121357787814" lon="8.283803999488804"><ele>177.0</ele><time>2026-04-12T10:16:03.998Z</time></trkpt><trkpt lat="45.151118709264594" lon="8.28337489646714"><ele>177.0</ele><time>2026-04-12T10:16:04.998Z</time></trkpt><trkpt lat="45.15103067131722" lon="8.282971334240369"><ele>177.0</ele><time>2026-04-12T10:16:05.998Z</time></trkpt><trkpt lat="45.15093992488197" lon="8.282574470793394"><ele>176.5</ele><time>2026-04-12T10:16:06.998Z</time></trkpt><trkpt lat="45.15085713289414" lon="8.282205852047191"><ele>176.0</ele><time>2026-04-12T10:16:07.998Z</time></trkpt><trkpt lat="45.1507922201656" lon="8.281845840845829"><ele>176.0</ele><time>2026-04-12T10:16:08.998Z</time></trkpt><trkpt lat="45.150688912416" lon="8.281480523520864"><ele>176.0</ele><time>2026-04-12T10:16:09.998Z</time></trkpt><trkpt lat="45.15060323518155" lon="8.281098509058332"><ele>176.0</ele><time>2026-04-12T10:16:10.998Z</time></trkpt><trkpt lat="45.150514778566304" lon="8.28071960953101"><ele>176.0</ele><time>2026-04-12T10:16:11.998Z</time></trkpt><trkpt lat="45.150435972647706" lon="8.280369915942861"><ele>177.0</ele><time>2026-04-12T10:16:12.998Z</time></trkpt><trkpt lat="45.15036222163255" lon="8.280048116368874"><ele>178.0</ele><time>2026-04-12T10:16:13.998Z</time></trkpt><trkpt lat="45.15029295020767" lon="8.279749272673994"><ele>178.66666666666669</ele><time>2026-04-12T10:16:14.998Z</time></trkpt><trkpt lat="45.15023595829298" lon="8.27948109358763"><ele>179.33333333333334</ele><time>2026-04-12T10:16:15.998Z</time></trkpt><trkpt lat="45.150208320155755" lon="8.279231660001159"><ele>180.0</ele><time>2026-04-12T10:16:16.998Z</time></trkpt><trkpt lat="45.150206662493424" lon="8.27895096766049"><ele>181.0</ele><time>2026-04-12T10:16:17.998Z</time></trkpt><trkpt lat="45.15021557590946" lon="8.278630590929636"><ele>182.0</ele><time>2026-04-12T10:16:18.998Z</time></trkpt><trkpt lat="45.150221853182494" lon="8.27828969011166"><ele>182.5</ele><time>2026-04-12T10:16:19.998Z</time></trkpt><trkpt lat="45.15022169584144" lon="8.277942208649407"><ele>183.0</ele><time>2026-04-12T10:16:21Z</time></trkpt><trkpt lat="45.15022593166645" lon="8.277645043454866"><ele>183.0</ele><time>2026-04-12T10:16:22Z</time></trkpt><trkpt lat="45.15023118683692" lon="8.277390509203952"><ele>183.0</ele><time>2026-04-12T10:16:23Z</time></trkpt><trkpt lat="45.150235884518224" lon="8.277149530758816"><ele>183.0</ele><time>2026-04-12T10:16:24Z</time></trkpt><trkpt lat="45.15024198618925" lon="8.276951380123926"><ele>182.60000000000002</ele><time>2026-04-12T10:16:25Z</time></trkpt><trkpt lat="45.15024863440802" lon="8.276811372783385"><ele>182.20000000000002</ele><time>2026-04-12T10:16:26Z</time></trkpt><trkpt lat="45.15024353962125" lon="8.276716748944212"><ele>181.8</ele><time>2026-04-12T10:16:27Z</time></trkpt><trkpt lat="45.15025060219551" lon="8.276616134802872"><ele>181.4</ele><time>2026-04-12T10:16:29Z</time></trkpt><trkpt lat="45.150061994124634" lon="8.276584989085784"><ele>181.0</ele><time>2026-04-12T10:16:30Z</time></trkpt><trkpt lat="45.1499419717355" lon="8.276564629970984"><ele>181.66666666666669</ele><time>2026-04-12T10:16:31Z</time></trkpt><trkpt lat="45.149794157247264" lon="8.276554283372809"><ele>182.33333333333334</ele><time>2026-04-12T10:16:32Z</time></trkpt><trkpt lat="45.149621365260295" lon="8.276543128479833"><ele>183.0</ele><time>2026-04-12T10:16:33Z</time></trkpt><trkpt lat="45.14943845267183" lon="8.276550706009651"><ele>183.0</ele><time>2026-04-12T10:16:34Z</time></trkpt><trkpt lat="45.149285424918055" lon="8.276529025753499"><ele>183.0</ele><time>2026-04-12T10:16:35Z</time></trkpt><trkpt lat="45.149161808160024" lon="8.276510849949425"><ele>183.0</ele><time>2026-04-12T10:16:36Z</time></trkpt><trkpt lat="45.149061835512825" lon="8.276517426472404"><ele>183.0</ele><time>2026-04-12T10:16:37Z</time></trkpt><trkpt lat="45.14896289769588" lon="8.276540088972109"><ele>188.0</ele><time>2026-04-12T10:16:38Z</time></trkpt><trkpt lat="45.14889143102519" lon="8.276701354317868"><ele>193.0</ele><time>2026-04-12T10:16:39Z</time></trkpt><trkpt lat="45.14883013652529" lon="8.2768906225668"><ele>198.0</ele><time>2026-04-12T10:16:40Z</time></trkpt><trkpt lat="45.148735620302716" lon="8.277085292706392"><ele>203.0</ele><time>2026-04-12T10:16:41Z</time></trkpt><trkpt lat="45.14863331250674" lon="8.277313167390558"><ele>203.0</ele><time>2026-04-12T10:16:42Z</time></trkpt><trkpt lat="45.14852604055972" lon="8.277558304773486"><ele>203.0</ele><time>2026-04-12T10:16:43Z</time></trkpt><trkpt lat="45.14842530607676" lon="8.277794191041288"><ele>203.0</ele><time>2026-04-12T10:16:44Z</time></trkpt><trkpt lat="45.14833448424078" lon="8.277998114390018"><ele>202.0</ele><time>2026-04-12T10:16:45Z</time></trkpt><trkpt lat="45.148245950752546" lon="8.278154823570606"><ele>201.0</ele><time>2026-04-12T10:16:46Z</time></trkpt><trkpt lat="45.14814058538433" lon="8.2782663920996"><ele>200.0</ele><time>2026-04-12T10:16:47Z</time></trkpt><trkpt lat="45.148009053842316" lon="8.278361683541831"><ele>199.0</ele><time>2026-04-12T10:16:48Z</time></trkpt><trkpt lat="45.14787339446932" lon="8.27845170207816"><ele>202.5</ele><time>2026-04-12T10:16:49Z</time></trkpt><trkpt lat="45.14777773373803" lon="8.278539851021245"><ele>206.0</ele><time>2026-04-12T10:16:50Z</time></trkpt><trkpt lat="45.147708966637175" lon="8.278659517555916"><ele>209.5</ele><time>2026-04-12T10:16:51Z</time></trkpt><trkpt lat="45.14767093873588" lon="8.278835051746567"><ele>213.0</ele><time>2026-04-12T10:16:52Z</time></trkpt><trkpt lat="45.14767997662966" lon="8.2790388640174"><ele>213.0</ele><time>2026-04-12T10:16:53Z</time></trkpt><trkpt lat="45.147726669445596" lon="8.279237840396323"><ele>213.0</ele><time>2026-04-12T10:16:54Z</time></trkpt><trkpt lat="45.14778279034808" lon="8.279442720635421"><ele>213.0</ele><time>2026-04-12T10:16:55Z</time></trkpt><trkpt lat="45.14781804880901" lon="8.279608864751197"><ele>213.0</ele><time>2026-04-12T10:16:56Z</time></trkpt><trkpt lat="45.14782135409861" lon="8.279761488079915"><ele>213.5</ele><time>2026-04-12T10:16:57Z</time></trkpt><trkpt lat="45.14779310654487" lon="8.279946970119044"><ele>214.0</ele><time>2026-04-12T10:16:58Z</time></trkpt><trkpt lat="45.147762549126725" lon="8.28015999728782"><ele>214.5</ele><time>2026-04-12T10:16:59Z</time></trkpt><trkpt lat="45.147728391339484" lon="8.280336345369161"><ele>215.0</ele><time>2026-04-12T10:16:59.999Z</time></trkpt><trkpt lat="45.147692490258926" lon="8.280423647189062"><ele>215.0</ele><time>2026-04-12T10:17:00.999Z</time></trkpt><trkpt lat="45.14757214153883" lon="8.280472278636566"><ele>215.0</ele><time>2026-04-12T10:17:02.999Z</time></trkpt><trkpt lat="45.147501879464585" lon="8.280397481014358"><ele>215.0</ele><time>2026-04-12T10:17:03.999Z</time></trkpt><trkpt lat="45.14746719059988" lon="8.280320349201443"><ele>215.0</ele><time>2026-04-12T10:17:04.999Z</time></trkpt><trkpt lat="45.147546274289525" lon="8.280153825422257"><ele>215.0</ele><time>2026-04-12T10:17:05.999Z</time></trkpt><trkpt lat="45.14758395501317" lon="8.279999011604499"><ele>215.0</ele><time>2026-04-12T10:17:06.999Z</time></trkpt><trkpt lat="45.14759560887091" lon="8.2798235748243"><ele>215.0</ele><time>2026-04-12T10:17:07.999Z</time></trkpt><trkpt lat="45.14757920990486" lon="8.279655349618162"><ele>215.0</ele><time>2026-04-12T10:17:08.999Z</time></trkpt><trkpt lat="45.14752917383424" lon="8.27951417113551"><ele>215.0</ele><time>2026-04-12T10:17:09.999Z</time></trkpt><trkpt lat="45.14745686807716" lon="8.279422575332614"><ele>216.5</ele><time>2026-04-12T10:17:10.999Z</time></trkpt><trkpt lat="45.14735574738637" lon="8.279352807986434"><ele>218.0</ele><time>2026-04-12T10:17:11.999Z</time></trkpt><trkpt lat="45.147211599056945" lon="8.279299430065803"><ele>219.5</ele><time>2026-04-12T10:17:12.999Z</time></trkpt><trkpt lat="45.14705710350445" lon="8.279257564668493"><ele>221.0</ele><time>2026-04-12T10:17:13.999Z</time></trkpt><trkpt lat="45.14689571630416" lon="8.279188778603475"><ele>221.0</ele><time>2026-04-12T10:17:14.999Z</time></trkpt><trkpt lat="45.14673220191847" lon="8.279128411083281"><ele>221.0</ele><time>2026-04-12T10:17:15.999Z</time></trkpt><trkpt lat="45.14656433279025" lon="8.27906059569738"><ele>221.0</ele><time>2026-04-12T10:17:16.999Z</time></trkpt><trkpt lat="45.14639359867698" lon="8.27899782361398"><ele>221.25</ele><time>2026-04-12T10:17:17.999Z</time></trkpt><trkpt lat="45.14625062883237" lon="8.278939134365947"><ele>221.5</ele><time>2026-04-12T10:17:18.999Z</time></trkpt><trkpt lat="45.14612967212571" lon="8.278875909782423"><ele>221.75</ele><time>2026-04-12T10:17:19.999Z</time></trkpt><trkpt lat="45.14601737177358" lon="8.278785716865206"><ele>222.0</ele><time>2026-04-12T10:17:20.999Z</time></trkpt><trkpt lat="45.14592092603873" lon="8.278642386641051"><ele>222.0</ele><time>2026-04-12T10:17:21.999Z</time></trkpt><trkpt lat="45.14580757410995" lon="8.278472401709736"><ele>222.0</ele><time>2026-04-12T10:17:22.999Z</time></trkpt><trkpt lat="45.14568399925908" lon="8.27827214008078"><ele>222.0</ele><time>2026-04-12T10:17:23.999Z</time></trkpt><trkpt lat="45.14557586071432" lon="8.278095750017146"><ele>223.5</ele><time>2026-04-12T10:17:24.999Z</time></trkpt><trkpt lat="45.145476813062075" lon="8.277994477985981"><ele>225.0</ele><time>2026-04-12T10:17:25.999Z</time></trkpt><trkpt lat="45.14538128696001" lon="8.277930702650222"><ele>226.5</ele><time>2026-04-12T10:17:26.999Z</time></trkpt><trkpt lat="45.1452644311756" lon="8.277902806696188"><ele>228.0</ele><time>2026-04-12T10:17:27.999Z</time></trkpt><trkpt lat="45.14513422371759" lon="8.277924314674914"><ele>228.0</ele><time>2026-04-12T10:17:28.999Z</time></trkpt><trkpt lat="45.14499575660234" lon="8.278001295702488"><ele>228.0</ele><time>2026-04-12T10:17:29.999Z</time></trkpt><trkpt lat="45.144827727040834" lon="8.278096821324317"><ele>228.0</ele><time>2026-04-12T10:17:30.999Z</time></trkpt><trkpt lat="45.1446392528438" lon="8.278188591475455"><ele>226.66666666666669</ele><time>2026-04-12T10:17:31.999Z</time></trkpt><trkpt lat="45.144429493852584" lon="8.278279997566687"><ele>225.33333333333334</ele><time>2026-04-12T10:17:32.999Z</time></trkpt><trkpt lat="45.144212991687475" lon="8.278368674446117"><ele>224.0</ele><time>2026-04-12T10:17:33.999Z</time></trkpt><trkpt lat="45.14403592401369" lon="8.278435420043197"><ele>226.25</ele><time>2026-04-12T10:17:34.999Z</time></trkpt><trkpt lat="45.143895576743525" lon="8.278486966352405"><ele>228.5</ele><time>2026-04-12T10:17:35.999Z</time></trkpt><trkpt lat="45.14377856292145" lon="8.278519884339124"><ele>230.75</ele><time>2026-04-12T10:17:36.999Z</time></trkpt><trkpt lat="45.143670337961716" lon="8.278526693279"><ele>233.0</ele><time>2026-04-12T10:17:37.999Z</time></trkpt><trkpt lat="45.14357377817246" lon="8.278469738160188"><ele>233.0</ele><time>2026-04-12T10:17:38.999Z</time></trkpt><trkpt lat="45.143500758345034" lon="8.278344683895437"><ele>233.0</ele><time>2026-04-12T10:17:39.999Z</time></trkpt><trkpt lat="45.143466996029495" lon="8.278201642536995"><ele>233.0</ele><time>2026-04-12T10:17:40.999Z</time></trkpt><trkpt lat="45.1434285486452" lon="8.278054296281669"><ele>233.0</ele><time>2026-04-12T10:17:41.999Z</time></trkpt><trkpt lat="45.14337183451078" lon="8.277885887579442"><ele>233.75</ele><time>2026-04-12T10:17:42.999Z</time></trkpt><trkpt lat="45.143324106123366" lon="8.277674982179217"><ele>234.5</ele><time>2026-04-12T10:17:43.998Z</time></trkpt><trkpt lat="45.14327472172314" lon="8.277462992053337"><ele>235.25</ele><time>2026-04-12T10:17:44.998Z</time></trkpt><trkpt lat="45.14324017418033" lon="8.277317363560494"><ele>236.0</ele><time>2026-04-12T10:17:45.998Z</time></trkpt><trkpt lat="45.143205950527495" lon="8.277193422922386"><ele>236.8</ele><time>2026-04-12T10:17:46.998Z</time></trkpt><trkpt lat="45.14313630656423" lon="8.27712051224626"><ele>237.60000000000002</ele><time>2026-04-12T10:17:47.998Z</time></trkpt><trkpt lat="45.143028843889574" lon="8.277139752542276"><ele>238.4</ele><time>2026-04-12T10:17:48.998Z</time></trkpt><trkpt lat="45.142909267527244" lon="8.277155009648245"><ele>239.2</ele><time>2026-04-12T10:17:49.998Z</time></trkpt><trkpt lat="45.1428048847007" lon="8.277115119314173"><ele>240.0</ele><time>2026-04-12T10:17:50.998Z</time></trkpt><trkpt lat="45.14271697161413" lon="8.277003448324876"><ele>240.0</ele><time>2026-04-12T10:17:51.998Z</time></trkpt><trkpt lat="45.14261200305773" lon="8.276810969686913"><ele>240.0</ele><time>2026-04-12T10:17:52.998Z</time></trkpt><trkpt lat="45.14246345781261" lon="8.276625416729757"><ele>240.0</ele><time>2026-04-12T10:17:53.998Z</time></trkpt><trkpt lat="45.14232161382748" lon="8.276412233820563"><ele>238.5</ele><time>2026-04-12T10:17:54.998Z</time></trkpt><trkpt lat="45.142204349481105" lon="8.276228535855987"><ele>237.0</ele><time>2026-04-12T10:17:55.998Z</time></trkpt><trkpt lat="45.142116351086536" lon="8.2760815114709"><ele>235.5</ele><time>2026-04-12T10:17:56.998Z</time></trkpt><trkpt lat="45.142067741191255" lon="8.275934722454958"><ele>234.0</ele><time>2026-04-12T10:17:57.998Z</time></trkpt><trkpt lat="45.142056133003045" lon="8.275841898954646"><ele>234.0</ele><time>2026-04-12T10:17:58.998Z</time></trkpt><trkpt lat="45.14211269972179" lon="8.275648419790453"><ele>234.0</ele><time>2026-04-12T10:18:00.998Z</time></trkpt><trkpt lat="45.14218413366743" lon="8.275491337931136"><ele>234.0</ele><time>2026-04-12T10:18:01.998Z</time></trkpt><trkpt lat="45.14226647959239" lon="8.275286016021425"><ele>234.0</ele><time>2026-04-12T10:18:02.998Z</time></trkpt><trkpt lat="45.14231960919317" lon="8.27504646835855"><ele>231.33333333333331</ele><time>2026-04-12T10:18:03.998Z</time></trkpt><trkpt lat="45.1423406616125" lon="8.27477746374969"><ele>228.66666666666666</ele><time>2026-04-12T10:18:04.998Z</time></trkpt><trkpt lat="45.14233471450277" lon="8.274484849909344"><ele>226.0</ele><time>2026-04-12T10:18:05.998Z</time></trkpt><trkpt lat="45.142328962354625" lon="8.274228838753444"><ele>226.66666666666666</ele><time>2026-04-12T10:18:06.998Z</time></trkpt><trkpt lat="45.14236528560128" lon="8.274027173291346"><ele>227.33333333333331</ele><time>2026-04-12T10:18:07.998Z</time></trkpt><trkpt lat="45.14242861801639" lon="8.273775867060277"><ele>228.0</ele><time>2026-04-12T10:18:08.998Z</time></trkpt><trkpt lat="45.142501442164864" lon="8.273536758409902"><ele>228.0</ele><time>2026-04-12T10:18:09.998Z</time></trkpt><trkpt lat="45.142537152747785" lon="8.273287519595554"><ele>228.0</ele><time>2026-04-12T10:18:10.998Z</time></trkpt><trkpt lat="45.14255041481902" lon="8.272972269053827"><ele>228.0</ele><time>2026-04-12T10:18:11.998Z</time></trkpt><trkpt lat="45.14255672742981" lon="8.272631827328858"><ele>227.0</ele><time>2026-04-12T10:18:12.998Z</time></trkpt><trkpt lat="45.14256905587712" lon="8.272363327544651"><ele>226.0</ele><time>2026-04-12T10:18:13.998Z</time></trkpt><trkpt lat="45.142591978076695" lon="8.272140534482386"><ele>225.0</ele><time>2026-04-12T10:18:14.998Z</time></trkpt><trkpt lat="45.14259269226803" lon="8.27194144224783"><ele>224.66666666666669</ele><time>2026-04-12T10:18:15.998Z</time></trkpt><trkpt lat="45.14254130817759" lon="8.27175825977385"><ele>224.33333333333334</ele><time>2026-04-12T10:18:16.998Z</time></trkpt><trkpt lat="45.142441086438254" lon="8.271587544417638"><ele>224.0</ele><time>2026-04-12T10:18:17.998Z</time></trkpt><trkpt lat="45.14229853865521" lon="8.271427852028655"><ele>226.0</ele><time>2026-04-12T10:18:18.998Z</time></trkpt><trkpt lat="45.142156370082155" lon="8.271223897859782"><ele>228.0</ele><time>2026-04-12T10:18:19.998Z</time></trkpt><trkpt lat="45.14199878267762" lon="8.271025475201576"><ele>230.0</ele><time>2026-04-12T10:18:20.998Z</time></trkpt><trkpt lat="45.14185494106541" lon="8.270857938631686"><ele>230.0</ele><time>2026-04-12T10:18:21.998Z</time></trkpt><trkpt lat="45.14172421753172" lon="8.270714847890378"><ele>230.0</ele><time>2026-04-12T10:18:22.998Z</time></trkpt><trkpt lat="45.14160036729861" lon="8.270597057939483"><ele>230.0</ele><time>2026-04-12T10:18:23.998Z</time></trkpt><trkpt lat="45.14153905710368" lon="8.270428573626765"><ele>230.0</ele><time>2026-04-12T10:18:24.998Z</time></trkpt><trkpt lat="45.14147245960769" lon="8.270247179267647"><ele>232.33333333333334</ele><time>2026-04-12T10:18:25.998Z</time></trkpt><trkpt lat="45.14148414442314" lon="8.270013912626114"><ele>234.66666666666669</ele><time>2026-04-12T10:18:27Z</time></trkpt><trkpt lat="45.141473455860734" lon="8.269752686898714"><ele>237.0</ele><time>2026-04-12T10:18:28Z</time></trkpt><trkpt lat="45.14149176585758" lon="8.269465465523622"><ele>239.75</ele><time>2026-04-12T10:18:29Z</time></trkpt><trkpt lat="45.1414930307704" lon="8.26920166125799"><ele>242.5</ele><time>2026-04-12T10:18:30Z</time></trkpt><trkpt lat="45.14149431302062" lon="8.269007172485948"><ele>245.25</ele><time>2026-04-12T10:18:31Z</time></trkpt><trkpt lat="45.14148238133579" lon="8.268889622114054"><ele>248.0</ele><time>2026-04-12T10:18:32Z</time></trkpt><trkpt lat="45.141440472091176" lon="8.268783711116443"><ele>251.25</ele><time>2026-04-12T10:18:33Z</time></trkpt><trkpt lat="45.14136031114978" lon="8.268706367303365"><ele>254.5</ele><time>2026-04-12T10:18:34Z</time></trkpt><trkpt lat="45.141238268579905" lon="8.268679906415665"><ele>257.75</ele><time>2026-04-12T10:18:35Z</time></trkpt><trkpt lat="45.141095738570016" lon="8.268694025688395"><ele>261.0</ele><time>2026-04-12T10:18:36Z</time></trkpt><trkpt lat="45.140965977239645" lon="8.26869758854142"><ele>261.0</ele><time>2026-04-12T10:18:37Z</time></trkpt><trkpt lat="45.140888716293595" lon="8.268678518072479"><ele>261.0</ele><time>2026-04-12T10:18:38Z</time></trkpt><trkpt lat="45.14083100156697" lon="8.26863226666224"><ele>261.0</ele><time>2026-04-12T10:18:39Z</time></trkpt><trkpt lat="45.14080366138216" lon="8.26854831774416"><ele>261.0</ele><time>2026-04-12T10:18:40Z</time></trkpt><trkpt lat="45.14090028567261" lon="8.268405036858548"><ele>261.0</ele><time>2026-04-12T10:18:41Z</time></trkpt><trkpt lat="45.14096177090326" lon="8.268242397303599"><ele>261.75</ele><time>2026-04-12T10:18:42Z</time></trkpt><trkpt lat="45.141015958497086" lon="8.268044160130444"><ele>262.5</ele><time>2026-04-12T10:18:43Z</time></trkpt><trkpt lat="45.14107216954106" lon="8.267849658826322"><ele>263.25</ele><time>2026-04-12T10:18:44Z</time></trkpt><trkpt lat="45.14108596960977" lon="8.26769343258733"><ele>264.0</ele><time>2026-04-12T10:18:45Z</time></trkpt><trkpt lat="45.1410598257872" lon="8.267561939735016"><ele>264.0</ele><time>2026-04-12T10:18:46Z</time></trkpt><trkpt lat="45.14102216936325" lon="8.26743847229505"><ele>264.0</ele><time>2026-04-12T10:18:47Z</time></trkpt><trkpt lat="45.14100099144724" lon="8.267330615702798"><ele>264.0</ele><time>2026-04-12T10:18:48Z</time></trkpt><trkpt lat="45.14098120755761" lon="8.26717740962748"><ele>264.0</ele><time>2026-04-12T10:18:49Z</time></trkpt><trkpt lat="45.1409502903901" lon="8.26696676124578"><ele>264.0</ele><time>2026-04-12T10:18:50Z</time></trkpt><trkpt lat="45.14089335720106" lon="8.266712724464988"><ele>263.6666666666667</ele><time>2026-04-12T10:18:51Z</time></trkpt><trkpt lat="45.14083656971712" lon="8.266432024008068"><ele>263.33333333333337</ele><time>2026-04-12T10:18:52Z</time></trkpt><trkpt lat="45.14076700094001" lon="8.26614954808004"><ele>263.0</ele><time>2026-04-12T10:18:53Z</time></trkpt><trkpt lat="45.14071922549107" lon="8.265917801179349"><ele>262.2</ele><time>2026-04-12T10:18:54Z</time></trkpt><trkpt lat="45.14068567720799" lon="8.265732773800398"><ele>261.4</ele><time>2026-04-12T10:18:55Z</time></trkpt><trkpt lat="45.14068541188839" lon="8.265567237656564"><ele>260.59999999999997</ele><time>2026-04-12T10:18:56Z</time></trkpt><trkpt lat="45.1407252397443" lon="8.26544614975068"><ele>259.8</ele><time>2026-04-12T10:18:57Z</time></trkpt><trkpt lat="45.1407770954827" lon="8.265344559739072"><ele>259.0</ele><time>2026-04-12T10:18:58Z</time></trkpt><trkpt lat="45.14085631225163" lon="8.265223340504756"><ele>259.0</ele><time>2026-04-12T10:18:59Z</time></trkpt><trkpt lat="45.14094174524971" lon="8.265060802026735"><ele>259.0</ele><time>2026-04-12T10:19:00Z</time></trkpt><trkpt lat="45.14105271295181" lon="8.26492472831848"><ele>259.0</ele><time>2026-04-12T10:19:01Z</time></trkpt><trkpt lat="45.141188415016934" lon="8.264797972266411"><ele>259.0</ele><time>2026-04-12T10:19:02Z</time></trkpt><trkpt lat="45.14135702676351" lon="8.264692510914578"><ele>259.0</ele><time>2026-04-12T10:19:03Z</time></trkpt><trkpt lat="45.14148041219324" lon="8.264550348995071"><ele>259.0</ele><time>2026-04-12T10:19:04Z</time></trkpt><trkpt lat="45.14159897981714" lon="8.264430537756459"><ele>259.0</ele><time>2026-04-12T10:19:05Z</time></trkpt><trkpt lat="45.141694615868225" lon="8.264338381015564"><ele>259.0</ele><time>2026-04-12T10:19:05.999Z</time></trkpt><trkpt lat="45.141791807857096" lon="8.264314347712293"><ele>259.0</ele><time>2026-04-12T10:19:06.999Z</time></trkpt><trkpt lat="45.14190299264488" lon="8.264335719668832"><ele>259.0</ele><time>2026-04-12T10:19:07.999Z</time></trkpt><trkpt lat="45.142032426028855" lon="8.264382922394919"><ele>259.0</ele><time>2026-04-12T10:19:08.999Z</time></trkpt><trkpt lat="45.142134252063954" lon="8.264375290721677"><ele>259.0</ele><time>2026-04-12T10:19:09.999Z</time></trkpt><trkpt lat="45.142225769131834" lon="8.264358805656967"><ele>259.0</ele><time>2026-04-12T10:19:10.999Z</time></trkpt><trkpt lat="45.142285213356935" lon="8.264201114782644"><ele>259.0</ele><time>2026-04-12T10:19:11.999Z</time></trkpt><trkpt lat="45.14230705024515" lon="8.264026984004959"><ele>259.0</ele><time>2026-04-12T10:19:12.999Z</time></trkpt><trkpt lat="45.14228580286909" lon="8.2638277527648"><ele>256.66666666666663</ele><time>2026-04-12T10:19:13.999Z</time></trkpt><trkpt lat="45.14225318617435" lon="8.263621267509947"><ele>254.33333333333331</ele><time>2026-04-12T10:19:14.999Z</time></trkpt><trkpt lat="45.14229833073707" lon="8.263392676894243"><ele>252.0</ele><time>2026-04-12T10:19:15.999Z</time></trkpt><trkpt lat="45.142344775490905" lon="8.263138484196555"><ele>260.3333333333333</ele><time>2026-04-12T10:19:16.999Z</time></trkpt><trkpt lat="45.14243567062371" lon="8.262846648327793"><ele>268.66666666666663</ele><time>2026-04-12T10:19:17.999Z</time></trkpt><trkpt lat="45.142483555936735" lon="8.262609506335021"><ele>277.0</ele><time>2026-04-12T10:19:18.999Z</time></trkpt><trkpt lat="45.142519012262966" lon="8.26244772748159"><ele>277.0</ele><time>2026-04-12T10:19:19.999Z</time></trkpt><trkpt lat="45.14252310836342" lon="8.2623133348433"><ele>277.0</ele><time>2026-04-12T10:19:20.999Z</time></trkpt><trkpt lat="45.142476715111044" lon="8.262186036152412"><ele>277.0</ele><time>2026-04-12T10:19:21.999Z</time></trkpt><trkpt lat="45.142369499768606" lon="8.262075931864976"><ele>277.0</ele><time>2026-04-12T10:19:22.999Z</time></trkpt><trkpt lat="45.14222016636512" lon="8.261993261538253"><ele>276.0</ele><time>2026-04-12T10:19:23.999Z</time></trkpt><trkpt lat="45.1420580975166" lon="8.261892255769059"><ele>275.0</ele><time>2026-04-12T10:19:24.999Z</time></trkpt><trkpt lat="45.14190211353437" lon="8.261790591673634"><ele>274.0</ele><time>2026-04-12T10:19:25.999Z</time></trkpt><trkpt lat="45.14178074352198" lon="8.261692357593846"><ele>274.0</ele><time>2026-04-12T10:19:26.999Z</time></trkpt><trkpt lat="45.14168626860789" lon="8.261566348559636"><ele>274.0</ele><time>2026-04-12T10:19:27.999Z</time></trkpt><trkpt lat="45.141592345328654" lon="8.261395518361345"><ele>274.0</ele><time>2026-04-12T10:19:28.999Z</time></trkpt><trkpt lat="45.14151148895019" lon="8.261187888958771"><ele>273.5</ele><time>2026-04-12T10:19:29.999Z</time></trkpt><trkpt lat="45.14147068647517" lon="8.260992821424821"><ele>273.0</ele><time>2026-04-12T10:19:30.999Z</time></trkpt><trkpt lat="45.141457951533305" lon="8.260803651911443"><ele>272.5</ele><time>2026-04-12T10:19:31.999Z</time></trkpt><trkpt lat="45.1414590305751" lon="8.260573847701203"><ele>272.0</ele><time>2026-04-12T10:19:32.999Z</time></trkpt><trkpt lat="45.141519220822026" lon="8.260373893066387"><ele>275.5</ele><time>2026-04-12T10:19:33.999Z</time></trkpt><trkpt lat="45.141589037406256" lon="8.260259843967644"><ele>279.0</ele><time>2026-04-12T10:19:34.999Z</time></trkpt><trkpt lat="45.141679774080586" lon="8.260163953161921"><ele>282.5</ele><time>2026-04-12T10:19:35.999Z</time></trkpt><trkpt lat="45.14179787616502" lon="8.260016662662746"><ele>286.0</ele><time>2026-04-12T10:19:36.999Z</time></trkpt><trkpt lat="45.141903885211256" lon="8.259895737959472"><ele>287.75</ele><time>2026-04-12T10:19:37.999Z</time></trkpt><trkpt lat="45.141968447596156" lon="8.259774480057766"><ele>289.5</ele><time>2026-04-12T10:19:38.999Z</time></trkpt><trkpt lat="45.141990064917856" lon="8.259645837916601"><ele>291.25</ele><time>2026-04-12T10:19:39.999Z</time></trkpt><trkpt lat="45.141943366929155" lon="8.259497272605909"><ele>293.0</ele><time>2026-04-12T10:19:40.999Z</time></trkpt><trkpt lat="45.14184308716597" lon="8.259345624275769"><ele>293.0</ele><time>2026-04-12T10:19:41.999Z</time></trkpt><trkpt lat="45.14171773029178" lon="8.259198340454315"><ele>293.0</ele><time>2026-04-12T10:19:42.999Z</time></trkpt><trkpt lat="45.14160328623433" lon="8.259025496691846"><ele>293.0</ele><time>2026-04-12T10:19:43.999Z</time></trkpt><trkpt lat="45.14155878549528" lon="8.258837737316382"><ele>293.75</ele><time>2026-04-12T10:19:44.999Z</time></trkpt><trkpt lat="45.14153388859653" lon="8.258665972976923"><ele>294.5</ele><time>2026-04-12T10:19:45.999Z</time></trkpt><trkpt lat="45.14150183640868" lon="8.25847886526"><ele>295.25</ele><time>2026-04-12T10:19:46.999Z</time></trkpt><trkpt lat="45.141540732510066" lon="8.258331859064995"><ele>296.0</ele><time>2026-04-12T10:19:47.999Z</time></trkpt><trkpt lat="45.14159693737646" lon="8.258209868832383"><ele>291.6666666666667</ele><time>2026-04-12T10:19:48.998Z</time></trkpt><trkpt lat="45.141673141012596" lon="8.258061704320419"><ele>287.3333333333333</ele><time>2026-04-12T10:19:49.998Z</time></trkpt><trkpt lat="45.14177853606528" lon="8.25786334981543"><ele>283.0</ele><time>2026-04-12T10:19:50.998Z</time></trkpt><trkpt lat="45.141893787158516" lon="8.257625188752815"><ele>283.0</ele><time>2026-04-12T10:19:51.998Z</time></trkpt><trkpt lat="45.1420141379393" lon="8.2573738534414"><ele>283.0</ele><time>2026-04-12T10:19:52.998Z</time></trkpt><trkpt lat="45.142114853084934" lon="8.257165111137379"><ele>283.0</ele><time>2026-04-12T10:19:53.998Z</time></trkpt><trkpt lat="45.14218581087536" lon="8.256993506415846"><ele>282.2</ele><time>2026-04-12T10:19:54.998Z</time></trkpt><trkpt lat="45.14223891700624" lon="8.256861637841752"><ele>281.4</ele><time>2026-04-12T10:19:55.998Z</time></trkpt><trkpt lat="45.14225263024388" lon="8.256742648900461"><ele>280.59999999999997</ele><time>2026-04-12T10:19:56.998Z</time></trkpt><trkpt lat="45.14222036743828" lon="8.256619512152227"><ele>279.8</ele><time>2026-04-12T10:19:57.998Z</time></trkpt><trkpt lat="45.142120868290924" lon="8.256506465583806"><ele>279.0</ele><time>2026-04-12T10:19:58.998Z</time></trkpt><trkpt lat="45.14200236522921" lon="8.256392981318454"><ele>282.75</ele><time>2026-04-12T10:19:59.998Z</time></trkpt><trkpt lat="45.14188193502765" lon="8.256255330635286"><ele>286.5</ele><time>2026-04-12T10:20:00.998Z</time></trkpt><trkpt lat="45.141777150413255" lon="8.256147343703782"><ele>290.25</ele><time>2026-04-12T10:20:01.998Z</time></trkpt><trkpt lat="45.14166236136348" lon="8.256109224400713"><ele>294.0</ele><time>2026-04-12T10:20:02.998Z</time></trkpt><trkpt lat="45.14155101478654" lon="8.256113199090072"><ele>291.25</ele><time>2026-04-12T10:20:03.998Z</time></trkpt><trkpt lat="45.14143061934539" lon="8.25612604234341"><ele>288.5</ele><time>2026-04-12T10:20:04.998Z</time></trkpt><trkpt lat="45.14129615824703" lon="8.256114094199706"><ele>285.75</ele><time>2026-04-12T10:20:05.998Z</time></trkpt><trkpt lat="45.14117552190846" lon="8.256107012131674"><ele>283.0</ele><time>2026-04-12T10:20:06.998Z</time></trkpt><trkpt lat="45.14106692764161" lon="8.256085847407496"><ele>283.0</ele><time>2026-04-12T10:20:07.998Z</time></trkpt><trkpt lat="45.14096899193738" lon="8.256044424945578"><ele>283.0</ele><time>2026-04-12T10:20:08.998Z</time></trkpt><trkpt lat="45.14088817198862" lon="8.255986150309301"><ele>283.0</ele><time>2026-04-12T10:20:09.998Z</time></trkpt><trkpt lat="45.14080207201282" lon="8.255904445254869"><ele>283.0</ele><time>2026-04-12T10:20:10.998Z</time></trkpt><trkpt lat="45.1407349010584" lon="8.255795560221326"><ele>283.0</ele><time>2026-04-12T10:20:11.998Z</time></trkpt><trkpt lat="45.14066161950873" lon="8.255668778210097"><ele>280.75</ele><time>2026-04-12T10:20:12.998Z</time></trkpt><trkpt lat="45.14058439432298" lon="8.255537082593877"><ele>278.5</ele><time>2026-04-12T10:20:13.998Z</time></trkpt><trkpt lat="45.14049565014095" lon="8.255405319035361"><ele>276.25</ele><time>2026-04-12T10:20:14.998Z</time></trkpt><trkpt lat="45.14042209978415" lon="8.255284466282916"><ele>274.0</ele><time>2026-04-12T10:20:15.998Z</time></trkpt><trkpt lat="45.140367708402444" lon="8.255178766560771"><ele>274.0</ele><time>2026-04-12T10:20:16.998Z</time></trkpt><trkpt lat="45.140337868238106" lon="8.255049569396322"><ele>274.0</ele><time>2026-04-12T10:20:17.998Z</time></trkpt><trkpt lat="45.14032007909337" lon="8.254939658161888"><ele>274.0</ele><time>2026-04-12T10:20:18.998Z</time></trkpt><trkpt lat="45.140283529841945" lon="8.254823210805624"><ele>274.0</ele><time>2026-04-12T10:20:19.998Z</time></trkpt><trkpt lat="45.14022128147269" lon="8.25471497774126"><ele>274.0</ele><time>2026-04-12T10:20:20.998Z</time></trkpt><trkpt lat="45.14013362414873" lon="8.254642855414525"><ele>274.4</ele><time>2026-04-12T10:20:21.998Z</time></trkpt><trkpt lat="45.140025664801016" lon="8.254581163803465"><ele>274.79999999999995</ele><time>2026-04-12T10:20:22.998Z</time></trkpt><trkpt lat="45.13992642059153" lon="8.254550148320583"><ele>275.20000000000005</ele><time>2026-04-12T10:20:23.998Z</time></trkpt><trkpt lat="45.139835794796895" lon="8.254513728936056"><ele>275.6</ele><time>2026-04-12T10:20:24.998Z</time></trkpt><trkpt lat="45.13974423027348" lon="8.254498844318555"><ele>276.0</ele><time>2026-04-12T10:20:25.998Z</time></trkpt><trkpt lat="45.13965640508304" lon="8.254458931926"><ele>274.6</ele><time>2026-04-12T10:20:26.998Z</time></trkpt><trkpt lat="45.13956048958772" lon="8.254420954480237"><ele>273.20000000000005</ele><time>2026-04-12T10:20:27.998Z</time></trkpt><trkpt lat="45.139460271467364" lon="8.254364263578085"><ele>271.79999999999995</ele><time>2026-04-12T10:20:28.998Z</time></trkpt><trkpt lat="45.139357359159405" lon="8.254339951688522"><ele>270.4</ele><time>2026-04-12T10:20:29.998Z</time></trkpt><trkpt lat="45.13925759841904" lon="8.254305846959674"><ele>269.0</ele><time>2026-04-12T10:20:30.998Z</time></trkpt><trkpt lat="45.13914780477443" lon="8.254244360708048"><ele>268.25</ele><time>2026-04-12T10:20:31.998Z</time></trkpt><trkpt lat="45.13901821397488" lon="8.25423901406758"><ele>267.5</ele><time>2026-04-12T10:20:33Z</time></trkpt><trkpt lat="45.138898146260935" lon="8.254189040189555"><ele>266.75</ele><time>2026-04-12T10:20:34Z</time></trkpt><trkpt lat="45.138772868373124" lon="8.254148451870362"><ele>266.0</ele><time>2026-04-12T10:20:35Z</time></trkpt><trkpt lat="45.138643248591144" lon="8.254117788252593"><ele>266.0</ele><time>2026-04-12T10:20:36Z</time></trkpt><trkpt lat="45.138522260415414" lon="8.254054323908903"><ele>266.0</ele><time>2026-04-12T10:20:37Z</time></trkpt><trkpt lat="45.138401244766314" lon="8.253999386612358"><ele>266.0</ele><time>2026-04-12T10:20:38Z</time></trkpt><trkpt lat="45.13827797373253" lon="8.253944926856708"><ele>266.0</ele><time>2026-04-12T10:20:39Z</time></trkpt><trkpt lat="45.138164189526215" lon="8.253882008260918"><ele>267.25</ele><time>2026-04-12T10:20:40Z</time></trkpt><trkpt lat="45.13805437917217" lon="8.253820814738493"><ele>268.5</ele><time>2026-04-12T10:20:41Z</time></trkpt><trkpt lat="45.137944567324965" lon="8.253749088105819"><ele>269.75</ele><time>2026-04-12T10:20:42Z</time></trkpt><trkpt lat="45.13783883001779" lon="8.253679627475842"><ele>271.0</ele><time>2026-04-12T10:20:43Z</time></trkpt><trkpt lat="45.13773356968029" lon="8.253610927951323"><ele>271.0</ele><time>2026-04-12T10:20:44Z</time></trkpt><trkpt lat="45.137622167742" lon="8.25355941430875"><ele>271.0</ele><time>2026-04-12T10:20:45Z</time></trkpt><trkpt lat="45.13750664086843" lon="8.253511969335287"><ele>271.0</ele><time>2026-04-12T10:20:46Z</time></trkpt><trkpt lat="45.1374000490828" lon="8.253446984940094"><ele>271.0</ele><time>2026-04-12T10:20:47Z</time></trkpt><trkpt lat="45.137281864215886" lon="8.253404960828512"><ele>270.75</ele><time>2026-04-12T10:20:48Z</time></trkpt><trkpt lat="45.137169945202146" lon="8.253329555282225"><ele>270.5</ele><time>2026-04-12T10:20:49Z</time></trkpt><trkpt lat="45.137064303910854" lon="8.253246514090046"><ele>270.25</ele><time>2026-04-12T10:20:50Z</time></trkpt><trkpt lat="45.13697825861048" lon="8.25314345712171"><ele>270.0</ele><time>2026-04-12T10:20:51Z</time></trkpt><trkpt lat="45.13690239932864" lon="8.253027037220395"><ele>270.0</ele><time>2026-04-12T10:20:52Z</time></trkpt><trkpt lat="45.13682855726279" lon="8.252900975833864"><ele>270.0</ele><time>2026-04-12T10:20:53Z</time></trkpt><trkpt lat="45.136667730478" lon="8.252654209608554"><ele>270.0</ele><time>2026-04-12T10:20:55Z</time></trkpt><trkpt lat="45.136586148030965" lon="8.252523448406127"><ele>269.6666666666667</ele><time>2026-04-12T10:20:56Z</time></trkpt><trkpt lat="45.1364708910747" lon="8.252383499302265"><ele>269.33333333333337</ele><time>2026-04-12T10:20:57Z</time></trkpt><trkpt lat="45.136324321702425" lon="8.252260824851078"><ele>269.0</ele><time>2026-04-12T10:20:58Z</time></trkpt><trkpt lat="45.13618222412119" lon="8.25214790481398"><ele>269.0</ele><time>2026-04-12T10:20:59Z</time></trkpt><trkpt lat="45.13606174098831" lon="8.252019365148369"><ele>269.0</ele><time>2026-04-12T10:21:00Z</time></trkpt><trkpt lat="45.135946572564464" lon="8.251898119345434"><ele>269.0</ele><time>2026-04-12T10:21:01Z</time></trkpt><trkpt lat="45.13583844141811" lon="8.251744773969666"><ele>269.0</ele><time>2026-04-12T10:21:02Z</time></trkpt><trkpt lat="45.13574576779089" lon="8.25161753384468"><ele>268.75</ele><time>2026-04-12T10:21:03Z</time></trkpt><trkpt lat="45.135640317831864" lon="8.251527663409435"><ele>268.5</ele><time>2026-04-12T10:21:04Z</time></trkpt><trkpt lat="45.13551645804037" lon="8.251487372589771"><ele>268.25</ele><time>2026-04-12T10:21:05Z</time></trkpt><trkpt lat="45.13536882985166" lon="8.251494330951118"><ele>268.0</ele><time>2026-04-12T10:21:06Z</time></trkpt><trkpt lat="45.13521032683076" lon="8.251568932838367"><ele>268.0</ele><time>2026-04-12T10:21:07Z</time></trkpt><trkpt lat="45.13506892545281" lon="8.251658443551632"><ele>268.0</ele><time>2026-04-12T10:21:08Z</time></trkpt><trkpt lat="45.134943268810964" lon="8.251687676642803"><ele>268.0</ele><time>2026-04-12T10:21:09Z</time></trkpt><trkpt lat="45.13483455435692" lon="8.251767954118595"><ele>268.0</ele><time>2026-04-12T10:21:10Z</time></trkpt><trkpt lat="45.13474330280533" lon="8.25191065853774"><ele>267.8</ele><time>2026-04-12T10:21:11Z</time></trkpt><trkpt lat="45.134649087226194" lon="8.25201908255327"><ele>267.6</ele><time>2026-04-12T10:21:11.999Z</time></trkpt><trkpt lat="45.1345517394441" lon="8.252079381123556"><ele>267.4</ele><time>2026-04-12T10:21:12.999Z</time></trkpt><trkpt lat="45.13444482592856" lon="8.252086509943274"><ele>267.2</ele><time>2026-04-12T10:21:13.999Z</time></trkpt><trkpt lat="45.13434564698095" lon="8.25204992199226"><ele>267.0</ele><time>2026-04-12T10:21:14.999Z</time></trkpt><trkpt lat="45.134266687398345" lon="8.251990205807285"><ele>267.0</ele><time>2026-04-12T10:21:15.999Z</time></trkpt><trkpt lat="45.13419565022192" lon="8.251987625969365"><ele>267.0</ele><time>2026-04-12T10:21:16.999Z</time></trkpt><trkpt lat="45.134114848114386" lon="8.252033268914511"><ele>267.0</ele><time>2026-04-12T10:21:17.999Z</time></trkpt><trkpt lat="45.13403551128106" lon="8.252073221502283"><ele>267.0</ele><time>2026-04-12T10:21:18.999Z</time></trkpt><trkpt lat="45.13394810039684" lon="8.25205680181477"><ele>267.0</ele><time>2026-04-12T10:21:19.999Z</time></trkpt><trkpt lat="45.133850382306655" lon="8.252001290183058"><ele>267.0</ele><time>2026-04-12T10:21:20.999Z</time></trkpt><trkpt lat="45.13373683403662" lon="8.251937384231285"><ele>264.75</ele><time>2026-04-12T10:21:21.999Z</time></trkpt><trkpt lat="45.13360780510837" lon="8.251870768455568"><ele>262.5</ele><time>2026-04-12T10:21:22.999Z</time></trkpt><trkpt lat="45.13348395855775" lon="8.251807130639245"><ele>260.25</ele><time>2026-04-12T10:21:23.999Z</time></trkpt><trkpt lat="45.133378018893744" lon="8.251727609409583"><ele>258.0</ele><time>2026-04-12T10:21:24.999Z</time></trkpt><trkpt lat="45.133287343692544" lon="8.251641818005012"><ele>257.4</ele><time>2026-04-12T10:21:25.999Z</time></trkpt><trkpt lat="45.13320266708512" lon="8.251567324775472"><ele>256.8</ele><time>2026-04-12T10:21:26.999Z</time></trkpt><trkpt lat="45.133141585493945" lon="8.251488944400936"><ele>256.2</ele><time>2026-04-12T10:21:27.999Z</time></trkpt><trkpt lat="45.13307500686612" lon="8.251411342872988"><ele>255.6</ele><time>2026-04-12T10:21:28.999Z</time></trkpt><trkpt lat="45.13300621415007" lon="8.25132040976652"><ele>255.0</ele><time>2026-04-12T10:21:29.999Z</time></trkpt><trkpt lat="45.13292687440727" lon="8.251132941984437"><ele>255.0</ele><time>2026-04-12T10:21:30.999Z</time></trkpt><trkpt lat="45.13286912133918" lon="8.250985567199598"><ele>255.0</ele><time>2026-04-12T10:21:31.999Z</time></trkpt><trkpt lat="45.13280562917448" lon="8.25082215404477"><ele>255.0</ele><time>2026-04-12T10:21:32.999Z</time></trkpt><trkpt lat="45.13274421486847" lon="8.250643958601946"><ele>255.0</ele><time>2026-04-12T10:21:33.999Z</time></trkpt><trkpt lat="45.132665653622595" lon="8.250442297602762"><ele>256.75</ele><time>2026-04-12T10:21:34.999Z</time></trkpt><trkpt lat="45.13259574671949" lon="8.250241796007348"><ele>258.5</ele><time>2026-04-12T10:21:35.999Z</time></trkpt><trkpt lat="45.1325414323998" lon="8.250076151882448"><ele>260.25</ele><time>2026-04-12T10:21:36.999Z</time></trkpt><trkpt lat="45.132488061105455" lon="8.249976536878142"><ele>262.0</ele><time>2026-04-12T10:21:37.999Z</time></trkpt><trkpt lat="45.13240053560498" lon="8.24991184412233"><ele>261.25</ele><time>2026-04-12T10:21:38.999Z</time></trkpt><trkpt lat="45.13230184203156" lon="8.24984737503641"><ele>260.5</ele><time>2026-04-12T10:21:39.999Z</time></trkpt><trkpt lat="45.13224030178741" lon="8.249668533591104"><ele>259.75</ele><time>2026-04-12T10:21:40.999Z</time></trkpt><trkpt lat="45.132120515425456" lon="8.24957359103322"><ele>259.0</ele><time>2026-04-12T10:21:41.999Z</time></trkpt><trkpt lat="45.131977291652476" lon="8.249477885000749"><ele>259.0</ele><time>2026-04-12T10:21:42.999Z</time></trkpt><trkpt lat="45.13185096644743" lon="8.249406984149463"><ele>259.0</ele><time>2026-04-12T10:21:43.999Z</time></trkpt><trkpt lat="45.131747665498224" lon="8.249330554215996"><ele>259.0</ele><time>2026-04-12T10:21:44.999Z</time></trkpt><trkpt lat="45.131658592387254" lon="8.24927009583456"><ele>259.0</ele><time>2026-04-12T10:21:45.999Z</time></trkpt><trkpt lat="45.13156979228439" lon="8.249198512226297"><ele>257.75</ele><time>2026-04-12T10:21:46.999Z</time></trkpt><trkpt lat="45.13147285551792" lon="8.249176764098333"><ele>256.5</ele><time>2026-04-12T10:21:47.999Z</time></trkpt><trkpt lat="45.13136436583587" lon="8.249185159893226"><ele>255.25</ele><time>2026-04-12T10:21:48.999Z</time></trkpt><trkpt lat="45.13122158008014" lon="8.249191470652685"><ele>254.0</ele><time>2026-04-12T10:21:49.999Z</time></trkpt><trkpt lat="45.13108148679952" lon="8.249181512857753"><ele>254.00000000000003</ele><time>2026-04-12T10:21:50.999Z</time></trkpt><trkpt lat="45.130974698330874" lon="8.249201240550873"><ele>254.0</ele><time>2026-04-12T10:21:51.999Z</time></trkpt><trkpt lat="45.13089556776193" lon="8.249204661706518"><ele>254.0</ele><time>2026-04-12T10:21:52.999Z</time></trkpt><trkpt lat="45.13082853334831" lon="8.249169332565492"><ele>254.0</ele><time>2026-04-12T10:21:53.999Z</time></trkpt><trkpt lat="45.13080035305804" lon="8.249061281600047"><ele>254.00000000000003</ele><time>2026-04-12T10:21:54.998Z</time></trkpt><trkpt lat="45.13077448101045" lon="8.248953046449783"><ele>254.0</ele><time>2026-04-12T10:21:55.998Z</time></trkpt><trkpt lat="45.13081545905115" lon="8.248793477866528"><ele>253.0</ele><time>2026-04-12T10:21:56.998Z</time></trkpt><trkpt lat="45.13086549255524" lon="8.24863107731766"><ele>252.0</ele><time>2026-04-12T10:21:57.998Z</time></trkpt><trkpt lat="45.130878204701" lon="8.248496275802198"><ele>251.0</ele><time>2026-04-12T10:21:58.998Z</time></trkpt><trkpt lat="45.13085857908741" lon="8.248345297684834"><ele>250.0</ele><time>2026-04-12T10:21:59.998Z</time></trkpt><trkpt lat="45.130796631742506" lon="8.24815766407891"><ele>249.0</ele><time>2026-04-12T10:22:00.998Z</time></trkpt><trkpt lat="45.13071571182162" lon="8.247986800972074"><ele>248.0</ele><time>2026-04-12T10:22:01.998Z</time></trkpt><trkpt lat="45.130717878943436" lon="8.247854531332546"><ele>247.0</ele><time>2026-04-12T10:22:02.998Z</time></trkpt><trkpt lat="45.13076024690176" lon="8.24771128037163"><ele>246.0</ele><time>2026-04-12T10:22:03.998Z</time></trkpt><trkpt lat="45.13080327110995" lon="8.2475663306843"><ele>246.0</ele><time>2026-04-12T10:22:04.998Z</time></trkpt><trkpt lat="45.13080837420125" lon="8.247427058668759"><ele>246.00000000000003</ele><time>2026-04-12T10:22:05.998Z</time></trkpt><trkpt lat="45.130784085613755" lon="8.247304670891316"><ele>246.00000000000003</ele><time>2026-04-12T10:22:06.998Z</time></trkpt><trkpt lat="45.13072445293391" lon="8.247220218529021"><ele>246.0</ele><time>2026-04-12T10:22:07.998Z</time></trkpt><trkpt lat="45.13063475772249" lon="8.247179577322681"><ele>246.0</ele><time>2026-04-12T10:22:08.998Z</time></trkpt><trkpt lat="45.13052579929888" lon="8.247205545909164"><ele>242.75</ele><time>2026-04-12T10:22:09.998Z</time></trkpt><trkpt lat="45.13038866915467" lon="8.247298645785657"><ele>239.5</ele><time>2026-04-12T10:22:10.998Z</time></trkpt><trkpt lat="45.13024989124446" lon="8.24735742725149"><ele>236.25</ele><time>2026-04-12T10:22:11.998Z</time></trkpt><trkpt lat="45.13013146811654" lon="8.24735357228059"><ele>233.0</ele><time>2026-04-12T10:22:12.998Z</time></trkpt><trkpt lat="45.13002870387921" lon="8.247327730067349"><ele>233.0</ele><time>2026-04-12T10:22:13.998Z</time></trkpt><trkpt lat="45.12993758862589" lon="8.247355085382617"><ele>233.0</ele><time>2026-04-12T10:22:14.998Z</time></trkpt><trkpt lat="45.1298543762301" lon="8.247465682388972"><ele>233.0</ele><time>2026-04-12T10:22:15.998Z</time></trkpt><trkpt lat="45.129812017082315" lon="8.247625917046165"><ele>233.0</ele><time>2026-04-12T10:22:16.998Z</time></trkpt><trkpt lat="45.12977523582512" lon="8.247846243891702"><ele>228.0</ele><time>2026-04-12T10:22:17.998Z</time></trkpt><trkpt lat="45.12979396416363" lon="8.24810750335166"><ele>223.0</ele><time>2026-04-12T10:22:18.998Z</time></trkpt><trkpt lat="45.12977478090808" lon="8.248315222256604"><ele>218.0</ele><time>2026-04-12T10:22:19.998Z</time></trkpt><trkpt lat="45.129763387365664" lon="8.24849496862334"><ele>217.66666666666669</ele><time>2026-04-12T10:22:20.998Z</time></trkpt><trkpt lat="45.12967358326995" lon="8.248616584412877"><ele>217.33333333333331</ele><time>2026-04-12T10:22:21.998Z</time></trkpt><trkpt lat="45.129552056986846" lon="8.2487172370373"><ele>217.0</ele><time>2026-04-12T10:22:22.998Z</time></trkpt><trkpt lat="45.12937581072038" lon="8.248817340325363"><ele>217.0</ele><time>2026-04-12T10:22:23.998Z</time></trkpt><trkpt lat="45.12917079873769" lon="8.248934557512204"><ele>217.0</ele><time>2026-04-12T10:22:24.998Z</time></trkpt><trkpt lat="45.128943879869" lon="8.249088062563"><ele>216.33333333333331</ele><time>2026-04-12T10:22:25.998Z</time></trkpt><trkpt lat="45.128732489151176" lon="8.249212302671612"><ele>215.66666666666669</ele><time>2026-04-12T10:22:26.998Z</time></trkpt><trkpt lat="45.128563189193756" lon="8.249298710392209"><ele>215.0</ele><time>2026-04-12T10:22:27.998Z</time></trkpt><trkpt lat="45.12840641534436" lon="8.249368875427368"><ele>215.0</ele><time>2026-04-12T10:22:28.998Z</time></trkpt><trkpt lat="45.12827152521476" lon="8.249389397324103"><ele>215.0</ele><time>2026-04-12T10:22:29.998Z</time></trkpt><trkpt lat="45.1281537644648" lon="8.249352449604434"><ele>215.0</ele><time>2026-04-12T10:22:30.998Z</time></trkpt><trkpt lat="45.128030024407586" lon="8.249296025744869"><ele>215.0</ele><time>2026-04-12T10:22:31.998Z</time></trkpt><trkpt lat="45.12791090740282" lon="8.249233314488151"><ele>213.6</ele><time>2026-04-12T10:22:32.998Z</time></trkpt><trkpt lat="45.12779789108294" lon="8.249183733128481"><ele>212.2</ele><time>2026-04-12T10:22:33.998Z</time></trkpt><trkpt lat="45.127686506701785" lon="8.249130367204323"><ele>210.8</ele><time>2026-04-12T10:22:34.998Z</time></trkpt><trkpt lat="45.12757396876408" lon="8.249108431371488"><ele>209.4</ele><time>2026-04-12T10:22:35.998Z</time></trkpt><trkpt lat="45.12747476876533" lon="8.249107151820546"><ele>208.0</ele><time>2026-04-12T10:22:36.998Z</time></trkpt><trkpt lat="45.127387403820116" lon="8.249132850325703"><ele>205.75</ele><time>2026-04-12T10:22:37.998Z</time></trkpt><trkpt lat="45.12730030404082" lon="8.249203173376706"><ele>203.5</ele><time>2026-04-12T10:22:39.001Z</time></trkpt><trkpt lat="45.12720583822039" lon="8.249318166565242"><ele>201.25</ele><time>2026-04-12T10:22:40.001Z</time></trkpt><trkpt lat="45.127080113704224" lon="8.24946099939788"><ele>199.0</ele><time>2026-04-12T10:22:41.001Z</time></trkpt><trkpt lat="45.126913577166825" lon="8.249605432165962"><ele>199.0</ele><time>2026-04-12T10:22:42.001Z</time></trkpt><trkpt lat="45.1267225541491" lon="8.249685413916547"><ele>199.0</ele><time>2026-04-12T10:22:43.001Z</time></trkpt><trkpt lat="45.1265285364317" lon="8.249786665259117"><ele>199.0</ele><time>2026-04-12T10:22:44Z</time></trkpt><trkpt lat="45.12635192497219" lon="8.249889460434808"><ele>197.66666666666666</ele><time>2026-04-12T10:22:45Z</time></trkpt><trkpt lat="45.126186800036436" lon="8.249973741054708"><ele>196.33333333333331</ele><time>2026-04-12T10:22:46.001Z</time></trkpt><trkpt lat="45.12603232410562" lon="8.250062173840814"><ele>195.0</ele><time>2026-04-12T10:22:47Z</time></trkpt><trkpt lat="45.12589034115016" lon="8.25018877464679"><ele>195.0</ele><time>2026-04-12T10:22:48Z</time></trkpt><trkpt lat="45.12578050080879" lon="8.25032892664903"><ele>195.0</ele><time>2026-04-12T10:22:49Z</time></trkpt><trkpt lat="45.12568318983225" lon="8.25053711420641"><ele>195.0</ele><time>2026-04-12T10:22:50Z</time></trkpt><trkpt lat="45.125559175435725" lon="8.25077913059054"><ele>193.0</ele><time>2026-04-12T10:22:51Z</time></trkpt><trkpt lat="45.125429741491295" lon="8.251029005909578"><ele>191.0</ele><time>2026-04-12T10:22:52Z</time></trkpt><trkpt lat="45.12531920361089" lon="8.251270108054271"><ele>189.0</ele><time>2026-04-12T10:22:53Z</time></trkpt><trkpt lat="45.12521045133051" lon="8.251450301576089"><ele>189.33333333333334</ele><time>2026-04-12T10:22:54Z</time></trkpt><trkpt lat="45.125091595476334" lon="8.251571948956974"><ele>189.66666666666669</ele><time>2026-04-12T10:22:55Z</time></trkpt><trkpt lat="45.12495217342202" lon="8.251655985164462"><ele>190.0</ele><time>2026-04-12T10:22:56Z</time></trkpt><trkpt lat="45.12478153193686" lon="8.251793026555921"><ele>187.0</ele><time>2026-04-12T10:22:57Z</time></trkpt><trkpt lat="45.12457091716947" lon="8.251919618420077"><ele>184.0</ele><time>2026-04-12T10:22:58Z</time></trkpt><trkpt lat="45.124341533090025" lon="8.252072109933529"><ele>184.0</ele><time>2026-04-12T10:22:59Z</time></trkpt><trkpt lat="45.124098623435096" lon="8.252234421855515"><ele>184.0</ele><time>2026-04-12T10:23:00Z</time></trkpt><trkpt lat="45.12384120445065" lon="8.252425765390818"><ele>182.5</ele><time>2026-04-12T10:23:01Z</time></trkpt><trkpt lat="45.12359611963361" lon="8.252634624286745"><ele>181.0</ele><time>2026-04-12T10:23:02Z</time></trkpt><trkpt lat="45.12338811932813" lon="8.252833572746415"><ele>180.0</ele><time>2026-04-12T10:23:03Z</time></trkpt><trkpt lat="45.12319340739857" lon="8.253004218255658"><ele>179.0</ele><time>2026-04-12T10:23:04Z</time></trkpt><trkpt lat="45.12297503208613" lon="8.253185895108663"><ele>178.5</ele><time>2026-04-12T10:23:05Z</time></trkpt><trkpt lat="45.12274334377713" lon="8.253385490484199"><ele>178.0</ele><time>2026-04-12T10:23:06Z</time></trkpt><trkpt lat="45.12250262135397" lon="8.253590152016866"><ele>176.5</ele><time>2026-04-12T10:23:07Z</time></trkpt><trkpt lat="45.122285854138696" lon="8.25377299197178"><ele>175.0</ele><time>2026-04-12T10:23:08Z</time></trkpt><trkpt lat="45.122096182289354" lon="8.253931443748908"><ele>173.66666666666669</ele><time>2026-04-12T10:23:09Z</time></trkpt><trkpt lat="45.12190989922977" lon="8.254094945012303"><ele>172.33333333333334</ele><time>2026-04-12T10:23:10Z</time></trkpt><trkpt lat="45.12174422360962" lon="8.25423603326232"><ele>171.0</ele><time>2026-04-12T10:23:11Z</time></trkpt><trkpt lat="45.12160617095257" lon="8.254374751599633"><ele>169.0</ele><time>2026-04-12T10:23:12Z</time></trkpt><trkpt lat="45.12148202151748" lon="8.254552970493036"><ele>167.0</ele><time>2026-04-12T10:23:13Z</time></trkpt><trkpt lat="45.121363493956856" lon="8.254768221614786"><ele>165.0</ele><time>2026-04-12T10:23:14Z</time></trkpt><trkpt lat="45.121260196717294" lon="8.25498679223745"><ele>164.75</ele><time>2026-04-12T10:23:15Z</time></trkpt><trkpt lat="45.12117006170099" lon="8.255168677425974"><ele>164.5</ele><time>2026-04-12T10:23:16Z</time></trkpt><trkpt lat="45.12108960140634" lon="8.255321161675658"><ele>164.25</ele><time>2026-04-12T10:23:17Z</time></trkpt><trkpt lat="45.12101481582027" lon="8.255439910587416"><ele>164.0</ele><time>2026-04-12T10:23:18Z</time></trkpt><trkpt lat="45.12093457761274" lon="8.255514050099373"><ele>164.0</ele><time>2026-04-12T10:23:19Z</time></trkpt><trkpt lat="45.12083906533089" lon="8.25553983090129"><ele>164.0</ele><time>2026-04-12T10:23:20Z</time></trkpt><trkpt lat="45.12073859009264" lon="8.255472882081301"><ele>164.0</ele><time>2026-04-12T10:23:21Z</time></trkpt><trkpt lat="45.1206523439699" lon="8.255333982171797"><ele>164.0</ele><time>2026-04-12T10:23:22Z</time></trkpt><trkpt lat="45.12053287675889" lon="8.255173021645952"><ele>162.33333333333331</ele><time>2026-04-12T10:23:22.999Z</time></trkpt><trkpt lat="45.12038450512134" lon="8.254973001041245"><ele>160.66666666666666</ele><time>2026-04-12T10:23:23.999Z</time></trkpt><trkpt lat="45.12024259006269" lon="8.254824106120994"><ele>159.0</ele><time>2026-04-12T10:23:24.999Z</time></trkpt><trkpt lat="45.120093739097456" lon="8.254714092717917"><ele>159.0</ele><time>2026-04-12T10:23:25.999Z</time></trkpt><trkpt lat="45.11990882208846" lon="8.254647255236474"><ele>159.0</ele><time>2026-04-12T10:23:26.999Z</time></trkpt><trkpt lat="45.11970816115387" lon="8.254608647868634"><ele>159.0</ele><time>2026-04-12T10:23:27.999Z</time></trkpt><trkpt lat="45.119489263103375" lon="8.254548091600078"><ele>158.33333333333334</ele><time>2026-04-12T10:23:28.999Z</time></trkpt><trkpt lat="45.11926070943681" lon="8.25451916889818"><ele>157.66666666666669</ele><time>2026-04-12T10:23:29.999Z</time></trkpt><trkpt lat="45.119074191571656" lon="8.254465435018883"><ele>157.0</ele><time>2026-04-12T10:23:30.999Z</time></trkpt><trkpt lat="45.11890919524521" lon="8.254419430132462"><ele>157.0</ele><time>2026-04-12T10:23:31.999Z</time></trkpt><trkpt lat="45.11876873379619" lon="8.254389746084533"><ele>157.0</ele><time>2026-04-12T10:23:32.999Z</time></trkpt><trkpt lat="45.11864833893637" lon="8.254368222149143"><ele>157.0</ele><time>2026-04-12T10:23:33.999Z</time></trkpt><trkpt lat="45.11855402338605" lon="8.254349089585217"><ele>157.0</ele><time>2026-04-12T10:23:34.999Z</time></trkpt><trkpt lat="45.118473239576154" lon="8.254277132371591"><ele>157.0</ele><time>2026-04-12T10:23:36.999Z</time></trkpt><trkpt lat="45.11846834528892" lon="8.254121744975196"><ele>157.0</ele><time>2026-04-12T10:23:53.999Z</time></trkpt><trkpt lat="45.11850794856723" lon="8.253975684166132"><ele>157.0</ele><time>2026-04-12T10:23:54.999Z</time></trkpt><trkpt lat="45.118545735991184" lon="8.253804024159749"><ele>157.0</ele><time>2026-04-12T10:23:55.999Z</time></trkpt><trkpt lat="45.118601979236864" lon="8.253597842647883"><ele>156.33333333333334</ele><time>2026-04-12T10:23:56.999Z</time></trkpt><trkpt lat="45.11866511492802" lon="8.253355399389434"><ele>155.66666666666666</ele><time>2026-04-12T10:23:57.999Z</time></trkpt><trkpt lat="45.1187437526162" lon="8.253071358764906"><ele>155.0</ele><time>2026-04-12T10:23:58.999Z</time></trkpt><trkpt lat="45.11883082005724" lon="8.252765409949989"><ele>155.0</ele><time>2026-04-12T10:23:59.999Z</time></trkpt><trkpt lat="45.11890861776991" lon="8.252418065393584"><ele>155.0</ele><time>2026-04-12T10:24:00.999Z</time></trkpt><trkpt lat="45.118970783103265" lon="8.252043228388233"><ele>155.5</ele><time>2026-04-12T10:24:01.999Z</time></trkpt><trkpt lat="45.11901322846837" lon="8.251681762368133"><ele>156.0</ele><time>2026-04-12T10:24:02.998Z</time></trkpt><trkpt lat="45.11904140881778" lon="8.251347238193967"><ele>156.0</ele><time>2026-04-12T10:24:03.998Z</time></trkpt><trkpt lat="45.119057390369186" lon="8.250988158092783"><ele>156.0</ele><time>2026-04-12T10:24:04.998Z</time></trkpt><trkpt lat="45.11906173766009" lon="8.250603836730571"><ele>157.0</ele><time>2026-04-12T10:24:05.998Z</time></trkpt><trkpt lat="45.11905791123471" lon="8.250203850053271"><ele>158.0</ele><time>2026-04-12T10:24:06.998Z</time></trkpt><trkpt lat="45.11904847509242" lon="8.249825911052605"><ele>158.0</ele><time>2026-04-12T10:24:07.998Z</time></trkpt><trkpt lat="45.119045500142384" lon="8.249487648755535"><ele>158.0</ele><time>2026-04-12T10:24:08.998Z</time></trkpt><trkpt lat="45.11904632155293" lon="8.249161868205263"><ele>158.33333333333331</ele><time>2026-04-12T10:24:09.998Z</time></trkpt><trkpt lat="45.11904698063991" lon="8.248879529281997"><ele>158.66666666666666</ele><time>2026-04-12T10:24:10.998Z</time></trkpt><trkpt lat="45.119047914193715" lon="8.248613076477683"><ele>159.0</ele><time>2026-04-12T10:24:11.998Z</time></trkpt><trkpt lat="45.11904417070794" lon="8.248343039601126"><ele>158.66666666666666</ele><time>2026-04-12T10:24:12.998Z</time></trkpt><trkpt lat="45.11903782878226" lon="8.248043646093553"><ele>158.33333333333331</ele><time>2026-04-12T10:24:13.998Z</time></trkpt><trkpt lat="45.11904234216882" lon="8.247766050022395"><ele>158.0</ele><time>2026-04-12T10:24:14.998Z</time></trkpt><trkpt lat="45.119045617608144" lon="8.247506256065794"><ele>157.66666666666666</ele><time>2026-04-12T10:24:15.998Z</time></trkpt><trkpt lat="45.119046657487836" lon="8.247248314054735"><ele>157.33333333333334</ele><time>2026-04-12T10:24:16.998Z</time></trkpt><trkpt lat="45.119038916670355" lon="8.246962795967477"><ele>157.0</ele><time>2026-04-12T10:24:17.998Z</time></trkpt><trkpt lat="45.119034934574174" lon="8.246668693625217"><ele>157.66666666666669</ele><time>2026-04-12T10:24:18.998Z</time></trkpt><trkpt lat="45.119034359312856" lon="8.246379923524785"><ele>158.33333333333334</ele><time>2026-04-12T10:24:19.998Z</time></trkpt><trkpt lat="45.1190327589951" lon="8.246089746353586"><ele>159.0</ele><time>2026-04-12T10:24:20.998Z</time></trkpt><trkpt lat="45.11903033111815" lon="8.24581174722434"><ele>159.0</ele><time>2026-04-12T10:24:21.998Z</time></trkpt><trkpt lat="45.11902802914836" lon="8.245548000212326"><ele>159.0</ele><time>2026-04-12T10:24:22.998Z</time></trkpt><trkpt lat="45.119024363506476" lon="8.245283584624824"><ele>159.0</ele><time>2026-04-12T10:24:23.998Z</time></trkpt><trkpt lat="45.11902092798898" lon="8.245027693387202"><ele>159.0</ele><time>2026-04-12T10:24:24.998Z</time></trkpt><trkpt lat="45.11902088352918" lon="8.244816741786096"><ele>159.0</ele><time>2026-04-12T10:24:25.998Z</time></trkpt><trkpt lat="45.11902005924599" lon="8.244631726260627"><ele>159.0</ele><time>2026-04-12T10:24:26.998Z</time></trkpt><trkpt lat="45.119019963830844" lon="8.24445477713379"><ele>159.0</ele><time>2026-04-12T10:24:27.998Z</time></trkpt><trkpt lat="45.11902158195397" lon="8.244289119282511"><ele>159.0</ele><time>2026-04-12T10:24:28.998Z</time></trkpt><trkpt lat="45.119020104276835" lon="8.244119587609903"><ele>159.0</ele><time>2026-04-12T10:24:29.998Z</time></trkpt><trkpt lat="45.1190212700069" lon="8.243958772361884"><ele>159.0</ele><time>2026-04-12T10:24:30.998Z</time></trkpt><trkpt lat="45.11902455981917" lon="8.243790279361797"><ele>159.0</ele><time>2026-04-12T10:24:31.998Z</time></trkpt><trkpt lat="45.1190215995834" lon="8.243638341891035"><ele>159.0</ele><time>2026-04-12T10:24:32.998Z</time></trkpt><trkpt lat="45.119019795213866" lon="8.243489825432672"><ele>159.0</ele><time>2026-04-12T10:24:33.998Z</time></trkpt><trkpt lat="45.1190114715435" lon="8.243351461431374"><ele>159.0</ele><time>2026-04-12T10:24:34.998Z</time></trkpt><trkpt lat="45.11900738943602" lon="8.243216826268538"><ele>159.0</ele><time>2026-04-12T10:24:35.998Z</time></trkpt><trkpt lat="45.11900822521246" lon="8.243096231992153"><ele>159.0</ele><time>2026-04-12T10:24:36.998Z</time></trkpt><trkpt lat="45.11901203030797" lon="8.242990943321532"><ele>159.0</ele><time>2026-04-12T10:24:37.998Z</time></trkpt><trkpt lat="45.119020445141814" lon="8.242815572507373"><ele>159.0</ele><time>2026-04-12T10:24:39.998Z</time></trkpt><trkpt lat="45.11902317203636" lon="8.242683487768936"><ele>159.0</ele><time>2026-04-12T10:24:40.998Z</time></trkpt><trkpt lat="45.11901841085407" lon="8.242514626842379"><ele>159.0</ele><time>2026-04-12T10:24:41.998Z</time></trkpt><trkpt lat="45.11901569307966" lon="8.242304585314592"><ele>159.33333333333334</ele><time>2026-04-12T10:24:42.998Z</time></trkpt><trkpt lat="45.11901371501879" lon="8.242080590370772"><ele>159.66666666666669</ele><time>2026-04-12T10:24:43.997Z</time></trkpt><trkpt lat="45.1190101215334" lon="8.241818489461217"><ele>160.0</ele><time>2026-04-12T10:24:45.001Z</time></trkpt><trkpt lat="45.11900310837532" lon="8.241521159678133"><ele>160.5</ele><time>2026-04-12T10:24:46.001Z</time></trkpt><trkpt lat="45.1190039879809" lon="8.241209630248177"><ele>161.0</ele><time>2026-04-12T10:24:47.001Z</time></trkpt><trkpt lat="45.11899967526274" lon="8.240876989022187"><ele>161.0</ele><time>2026-04-12T10:24:48.001Z</time></trkpt><trkpt lat="45.1189991927652" lon="8.240516488941994"><ele>161.0</ele><time>2026-04-12T10:24:49.001Z</time></trkpt><trkpt lat="45.11900076825299" lon="8.240147653087853"><ele>162.0</ele><time>2026-04-12T10:24:50.001Z</time></trkpt><trkpt lat="45.118999240127685" lon="8.239764345184803"><ele>163.0</ele><time>2026-04-12T10:24:51.001Z</time></trkpt><trkpt lat="45.118995833647595" lon="8.239368472876217"><ele>164.0</ele><time>2026-04-12T10:24:52.001Z</time></trkpt><trkpt lat="45.1189945968864" lon="8.238952968284115"><ele>165.0</ele><time>2026-04-12T10:24:53.001Z</time></trkpt><trkpt lat="45.11899646753892" lon="8.238514629383802"><ele>163.5</ele><time>2026-04-12T10:24:54.001Z</time></trkpt><trkpt lat="45.11899509612205" lon="8.238085099709588"><ele>162.0</ele><time>2026-04-12T10:24:55.001Z</time></trkpt><trkpt lat="45.11899088178495" lon="8.237630638048275"><ele>162.0</ele><time>2026-04-12T10:24:56.001Z</time></trkpt><trkpt lat="45.11899243187843" lon="8.237169129899517"><ele>162.0</ele><time>2026-04-12T10:24:57.001Z</time></trkpt><trkpt lat="45.11899311308839" lon="8.236698058351754"><ele>163.5</ele><time>2026-04-12T10:24:58.001Z</time></trkpt><trkpt lat="45.11899074409065" lon="8.23623569133065"><ele>165.0</ele><time>2026-04-12T10:24:59.001Z</time></trkpt><trkpt lat="45.118983416506666" lon="8.23581420676746"><ele>164.0</ele><time>2026-04-12T10:25:00.001Z</time></trkpt><trkpt lat="45.11898019802378" lon="8.235412663998773"><ele>163.0</ele><time>2026-04-12T10:25:01.001Z</time></trkpt><trkpt lat="45.11897769312535" lon="8.235019047968109"><ele>161.5</ele><time>2026-04-12T10:25:02Z</time></trkpt><trkpt lat="45.11897139129643" lon="8.234637640950902"><ele>160.0</ele><time>2026-04-12T10:25:03Z</time></trkpt><trkpt lat="45.11896172873413" lon="8.234284502751033"><ele>160.5</ele><time>2026-04-12T10:25:04Z</time></trkpt><trkpt lat="45.118941690904144" lon="8.233953515197843"><ele>161.0</ele><time>2026-04-12T10:25:05Z</time></trkpt><trkpt lat="45.11890829538603" lon="8.233620206351885"><ele>161.0</ele><time>2026-04-12T10:25:06Z</time></trkpt><trkpt lat="45.118858278946895" lon="8.233283527286146"><ele>161.0</ele><time>2026-04-12T10:25:07Z</time></trkpt><trkpt lat="45.11879351867961" lon="8.232934138271421"><ele>161.5</ele><time>2026-04-12T10:25:08Z</time></trkpt><trkpt lat="45.118723912769866" lon="8.232556212837581"><ele>162.0</ele><time>2026-04-12T10:25:09Z</time></trkpt><trkpt lat="45.118656434313735" lon="8.232164835425486"><ele>162.5</ele><time>2026-04-12T10:25:10Z</time></trkpt><trkpt lat="45.11858584965201" lon="8.231751342993912"><ele>163.0</ele><time>2026-04-12T10:25:11Z</time></trkpt><trkpt lat="45.118510753778146" lon="8.231319159771015"><ele>163.0</ele><time>2026-04-12T10:25:12Z</time></trkpt><trkpt lat="45.11842917115386" lon="8.230875880734686"><ele>163.0</ele><time>2026-04-12T10:25:13Z</time></trkpt><trkpt lat="45.11834914175357" lon="8.230415428280038"><ele>163.0</ele><time>2026-04-12T10:25:14Z</time></trkpt><trkpt lat="45.11826575417817" lon="8.229944432292008"><ele>163.0</ele><time>2026-04-12T10:25:15Z</time></trkpt><trkpt lat="45.11818181554763" lon="8.22947525519488"><ele>162.5</ele><time>2026-04-12T10:25:16Z</time></trkpt><trkpt lat="45.11809434093777" lon="8.229008837669717"><ele>162.0</ele><time>2026-04-12T10:25:17Z</time></trkpt><trkpt lat="45.11800553768724" lon="8.228542183043182"><ele>162.5</ele><time>2026-04-12T10:25:18Z</time></trkpt><trkpt lat="45.11791859671836" lon="8.228075301167795"><ele>163.0</ele><time>2026-04-12T10:25:19Z</time></trkpt><trkpt lat="45.11783132874098" lon="8.227597367855369"><ele>165.5</ele><time>2026-04-12T10:25:20Z</time></trkpt><trkpt lat="45.11774544438619" lon="8.227110447694773"><ele>168.0</ele><time>2026-04-12T10:25:21Z</time></trkpt><trkpt lat="45.11766401102893" lon="8.226641588642963"><ele>168.5</ele><time>2026-04-12T10:25:22Z</time></trkpt><trkpt lat="45.11758709315835" lon="8.226218878931839"><ele>169.0</ele><time>2026-04-12T10:25:23Z</time></trkpt><trkpt lat="45.117511081736225" lon="8.225814117259336"><ele>168.0</ele><time>2026-04-12T10:25:24Z</time></trkpt><trkpt lat="45.11744028059602" lon="8.225422296430466"><ele>167.0</ele><time>2026-04-12T10:25:25Z</time></trkpt><trkpt lat="45.117371482479506" lon="8.22505282623778"><ele>166.0</ele><time>2026-04-12T10:25:26Z</time></trkpt><trkpt lat="45.11729906928192" lon="8.224675570721981"><ele>165.0</ele><time>2026-04-12T10:25:27Z</time></trkpt><trkpt lat="45.11723232084806" lon="8.224302315689927"><ele>165.5</ele><time>2026-04-12T10:25:28Z</time></trkpt><trkpt lat="45.117173908814486" lon="8.223958466214077"><ele>166.0</ele><time>2026-04-12T10:25:29Z</time></trkpt><trkpt lat="45.11712088695148" lon="8.223644485913436"><ele>166.0</ele><time>2026-04-12T10:25:29.999Z</time></trkpt><trkpt lat="45.11707063956314" lon="8.223366223825026"><ele>166.0</ele><time>2026-04-12T10:25:30.999Z</time></trkpt><trkpt lat="45.11701880701204" lon="8.223090270698853"><ele>166.0</ele><time>2026-04-12T10:25:31.999Z</time></trkpt><trkpt lat="45.116960809592776" lon="8.22278390010536"><ele>166.0</ele><time>2026-04-12T10:25:32.999Z</time></trkpt><trkpt lat="45.11690168441837" lon="8.222447020315085"><ele>166.0</ele><time>2026-04-12T10:25:33.999Z</time></trkpt><trkpt lat="45.116842668204725" lon="8.22209574638506"><ele>166.0</ele><time>2026-04-12T10:25:34.999Z</time></trkpt><trkpt lat="45.116779033970985" lon="8.221736196247598"><ele>166.0</ele><time>2026-04-12T10:25:35.999Z</time></trkpt><trkpt lat="45.11670908117555" lon="8.221357101751988"><ele>166.5</ele><time>2026-04-12T10:25:36.999Z</time></trkpt><trkpt lat="45.11663941737733" lon="8.220976941269997"><ele>167.0</ele><time>2026-04-12T10:25:37.999Z</time></trkpt><trkpt lat="45.116574077187366" lon="8.220599815588535"><ele>166.5</ele><time>2026-04-12T10:25:38.999Z</time></trkpt><trkpt lat="45.11650404664358" lon="8.220204479751404"><ele>166.0</ele><time>2026-04-12T10:25:39.999Z</time></trkpt><trkpt lat="45.11643340139457" lon="8.219817537860846"><ele>167.0</ele><time>2026-04-12T10:25:40.999Z</time></trkpt><trkpt lat="45.11637122133636" lon="8.219467918455281"><ele>168.0</ele><time>2026-04-12T10:25:41.999Z</time></trkpt><trkpt lat="45.116310042163576" lon="8.219126403919882"><ele>168.0</ele><time>2026-04-12T10:25:42.999Z</time></trkpt><trkpt lat="45.116247836275456" lon="8.218773914197483"><ele>168.0</ele><time>2026-04-12T10:25:43.999Z</time></trkpt><trkpt lat="45.116186087116944" lon="8.218414458632218"><ele>167.5</ele><time>2026-04-12T10:25:44.999Z</time></trkpt><trkpt lat="45.11611948214176" lon="8.218036930080512"><ele>167.0</ele><time>2026-04-12T10:25:45.999Z</time></trkpt><trkpt lat="45.116043552844744" lon="8.217643492534581"><ele>167.5</ele><time>2026-04-12T10:25:46.999Z</time></trkpt><trkpt lat="45.115968010675005" lon="8.217242572289257"><ele>168.0</ele><time>2026-04-12T10:25:47.999Z</time></trkpt><trkpt lat="45.115898410273545" lon="8.216857614086544"><ele>168.0</ele><time>2026-04-12T10:25:48.999Z</time></trkpt><trkpt lat="45.115836238771095" lon="8.216503608709552"><ele>168.0</ele><time>2026-04-12T10:25:49.999Z</time></trkpt><trkpt lat="45.11578019717079" lon="8.216170646638108"><ele>168.0</ele><time>2026-04-12T10:25:50.999Z</time></trkpt><trkpt lat="45.11572512599062" lon="8.215859483203625"><ele>168.0</ele><time>2026-04-12T10:25:51.999Z</time></trkpt><trkpt lat="45.115671308722284" lon="8.215568754304488"><ele>168.0</ele><time>2026-04-12T10:25:52.999Z</time></trkpt><trkpt lat="45.11561666567264" lon="8.215294406800217"><ele>168.33333333333334</ele><time>2026-04-12T10:25:53.999Z</time></trkpt><trkpt lat="45.115573550322885" lon="8.21503590859732"><ele>168.66666666666669</ele><time>2026-04-12T10:25:54.999Z</time></trkpt><trkpt lat="45.11553147095597" lon="8.214794664615875"><ele>169.0</ele><time>2026-04-12T10:25:55.999Z</time></trkpt><trkpt lat="45.11549157205889" lon="8.214569604830078"><ele>169.0</ele><time>2026-04-12T10:25:56.999Z</time></trkpt><trkpt lat="45.115408171997814" lon="8.214160149344496"><ele>169.0</ele><time>2026-04-12T10:25:58.999Z</time></trkpt><trkpt lat="45.11536317670597" lon="8.213981689774611"><ele>169.0</ele><time>2026-04-12T10:25:59.999Z</time></trkpt><trkpt lat="45.11531479583707" lon="8.213823053753085"><ele>169.5</ele><time>2026-04-12T10:26:00.999Z</time></trkpt><trkpt lat="45.11525614986509" lon="8.213664364907267"><ele>170.0</ele><time>2026-04-12T10:26:01.999Z</time></trkpt><trkpt lat="45.11518720147658" lon="8.213507044910124"><ele>170.5</ele><time>2026-04-12T10:26:02.999Z</time></trkpt><trkpt lat="45.11511119227968" lon="8.213359905980077"><ele>171.0</ele><time>2026-04-12T10:26:03.999Z</time></trkpt><trkpt lat="45.11503835039644" lon="8.213218533794533"><ele>170.75</ele><time>2026-04-12T10:26:04.999Z</time></trkpt><trkpt lat="45.11496175151281" lon="8.213082971925537"><ele>170.5</ele><time>2026-04-12T10:26:05.998Z</time></trkpt><trkpt lat="45.11487884501714" lon="8.21295607607198"><ele>170.25</ele><time>2026-04-12T10:26:06.998Z</time></trkpt><trkpt lat="45.11479576848184" lon="8.212856072424438"><ele>170.0</ele><time>2026-04-12T10:26:07.998Z</time></trkpt><trkpt lat="45.114716733897765" lon="8.212767853335606"><ele>170.0</ele><time>2026-04-12T10:26:08.998Z</time></trkpt><trkpt lat="45.11464186919538" lon="8.212676487935356"><ele>170.0</ele><time>2026-04-12T10:26:09.998Z</time></trkpt><trkpt lat="45.114576347013866" lon="8.212602045056613"><ele>170.0</ele><time>2026-04-12T10:26:10.998Z</time></trkpt><trkpt lat="45.11450990167928" lon="8.212527158187962"><ele>170.0</ele><time>2026-04-12T10:26:11.998Z</time></trkpt><trkpt lat="45.11442885602442" lon="8.21243918522202"><ele>170.0</ele><time>2026-04-12T10:26:12.998Z</time></trkpt><trkpt lat="45.11435296443903" lon="8.212350839768646"><ele>170.33333333333331</ele><time>2026-04-12T10:26:13.998Z</time></trkpt><trkpt lat="45.11427385369676" lon="8.212269272409326"><ele>170.66666666666666</ele><time>2026-04-12T10:26:14.998Z</time></trkpt><trkpt lat="45.11419773868254" lon="8.212192931785003"><ele>171.0</ele><time>2026-04-12T10:26:15.998Z</time></trkpt><trkpt lat="45.11412740026435" lon="8.212114842761643"><ele>171.33333333333334</ele><time>2026-04-12T10:26:16.998Z</time></trkpt><trkpt lat="45.1140631495813" lon="8.212039448785527"><ele>171.66666666666669</ele><time>2026-04-12T10:26:17.998Z</time></trkpt><trkpt lat="45.11400118539352" lon="8.211971914991121"><ele>172.0</ele><time>2026-04-12T10:26:18.998Z</time></trkpt><trkpt lat="45.11394784888586" lon="8.211913702338993"><ele>172.0</ele><time>2026-04-12T10:26:19.998Z</time></trkpt><trkpt lat="45.113855636495884" lon="8.211811074385762"><ele>172.0</ele><time>2026-04-12T10:26:21.998Z</time></trkpt><trkpt lat="45.11379691476029" lon="8.21175727121391"><ele>172.0</ele><time>2026-04-12T10:26:22.998Z</time></trkpt><trkpt lat="45.11373757140429" lon="8.211689901667398"><ele>172.0</ele><time>2026-04-12T10:26:23.998Z</time></trkpt><trkpt lat="45.11367652100504" lon="8.211617823184728"><ele>172.0</ele><time>2026-04-12T10:26:24.998Z</time></trkpt><trkpt lat="45.113611366143644" lon="8.211538698790758"><ele>172.0</ele><time>2026-04-12T10:26:25.998Z</time></trkpt><trkpt lat="45.11354345451998" lon="8.21146003302511"><ele>172.0</ele><time>2026-04-12T10:26:26.998Z</time></trkpt><trkpt lat="45.11346658185113" lon="8.211380149426153"><ele>172.0</ele><time>2026-04-12T10:26:27.998Z</time></trkpt><trkpt lat="45.113386273648175" lon="8.21129630716117"><ele>172.0</ele><time>2026-04-12T10:26:28.998Z</time></trkpt><trkpt lat="45.11330093932933" lon="8.21120467158376"><ele>172.0</ele><time>2026-04-12T10:26:29.998Z</time></trkpt><trkpt lat="45.11322852452308" lon="8.211124626382082"><ele>172.0</ele><time>2026-04-12T10:26:30.998Z</time></trkpt><trkpt lat="45.11316698151847" lon="8.211058888347806"><ele>171.39999999999998</ele><time>2026-04-12T10:26:31.998Z</time></trkpt><trkpt lat="45.11309697515176" lon="8.210984559167972"><ele>170.79999999999998</ele><time>2026-04-12T10:26:33.998Z</time></trkpt><trkpt lat="45.11303468319976" lon="8.210928687580072"><ele>170.2</ele><time>2026-04-12T10:26:35.998Z</time></trkpt><trkpt lat="45.1129404096303" lon="8.210824895494806"><ele>169.6</ele><time>2026-04-12T10:26:37.998Z</time></trkpt><trkpt lat="45.11288064315898" lon="8.210745931710544"><ele>169.0</ele><time>2026-04-12T10:26:38.998Z</time></trkpt><trkpt lat="45.11280633388301" lon="8.210660134366364"><ele>169.25</ele><time>2026-04-12T10:26:39.998Z</time></trkpt><trkpt lat="45.112716199824206" lon="8.21055675818169"><ele>169.5</ele><time>2026-04-12T10:26:40.998Z</time></trkpt><trkpt lat="45.112609396145416" lon="8.210439641280592"><ele>169.75</ele><time>2026-04-12T10:26:41.998Z</time></trkpt><trkpt lat="45.11246155918961" lon="8.21028962211841"><ele>170.0</ele><time>2026-04-12T10:26:42.998Z</time></trkpt><trkpt lat="45.11231166756926" lon="8.210117586408959"><ele>170.0</ele><time>2026-04-12T10:26:43.997Z</time></trkpt><trkpt lat="45.11212982181672" lon="8.209922698813413"><ele>170.0</ele><time>2026-04-12T10:26:44.997Z</time></trkpt><trkpt lat="45.11194227491589" lon="8.209715516047725"><ele>170.5</ele><time>2026-04-12T10:26:45.997Z</time></trkpt><trkpt lat="45.11175438327875" lon="8.209505542603875"><ele>171.0</ele><time>2026-04-12T10:26:46.997Z</time></trkpt><trkpt lat="45.11156504538079" lon="8.209294394393474"><ele>171.0</ele><time>2026-04-12T10:26:47.997Z</time></trkpt><trkpt lat="45.11135568718936" lon="8.209067090032715"><ele>171.0</ele><time>2026-04-12T10:26:48.997Z</time></trkpt><trkpt lat="45.11114417882709" lon="8.20881980874578"><ele>173.5</ele><time>2026-04-12T10:26:49.997Z</time></trkpt><trkpt lat="45.11097052995177" lon="8.208583034851623"><ele>176.0</ele><time>2026-04-12T10:26:51.001Z</time></trkpt><trkpt lat="45.11080110696311" lon="8.2083742139041"><ele>174.5</ele><time>2026-04-12T10:26:52.001Z</time></trkpt><trkpt lat="45.11062850950329" lon="8.20815853509111"><ele>173.0</ele><time>2026-04-12T10:26:53.001Z</time></trkpt><trkpt lat="45.110460359618884" lon="8.207908159468825"><ele>173.0</ele><time>2026-04-12T10:26:54.001Z</time></trkpt><trkpt lat="45.11028946652756" lon="8.207715230815912"><ele>173.0</ele><time>2026-04-12T10:26:55.001Z</time></trkpt><trkpt lat="45.11017447548761" lon="8.207432175790986"><ele>173.0</ele><time>2026-04-12T10:26:56.001Z</time></trkpt><trkpt lat="45.1100731697083" lon="8.207111544648184"><ele>173.5</ele><time>2026-04-12T10:26:57.001Z</time></trkpt><trkpt lat="45.10999644719232" lon="8.206767636735488"><ele>174.0</ele><time>2026-04-12T10:26:58.001Z</time></trkpt><trkpt lat="45.10995086196302" lon="8.206400289075212"><ele>173.0</ele><time>2026-04-12T10:26:59.001Z</time></trkpt><trkpt lat="45.10989885625333" lon="8.206059250861749"><ele>172.0</ele><time>2026-04-12T10:27:00.001Z</time></trkpt><trkpt lat="45.10982989954285" lon="8.20576456028569"><ele>172.5</ele><time>2026-04-12T10:27:01.001Z</time></trkpt><trkpt lat="45.10975268933317" lon="8.20545472608321"><ele>173.0</ele><time>2026-04-12T10:27:02.001Z</time></trkpt><trkpt lat="45.10965529098022" lon="8.205157237229601"><ele>173.0</ele><time>2026-04-12T10:27:03.001Z</time></trkpt><trkpt lat="45.10952452383512" lon="8.20485873157787"><ele>173.0</ele><time>2026-04-12T10:27:04.001Z</time></trkpt><trkpt lat="45.10936404141547" lon="8.204569192020985"><ele>173.0</ele><time>2026-04-12T10:27:05.001Z</time></trkpt><trkpt lat="45.10916537476122" lon="8.204297972465024"><ele>173.0</ele><time>2026-04-12T10:27:06Z</time></trkpt><trkpt lat="45.10892076100051" lon="8.204013890853663"><ele>172.5</ele><time>2026-04-12T10:27:07Z</time></trkpt><trkpt lat="45.10866521234624" lon="8.203715349063488"><ele>172.0</ele><time>2026-04-12T10:27:08Z</time></trkpt><trkpt lat="45.10842661027694" lon="8.203402998713406"><ele>174.5</ele><time>2026-04-12T10:27:09Z</time></trkpt><trkpt lat="45.10817639493676" lon="8.203081130907606"><ele>177.0</ele><time>2026-04-12T10:27:10Z</time></trkpt><trkpt lat="45.10791928432125" lon="8.20274585409921"><ele>177.0</ele><time>2026-04-12T10:27:11Z</time></trkpt><trkpt lat="45.10766024936345" lon="8.202417652246437"><ele>177.0</ele><time>2026-04-12T10:27:12Z</time></trkpt><trkpt lat="45.10739171097575" lon="8.202072853259795"><ele>177.0</ele><time>2026-04-12T10:27:13Z</time></trkpt><trkpt lat="45.107118271276704" lon="8.2017213003993"><ele>177.0</ele><time>2026-04-12T10:27:14Z</time></trkpt><trkpt lat="45.10684509979865" lon="8.201363246597044"><ele>178.5</ele><time>2026-04-12T10:27:15Z</time></trkpt><trkpt lat="45.1065676435313" lon="8.201007746917988"><ele>180.0</ele><time>2026-04-12T10:27:16Z</time></trkpt><trkpt lat="45.10629433659014" lon="8.200654016091315"><ele>180.0</ele><time>2026-04-12T10:27:17Z</time></trkpt><trkpt lat="45.1060007735643" lon="8.200295678297774"><ele>180.0</ele><time>2026-04-12T10:27:18Z</time></trkpt><trkpt lat="45.10572998403577" lon="8.199941475451093"><ele>181.0</ele><time>2026-04-12T10:27:19Z</time></trkpt><trkpt lat="45.10546314415445" lon="8.199591537580686"><ele>182.0</ele><time>2026-04-12T10:27:20Z</time></trkpt><trkpt lat="45.10519978276229" lon="8.199249040732843"><ele>182.5</ele><time>2026-04-12T10:27:21Z</time></trkpt><trkpt lat="45.10493734714459" lon="8.198908153669025"><ele>183.0</ele><time>2026-04-12T10:27:22Z</time></trkpt><trkpt lat="45.104673692003225" lon="8.19856801536958"><ele>183.0</ele><time>2026-04-12T10:27:23Z</time></trkpt><trkpt lat="45.10440808045481" lon="8.198228923857977"><ele>183.0</ele><time>2026-04-12T10:27:24Z</time></trkpt><trkpt lat="45.104148588502575" lon="8.197893989544024"><ele>184.0</ele><time>2026-04-12T10:27:25Z</time></trkpt><trkpt lat="45.1038894910449" lon="8.19755448587159"><ele>185.0</ele><time>2026-04-12T10:27:26Z</time></trkpt><trkpt lat="45.10363384943884" lon="8.197219780814862"><ele>185.0</ele><time>2026-04-12T10:27:27Z</time></trkpt><trkpt lat="45.103374529556945" lon="8.19688761954678"><ele>185.0</ele><time>2026-04-12T10:27:28Z</time></trkpt><trkpt lat="45.10311416268269" lon="8.196556138488354"><ele>183.5</ele><time>2026-04-12T10:27:29Z</time></trkpt><trkpt lat="45.10284659301988" lon="8.196215202552393"><ele>182.0</ele><time>2026-04-12T10:27:30Z</time></trkpt><trkpt lat="45.102593941125356" lon="8.195878313785725"><ele>184.0</ele><time>2026-04-12T10:27:31Z</time></trkpt><trkpt lat="45.10233322283978" lon="8.195543548126922"><ele>186.0</ele><time>2026-04-12T10:27:32Z</time></trkpt><trkpt lat="45.10207107253544" lon="8.195213357067171"><ele>186.0</ele><time>2026-04-12T10:27:33Z</time></trkpt><trkpt lat="45.101815636819055" lon="8.19488402627354"><ele>186.0</ele><time>2026-04-12T10:27:34Z</time></trkpt><trkpt lat="45.101558042774684" lon="8.194549580843196"><ele>185.5</ele><time>2026-04-12T10:27:34.999Z</time></trkpt><trkpt lat="45.10130466688694" lon="8.194214622197489"><ele>185.0</ele><time>2026-04-12T10:27:35.999Z</time></trkpt><trkpt lat="45.10105375136577" lon="8.19388785002958"><ele>185.0</ele><time>2026-04-12T10:27:36.999Z</time></trkpt><trkpt lat="45.10079894773925" lon="8.193558517231565"><ele>185.0</ele><time>2026-04-12T10:27:37.999Z</time></trkpt><trkpt lat="45.10054751666909" lon="8.193232587865317"><ele>185.0</ele><time>2026-04-12T10:27:38.999Z</time></trkpt><trkpt lat="45.10029413660966" lon="8.19290879368961"><ele>185.0</ele><time>2026-04-12T10:27:39.999Z</time></trkpt><trkpt lat="45.10004530378838" lon="8.192586019592069"><ele>186.5</ele><time>2026-04-12T10:27:40.999Z</time></trkpt><trkpt lat="45.09979237526713" lon="8.192260999102261"><ele>188.0</ele><time>2026-04-12T10:27:41.999Z</time></trkpt><trkpt lat="45.09954054190195" lon="8.191938619878913"><ele>188.0</ele><time>2026-04-12T10:27:42.999Z</time></trkpt><trkpt lat="45.09928646097487" lon="8.191611036585716"><ele>188.0</ele><time>2026-04-12T10:27:43.999Z</time></trkpt><trkpt lat="45.09903703318966" lon="8.191283707216485"><ele>188.0</ele><time>2026-04-12T10:27:44.999Z</time></trkpt><trkpt lat="45.09878481928174" lon="8.190955617239938"><ele>188.0</ele><time>2026-04-12T10:27:45.999Z</time></trkpt><trkpt lat="45.09853193238804" lon="8.190625517795462"><ele>188.0</ele><time>2026-04-12T10:27:46.999Z</time></trkpt><trkpt lat="45.09828106891856" lon="8.190301896967258"><ele>188.0</ele><time>2026-04-12T10:27:47.999Z</time></trkpt><trkpt lat="45.098026764302425" lon="8.189975317066144"><ele>189.5</ele><time>2026-04-12T10:27:48.999Z</time></trkpt><trkpt lat="45.09777562883227" lon="8.189649309524881"><ele>191.0</ele><time>2026-04-12T10:27:49.999Z</time></trkpt><trkpt lat="45.09752108313415" lon="8.189325311114963"><ele>191.0</ele><time>2026-04-12T10:27:50.999Z</time></trkpt><trkpt lat="45.09729809661176" lon="8.189037052063547"><ele>191.0</ele><time>2026-04-12T10:27:51.999Z</time></trkpt><trkpt lat="45.09702173613305" lon="8.188675554125481"><ele>191.0</ele><time>2026-04-12T10:27:52.999Z</time></trkpt><trkpt lat="45.09677389346695" lon="8.188352441538363"><ele>191.0</ele><time>2026-04-12T10:27:53.999Z</time></trkpt><trkpt lat="45.096522813436536" lon="8.188030841377168"><ele>190.0</ele><time>2026-04-12T10:27:54.999Z</time></trkpt><trkpt lat="45.09628452721989" lon="8.18771686200404"><ele>189.0</ele><time>2026-04-12T10:27:55.999Z</time></trkpt><trkpt lat="45.09605477524463" lon="8.187420788153492"><ele>191.0</ele><time>2026-04-12T10:27:56.999Z</time></trkpt><trkpt lat="45.095849894524896" lon="8.187154698217782"><ele>193.0</ele><time>2026-04-12T10:27:57.999Z</time></trkpt><trkpt lat="45.09566111319177" lon="8.186904380860046"><ele>193.0</ele><time>2026-04-12T10:27:58.999Z</time></trkpt><trkpt lat="45.09548517943432" lon="8.186675091305068"><ele>193.0</ele><time>2026-04-12T10:27:59.999Z</time></trkpt><trkpt lat="45.09532124218489" lon="8.186462262592203"><ele>192.66666666666666</ele><time>2026-04-12T10:28:00.999Z</time></trkpt><trkpt lat="45.09516472704447" lon="8.186259233213866"><ele>192.33333333333331</ele><time>2026-04-12T10:28:01.999Z</time></trkpt><trkpt lat="45.09501544769385" lon="8.186066496358828"><ele>192.0</ele><time>2026-04-12T10:28:02.999Z</time></trkpt><trkpt lat="45.09487327362409" lon="8.185884504485614"><ele>191.66666666666666</ele><time>2026-04-12T10:28:03.999Z</time></trkpt><trkpt lat="45.09474286283617" lon="8.185712145592975"><ele>191.33333333333331</ele><time>2026-04-12T10:28:04.999Z</time></trkpt><trkpt lat="45.09461233854971" lon="8.185538530425353"><ele>191.0</ele><time>2026-04-12T10:28:05.999Z</time></trkpt><trkpt lat="45.09447528087337" lon="8.185362808091792"><ele>191.0</ele><time>2026-04-12T10:28:06.999Z</time></trkpt><trkpt lat="45.09432909464699" lon="8.185185852584262"><ele>191.0</ele><time>2026-04-12T10:28:07.999Z</time></trkpt><trkpt lat="45.0941729326451" lon="8.184984626596849"><ele>191.0</ele><time>2026-04-12T10:28:08.998Z</time></trkpt><trkpt lat="45.09400788814289" lon="8.184772718442911"><ele>190.5</ele><time>2026-04-12T10:28:09.998Z</time></trkpt><trkpt lat="45.09382801462863" lon="8.184544249565873"><ele>190.0</ele><time>2026-04-12T10:28:10.998Z</time></trkpt><trkpt lat="45.093629898578776" lon="8.18428692566463"><ele>191.5</ele><time>2026-04-12T10:28:11.998Z</time></trkpt><trkpt lat="45.093413670778915" lon="8.184007236514878"><ele>193.0</ele><time>2026-04-12T10:28:12.998Z</time></trkpt><trkpt lat="45.09318719640006" lon="8.183705536607047"><ele>193.0</ele><time>2026-04-12T10:28:13.998Z</time></trkpt><trkpt lat="45.09294774479006" lon="8.183392411154355"><ele>193.0</ele><time>2026-04-12T10:28:14.998Z</time></trkpt><trkpt lat="45.092698185643485" lon="8.18307067532908"><ele>193.0</ele><time>2026-04-12T10:28:15.998Z</time></trkpt><trkpt lat="45.09244144860775" lon="8.182741883902638"><ele>193.0</ele><time>2026-04-12T10:28:16.998Z</time></trkpt><trkpt lat="45.09217260493803" lon="8.182425596548214"><ele>194.0</ele><time>2026-04-12T10:28:17.998Z</time></trkpt><trkpt lat="45.09191995783546" lon="8.18207717755274"><ele>195.0</ele><time>2026-04-12T10:28:18.998Z</time></trkpt><trkpt lat="45.09165430750838" lon="8.18174395245417"><ele>193.5</ele><time>2026-04-12T10:28:19.998Z</time></trkpt><trkpt lat="45.09138302464386" lon="8.181389930506656"><ele>192.0</ele><time>2026-04-12T10:28:20.998Z</time></trkpt><trkpt lat="45.091109331770134" lon="8.18102749186733"><ele>192.0</ele><time>2026-04-12T10:28:21.998Z</time></trkpt><trkpt lat="45.090853016324495" lon="8.180693329705415"><ele>192.0</ele><time>2026-04-12T10:28:22.998Z</time></trkpt><trkpt lat="45.09061931657463" lon="8.180395218139092"><ele>193.0</ele><time>2026-04-12T10:28:23.998Z</time></trkpt><trkpt lat="45.09040295376442" lon="8.180118580038544"><ele>194.0</ele><time>2026-04-12T10:28:24.998Z</time></trkpt><trkpt lat="45.090202034719624" lon="8.179856070389654"><ele>194.5</ele><time>2026-04-12T10:28:25.998Z</time></trkpt><trkpt lat="45.090014097802126" lon="8.179602873110499"><ele>195.0</ele><time>2026-04-12T10:28:26.998Z</time></trkpt><trkpt lat="45.08983267442197" lon="8.179363794978888"><ele>195.33333333333331</ele><time>2026-04-12T10:28:27.998Z</time></trkpt><trkpt lat="45.08966120363967" lon="8.179147647660562"><ele>195.66666666666666</ele><time>2026-04-12T10:28:28.998Z</time></trkpt><trkpt lat="45.089496971955846" lon="8.178948311666023"><ele>196.0</ele><time>2026-04-12T10:28:29.998Z</time></trkpt><trkpt lat="45.08934737034271" lon="8.17876545710456"><ele>196.0</ele><time>2026-04-12T10:28:30.998Z</time></trkpt><trkpt lat="45.08921319122015" lon="8.17858864411653"><ele>196.0</ele><time>2026-04-12T10:28:31.998Z</time></trkpt><trkpt lat="45.08909457183304" lon="8.178425859224925"><ele>196.0</ele><time>2026-04-12T10:28:32.998Z</time></trkpt><trkpt lat="45.088981687740386" lon="8.178273025265858"><ele>196.33333333333331</ele><time>2026-04-12T10:28:33.998Z</time></trkpt><trkpt lat="45.08887437825477" lon="8.178125889669174"><ele>196.66666666666669</ele><time>2026-04-12T10:28:34.998Z</time></trkpt><trkpt lat="45.08875340325668" lon="8.177971312762937"><ele>197.0</ele><time>2026-04-12T10:28:35.998Z</time></trkpt><trkpt lat="45.08861269205696" lon="8.177791614259881"><ele>197.0</ele><time>2026-04-12T10:28:36.998Z</time></trkpt><trkpt lat="45.088452598980396" lon="8.177585319970014"><ele>197.0</ele><time>2026-04-12T10:28:37.998Z</time></trkpt><trkpt lat="45.08827974473133" lon="8.177360531166544"><ele>197.66666666666669</ele><time>2026-04-12T10:28:38.998Z</time></trkpt><trkpt lat="45.08813077629204" lon="8.177169381053465"><ele>198.33333333333331</ele><time>2026-04-12T10:28:39.998Z</time></trkpt><trkpt lat="45.0880067602114" lon="8.177007237385592"><ele>199.0</ele><time>2026-04-12T10:28:40.998Z</time></trkpt><trkpt lat="45.08789066094861" lon="8.176857178863028"><ele>199.0</ele><time>2026-04-12T10:28:41.998Z</time></trkpt><trkpt lat="45.087766520862125" lon="8.176697452934727"><ele>199.0</ele><time>2026-04-12T10:28:42.998Z</time></trkpt><trkpt lat="45.087624237641414" lon="8.176512440560943"><ele>199.0</ele><time>2026-04-12T10:28:43.997Z</time></trkpt><trkpt lat="45.08747770956052" lon="8.176297600568269"><ele>199.0</ele><time>2026-04-12T10:28:44.997Z</time></trkpt><trkpt lat="45.08732247931723" lon="8.176114664191235"><ele>199.0</ele><time>2026-04-12T10:28:45.997Z</time></trkpt><trkpt lat="45.08720153612722" lon="8.175945529664487"><ele>199.0</ele><time>2026-04-12T10:28:46.997Z</time></trkpt><trkpt lat="45.08709306757434" lon="8.17580046587641"><ele>200.66666666666666</ele><time>2026-04-12T10:28:47.997Z</time></trkpt><trkpt lat="45.08697450830803" lon="8.175643898702113"><ele>202.33333333333331</ele><time>2026-04-12T10:28:48.997Z</time></trkpt><trkpt lat="45.08680204495165" lon="8.1754511767322"><ele>204.0</ele><time>2026-04-12T10:28:49.997Z</time></trkpt><trkpt lat="45.08663112491861" lon="8.175220515804163"><ele>202.0</ele><time>2026-04-12T10:28:50.997Z</time></trkpt><trkpt lat="45.08643408568557" lon="8.174947610998956"><ele>200.0</ele><time>2026-04-12T10:28:51.997Z</time></trkpt><trkpt lat="45.086214863755316" lon="8.17466779940235"><ele>200.0</ele><time>2026-04-12T10:28:52.997Z</time></trkpt><trkpt lat="45.08599740315223" lon="8.174390661050152"><ele>200.0</ele><time>2026-04-12T10:28:53.997Z</time></trkpt><trkpt lat="45.08577376774493" lon="8.174088127980415"><ele>200.5</ele><time>2026-04-12T10:28:54.997Z</time></trkpt><trkpt lat="45.085557809543886" lon="8.173739399879189"><ele>201.0</ele><time>2026-04-12T10:28:55.997Z</time></trkpt><trkpt lat="45.08531326813898" lon="8.173388265767704"><ele>200.5</ele><time>2026-04-12T10:28:57Z</time></trkpt><trkpt lat="45.085092473936626" lon="8.1730200277238"><ele>200.0</ele><time>2026-04-12T10:28:58.001Z</time></trkpt><trkpt lat="45.08488051322627" lon="8.172647377563752"><ele>199.5</ele><time>2026-04-12T10:28:59Z</time></trkpt><trkpt lat="45.084661697761774" lon="8.172257666499602"><ele>199.0</ele><time>2026-04-12T10:29:00Z</time></trkpt><trkpt lat="45.08444854957042" lon="8.171859469632215"><ele>198.5</ele><time>2026-04-12T10:29:01Z</time></trkpt><trkpt lat="45.084238678858185" lon="8.171449434997983"><ele>198.0</ele><time>2026-04-12T10:29:02Z</time></trkpt><trkpt lat="45.08403507653766" lon="8.171028566078315"><ele>199.0</ele><time>2026-04-12T10:29:03Z</time></trkpt><trkpt lat="45.08382992153482" lon="8.170569058235703"><ele>200.0</ele><time>2026-04-12T10:29:04Z</time></trkpt><trkpt lat="45.0836338413879" lon="8.170107683210336"><ele>201.0</ele><time>2026-04-12T10:29:05Z</time></trkpt><trkpt lat="45.083465829429535" lon="8.169688302742573"><ele>202.0</ele><time>2026-04-12T10:29:06Z</time></trkpt><trkpt lat="45.08330351242017" lon="8.169261543213352"><ele>203.0</ele><time>2026-04-12T10:29:07Z</time></trkpt><trkpt lat="45.083145690601704" lon="8.168824086510211"><ele>204.0</ele><time>2026-04-12T10:29:08Z</time></trkpt><trkpt lat="45.08299439222281" lon="8.1683699148077"><ele>204.0</ele><time>2026-04-12T10:29:09Z</time></trkpt><trkpt lat="45.08285075940119" lon="8.16789714679754"><ele>204.0</ele><time>2026-04-12T10:29:10Z</time></trkpt><trkpt lat="45.08271218874645" lon="8.167408187479062"><ele>205.0</ele><time>2026-04-12T10:29:11Z</time></trkpt><trkpt lat="45.08257414162607" lon="8.166903704396665"><ele>206.0</ele><time>2026-04-12T10:29:12Z</time></trkpt><trkpt lat="45.08244802549832" lon="8.166419001894571"><ele>206.5</ele><time>2026-04-12T10:29:13Z</time></trkpt><trkpt lat="45.082336790884234" lon="8.165982064772484"><ele>207.0</ele><time>2026-04-12T10:29:14Z</time></trkpt><trkpt lat="45.082230238002566" lon="8.165557077306952"><ele>207.0</ele><time>2026-04-12T10:29:15Z</time></trkpt><trkpt lat="45.08211051663191" lon="8.165108958997497"><ele>207.0</ele><time>2026-04-12T10:29:16Z</time></trkpt><trkpt lat="45.08199234630477" lon="8.16465962479191"><ele>206.5</ele><time>2026-04-12T10:29:17Z</time></trkpt><trkpt lat="45.08187015819459" lon="8.164199502811897"><ele>206.0</ele><time>2026-04-12T10:29:18Z</time></trkpt><trkpt lat="45.081745112772964" lon="8.163721692028693"><ele>206.0</ele><time>2026-04-12T10:29:19Z</time></trkpt><trkpt lat="45.08161647327591" lon="8.163224093035168"><ele>206.0</ele><time>2026-04-12T10:29:20Z</time></trkpt><trkpt lat="45.08148777306466" lon="8.162719985302619"><ele>206.5</ele><time>2026-04-12T10:29:21Z</time></trkpt><trkpt lat="45.08136270830917" lon="8.16221933768076"><ele>207.0</ele><time>2026-04-12T10:29:22Z</time></trkpt><trkpt lat="45.081250848115005" lon="8.161762436906749"><ele>206.5</ele><time>2026-04-12T10:29:23Z</time></trkpt><trkpt lat="45.08114304840216" lon="8.161341000032564"><ele>206.0</ele><time>2026-04-12T10:29:24Z</time></trkpt><trkpt lat="45.08103711084089" lon="8.160936560038586"><ele>206.0</ele><time>2026-04-12T10:29:25Z</time></trkpt><trkpt lat="45.08094036325416" lon="8.160559568925065"><ele>206.0</ele><time>2026-04-12T10:29:26Z</time></trkpt><trkpt lat="45.08085116289383" lon="8.16020797695738"><ele>206.0</ele><time>2026-04-12T10:29:27Z</time></trkpt><trkpt lat="45.080785763074054" lon="8.159886909734427"><ele>206.0</ele><time>2026-04-12T10:29:28Z</time></trkpt><trkpt lat="45.080741527152" lon="8.15954810700422"><ele>206.0</ele><time>2026-04-12T10:29:29Z</time></trkpt><trkpt lat="45.08072114619358" lon="8.15917762236619"><ele>206.0</ele><time>2026-04-12T10:29:30Z</time></trkpt><trkpt lat="45.08071854366127" lon="8.158815255312494"><ele>206.0</ele><time>2026-04-12T10:29:31Z</time></trkpt><trkpt lat="45.080736791579135" lon="8.15843931445033"><ele>206.0</ele><time>2026-04-12T10:29:32Z</time></trkpt><trkpt lat="45.08079449725707" lon="8.158066611823827"><ele>209.0</ele><time>2026-04-12T10:29:32.999Z</time></trkpt><trkpt lat="45.08087794510336" lon="8.157671941092552"><ele>212.0</ele><time>2026-04-12T10:29:33.999Z</time></trkpt><trkpt lat="45.08099037009792" lon="8.157268519303111"><ele>212.0</ele><time>2026-04-12T10:29:34.999Z</time></trkpt><trkpt lat="45.08112633130632" lon="8.156856293886728"><ele>212.0</ele><time>2026-04-12T10:29:35.999Z</time></trkpt><trkpt lat="45.081272209455335" lon="8.156430518251529"><ele>211.5</ele><time>2026-04-12T10:29:36.999Z</time></trkpt><trkpt lat="45.08141666814717" lon="8.15597987667804"><ele>211.0</ele><time>2026-04-12T10:29:37.999Z</time></trkpt><trkpt lat="45.081561608206954" lon="8.155513533661328"><ele>211.0</ele><time>2026-04-12T10:29:38.999Z</time></trkpt><trkpt lat="45.081706659792" lon="8.155069582462934"><ele>211.0</ele><time>2026-04-12T10:29:39.999Z</time></trkpt><trkpt lat="45.08184179325617" lon="8.15467465522362"><ele>211.0</ele><time>2026-04-12T10:29:40.999Z</time></trkpt><trkpt lat="45.081966831210906" lon="8.154309847079919"><ele>211.0</ele><time>2026-04-12T10:29:41.999Z</time></trkpt><trkpt lat="45.08208069442684" lon="8.15397704067541"><ele>211.5</ele><time>2026-04-12T10:29:42.999Z</time></trkpt><trkpt lat="45.082201097305514" lon="8.153666263767462"><ele>212.0</ele><time>2026-04-12T10:29:43.999Z</time></trkpt><trkpt lat="45.082327375629944" lon="8.153384518411691"><ele>211.33333333333334</ele><time>2026-04-12T10:29:44.999Z</time></trkpt><trkpt lat="45.08245887511413" lon="8.153140649496326"><ele>210.66666666666669</ele><time>2026-04-12T10:29:45.999Z</time></trkpt><trkpt lat="45.0826171461869" lon="8.152913077646438"><ele>210.0</ele><time>2026-04-12T10:29:46.999Z</time></trkpt><trkpt lat="45.082799243306305" lon="8.152705236519958"><ele>210.0</ele><time>2026-04-12T10:29:47.999Z</time></trkpt><trkpt lat="45.082974583338554" lon="8.152549872816458"><ele>210.0</ele><time>2026-04-12T10:29:48.999Z</time></trkpt><trkpt lat="45.083137320738494" lon="8.152411151710595"><ele>210.0</ele><time>2026-04-12T10:29:49.999Z</time></trkpt><trkpt lat="45.083323557148404" lon="8.152267651207088"><ele>211.5</ele><time>2026-04-12T10:29:50.999Z</time></trkpt><trkpt lat="45.083539336641884" lon="8.152091325690666"><ele>213.0</ele><time>2026-04-12T10:29:51.999Z</time></trkpt><trkpt lat="45.08377324690034" lon="8.15194673901385"><ele>213.0</ele><time>2026-04-12T10:29:52.999Z</time></trkpt><trkpt lat="45.08403409302682" lon="8.15178319453683"><ele>213.0</ele><time>2026-04-12T10:29:53.999Z</time></trkpt><trkpt lat="45.08430125374129" lon="8.151584471568496"><ele>212.5</ele><time>2026-04-12T10:29:54.999Z</time></trkpt><trkpt lat="45.0845434495595" lon="8.15140402185818"><ele>212.0</ele><time>2026-04-12T10:29:55.999Z</time></trkpt><trkpt lat="45.0847565225654" lon="8.151242456306791"><ele>213.33333333333334</ele><time>2026-04-12T10:29:56.999Z</time></trkpt><trkpt lat="45.084955899427236" lon="8.151092525463746"><ele>214.66666666666669</ele><time>2026-04-12T10:29:57.999Z</time></trkpt><trkpt lat="45.085144249748126" lon="8.150963122715048"><ele>216.0</ele><time>2026-04-12T10:29:58.999Z</time></trkpt><trkpt lat="45.08532132166035" lon="8.150836967313827"><ele>216.0</ele><time>2026-04-12T10:29:59.999Z</time></trkpt><trkpt lat="45.08547918668775" lon="8.150722823662335"><ele>216.0</ele><time>2026-04-12T10:30:00.999Z</time></trkpt><trkpt lat="45.08562361396039" lon="8.15060952049089"><ele>216.0</ele><time>2026-04-12T10:30:01.999Z</time></trkpt><trkpt lat="45.085759959211224" lon="8.15051460307237"><ele>216.0</ele><time>2026-04-12T10:30:02.999Z</time></trkpt><trkpt lat="45.08589074917995" lon="8.150429682426296"><ele>216.0</ele><time>2026-04-12T10:30:03.999Z</time></trkpt><trkpt lat="45.086020263286" lon="8.150333461226696"><ele>216.0</ele><time>2026-04-12T10:30:04.999Z</time></trkpt><trkpt lat="45.08614499118503" lon="8.150232184709266"><ele>216.0</ele><time>2026-04-12T10:30:05.998Z</time></trkpt><trkpt lat="45.08626325348327" lon="8.150128910249602"><ele>216.0</ele><time>2026-04-12T10:30:06.998Z</time></trkpt><trkpt lat="45.08637214483275" lon="8.150028066246778"><ele>216.0</ele><time>2026-04-12T10:30:07.998Z</time></trkpt><trkpt lat="45.086482066160286" lon="8.149922625421558"><ele>216.0</ele><time>2026-04-12T10:30:08.998Z</time></trkpt><trkpt lat="45.08658032683597" lon="8.149813639352615"><ele>216.0</ele><time>2026-04-12T10:30:09.998Z</time></trkpt><trkpt lat="45.08667178041047" lon="8.149704111487575"><ele>216.0</ele><time>2026-04-12T10:30:10.998Z</time></trkpt><trkpt lat="45.086752582173006" lon="8.14960416140701"><ele>216.00000000000003</ele><time>2026-04-12T10:30:11.998Z</time></trkpt><trkpt lat="45.08682612209526" lon="8.149510600754256"><ele>216.00000000000003</ele><time>2026-04-12T10:30:12.998Z</time></trkpt><trkpt lat="45.08689569410557" lon="8.149416747866372"><ele>216.0</ele><time>2026-04-12T10:30:13.998Z</time></trkpt><trkpt lat="45.086958193518" lon="8.149327262723716"><ele>216.0</ele><time>2026-04-12T10:30:14.998Z</time></trkpt><trkpt lat="45.08701357061386" lon="8.149239366994122"><ele>216.0</ele><time>2026-04-12T10:30:15.998Z</time></trkpt><trkpt lat="45.08706546126971" lon="8.149159144023686"><ele>216.00000000000003</ele><time>2026-04-12T10:30:16.998Z</time></trkpt><trkpt lat="45.087124437026276" lon="8.14906040759631"><ele>216.00000000000003</ele><time>2026-04-12T10:30:17.998Z</time></trkpt><trkpt lat="45.0871862571498" lon="8.148947931948094"><ele>216.0</ele><time>2026-04-12T10:30:18.998Z</time></trkpt><trkpt lat="45.08724718979436" lon="8.148818135822964"><ele>216.0</ele><time>2026-04-12T10:30:19.998Z</time></trkpt><trkpt lat="45.08731220493034" lon="8.148675581037725"><ele>216.0</ele><time>2026-04-12T10:30:20.998Z</time></trkpt><trkpt lat="45.08737847724498" lon="8.148515223897515"><ele>216.0</ele><time>2026-04-12T10:30:21.998Z</time></trkpt><trkpt lat="45.08746331741678" lon="8.148354223965038"><ele>216.0</ele><time>2026-04-12T10:30:22.998Z</time></trkpt><trkpt lat="45.087528327064575" lon="8.148159980243404"><ele>216.0</ele><time>2026-04-12T10:30:23.998Z</time></trkpt><trkpt lat="45.0876242878306" lon="8.147949454714155"><ele>216.33333333333331</ele><time>2026-04-12T10:30:24.998Z</time></trkpt><trkpt lat="45.087714767203124" lon="8.147730444001088"><ele>216.66666666666666</ele><time>2026-04-12T10:30:25.998Z</time></trkpt><trkpt lat="45.08782118816711" lon="8.147496919965496"><ele>217.0</ele><time>2026-04-12T10:30:26.998Z</time></trkpt><trkpt lat="45.087926353585495" lon="8.147262346939778"><ele>216.66666666666666</ele><time>2026-04-12T10:30:27.998Z</time></trkpt><trkpt lat="45.08805743399113" lon="8.147042353493976"><ele>216.33333333333331</ele><time>2026-04-12T10:30:28.998Z</time></trkpt><trkpt lat="45.088168266121826" lon="8.146795736321565"><ele>216.0</ele><time>2026-04-12T10:30:29.998Z</time></trkpt><trkpt lat="45.08828851445565" lon="8.146531287937925"><ele>216.0</ele><time>2026-04-12T10:30:30.998Z</time></trkpt><trkpt lat="45.08842270228304" lon="8.146236471292076"><ele>216.0</ele><time>2026-04-12T10:30:31.998Z</time></trkpt><trkpt lat="45.08856261906867" lon="8.145933537486924"><ele>217.0</ele><time>2026-04-12T10:30:32.998Z</time></trkpt><trkpt lat="45.0887115005343" lon="8.145624336299504"><ele>218.0</ele><time>2026-04-12T10:30:33.998Z</time></trkpt><trkpt lat="45.08885446923315" lon="8.145337439731083"><ele>218.0</ele><time>2026-04-12T10:30:34.998Z</time></trkpt><trkpt lat="45.08901221907275" lon="8.145061922027072"><ele>218.0</ele><time>2026-04-12T10:30:35.998Z</time></trkpt><trkpt lat="45.08916871191691" lon="8.144804537299462"><ele>217.33333333333334</ele><time>2026-04-12T10:30:36.998Z</time></trkpt><trkpt lat="45.089316161738736" lon="8.144574927517093"><ele>216.66666666666669</ele><time>2026-04-12T10:30:37.998Z</time></trkpt><trkpt lat="45.08945481864569" lon="8.144370536620828"><ele>216.0</ele><time>2026-04-12T10:30:38.998Z</time></trkpt><trkpt lat="45.089562408848096" lon="8.14422306987459"><ele>216.0</ele><time>2026-04-12T10:30:39.997Z</time></trkpt><trkpt lat="45.08964543311181" lon="8.144088066100599"><ele>216.0</ele><time>2026-04-12T10:30:40.997Z</time></trkpt><trkpt lat="45.08974398466722" lon="8.143974090019702"><ele>216.0</ele><time>2026-04-12T10:30:41.997Z</time></trkpt><trkpt lat="45.08983676013061" lon="8.143869390888437"><ele>216.0</ele><time>2026-04-12T10:30:42.997Z</time></trkpt><trkpt lat="45.08991816313179" lon="8.143762232725802"><ele>217.0</ele><time>2026-04-12T10:30:43.997Z</time></trkpt><trkpt lat="45.09000077609999" lon="8.143649632650176"><ele>218.0</ele><time>2026-04-12T10:30:44.997Z</time></trkpt><trkpt lat="45.09009920200935" lon="8.143520890332931"><ele>219.0</ele><time>2026-04-12T10:30:45.997Z</time></trkpt><trkpt lat="45.09021821401048" lon="8.143377281668451"><ele>220.0</ele><time>2026-04-12T10:30:46.997Z</time></trkpt><trkpt lat="45.09035932364291" lon="8.143221070529142"><ele>220.0</ele><time>2026-04-12T10:30:47.997Z</time></trkpt><trkpt lat="45.090521122015524" lon="8.143020090963187"><ele>220.0</ele><time>2026-04-12T10:30:48.997Z</time></trkpt><trkpt lat="45.09070415031189" lon="8.142792952713865"><ele>221.0</ele><time>2026-04-12T10:30:49.997Z</time></trkpt><trkpt lat="45.09090858560392" lon="8.142539248383166"><ele>222.0</ele><time>2026-04-12T10:30:50.997Z</time></trkpt><trkpt lat="45.09111261386709" lon="8.142268247400736"><ele>222.0</ele><time>2026-04-12T10:30:51.997Z</time></trkpt><trkpt lat="45.09130276323285" lon="8.142037053718772"><ele>222.0</ele><time>2026-04-12T10:30:52.997Z</time></trkpt><trkpt lat="45.09147090775937" lon="8.141824600568889"><ele>222.33333333333331</ele><time>2026-04-12T10:30:53.997Z</time></trkpt><trkpt lat="45.09161432539533" lon="8.14162299856343"><ele>222.66666666666666</ele><time>2026-04-12T10:30:54.997Z</time></trkpt><trkpt lat="45.09173537783176" lon="8.14141697199161"><ele>223.0</ele><time>2026-04-12T10:30:55.997Z</time></trkpt><trkpt lat="45.091840371961254" lon="8.141188269222555"><ele>223.0</ele><time>2026-04-12T10:30:56.997Z</time></trkpt><trkpt lat="45.09193054494339" lon="8.140947056353426"><ele>223.0</ele><time>2026-04-12T10:30:57.997Z</time></trkpt><trkpt lat="45.092002629179554" lon="8.140675823691748"><ele>223.0</ele><time>2026-04-12T10:30:58.997Z</time></trkpt><trkpt lat="45.092051323098964" lon="8.14038648132408"><ele>223.0</ele><time>2026-04-12T10:30:59.997Z</time></trkpt><trkpt lat="45.092065963926316" lon="8.140069828396483"><ele>223.0</ele><time>2026-04-12T10:31:00.997Z</time></trkpt><trkpt lat="45.092050334123044" lon="8.139724031519867"><ele>223.0</ele><time>2026-04-12T10:31:01.997Z</time></trkpt><trkpt lat="45.09204198726514" lon="8.1393428992565"><ele>223.0</ele><time>2026-04-12T10:31:03Z</time></trkpt><trkpt lat="45.092016406588016" lon="8.138948443491007"><ele>223.0</ele><time>2026-04-12T10:31:04Z</time></trkpt><trkpt lat="45.0919903909851" lon="8.138547622084651"><ele>223.0</ele><time>2026-04-12T10:31:05Z</time></trkpt><trkpt lat="45.09196754697797" lon="8.138197423455477"><ele>222.5</ele><time>2026-04-12T10:31:06Z</time></trkpt><trkpt lat="45.09194566491069" lon="8.13786197137768"><ele>222.0</ele><time>2026-04-12T10:31:07Z</time></trkpt><trkpt lat="45.091923596441" lon="8.137525794502713"><ele>222.33333333333331</ele><time>2026-04-12T10:31:08Z</time></trkpt><trkpt lat="45.09189245193974" lon="8.137221687651268"><ele>222.66666666666666</ele><time>2026-04-12T10:31:09Z</time></trkpt><trkpt lat="45.09184154650648" lon="8.13693473300768"><ele>223.0</ele><time>2026-04-12T10:31:10Z</time></trkpt><trkpt lat="45.09176337805812" lon="8.136651813556197"><ele>225.5</ele><time>2026-04-12T10:31:11Z</time></trkpt><trkpt lat="45.09166040016847" lon="8.136377970084702"><ele>228.0</ele><time>2026-04-12T10:31:12Z</time></trkpt><trkpt lat="45.09153034189039" lon="8.136106086666018"><ele>228.0</ele><time>2026-04-12T10:31:13Z</time></trkpt><trkpt lat="45.09139220803223" lon="8.135885686291555"><ele>228.0</ele><time>2026-04-12T10:31:14Z</time></trkpt><trkpt lat="45.091250530809766" lon="8.13569809034878"><ele>228.0</ele><time>2026-04-12T10:31:15Z</time></trkpt><trkpt lat="45.091106803776135" lon="8.135547441535781"><ele>227.0</ele><time>2026-04-12T10:31:16Z</time></trkpt><trkpt lat="45.09098627051526" lon="8.13546649143095"><ele>226.0</ele><time>2026-04-12T10:31:17Z</time></trkpt><trkpt lat="45.09088491840482" lon="8.135348038283633"><ele>225.0</ele><time>2026-04-12T10:31:18Z</time></trkpt><trkpt lat="45.09079192483719" lon="8.135264836437509"><ele>224.0</ele><time>2026-04-12T10:31:19Z</time></trkpt><trkpt lat="45.09071724998408" lon="8.135222415480271"><ele>224.0</ele><time>2026-04-12T10:31:20Z</time></trkpt><trkpt lat="45.090664854869495" lon="8.135111694892474"><ele>224.0</ele><time>2026-04-12T10:31:22Z</time></trkpt><trkpt lat="45.09074331656169" lon="8.135008974276603"><ele>224.0</ele><time>2026-04-12T10:31:24Z</time></trkpt><trkpt lat="45.090778783180546" lon="8.134813012169678"><ele>224.0</ele><time>2026-04-12T10:31:26Z</time></trkpt><trkpt lat="45.090773057358476" lon="8.134661127607966"><ele>226.2</ele><time>2026-04-12T10:31:27Z</time></trkpt><trkpt lat="45.09077158117689" lon="8.134502816904826"><ele>228.39999999999998</ele><time>2026-04-12T10:31:28Z</time></trkpt><trkpt lat="45.0907864987072" lon="8.134382647048103"><ele>230.6</ele><time>2026-04-12T10:31:29Z</time></trkpt><trkpt lat="45.090824742706225" lon="8.134260023961971"><ele>232.8</ele><time>2026-04-12T10:31:30Z</time></trkpt><trkpt lat="45.090880188355484" lon="8.134138071261141"><ele>235.0</ele><time>2026-04-12T10:31:31Z</time></trkpt><trkpt lat="45.09093652371177" lon="8.134023723553671"><ele>235.25</ele><time>2026-04-12T10:31:32Z</time></trkpt><trkpt lat="45.09104551104025" lon="8.133974159177829"><ele>235.5</ele><time>2026-04-12T10:31:33Z</time></trkpt><trkpt lat="45.09116753200171" lon="8.133883717459053"><ele>235.75</ele><time>2026-04-12T10:31:34Z</time></trkpt><trkpt lat="45.09132287911743" lon="8.133801580215762"><ele>236.0</ele><time>2026-04-12T10:31:35Z</time></trkpt><trkpt lat="45.09143940783266" lon="8.13372666612908"><ele>236.0</ele><time>2026-04-12T10:31:36Z</time></trkpt><trkpt lat="45.09155103617345" lon="8.133644718313368"><ele>236.0</ele><time>2026-04-12T10:31:36.999Z</time></trkpt><trkpt lat="45.091672021598015" lon="8.133584718765562"><ele>236.0</ele><time>2026-04-12T10:31:37.999Z</time></trkpt><trkpt lat="45.09179761752959" lon="8.1335578447462"><ele>236.0</ele><time>2026-04-12T10:31:38.999Z</time></trkpt><trkpt lat="45.091943503601755" lon="8.133570450408868"><ele>241.66666666666669</ele><time>2026-04-12T10:31:39.999Z</time></trkpt><trkpt lat="45.09212134257046" lon="8.13360645647759"><ele>247.33333333333331</ele><time>2026-04-12T10:31:40.999Z</time></trkpt><trkpt lat="45.09229152118669" lon="8.13363665219316"><ele>253.0</ele><time>2026-04-12T10:31:41.999Z</time></trkpt><trkpt lat="45.092429152888315" lon="8.133665856630573"><ele>256.75</ele><time>2026-04-12T10:31:42.999Z</time></trkpt><trkpt lat="45.09256518059945" lon="8.133687495340537"><ele>260.5</ele><time>2026-04-12T10:31:43.999Z</time></trkpt><trkpt lat="45.092699721474645" lon="8.133697317994178"><ele>264.25</ele><time>2026-04-12T10:31:44.999Z</time></trkpt><trkpt lat="45.092843694127815" lon="8.133663964851165"><ele>268.0</ele><time>2026-04-12T10:31:45.999Z</time></trkpt><trkpt lat="45.09301282151877" lon="8.133600056280937"><ele>268.0</ele><time>2026-04-12T10:31:46.999Z</time></trkpt><trkpt lat="45.09318251540182" lon="8.133557659093832"><ele>268.0</ele><time>2026-04-12T10:31:47.999Z</time></trkpt><trkpt lat="45.09334503365516" lon="8.133557595720841"><ele>268.0</ele><time>2026-04-12T10:31:48.999Z</time></trkpt><trkpt lat="45.09347509474927" lon="8.133569046439082"><ele>270.8</ele><time>2026-04-12T10:31:49.999Z</time></trkpt><trkpt lat="45.09356554187198" lon="8.133596236161992"><ele>273.6</ele><time>2026-04-12T10:31:50.999Z</time></trkpt><trkpt lat="45.093622900151246" lon="8.133647534730363"><ele>276.4</ele><time>2026-04-12T10:31:51.999Z</time></trkpt><trkpt lat="45.093643359875216" lon="8.133775694846832"><ele>279.2</ele><time>2026-04-12T10:31:53.999Z</time></trkpt><trkpt lat="45.09349666412778" lon="8.133811906031447"><ele>282.0</ele><time>2026-04-12T10:31:55.999Z</time></trkpt><trkpt lat="45.0933952340348" lon="8.13388895422904"><ele>282.0</ele><time>2026-04-12T10:31:56.999Z</time></trkpt><trkpt lat="45.09329696484261" lon="8.134007605984113"><ele>282.0</ele><time>2026-04-12T10:31:57.999Z</time></trkpt><trkpt lat="45.093166327138306" lon="8.134064610206119"><ele>282.0</ele><time>2026-04-12T10:31:58.999Z</time></trkpt><trkpt lat="45.09301940060524" lon="8.134148121304362"><ele>282.0</ele><time>2026-04-12T10:31:59.999Z</time></trkpt><trkpt lat="45.09286125000238" lon="8.13420797499468"><ele>281.0</ele><time>2026-04-12T10:32:00.999Z</time></trkpt><trkpt lat="45.092721830982065" lon="8.134273263487557"><ele>280.0</ele><time>2026-04-12T10:32:01.999Z</time></trkpt><trkpt lat="45.09261537790272" lon="8.134348543477708"><ele>279.0</ele><time>2026-04-12T10:32:02.999Z</time></trkpt><trkpt lat="45.09253144204271" lon="8.134425706134136"><ele>278.0</ele><time>2026-04-12T10:32:03.999Z</time></trkpt><trkpt lat="45.09250976319994" lon="8.134580808559035"><ele>278.0</ele><time>2026-04-12T10:32:05.999Z</time></trkpt><trkpt lat="45.092530250739905" lon="8.134672520887513"><ele>278.0</ele><time>2026-04-12T10:32:06.999Z</time></trkpt><trkpt lat="45.092612228885024" lon="8.134770750753127"><ele>278.0</ele><time>2026-04-12T10:32:07.999Z</time></trkpt><trkpt lat="45.0927580071412" lon="8.13480349905426"><ele>278.0</ele><time>2026-04-12T10:32:08.999Z</time></trkpt><trkpt lat="45.09289030962982" lon="8.13473440704958"><ele>278.0</ele><time>2026-04-12T10:32:09.998Z</time></trkpt><trkpt lat="45.0930220741762" lon="8.134691095550522"><ele>278.0</ele><time>2026-04-12T10:32:10.998Z</time></trkpt><trkpt lat="45.09318540964294" lon="8.134656561079233"><ele>278.0</ele><time>2026-04-12T10:32:11.998Z</time></trkpt><trkpt lat="45.093370160549554" lon="8.13463997104293"><ele>281.6666666666667</ele><time>2026-04-12T10:32:12.998Z</time></trkpt><trkpt lat="45.093570882465784" lon="8.134626195918523"><ele>285.3333333333333</ele><time>2026-04-12T10:32:13.998Z</time></trkpt><trkpt lat="45.09379755938462" lon="8.134595717466201"><ele>289.0</ele><time>2026-04-12T10:32:14.998Z</time></trkpt><trkpt lat="45.094041815330336" lon="8.134550555718716"><ele>294.66666666666663</ele><time>2026-04-12T10:32:15.998Z</time></trkpt><trkpt lat="45.094245141985326" lon="8.134516778777868"><ele>300.3333333333333</ele><time>2026-04-12T10:32:16.998Z</time></trkpt><trkpt lat="45.09442117266152" lon="8.134487581179116"><ele>306.0</ele><time>2026-04-12T10:32:17.998Z</time></trkpt><trkpt lat="45.09457772220444" lon="8.13446494721305"><ele>306.0</ele><time>2026-04-12T10:32:18.998Z</time></trkpt><trkpt lat="45.09471386707525" lon="8.134446866851373"><ele>306.0</ele><time>2026-04-12T10:32:19.998Z</time></trkpt><trkpt lat="45.094824041214004" lon="8.134418268795246"><ele>306.0</ele><time>2026-04-12T10:32:20.998Z</time></trkpt><trkpt lat="45.09489628599004" lon="8.134402434128114"><ele>306.0</ele><time>2026-04-12T10:32:21.998Z</time></trkpt><trkpt lat="45.09497579063325" lon="8.134397872774555"><ele>306.0</ele><time>2026-04-12T10:32:23.998Z</time></trkpt><trkpt lat="45.09489215253467" lon="8.134414175958247"><ele>306.0</ele><time>2026-04-12T10:32:28.998Z</time></trkpt><trkpt lat="45.09478164782866" lon="8.134531777368167"><ele>306.0</ele><time>2026-04-12T10:32:29.998Z</time></trkpt><trkpt lat="45.09469322147775" lon="8.134589914381221"><ele>306.0</ele><time>2026-04-12T10:32:30.998Z</time></trkpt><trkpt lat="45.09463889084369" lon="8.134702626353166"><ele>306.0</ele><time>2026-04-12T10:32:55.997Z</time></trkpt><trkpt lat="45.094625448973204" lon="8.134800934332151"><ele>306.0</ele><time>2026-04-12T10:32:58.997Z</time></trkpt><trkpt lat="45.09461091018604" lon="8.134915019516033"><ele>315.0</ele><time>2026-04-12T10:34:54.997Z</time></trkpt></trkseg></trk></gpx>